<?xml version="1.0" encoding="UTF-8" standalone="no" ?>
<gpx xmlns="http://www.topografix.com/GPX/1/1" xmlns:xsi="http://www.w3.org/2001/XMLSchema-instance" xsi:schemaLocation="http://www.topografix.com/GPX/1/1 http://www.topografix.com/GPX/1/1/gpx.xsd" version="1.1" creator="VisuGPX - https://www.visugpx.com">
  <metadata>
    <name>Rochers de Miéjour</name>
    <desc><![CDATA[ROCHERS DE MIÉJOUR : Beau tour avec comme d'habitude un manque de neige. Montée pat le vallon de Claous. Traversée dans le vallon de l'Infernet par un petit couloir étroit bien technique ]]></desc>
  </metadata>
  <trk>
    <name><![CDATA[HAUTE UBAYE J5]]></name>
    <desc><![CDATA[ROCHERS DE MIÉJOUR : Beau tour avec comme d'habitude un manque de neige. Montée pat le vallon de Claous. Traversée dans le vallon de l'Infernet par un petit couloir étroit bien technique ]]></desc>
    <trkseg>
      <trkpt lat="44.52682" lon="6.71748">
        <ele>1725</ele>
        <time>2022-03-10T08:14:45.000Z</time>
      </trkpt>
      <trkpt lat="44.52681" lon="6.71742">
        <ele>1725.1999511719</ele>
        <time>2022-03-10T08:14:55.000Z</time>
      </trkpt>
      <trkpt lat="44.52679" lon="6.71734">
        <ele>1725</ele>
        <time>2022-03-10T08:14:59.000Z</time>
      </trkpt>
      <trkpt lat="44.52679" lon="6.71724">
        <ele>1724.5999755859</ele>
        <time>2022-03-10T08:15:04.000Z</time>
      </trkpt>
      <trkpt lat="44.52679" lon="6.71719">
        <ele>1724.4000244141</ele>
        <time>2022-03-10T08:15:08.000Z</time>
      </trkpt>
      <trkpt lat="44.52677" lon="6.71703">
        <ele>1724</ele>
        <time>2022-03-10T08:15:18.000Z</time>
      </trkpt>
      <trkpt lat="44.52678" lon="6.71695">
        <ele>1723.8000488281</ele>
        <time>2022-03-10T08:15:23.000Z</time>
      </trkpt>
      <trkpt lat="44.52678" lon="6.71683">
        <ele>1723.5999755859</ele>
        <time>2022-03-10T08:15:32.000Z</time>
      </trkpt>
      <trkpt lat="44.52676" lon="6.71668">
        <ele>1723.5999755859</ele>
        <time>2022-03-10T08:15:41.000Z</time>
      </trkpt>
      <trkpt lat="44.52675" lon="6.71653">
        <ele>1723.8000488281</ele>
        <time>2022-03-10T08:15:52.000Z</time>
      </trkpt>
      <trkpt lat="44.52675" lon="6.71648">
        <ele>1723.8000488281</ele>
        <time>2022-03-10T08:15:55.000Z</time>
      </trkpt>
      <trkpt lat="44.52675" lon="6.7164">
        <ele>1723.8000488281</ele>
        <time>2022-03-10T08:16:00.000Z</time>
      </trkpt>
      <trkpt lat="44.52675" lon="6.71621">
        <ele>1723.8000488281</ele>
        <time>2022-03-10T08:16:13.000Z</time>
      </trkpt>
      <trkpt lat="44.52672" lon="6.71604">
        <ele>1723.8000488281</ele>
        <time>2022-03-10T08:16:25.000Z</time>
      </trkpt>
      <trkpt lat="44.52671" lon="6.7159">
        <ele>1724.1999511719</ele>
        <time>2022-03-10T08:16:35.000Z</time>
      </trkpt>
      <trkpt lat="44.5267" lon="6.71574">
        <ele>1724.1999511719</ele>
        <time>2022-03-10T08:16:47.000Z</time>
      </trkpt>
      <trkpt lat="44.52668" lon="6.71558">
        <ele>1724.1999511719</ele>
        <time>2022-03-10T08:16:58.000Z</time>
      </trkpt>
      <trkpt lat="44.52668" lon="6.71539">
        <ele>1724.4000244141</ele>
        <time>2022-03-10T08:17:09.000Z</time>
      </trkpt>
      <trkpt lat="44.52667" lon="6.71525">
        <ele>1724.1999511719</ele>
        <time>2022-03-10T08:17:18.000Z</time>
      </trkpt>
      <trkpt lat="44.52666" lon="6.71508">
        <ele>1724</ele>
        <time>2022-03-10T08:17:29.000Z</time>
      </trkpt>
      <trkpt lat="44.52663" lon="6.71489">
        <ele>1723.8000488281</ele>
        <time>2022-03-10T08:17:42.000Z</time>
      </trkpt>
      <trkpt lat="44.52659" lon="6.71475">
        <ele>1723.1999511719</ele>
        <time>2022-03-10T08:17:53.000Z</time>
      </trkpt>
      <trkpt lat="44.52658" lon="6.71475">
        <ele>1723.1999511719</ele>
        <time>2022-03-10T08:17:59.000Z</time>
      </trkpt>
      <trkpt lat="44.52658" lon="6.71476">
        <ele>1723</ele>
        <time>2022-03-10T08:18:05.000Z</time>
      </trkpt>
      <trkpt lat="44.52659" lon="6.71476">
        <ele>1722.8000488281</ele>
        <time>2022-03-10T08:18:09.000Z</time>
      </trkpt>
      <trkpt lat="44.52658" lon="6.71476">
        <ele>1721.5999755859</ele>
        <time>2022-03-10T08:18:15.000Z</time>
      </trkpt>
      <trkpt lat="44.52657" lon="6.71477">
        <ele>1721.4000244141</ele>
        <time>2022-03-10T08:18:16.000Z</time>
      </trkpt>
      <trkpt lat="44.52652" lon="6.71478">
        <ele>1720.4000244141</ele>
        <time>2022-03-10T08:18:21.000Z</time>
      </trkpt>
      <trkpt lat="44.52649" lon="6.71476">
        <ele>1719.5999755859</ele>
        <time>2022-03-10T08:18:25.000Z</time>
      </trkpt>
      <trkpt lat="44.52649" lon="6.71474">
        <ele>1719.4000244141</ele>
        <time>2022-03-10T08:18:26.000Z</time>
      </trkpt>
      <trkpt lat="44.52645" lon="6.71467">
        <ele>1718.5999755859</ele>
        <time>2022-03-10T08:18:34.000Z</time>
      </trkpt>
      <trkpt lat="44.52644" lon="6.71466">
        <ele>1718.1999511719</ele>
        <time>2022-03-10T08:18:36.000Z</time>
      </trkpt>
      <trkpt lat="44.52641" lon="6.71464">
        <ele>1717.4000244141</ele>
        <time>2022-03-10T08:18:40.000Z</time>
      </trkpt>
      <trkpt lat="44.52641" lon="6.71464">
        <ele>1717.1999511719</ele>
        <time>2022-03-10T08:18:41.000Z</time>
      </trkpt>
      <trkpt lat="44.5264" lon="6.71463">
        <ele>1717</ele>
        <time>2022-03-10T08:18:42.000Z</time>
      </trkpt>
      <trkpt lat="44.52637" lon="6.71462">
        <ele>1716</ele>
        <time>2022-03-10T08:18:46.000Z</time>
      </trkpt>
      <trkpt lat="44.52636" lon="6.71462">
        <ele>1715.8000488281</ele>
        <time>2022-03-10T08:18:47.000Z</time>
      </trkpt>
      <trkpt lat="44.52634" lon="6.71467">
        <ele>1714.4000244141</ele>
        <time>2022-03-10T08:18:53.000Z</time>
      </trkpt>
      <trkpt lat="44.52634" lon="6.71467">
        <ele>1714.1999511719</ele>
        <time>2022-03-10T08:18:54.000Z</time>
      </trkpt>
      <trkpt lat="44.52631" lon="6.71471">
        <ele>1713.4000244141</ele>
        <time>2022-03-10T08:18:59.000Z</time>
      </trkpt>
      <trkpt lat="44.5263" lon="6.71474">
        <ele>1712.1999511719</ele>
        <time>2022-03-10T08:19:03.000Z</time>
      </trkpt>
      <trkpt lat="44.5263" lon="6.71475">
        <ele>1712.1999511719</ele>
        <time>2022-03-10T08:19:04.000Z</time>
      </trkpt>
      <trkpt lat="44.52627" lon="6.71481">
        <ele>1711.1999511719</ele>
        <time>2022-03-10T08:19:11.000Z</time>
      </trkpt>
      <trkpt lat="44.52627" lon="6.71481">
        <ele>1711</ele>
        <time>2022-03-10T08:19:12.000Z</time>
      </trkpt>
      <trkpt lat="44.52624" lon="6.71478">
        <ele>1710</ele>
        <time>2022-03-10T08:19:17.000Z</time>
      </trkpt>
      <trkpt lat="44.52622" lon="6.71476">
        <ele>1709.8000488281</ele>
        <time>2022-03-10T08:19:19.000Z</time>
      </trkpt>
      <trkpt lat="44.52618" lon="6.71474">
        <ele>1708.8000488281</ele>
        <time>2022-03-10T08:19:24.000Z</time>
      </trkpt>
      <trkpt lat="44.52614" lon="6.71473">
        <ele>1708</ele>
        <time>2022-03-10T08:19:29.000Z</time>
      </trkpt>
      <trkpt lat="44.52612" lon="6.71472">
        <ele>1707.5999755859</ele>
        <time>2022-03-10T08:19:31.000Z</time>
      </trkpt>
      <trkpt lat="44.52608" lon="6.71468">
        <ele>1706.5999755859</ele>
        <time>2022-03-10T08:19:37.000Z</time>
      </trkpt>
      <trkpt lat="44.52606" lon="6.71467">
        <ele>1706.1999511719</ele>
        <time>2022-03-10T08:19:39.000Z</time>
      </trkpt>
      <trkpt lat="44.52603" lon="6.71463">
        <ele>1705.5999755859</ele>
        <time>2022-03-10T08:19:44.000Z</time>
      </trkpt>
      <trkpt lat="44.526" lon="6.7146">
        <ele>1704.8000488281</ele>
        <time>2022-03-10T08:19:49.000Z</time>
      </trkpt>
      <trkpt lat="44.52599" lon="6.71459">
        <ele>1704.5999755859</ele>
        <time>2022-03-10T08:19:50.000Z</time>
      </trkpt>
      <trkpt lat="44.52593" lon="6.71455">
        <ele>1703.4000244141</ele>
        <time>2022-03-10T08:19:57.000Z</time>
      </trkpt>
      <trkpt lat="44.52592" lon="6.71453">
        <ele>1702.8000488281</ele>
        <time>2022-03-10T08:20:00.000Z</time>
      </trkpt>
      <trkpt lat="44.52591" lon="6.7145">
        <ele>1702.1999511719</ele>
        <time>2022-03-10T08:20:03.000Z</time>
      </trkpt>
      <trkpt lat="44.52587" lon="6.71448">
        <ele>1701</ele>
        <time>2022-03-10T08:20:08.000Z</time>
      </trkpt>
      <trkpt lat="44.52582" lon="6.71447">
        <ele>1700.4000244141</ele>
        <time>2022-03-10T08:20:14.000Z</time>
      </trkpt>
      <trkpt lat="44.52579" lon="6.71448">
        <ele>1700</ele>
        <time>2022-03-10T08:20:18.000Z</time>
      </trkpt>
      <trkpt lat="44.52578" lon="6.71448">
        <ele>1700</ele>
        <time>2022-03-10T08:20:19.000Z</time>
      </trkpt>
      <trkpt lat="44.52577" lon="6.71449">
        <ele>1699.1999511719</ele>
        <time>2022-03-10T08:20:23.000Z</time>
      </trkpt>
      <trkpt lat="44.52571" lon="6.71447">
        <ele>1699.1999511719</ele>
        <time>2022-03-10T08:20:31.000Z</time>
      </trkpt>
      <trkpt lat="44.52566" lon="6.71447">
        <ele>1699.4000244141</ele>
        <time>2022-03-10T08:20:40.000Z</time>
      </trkpt>
      <trkpt lat="44.52567" lon="6.7145">
        <ele>1699.8000488281</ele>
        <time>2022-03-10T08:20:47.000Z</time>
      </trkpt>
      <trkpt lat="44.52563" lon="6.71458">
        <ele>1699.4000244141</ele>
        <time>2022-03-10T08:20:54.000Z</time>
      </trkpt>
      <trkpt lat="44.52562" lon="6.71459">
        <ele>1699.1999511719</ele>
        <time>2022-03-10T08:20:55.000Z</time>
      </trkpt>
      <trkpt lat="44.5256" lon="6.71461">
        <ele>1699.1999511719</ele>
        <time>2022-03-10T08:20:58.000Z</time>
      </trkpt>
      <trkpt lat="44.52557" lon="6.71462">
        <ele>1698.5999755859</ele>
        <time>2022-03-10T08:21:02.000Z</time>
      </trkpt>
      <trkpt lat="44.52556" lon="6.71468">
        <ele>1697.8000488281</ele>
        <time>2022-03-10T08:21:08.000Z</time>
      </trkpt>
      <trkpt lat="44.52556" lon="6.71468">
        <ele>1697.5999755859</ele>
        <time>2022-03-10T08:21:09.000Z</time>
      </trkpt>
      <trkpt lat="44.52557" lon="6.71472">
        <ele>1696.8000488281</ele>
        <time>2022-03-10T08:21:15.000Z</time>
      </trkpt>
      <trkpt lat="44.52557" lon="6.71471">
        <ele>1696.5999755859</ele>
        <time>2022-03-10T08:21:21.000Z</time>
      </trkpt>
      <trkpt lat="44.52557" lon="6.71471">
        <ele>1696.5999755859</ele>
        <time>2022-03-10T08:21:22.000Z</time>
      </trkpt>
      <trkpt lat="44.52557" lon="6.71473">
        <ele>1696.8000488281</ele>
        <time>2022-03-10T08:21:42.000Z</time>
      </trkpt>
      <trkpt lat="44.52557" lon="6.71478">
        <ele>1696.4000244141</ele>
        <time>2022-03-10T08:22:28.000Z</time>
      </trkpt>
      <trkpt lat="44.52556" lon="6.71478">
        <ele>1696.8000488281</ele>
        <time>2022-03-10T08:23:25.000Z</time>
      </trkpt>
      <trkpt lat="44.52556" lon="6.71475">
        <ele>1696.5999755859</ele>
        <time>2022-03-10T08:24:20.000Z</time>
      </trkpt>
      <trkpt lat="44.52555" lon="6.71477">
        <ele>1696.5999755859</ele>
        <time>2022-03-10T08:24:49.000Z</time>
      </trkpt>
      <trkpt lat="44.52554" lon="6.71477">
        <ele>1696.8000488281</ele>
        <time>2022-03-10T08:26:27.000Z</time>
      </trkpt>
      <trkpt lat="44.52546" lon="6.71483">
        <ele>1697.4000244141</ele>
        <time>2022-03-10T08:27:39.000Z</time>
      </trkpt>
      <trkpt lat="44.52543" lon="6.71484">
        <ele>1697.5999755859</ele>
        <time>2022-03-10T08:27:41.000Z</time>
      </trkpt>
      <trkpt lat="44.52539" lon="6.71486">
        <ele>1698</ele>
        <time>2022-03-10T08:27:47.000Z</time>
      </trkpt>
      <trkpt lat="44.52539" lon="6.71486">
        <ele>1698.8000488281</ele>
        <time>2022-03-10T08:28:07.000Z</time>
      </trkpt>
      <trkpt lat="44.52538" lon="6.71481">
        <ele>1699.8000488281</ele>
        <time>2022-03-10T08:28:18.000Z</time>
      </trkpt>
      <trkpt lat="44.52537" lon="6.71478">
        <ele>1700.1999511719</ele>
        <time>2022-03-10T08:28:20.000Z</time>
      </trkpt>
      <trkpt lat="44.52537" lon="6.71473">
        <ele>1701</ele>
        <time>2022-03-10T08:28:26.000Z</time>
      </trkpt>
      <trkpt lat="44.52536" lon="6.71476">
        <ele>1701.5999755859</ele>
        <time>2022-03-10T08:28:32.000Z</time>
      </trkpt>
      <trkpt lat="44.52535" lon="6.71477">
        <ele>1702</ele>
        <time>2022-03-10T08:28:36.000Z</time>
      </trkpt>
      <trkpt lat="44.52535" lon="6.71478">
        <ele>1702.4000244141</ele>
        <time>2022-03-10T08:28:40.000Z</time>
      </trkpt>
      <trkpt lat="44.52531" lon="6.7148">
        <ele>1703.1999511719</ele>
        <time>2022-03-10T08:28:50.000Z</time>
      </trkpt>
      <trkpt lat="44.52531" lon="6.71481">
        <ele>1703.4000244141</ele>
        <time>2022-03-10T08:28:51.000Z</time>
      </trkpt>
      <trkpt lat="44.52527" lon="6.71486">
        <ele>1704.1999511719</ele>
        <time>2022-03-10T08:28:59.000Z</time>
      </trkpt>
      <trkpt lat="44.52526" lon="6.71487">
        <ele>1704.4000244141</ele>
        <time>2022-03-10T08:29:02.000Z</time>
      </trkpt>
      <trkpt lat="44.52522" lon="6.7149">
        <ele>1705.4000244141</ele>
        <time>2022-03-10T08:29:09.000Z</time>
      </trkpt>
      <trkpt lat="44.5252" lon="6.71491">
        <ele>1705.8000488281</ele>
        <time>2022-03-10T08:29:12.000Z</time>
      </trkpt>
      <trkpt lat="44.52516" lon="6.71495">
        <ele>1706.4000244141</ele>
        <time>2022-03-10T08:29:18.000Z</time>
      </trkpt>
      <trkpt lat="44.52514" lon="6.71496">
        <ele>1706.8000488281</ele>
        <time>2022-03-10T08:29:22.000Z</time>
      </trkpt>
      <trkpt lat="44.5251" lon="6.71498">
        <ele>1707.5999755859</ele>
        <time>2022-03-10T08:29:27.000Z</time>
      </trkpt>
      <trkpt lat="44.52507" lon="6.715">
        <ele>1708.1999511719</ele>
        <time>2022-03-10T08:29:32.000Z</time>
      </trkpt>
      <trkpt lat="44.52505" lon="6.71503">
        <ele>1708.5999755859</ele>
        <time>2022-03-10T08:29:38.000Z</time>
      </trkpt>
      <trkpt lat="44.52504" lon="6.71504">
        <ele>1709</ele>
        <time>2022-03-10T08:29:41.000Z</time>
      </trkpt>
      <trkpt lat="44.52501" lon="6.71507">
        <ele>1709.8000488281</ele>
        <time>2022-03-10T08:29:47.000Z</time>
      </trkpt>
      <trkpt lat="44.52497" lon="6.71511">
        <ele>1710.8000488281</ele>
        <time>2022-03-10T08:29:55.000Z</time>
      </trkpt>
      <trkpt lat="44.52493" lon="6.71514">
        <ele>1711.8000488281</ele>
        <time>2022-03-10T08:30:03.000Z</time>
      </trkpt>
      <trkpt lat="44.52491" lon="6.71517">
        <ele>1712.5999755859</ele>
        <time>2022-03-10T08:30:07.000Z</time>
      </trkpt>
      <trkpt lat="44.52491" lon="6.71519">
        <ele>1713</ele>
        <time>2022-03-10T08:30:09.000Z</time>
      </trkpt>
      <trkpt lat="44.52487" lon="6.71524">
        <ele>1714</ele>
        <time>2022-03-10T08:30:18.000Z</time>
      </trkpt>
      <trkpt lat="44.52485" lon="6.71525">
        <ele>1714.1999511719</ele>
        <time>2022-03-10T08:30:21.000Z</time>
      </trkpt>
      <trkpt lat="44.52484" lon="6.71527">
        <ele>1715</ele>
        <time>2022-03-10T08:30:24.000Z</time>
      </trkpt>
      <trkpt lat="44.52482" lon="6.7153">
        <ele>1715.1999511719</ele>
        <time>2022-03-10T08:30:29.000Z</time>
      </trkpt>
      <trkpt lat="44.5248" lon="6.71532">
        <ele>1716.1999511719</ele>
        <time>2022-03-10T08:30:33.000Z</time>
      </trkpt>
      <trkpt lat="44.52477" lon="6.71536">
        <ele>1717</ele>
        <time>2022-03-10T08:30:40.000Z</time>
      </trkpt>
      <trkpt lat="44.52476" lon="6.71537">
        <ele>1717.4000244141</ele>
        <time>2022-03-10T08:30:42.000Z</time>
      </trkpt>
      <trkpt lat="44.52472" lon="6.71538">
        <ele>1718</ele>
        <time>2022-03-10T08:30:48.000Z</time>
      </trkpt>
      <trkpt lat="44.52471" lon="6.71537">
        <ele>1718.4000244141</ele>
        <time>2022-03-10T08:30:51.000Z</time>
      </trkpt>
      <trkpt lat="44.52469" lon="6.71535">
        <ele>1719</ele>
        <time>2022-03-10T08:30:56.000Z</time>
      </trkpt>
      <trkpt lat="44.52467" lon="6.71534">
        <ele>1719.5999755859</ele>
        <time>2022-03-10T08:31:00.000Z</time>
      </trkpt>
      <trkpt lat="44.52465" lon="6.71535">
        <ele>1720</ele>
        <time>2022-03-10T08:31:03.000Z</time>
      </trkpt>
      <trkpt lat="44.52463" lon="6.71535">
        <ele>1720.1999511719</ele>
        <time>2022-03-10T08:31:10.000Z</time>
      </trkpt>
      <trkpt lat="44.52464" lon="6.71533">
        <ele>1720.5999755859</ele>
        <time>2022-03-10T08:31:14.000Z</time>
      </trkpt>
      <trkpt lat="44.52464" lon="6.71533">
        <ele>1720.8000488281</ele>
        <time>2022-03-10T08:31:15.000Z</time>
      </trkpt>
      <trkpt lat="44.52464" lon="6.71533">
        <ele>1721.5999755859</ele>
        <time>2022-03-10T08:31:20.000Z</time>
      </trkpt>
      <trkpt lat="44.52464" lon="6.71534">
        <ele>1722.8000488281</ele>
        <time>2022-03-10T08:31:31.000Z</time>
      </trkpt>
      <trkpt lat="44.52464" lon="6.71534">
        <ele>1722.8000488281</ele>
        <time>2022-03-10T08:31:32.000Z</time>
      </trkpt>
      <trkpt lat="44.52464" lon="6.71536">
        <ele>1723.8000488281</ele>
        <time>2022-03-10T08:31:39.000Z</time>
      </trkpt>
      <trkpt lat="44.52461" lon="6.7154">
        <ele>1724</ele>
        <time>2022-03-10T08:31:43.000Z</time>
      </trkpt>
      <trkpt lat="44.52454" lon="6.71541">
        <ele>1724.8000488281</ele>
        <time>2022-03-10T08:31:49.000Z</time>
      </trkpt>
      <trkpt lat="44.52453" lon="6.71539">
        <ele>1725.1999511719</ele>
        <time>2022-03-10T08:31:52.000Z</time>
      </trkpt>
      <trkpt lat="44.5245" lon="6.71536">
        <ele>1725.8000488281</ele>
        <time>2022-03-10T08:31:56.000Z</time>
      </trkpt>
      <trkpt lat="44.52449" lon="6.71533">
        <ele>1726.1999511719</ele>
        <time>2022-03-10T08:31:59.000Z</time>
      </trkpt>
      <trkpt lat="44.52451" lon="6.71528">
        <ele>1726.8000488281</ele>
        <time>2022-03-10T08:32:05.000Z</time>
      </trkpt>
      <trkpt lat="44.52451" lon="6.71528">
        <ele>1727</ele>
        <time>2022-03-10T08:32:06.000Z</time>
      </trkpt>
      <trkpt lat="44.52451" lon="6.71524">
        <ele>1727.5999755859</ele>
        <time>2022-03-10T08:32:14.000Z</time>
      </trkpt>
      <trkpt lat="44.52451" lon="6.71523">
        <ele>1727.5999755859</ele>
        <time>2022-03-10T08:32:15.000Z</time>
      </trkpt>
      <trkpt lat="44.52449" lon="6.71521">
        <ele>1728</ele>
        <time>2022-03-10T08:32:18.000Z</time>
      </trkpt>
      <trkpt lat="44.52447" lon="6.7152">
        <ele>1729</ele>
        <time>2022-03-10T08:32:23.000Z</time>
      </trkpt>
      <trkpt lat="44.52446" lon="6.7152">
        <ele>1729.1999511719</ele>
        <time>2022-03-10T08:32:24.000Z</time>
      </trkpt>
      <trkpt lat="44.52446" lon="6.71512">
        <ele>1730.1999511719</ele>
        <time>2022-03-10T08:32:30.000Z</time>
      </trkpt>
      <trkpt lat="44.52443" lon="6.71515">
        <ele>1731.1999511719</ele>
        <time>2022-03-10T08:32:35.000Z</time>
      </trkpt>
      <trkpt lat="44.52442" lon="6.71515">
        <ele>1731.1999511719</ele>
        <time>2022-03-10T08:32:36.000Z</time>
      </trkpt>
      <trkpt lat="44.52436" lon="6.71515">
        <ele>1732.4000244141</ele>
        <time>2022-03-10T08:32:43.000Z</time>
      </trkpt>
      <trkpt lat="44.52432" lon="6.7151">
        <ele>1733.4000244141</ele>
        <time>2022-03-10T08:32:50.000Z</time>
      </trkpt>
      <trkpt lat="44.52432" lon="6.71509">
        <ele>1733.8000488281</ele>
        <time>2022-03-10T08:32:53.000Z</time>
      </trkpt>
      <trkpt lat="44.52433" lon="6.71509">
        <ele>1734</ele>
        <time>2022-03-10T08:32:56.000Z</time>
      </trkpt>
      <trkpt lat="44.52432" lon="6.71507">
        <ele>1734.4000244141</ele>
        <time>2022-03-10T08:32:59.000Z</time>
      </trkpt>
      <trkpt lat="44.52433" lon="6.71503">
        <ele>1734.5999755859</ele>
        <time>2022-03-10T08:33:03.000Z</time>
      </trkpt>
      <trkpt lat="44.52433" lon="6.715">
        <ele>1735.4000244141</ele>
        <time>2022-03-10T08:33:08.000Z</time>
      </trkpt>
      <trkpt lat="44.52435" lon="6.71496">
        <ele>1735.5999755859</ele>
        <time>2022-03-10T08:33:11.000Z</time>
      </trkpt>
      <trkpt lat="44.52433" lon="6.71491">
        <ele>1736.4000244141</ele>
        <time>2022-03-10T08:33:17.000Z</time>
      </trkpt>
      <trkpt lat="44.52433" lon="6.7149">
        <ele>1736.5999755859</ele>
        <time>2022-03-10T08:33:19.000Z</time>
      </trkpt>
      <trkpt lat="44.52432" lon="6.71488">
        <ele>1737.1999511719</ele>
        <time>2022-03-10T08:33:22.000Z</time>
      </trkpt>
      <trkpt lat="44.52432" lon="6.71488">
        <ele>1737.5999755859</ele>
        <time>2022-03-10T08:33:24.000Z</time>
      </trkpt>
      <trkpt lat="44.5243" lon="6.71484">
        <ele>1738.5999755859</ele>
        <time>2022-03-10T08:33:28.000Z</time>
      </trkpt>
      <trkpt lat="44.52429" lon="6.71482">
        <ele>1738.8000488281</ele>
        <time>2022-03-10T08:33:30.000Z</time>
      </trkpt>
      <trkpt lat="44.5243" lon="6.71482">
        <ele>1739</ele>
        <time>2022-03-10T08:33:37.000Z</time>
      </trkpt>
      <trkpt lat="44.52427" lon="6.71487">
        <ele>1739.5999755859</ele>
        <time>2022-03-10T08:33:46.000Z</time>
      </trkpt>
      <trkpt lat="44.52425" lon="6.7149">
        <ele>1740.5999755859</ele>
        <time>2022-03-10T08:33:54.000Z</time>
      </trkpt>
      <trkpt lat="44.52424" lon="6.71491">
        <ele>1740.8000488281</ele>
        <time>2022-03-10T08:33:55.000Z</time>
      </trkpt>
      <trkpt lat="44.52421" lon="6.71493">
        <ele>1741.1999511719</ele>
        <time>2022-03-10T08:34:02.000Z</time>
      </trkpt>
      <trkpt lat="44.5242" lon="6.71494">
        <ele>1741.8000488281</ele>
        <time>2022-03-10T08:34:06.000Z</time>
      </trkpt>
      <trkpt lat="44.5242" lon="6.71495">
        <ele>1742</ele>
        <time>2022-03-10T08:34:09.000Z</time>
      </trkpt>
      <trkpt lat="44.52421" lon="6.71493">
        <ele>1742.1999511719</ele>
        <time>2022-03-10T08:34:15.000Z</time>
      </trkpt>
      <trkpt lat="44.5242" lon="6.71497">
        <ele>1742.4000244141</ele>
        <time>2022-03-10T08:34:19.000Z</time>
      </trkpt>
      <trkpt lat="44.5242" lon="6.71502">
        <ele>1742.5999755859</ele>
        <time>2022-03-10T08:34:22.000Z</time>
      </trkpt>
      <trkpt lat="44.52422" lon="6.71505">
        <ele>1742.4000244141</ele>
        <time>2022-03-10T08:34:24.000Z</time>
      </trkpt>
      <trkpt lat="44.52423" lon="6.71509">
        <ele>1742.5999755859</ele>
        <time>2022-03-10T08:34:27.000Z</time>
      </trkpt>
      <trkpt lat="44.52422" lon="6.7151">
        <ele>1742.5999755859</ele>
        <time>2022-03-10T08:34:28.000Z</time>
      </trkpt>
      <trkpt lat="44.52423" lon="6.71516">
        <ele>1742.4000244141</ele>
        <time>2022-03-10T08:34:33.000Z</time>
      </trkpt>
      <trkpt lat="44.52424" lon="6.71519">
        <ele>1742.5999755859</ele>
        <time>2022-03-10T08:34:35.000Z</time>
      </trkpt>
      <trkpt lat="44.52427" lon="6.71527">
        <ele>1742.5999755859</ele>
        <time>2022-03-10T08:34:40.000Z</time>
      </trkpt>
      <trkpt lat="44.52427" lon="6.71529">
        <ele>1742.4000244141</ele>
        <time>2022-03-10T08:34:42.000Z</time>
      </trkpt>
      <trkpt lat="44.52427" lon="6.71534">
        <ele>1742.4000244141</ele>
        <time>2022-03-10T08:34:45.000Z</time>
      </trkpt>
      <trkpt lat="44.52426" lon="6.71537">
        <ele>1742.1999511719</ele>
        <time>2022-03-10T08:34:48.000Z</time>
      </trkpt>
      <trkpt lat="44.52426" lon="6.71543">
        <ele>1742.1999511719</ele>
        <time>2022-03-10T08:34:52.000Z</time>
      </trkpt>
      <trkpt lat="44.52426" lon="6.71544">
        <ele>1742.1999511719</ele>
        <time>2022-03-10T08:34:53.000Z</time>
      </trkpt>
      <trkpt lat="44.52428" lon="6.71553">
        <ele>1742.1999511719</ele>
        <time>2022-03-10T08:34:59.000Z</time>
      </trkpt>
      <trkpt lat="44.52428" lon="6.7156">
        <ele>1742.1999511719</ele>
        <time>2022-03-10T08:35:03.000Z</time>
      </trkpt>
      <trkpt lat="44.52427" lon="6.71563">
        <ele>1742.1999511719</ele>
        <time>2022-03-10T08:35:05.000Z</time>
      </trkpt>
      <trkpt lat="44.52427" lon="6.71565">
        <ele>1742.1999511719</ele>
        <time>2022-03-10T08:35:06.000Z</time>
      </trkpt>
      <trkpt lat="44.52431" lon="6.71578">
        <ele>1742</ele>
        <time>2022-03-10T08:35:13.000Z</time>
      </trkpt>
      <trkpt lat="44.52431" lon="6.71584">
        <ele>1742</ele>
        <time>2022-03-10T08:35:18.000Z</time>
      </trkpt>
      <trkpt lat="44.52431" lon="6.71586">
        <ele>1742</ele>
        <time>2022-03-10T08:35:19.000Z</time>
      </trkpt>
      <trkpt lat="44.52431" lon="6.71592">
        <ele>1741.8000488281</ele>
        <time>2022-03-10T08:35:23.000Z</time>
      </trkpt>
      <trkpt lat="44.52431" lon="6.71595">
        <ele>1741.8000488281</ele>
        <time>2022-03-10T08:35:25.000Z</time>
      </trkpt>
      <trkpt lat="44.52432" lon="6.716">
        <ele>1741.5999755859</ele>
        <time>2022-03-10T08:35:28.000Z</time>
      </trkpt>
      <trkpt lat="44.52433" lon="6.71604">
        <ele>1741.5999755859</ele>
        <time>2022-03-10T08:35:31.000Z</time>
      </trkpt>
      <trkpt lat="44.52437" lon="6.71618">
        <ele>1741.5999755859</ele>
        <time>2022-03-10T08:35:39.000Z</time>
      </trkpt>
      <trkpt lat="44.52433" lon="6.7163">
        <ele>1741.4000244141</ele>
        <time>2022-03-10T08:35:46.000Z</time>
      </trkpt>
      <trkpt lat="44.52433" lon="6.71633">
        <ele>1741.1999511719</ele>
        <time>2022-03-10T08:35:48.000Z</time>
      </trkpt>
      <trkpt lat="44.52433" lon="6.71638">
        <ele>1741.1999511719</ele>
        <time>2022-03-10T08:35:52.000Z</time>
      </trkpt>
      <trkpt lat="44.52433" lon="6.71646">
        <ele>1741</ele>
        <time>2022-03-10T08:35:57.000Z</time>
      </trkpt>
      <trkpt lat="44.52433" lon="6.71648">
        <ele>1741</ele>
        <time>2022-03-10T08:35:58.000Z</time>
      </trkpt>
      <trkpt lat="44.52433" lon="6.71651">
        <ele>1741</ele>
        <time>2022-03-10T08:36:00.000Z</time>
      </trkpt>
      <trkpt lat="44.52432" lon="6.71654">
        <ele>1741</ele>
        <time>2022-03-10T08:36:03.000Z</time>
      </trkpt>
      <trkpt lat="44.52432" lon="6.71657">
        <ele>1741</ele>
        <time>2022-03-10T08:36:05.000Z</time>
      </trkpt>
      <trkpt lat="44.52433" lon="6.71661">
        <ele>1741</ele>
        <time>2022-03-10T08:36:07.000Z</time>
      </trkpt>
      <trkpt lat="44.52434" lon="6.71665">
        <ele>1741</ele>
        <time>2022-03-10T08:36:09.000Z</time>
      </trkpt>
      <trkpt lat="44.52435" lon="6.71668">
        <ele>1741</ele>
        <time>2022-03-10T08:36:11.000Z</time>
      </trkpt>
      <trkpt lat="44.52435" lon="6.71678">
        <ele>1741</ele>
        <time>2022-03-10T08:36:18.000Z</time>
      </trkpt>
      <trkpt lat="44.52435" lon="6.71688">
        <ele>1741</ele>
        <time>2022-03-10T08:36:25.000Z</time>
      </trkpt>
      <trkpt lat="44.52437" lon="6.71694">
        <ele>1741</ele>
        <time>2022-03-10T08:36:30.000Z</time>
      </trkpt>
      <trkpt lat="44.52437" lon="6.71697">
        <ele>1741</ele>
        <time>2022-03-10T08:36:32.000Z</time>
      </trkpt>
      <trkpt lat="44.52438" lon="6.71703">
        <ele>1740.8000488281</ele>
        <time>2022-03-10T08:36:36.000Z</time>
      </trkpt>
      <trkpt lat="44.52438" lon="6.71706">
        <ele>1740.8000488281</ele>
        <time>2022-03-10T08:36:38.000Z</time>
      </trkpt>
      <trkpt lat="44.52439" lon="6.71709">
        <ele>1740.8000488281</ele>
        <time>2022-03-10T08:36:40.000Z</time>
      </trkpt>
      <trkpt lat="44.52442" lon="6.71715">
        <ele>1740.4000244141</ele>
        <time>2022-03-10T08:36:45.000Z</time>
      </trkpt>
      <trkpt lat="44.52441" lon="6.71718">
        <ele>1740.4000244141</ele>
        <time>2022-03-10T08:36:47.000Z</time>
      </trkpt>
      <trkpt lat="44.52442" lon="6.71723">
        <ele>1740.4000244141</ele>
        <time>2022-03-10T08:36:50.000Z</time>
      </trkpt>
      <trkpt lat="44.52443" lon="6.71728">
        <ele>1740.4000244141</ele>
        <time>2022-03-10T08:36:53.000Z</time>
      </trkpt>
      <trkpt lat="44.52443" lon="6.71733">
        <ele>1740.4000244141</ele>
        <time>2022-03-10T08:36:57.000Z</time>
      </trkpt>
      <trkpt lat="44.52443" lon="6.71735">
        <ele>1740.1999511719</ele>
        <time>2022-03-10T08:36:59.000Z</time>
      </trkpt>
      <trkpt lat="44.52444" lon="6.71743">
        <ele>1740</ele>
        <time>2022-03-10T08:37:04.000Z</time>
      </trkpt>
      <trkpt lat="44.52444" lon="6.71748">
        <ele>1739.5999755859</ele>
        <time>2022-03-10T08:37:08.000Z</time>
      </trkpt>
      <trkpt lat="44.52445" lon="6.71757">
        <ele>1739.1999511719</ele>
        <time>2022-03-10T08:37:13.000Z</time>
      </trkpt>
      <trkpt lat="44.52444" lon="6.71768">
        <ele>1738.5999755859</ele>
        <time>2022-03-10T08:37:18.000Z</time>
      </trkpt>
      <trkpt lat="44.52444" lon="6.71772">
        <ele>1738.5999755859</ele>
        <time>2022-03-10T08:37:20.000Z</time>
      </trkpt>
      <trkpt lat="44.52444" lon="6.71775">
        <ele>1738.5999755859</ele>
        <time>2022-03-10T08:37:21.000Z</time>
      </trkpt>
      <trkpt lat="44.52444" lon="6.71781">
        <ele>1738.4000244141</ele>
        <time>2022-03-10T08:37:25.000Z</time>
      </trkpt>
      <trkpt lat="44.52443" lon="6.71787">
        <ele>1738</ele>
        <time>2022-03-10T08:37:29.000Z</time>
      </trkpt>
      <trkpt lat="44.52442" lon="6.71791">
        <ele>1737.8000488281</ele>
        <time>2022-03-10T08:37:32.000Z</time>
      </trkpt>
      <trkpt lat="44.5244" lon="6.71796">
        <ele>1737.8000488281</ele>
        <time>2022-03-10T08:37:35.000Z</time>
      </trkpt>
      <trkpt lat="44.5244" lon="6.71797">
        <ele>1737.8000488281</ele>
        <time>2022-03-10T08:37:36.000Z</time>
      </trkpt>
      <trkpt lat="44.52437" lon="6.71801">
        <ele>1737.8000488281</ele>
        <time>2022-03-10T08:37:39.000Z</time>
      </trkpt>
      <trkpt lat="44.5243" lon="6.71809">
        <ele>1737.5999755859</ele>
        <time>2022-03-10T08:37:47.000Z</time>
      </trkpt>
      <trkpt lat="44.52422" lon="6.71812">
        <ele>1737.8000488281</ele>
        <time>2022-03-10T08:37:54.000Z</time>
      </trkpt>
      <trkpt lat="44.52417" lon="6.71816">
        <ele>1738</ele>
        <time>2022-03-10T08:37:59.000Z</time>
      </trkpt>
      <trkpt lat="44.52415" lon="6.71816">
        <ele>1738</ele>
        <time>2022-03-10T08:38:01.000Z</time>
      </trkpt>
      <trkpt lat="44.52411" lon="6.71815">
        <ele>1738.4000244141</ele>
        <time>2022-03-10T08:38:07.000Z</time>
      </trkpt>
      <trkpt lat="44.52404" lon="6.71817">
        <ele>1738.5999755859</ele>
        <time>2022-03-10T08:38:16.000Z</time>
      </trkpt>
      <trkpt lat="44.52399" lon="6.7182">
        <ele>1738.8000488281</ele>
        <time>2022-03-10T08:38:28.000Z</time>
      </trkpt>
      <trkpt lat="44.52395" lon="6.71822">
        <ele>1739.5999755859</ele>
        <time>2022-03-10T08:38:56.000Z</time>
      </trkpt>
      <trkpt lat="44.52394" lon="6.71824">
        <ele>1740.5999755859</ele>
        <time>2022-03-10T08:39:02.000Z</time>
      </trkpt>
      <trkpt lat="44.52392" lon="6.71827">
        <ele>1741</ele>
        <time>2022-03-10T08:39:05.000Z</time>
      </trkpt>
      <trkpt lat="44.52387" lon="6.7183">
        <ele>1741.8000488281</ele>
        <time>2022-03-10T08:39:09.000Z</time>
      </trkpt>
      <trkpt lat="44.52384" lon="6.71833">
        <ele>1742.8000488281</ele>
        <time>2022-03-10T08:39:14.000Z</time>
      </trkpt>
      <trkpt lat="44.52384" lon="6.71834">
        <ele>1743</ele>
        <time>2022-03-10T08:39:15.000Z</time>
      </trkpt>
      <trkpt lat="44.52378" lon="6.71837">
        <ele>1744</ele>
        <time>2022-03-10T08:39:23.000Z</time>
      </trkpt>
      <trkpt lat="44.52377" lon="6.71838">
        <ele>1744.4000244141</ele>
        <time>2022-03-10T08:39:25.000Z</time>
      </trkpt>
      <trkpt lat="44.52378" lon="6.71839">
        <ele>1745.1999511719</ele>
        <time>2022-03-10T08:39:28.000Z</time>
      </trkpt>
      <trkpt lat="44.52374" lon="6.71841">
        <ele>1746</ele>
        <time>2022-03-10T08:39:34.000Z</time>
      </trkpt>
      <trkpt lat="44.52373" lon="6.71842">
        <ele>1746.1999511719</ele>
        <time>2022-03-10T08:39:36.000Z</time>
      </trkpt>
      <trkpt lat="44.52368" lon="6.71843">
        <ele>1747.1999511719</ele>
        <time>2022-03-10T08:39:42.000Z</time>
      </trkpt>
      <trkpt lat="44.52367" lon="6.71844">
        <ele>1747.4000244141</ele>
        <time>2022-03-10T08:39:43.000Z</time>
      </trkpt>
      <trkpt lat="44.52363" lon="6.71845">
        <ele>1748.1999511719</ele>
        <time>2022-03-10T08:39:50.000Z</time>
      </trkpt>
      <trkpt lat="44.52363" lon="6.71846">
        <ele>1748.4000244141</ele>
        <time>2022-03-10T08:39:52.000Z</time>
      </trkpt>
      <trkpt lat="44.52361" lon="6.71847">
        <ele>1748.5999755859</ele>
        <time>2022-03-10T08:39:59.000Z</time>
      </trkpt>
      <trkpt lat="44.52358" lon="6.7185">
        <ele>1749.1999511719</ele>
        <time>2022-03-10T08:40:07.000Z</time>
      </trkpt>
      <trkpt lat="44.52357" lon="6.7185">
        <ele>1749.4000244141</ele>
        <time>2022-03-10T08:40:08.000Z</time>
      </trkpt>
      <trkpt lat="44.52354" lon="6.71853">
        <ele>1749.8000488281</ele>
        <time>2022-03-10T08:40:15.000Z</time>
      </trkpt>
      <trkpt lat="44.52345" lon="6.71857">
        <ele>1750.1999511719</ele>
        <time>2022-03-10T08:40:24.000Z</time>
      </trkpt>
      <trkpt lat="44.52339" lon="6.71861">
        <ele>1750.1999511719</ele>
        <time>2022-03-10T08:40:31.000Z</time>
      </trkpt>
      <trkpt lat="44.52331" lon="6.71865">
        <ele>1750.1999511719</ele>
        <time>2022-03-10T08:40:39.000Z</time>
      </trkpt>
      <trkpt lat="44.5233" lon="6.71865">
        <ele>1750.5999755859</ele>
        <time>2022-03-10T08:40:41.000Z</time>
      </trkpt>
      <trkpt lat="44.52327" lon="6.71866">
        <ele>1751</ele>
        <time>2022-03-10T08:40:45.000Z</time>
      </trkpt>
      <trkpt lat="44.52321" lon="6.7187">
        <ele>1751.5999755859</ele>
        <time>2022-03-10T08:40:53.000Z</time>
      </trkpt>
      <trkpt lat="44.52314" lon="6.71872">
        <ele>1752.4000244141</ele>
        <time>2022-03-10T08:41:02.000Z</time>
      </trkpt>
      <trkpt lat="44.52314" lon="6.71872">
        <ele>1752.5999755859</ele>
        <time>2022-03-10T08:41:03.000Z</time>
      </trkpt>
      <trkpt lat="44.52313" lon="6.71873">
        <ele>1752.5999755859</ele>
        <time>2022-03-10T08:41:04.000Z</time>
      </trkpt>
      <trkpt lat="44.52309" lon="6.71872">
        <ele>1753.4000244141</ele>
        <time>2022-03-10T08:41:08.000Z</time>
      </trkpt>
      <trkpt lat="44.52306" lon="6.71873">
        <ele>1753.5999755859</ele>
        <time>2022-03-10T08:41:12.000Z</time>
      </trkpt>
      <trkpt lat="44.52302" lon="6.71875">
        <ele>1754.5999755859</ele>
        <time>2022-03-10T08:41:18.000Z</time>
      </trkpt>
      <trkpt lat="44.52301" lon="6.71874">
        <ele>1754.8000488281</ele>
        <time>2022-03-10T08:41:20.000Z</time>
      </trkpt>
      <trkpt lat="44.52296" lon="6.71875">
        <ele>1755.5999755859</ele>
        <time>2022-03-10T08:41:27.000Z</time>
      </trkpt>
      <trkpt lat="44.52295" lon="6.71875">
        <ele>1755.8000488281</ele>
        <time>2022-03-10T08:41:29.000Z</time>
      </trkpt>
      <trkpt lat="44.52291" lon="6.71877">
        <ele>1756.5999755859</ele>
        <time>2022-03-10T08:41:35.000Z</time>
      </trkpt>
      <trkpt lat="44.52284" lon="6.71882">
        <ele>1756.8000488281</ele>
        <time>2022-03-10T08:41:43.000Z</time>
      </trkpt>
      <trkpt lat="44.52284" lon="6.71882">
        <ele>1757</ele>
        <time>2022-03-10T08:41:44.000Z</time>
      </trkpt>
      <trkpt lat="44.52278" lon="6.71887">
        <ele>1757.8000488281</ele>
        <time>2022-03-10T08:41:53.000Z</time>
      </trkpt>
      <trkpt lat="44.52277" lon="6.71887">
        <ele>1758</ele>
        <time>2022-03-10T08:41:55.000Z</time>
      </trkpt>
      <trkpt lat="44.52273" lon="6.71894">
        <ele>1758.4000244141</ele>
        <time>2022-03-10T08:42:04.000Z</time>
      </trkpt>
      <trkpt lat="44.52268" lon="6.71897">
        <ele>1758.8000488281</ele>
        <time>2022-03-10T08:42:10.000Z</time>
      </trkpt>
      <trkpt lat="44.52268" lon="6.71899">
        <ele>1759</ele>
        <time>2022-03-10T08:42:12.000Z</time>
      </trkpt>
      <trkpt lat="44.52265" lon="6.71904">
        <ele>1759.5999755859</ele>
        <time>2022-03-10T08:42:18.000Z</time>
      </trkpt>
      <trkpt lat="44.52263" lon="6.71908">
        <ele>1759.8000488281</ele>
        <time>2022-03-10T08:42:23.000Z</time>
      </trkpt>
      <trkpt lat="44.52263" lon="6.7191">
        <ele>1760.1999511719</ele>
        <time>2022-03-10T08:42:25.000Z</time>
      </trkpt>
      <trkpt lat="44.52262" lon="6.71911">
        <ele>1760.1999511719</ele>
        <time>2022-03-10T08:42:26.000Z</time>
      </trkpt>
      <trkpt lat="44.52259" lon="6.7192">
        <ele>1761.1999511719</ele>
        <time>2022-03-10T08:42:36.000Z</time>
      </trkpt>
      <trkpt lat="44.52257" lon="6.71928">
        <ele>1762</ele>
        <time>2022-03-10T08:42:45.000Z</time>
      </trkpt>
      <trkpt lat="44.52256" lon="6.71929">
        <ele>1762.1999511719</ele>
        <time>2022-03-10T08:42:46.000Z</time>
      </trkpt>
      <trkpt lat="44.52251" lon="6.71937">
        <ele>1763</ele>
        <time>2022-03-10T08:42:54.000Z</time>
      </trkpt>
      <trkpt lat="44.52249" lon="6.71938">
        <ele>1763.1999511719</ele>
        <time>2022-03-10T08:42:56.000Z</time>
      </trkpt>
      <trkpt lat="44.52246" lon="6.71944">
        <ele>1763.8000488281</ele>
        <time>2022-03-10T08:43:03.000Z</time>
      </trkpt>
      <trkpt lat="44.52244" lon="6.71947">
        <ele>1764.1999511719</ele>
        <time>2022-03-10T08:43:06.000Z</time>
      </trkpt>
      <trkpt lat="44.52243" lon="6.7195">
        <ele>1764.8000488281</ele>
        <time>2022-03-10T08:43:10.000Z</time>
      </trkpt>
      <trkpt lat="44.52242" lon="6.71956">
        <ele>1765.4000244141</ele>
        <time>2022-03-10T08:43:16.000Z</time>
      </trkpt>
      <trkpt lat="44.52242" lon="6.71958">
        <ele>1765.5999755859</ele>
        <time>2022-03-10T08:43:18.000Z</time>
      </trkpt>
      <trkpt lat="44.52241" lon="6.71964">
        <ele>1766.4000244141</ele>
        <time>2022-03-10T08:43:25.000Z</time>
      </trkpt>
      <trkpt lat="44.5224" lon="6.71965">
        <ele>1766.5999755859</ele>
        <time>2022-03-10T08:43:26.000Z</time>
      </trkpt>
      <trkpt lat="44.52237" lon="6.71972">
        <ele>1767.5999755859</ele>
        <time>2022-03-10T08:43:32.000Z</time>
      </trkpt>
      <trkpt lat="44.52236" lon="6.71974">
        <ele>1767.8000488281</ele>
        <time>2022-03-10T08:43:34.000Z</time>
      </trkpt>
      <trkpt lat="44.52234" lon="6.71981">
        <ele>1768.5999755859</ele>
        <time>2022-03-10T08:43:41.000Z</time>
      </trkpt>
      <trkpt lat="44.52234" lon="6.71982">
        <ele>1768.5999755859</ele>
        <time>2022-03-10T08:43:42.000Z</time>
      </trkpt>
      <trkpt lat="44.52231" lon="6.71987">
        <ele>1769.1999511719</ele>
        <time>2022-03-10T08:43:48.000Z</time>
      </trkpt>
      <trkpt lat="44.5223" lon="6.7199">
        <ele>1769.5999755859</ele>
        <time>2022-03-10T08:43:52.000Z</time>
      </trkpt>
      <trkpt lat="44.5223" lon="6.71997">
        <ele>1770.1999511719</ele>
        <time>2022-03-10T08:43:58.000Z</time>
      </trkpt>
      <trkpt lat="44.52227" lon="6.72002">
        <ele>1770.5999755859</ele>
        <time>2022-03-10T08:44:04.000Z</time>
      </trkpt>
      <trkpt lat="44.52227" lon="6.72005">
        <ele>1770.8000488281</ele>
        <time>2022-03-10T08:44:07.000Z</time>
      </trkpt>
      <trkpt lat="44.52224" lon="6.72013">
        <ele>1771.8000488281</ele>
        <time>2022-03-10T08:44:13.000Z</time>
      </trkpt>
      <trkpt lat="44.52221" lon="6.72017">
        <ele>1772</ele>
        <time>2022-03-10T08:44:18.000Z</time>
      </trkpt>
      <trkpt lat="44.52218" lon="6.72024">
        <ele>1772.8000488281</ele>
        <time>2022-03-10T08:44:24.000Z</time>
      </trkpt>
      <trkpt lat="44.52216" lon="6.72026">
        <ele>1773.1999511719</ele>
        <time>2022-03-10T08:44:26.000Z</time>
      </trkpt>
      <trkpt lat="44.52214" lon="6.7203">
        <ele>1774</ele>
        <time>2022-03-10T08:44:32.000Z</time>
      </trkpt>
      <trkpt lat="44.52214" lon="6.72032">
        <ele>1774.1999511719</ele>
        <time>2022-03-10T08:44:34.000Z</time>
      </trkpt>
      <trkpt lat="44.52208" lon="6.72039">
        <ele>1775</ele>
        <time>2022-03-10T08:44:41.000Z</time>
      </trkpt>
      <trkpt lat="44.52207" lon="6.7204">
        <ele>1775</ele>
        <time>2022-03-10T08:44:42.000Z</time>
      </trkpt>
      <trkpt lat="44.52203" lon="6.72049">
        <ele>1776</ele>
        <time>2022-03-10T08:44:50.000Z</time>
      </trkpt>
      <trkpt lat="44.52203" lon="6.7205">
        <ele>1776</ele>
        <time>2022-03-10T08:44:51.000Z</time>
      </trkpt>
      <trkpt lat="44.52202" lon="6.72052">
        <ele>1776.4000244141</ele>
        <time>2022-03-10T08:44:54.000Z</time>
      </trkpt>
      <trkpt lat="44.52197" lon="6.72058">
        <ele>1777.1999511719</ele>
        <time>2022-03-10T08:44:59.000Z</time>
      </trkpt>
      <trkpt lat="44.52194" lon="6.7206">
        <ele>1777.5999755859</ele>
        <time>2022-03-10T08:45:02.000Z</time>
      </trkpt>
      <trkpt lat="44.52187" lon="6.72066">
        <ele>1778.4000244141</ele>
        <time>2022-03-10T08:45:10.000Z</time>
      </trkpt>
      <trkpt lat="44.52181" lon="6.72073">
        <ele>1779.1999511719</ele>
        <time>2022-03-10T08:45:18.000Z</time>
      </trkpt>
      <trkpt lat="44.5218" lon="6.72073">
        <ele>1779.4000244141</ele>
        <time>2022-03-10T08:45:20.000Z</time>
      </trkpt>
      <trkpt lat="44.52179" lon="6.72075">
        <ele>1780.1999511719</ele>
        <time>2022-03-10T08:45:24.000Z</time>
      </trkpt>
      <trkpt lat="44.52178" lon="6.72076">
        <ele>1780.5999755859</ele>
        <time>2022-03-10T08:45:27.000Z</time>
      </trkpt>
      <trkpt lat="44.52176" lon="6.72077">
        <ele>1781.5999755859</ele>
        <time>2022-03-10T08:45:32.000Z</time>
      </trkpt>
      <trkpt lat="44.52172" lon="6.72082">
        <ele>1782.5999755859</ele>
        <time>2022-03-10T08:45:39.000Z</time>
      </trkpt>
      <trkpt lat="44.52171" lon="6.72082">
        <ele>1782.8000488281</ele>
        <time>2022-03-10T08:45:40.000Z</time>
      </trkpt>
      <trkpt lat="44.52166" lon="6.72085">
        <ele>1783.8000488281</ele>
        <time>2022-03-10T08:45:47.000Z</time>
      </trkpt>
      <trkpt lat="44.52166" lon="6.72086">
        <ele>1784</ele>
        <time>2022-03-10T08:45:48.000Z</time>
      </trkpt>
      <trkpt lat="44.52164" lon="6.72089">
        <ele>1785</ele>
        <time>2022-03-10T08:45:54.000Z</time>
      </trkpt>
      <trkpt lat="44.52163" lon="6.7209">
        <ele>1785</ele>
        <time>2022-03-10T08:45:55.000Z</time>
      </trkpt>
      <trkpt lat="44.52159" lon="6.72095">
        <ele>1786</ele>
        <time>2022-03-10T08:46:02.000Z</time>
      </trkpt>
      <trkpt lat="44.52158" lon="6.72097">
        <ele>1787</ele>
        <time>2022-03-10T08:46:07.000Z</time>
      </trkpt>
      <trkpt lat="44.52157" lon="6.72099">
        <ele>1787.4000244141</ele>
        <time>2022-03-10T08:46:10.000Z</time>
      </trkpt>
      <trkpt lat="44.52155" lon="6.72101">
        <ele>1788.1999511719</ele>
        <time>2022-03-10T08:46:15.000Z</time>
      </trkpt>
      <trkpt lat="44.52154" lon="6.72102">
        <ele>1788.4000244141</ele>
        <time>2022-03-10T08:46:16.000Z</time>
      </trkpt>
      <trkpt lat="44.52153" lon="6.72106">
        <ele>1789.4000244141</ele>
        <time>2022-03-10T08:46:24.000Z</time>
      </trkpt>
      <trkpt lat="44.52152" lon="6.72107">
        <ele>1789.5999755859</ele>
        <time>2022-03-10T08:46:25.000Z</time>
      </trkpt>
      <trkpt lat="44.52146" lon="6.72113">
        <ele>1790.4000244141</ele>
        <time>2022-03-10T08:46:32.000Z</time>
      </trkpt>
      <trkpt lat="44.52142" lon="6.72119">
        <ele>1791.4000244141</ele>
        <time>2022-03-10T08:46:40.000Z</time>
      </trkpt>
      <trkpt lat="44.52141" lon="6.7212">
        <ele>1791.5999755859</ele>
        <time>2022-03-10T08:46:42.000Z</time>
      </trkpt>
      <trkpt lat="44.52137" lon="6.72124">
        <ele>1792</ele>
        <time>2022-03-10T08:46:47.000Z</time>
      </trkpt>
      <trkpt lat="44.52127" lon="6.72128">
        <ele>1792.5999755859</ele>
        <time>2022-03-10T08:46:54.000Z</time>
      </trkpt>
      <trkpt lat="44.52123" lon="6.72131">
        <ele>1792.5999755859</ele>
        <time>2022-03-10T08:46:57.000Z</time>
      </trkpt>
      <trkpt lat="44.52119" lon="6.72134">
        <ele>1793</ele>
        <time>2022-03-10T08:47:02.000Z</time>
      </trkpt>
      <trkpt lat="44.52113" lon="6.72137">
        <ele>1793.5999755859</ele>
        <time>2022-03-10T08:47:11.000Z</time>
      </trkpt>
      <trkpt lat="44.52111" lon="6.72138">
        <ele>1793.8000488281</ele>
        <time>2022-03-10T08:47:13.000Z</time>
      </trkpt>
      <trkpt lat="44.52107" lon="6.72139">
        <ele>1794.5999755859</ele>
        <time>2022-03-10T08:47:18.000Z</time>
      </trkpt>
      <trkpt lat="44.52106" lon="6.72139">
        <ele>1794.8000488281</ele>
        <time>2022-03-10T08:47:19.000Z</time>
      </trkpt>
      <trkpt lat="44.52102" lon="6.72139">
        <ele>1795.4000244141</ele>
        <time>2022-03-10T08:47:24.000Z</time>
      </trkpt>
      <trkpt lat="44.52099" lon="6.72139">
        <ele>1795.8000488281</ele>
        <time>2022-03-10T08:47:28.000Z</time>
      </trkpt>
      <trkpt lat="44.52095" lon="6.72139">
        <ele>1797</ele>
        <time>2022-03-10T08:47:34.000Z</time>
      </trkpt>
      <trkpt lat="44.52089" lon="6.72142">
        <ele>1797.8000488281</ele>
        <time>2022-03-10T08:47:43.000Z</time>
      </trkpt>
      <trkpt lat="44.52088" lon="6.72143">
        <ele>1798</ele>
        <time>2022-03-10T08:47:45.000Z</time>
      </trkpt>
      <trkpt lat="44.52084" lon="6.72143">
        <ele>1798.8000488281</ele>
        <time>2022-03-10T08:47:51.000Z</time>
      </trkpt>
      <trkpt lat="44.52083" lon="6.72143">
        <ele>1799</ele>
        <time>2022-03-10T08:47:52.000Z</time>
      </trkpt>
      <trkpt lat="44.52077" lon="6.72144">
        <ele>1800.4000244141</ele>
        <time>2022-03-10T08:48:01.000Z</time>
      </trkpt>
      <trkpt lat="44.52076" lon="6.72144">
        <ele>1800.4000244141</ele>
        <time>2022-03-10T08:48:02.000Z</time>
      </trkpt>
      <trkpt lat="44.52072" lon="6.7215">
        <ele>1801.1999511719</ele>
        <time>2022-03-10T08:48:10.000Z</time>
      </trkpt>
      <trkpt lat="44.5207" lon="6.72153">
        <ele>1801.4000244141</ele>
        <time>2022-03-10T08:48:15.000Z</time>
      </trkpt>
      <trkpt lat="44.52068" lon="6.72156">
        <ele>1801.8000488281</ele>
        <time>2022-03-10T08:48:20.000Z</time>
      </trkpt>
      <trkpt lat="44.52068" lon="6.72158">
        <ele>1802.4000244141</ele>
        <time>2022-03-10T08:48:26.000Z</time>
      </trkpt>
      <trkpt lat="44.52067" lon="6.72159">
        <ele>1802.4000244141</ele>
        <time>2022-03-10T08:48:27.000Z</time>
      </trkpt>
      <trkpt lat="44.52065" lon="6.72162">
        <ele>1803</ele>
        <time>2022-03-10T08:48:32.000Z</time>
      </trkpt>
      <trkpt lat="44.52064" lon="6.72165">
        <ele>1803.8000488281</ele>
        <time>2022-03-10T08:48:37.000Z</time>
      </trkpt>
      <trkpt lat="44.52064" lon="6.72167">
        <ele>1804.4000244141</ele>
        <time>2022-03-10T08:48:40.000Z</time>
      </trkpt>
      <trkpt lat="44.52064" lon="6.72169">
        <ele>1804.8000488281</ele>
        <time>2022-03-10T08:48:44.000Z</time>
      </trkpt>
      <trkpt lat="44.52062" lon="6.72174">
        <ele>1806</ele>
        <time>2022-03-10T08:48:50.000Z</time>
      </trkpt>
      <trkpt lat="44.52062" lon="6.72174">
        <ele>1806</ele>
        <time>2022-03-10T08:48:51.000Z</time>
      </trkpt>
      <trkpt lat="44.52061" lon="6.72179">
        <ele>1807</ele>
        <time>2022-03-10T08:48:56.000Z</time>
      </trkpt>
      <trkpt lat="44.5206" lon="6.72181">
        <ele>1807.4000244141</ele>
        <time>2022-03-10T08:48:59.000Z</time>
      </trkpt>
      <trkpt lat="44.5206" lon="6.72184">
        <ele>1808.1999511719</ele>
        <time>2022-03-10T08:49:04.000Z</time>
      </trkpt>
      <trkpt lat="44.5206" lon="6.72185">
        <ele>1808.5999755859</ele>
        <time>2022-03-10T08:49:06.000Z</time>
      </trkpt>
      <trkpt lat="44.52059" lon="6.72188">
        <ele>1809.1999511719</ele>
        <time>2022-03-10T08:49:10.000Z</time>
      </trkpt>
      <trkpt lat="44.52058" lon="6.72193">
        <ele>1809.8000488281</ele>
        <time>2022-03-10T08:49:16.000Z</time>
      </trkpt>
      <trkpt lat="44.52059" lon="6.72195">
        <ele>1810.1999511719</ele>
        <time>2022-03-10T08:49:19.000Z</time>
      </trkpt>
      <trkpt lat="44.52056" lon="6.72197">
        <ele>1810.8000488281</ele>
        <time>2022-03-10T08:49:24.000Z</time>
      </trkpt>
      <trkpt lat="44.52055" lon="6.72198">
        <ele>1811.4000244141</ele>
        <time>2022-03-10T08:49:26.000Z</time>
      </trkpt>
      <trkpt lat="44.52055" lon="6.72202">
        <ele>1812</ele>
        <time>2022-03-10T08:49:30.000Z</time>
      </trkpt>
      <trkpt lat="44.52055" lon="6.72206">
        <ele>1812.4000244141</ele>
        <time>2022-03-10T08:49:34.000Z</time>
      </trkpt>
      <trkpt lat="44.52053" lon="6.72209">
        <ele>1812.8000488281</ele>
        <time>2022-03-10T08:49:37.000Z</time>
      </trkpt>
      <trkpt lat="44.52051" lon="6.72213">
        <ele>1813.5999755859</ele>
        <time>2022-03-10T08:49:43.000Z</time>
      </trkpt>
      <trkpt lat="44.5205" lon="6.72214">
        <ele>1813.8000488281</ele>
        <time>2022-03-10T08:49:44.000Z</time>
      </trkpt>
      <trkpt lat="44.52046" lon="6.72217">
        <ele>1814.5999755859</ele>
        <time>2022-03-10T08:49:50.000Z</time>
      </trkpt>
      <trkpt lat="44.52046" lon="6.72219">
        <ele>1815</ele>
        <time>2022-03-10T08:49:52.000Z</time>
      </trkpt>
      <trkpt lat="44.52042" lon="6.72225">
        <ele>1815.5999755859</ele>
        <time>2022-03-10T08:50:00.000Z</time>
      </trkpt>
      <trkpt lat="44.52041" lon="6.72226">
        <ele>1815.8000488281</ele>
        <time>2022-03-10T08:50:01.000Z</time>
      </trkpt>
      <trkpt lat="44.5204" lon="6.72228">
        <ele>1816.1999511719</ele>
        <time>2022-03-10T08:50:06.000Z</time>
      </trkpt>
      <trkpt lat="44.52037" lon="6.72231">
        <ele>1816.8000488281</ele>
        <time>2022-03-10T08:50:10.000Z</time>
      </trkpt>
      <trkpt lat="44.52037" lon="6.72233">
        <ele>1817.4000244141</ele>
        <time>2022-03-10T08:50:14.000Z</time>
      </trkpt>
      <trkpt lat="44.52035" lon="6.72235">
        <ele>1818</ele>
        <time>2022-03-10T08:50:17.000Z</time>
      </trkpt>
      <trkpt lat="44.52032" lon="6.72237">
        <ele>1818.4000244141</ele>
        <time>2022-03-10T08:50:21.000Z</time>
      </trkpt>
      <trkpt lat="44.52026" lon="6.72244">
        <ele>1818.8000488281</ele>
        <time>2022-03-10T08:50:29.000Z</time>
      </trkpt>
      <trkpt lat="44.52025" lon="6.72245">
        <ele>1819</ele>
        <time>2022-03-10T08:50:30.000Z</time>
      </trkpt>
      <trkpt lat="44.52024" lon="6.72246">
        <ele>1819.1999511719</ele>
        <time>2022-03-10T08:50:31.000Z</time>
      </trkpt>
      <trkpt lat="44.52021" lon="6.72249">
        <ele>1819.4000244141</ele>
        <time>2022-03-10T08:50:36.000Z</time>
      </trkpt>
      <trkpt lat="44.52016" lon="6.72256">
        <ele>1819.8000488281</ele>
        <time>2022-03-10T08:50:44.000Z</time>
      </trkpt>
      <trkpt lat="44.52015" lon="6.72258">
        <ele>1820.1999511719</ele>
        <time>2022-03-10T08:50:47.000Z</time>
      </trkpt>
      <trkpt lat="44.52012" lon="6.72265">
        <ele>1820.8000488281</ele>
        <time>2022-03-10T08:50:55.000Z</time>
      </trkpt>
      <trkpt lat="44.52009" lon="6.72269">
        <ele>1821.1999511719</ele>
        <time>2022-03-10T08:51:01.000Z</time>
      </trkpt>
      <trkpt lat="44.52004" lon="6.72274">
        <ele>1821.4000244141</ele>
        <time>2022-03-10T08:51:06.000Z</time>
      </trkpt>
      <trkpt lat="44.51999" lon="6.72276">
        <ele>1822.1999511719</ele>
        <time>2022-03-10T08:51:12.000Z</time>
      </trkpt>
      <trkpt lat="44.51995" lon="6.72281">
        <ele>1822.5999755859</ele>
        <time>2022-03-10T08:51:17.000Z</time>
      </trkpt>
      <trkpt lat="44.51991" lon="6.72286">
        <ele>1823.1999511719</ele>
        <time>2022-03-10T08:51:25.000Z</time>
      </trkpt>
      <trkpt lat="44.5199" lon="6.72289">
        <ele>1823.4000244141</ele>
        <time>2022-03-10T08:51:28.000Z</time>
      </trkpt>
      <trkpt lat="44.5199" lon="6.72293">
        <ele>1823.8000488281</ele>
        <time>2022-03-10T08:51:34.000Z</time>
      </trkpt>
      <trkpt lat="44.51993" lon="6.72297">
        <ele>1824.1999511719</ele>
        <time>2022-03-10T08:51:40.000Z</time>
      </trkpt>
      <trkpt lat="44.51995" lon="6.72297">
        <ele>1824.4000244141</ele>
        <time>2022-03-10T08:51:42.000Z</time>
      </trkpt>
      <trkpt lat="44.51995" lon="6.72301">
        <ele>1825.4000244141</ele>
        <time>2022-03-10T08:51:47.000Z</time>
      </trkpt>
      <trkpt lat="44.51988" lon="6.72308">
        <ele>1826.5999755859</ele>
        <time>2022-03-10T08:51:54.000Z</time>
      </trkpt>
      <trkpt lat="44.51983" lon="6.72314">
        <ele>1827.5999755859</ele>
        <time>2022-03-10T08:52:03.000Z</time>
      </trkpt>
      <trkpt lat="44.51979" lon="6.72317">
        <ele>1828</ele>
        <time>2022-03-10T08:52:08.000Z</time>
      </trkpt>
      <trkpt lat="44.51978" lon="6.72321">
        <ele>1828.5999755859</ele>
        <time>2022-03-10T08:52:14.000Z</time>
      </trkpt>
      <trkpt lat="44.51972" lon="6.72324">
        <ele>1829.5999755859</ele>
        <time>2022-03-10T08:52:22.000Z</time>
      </trkpt>
      <trkpt lat="44.51971" lon="6.72325">
        <ele>1829.8000488281</ele>
        <time>2022-03-10T08:52:24.000Z</time>
      </trkpt>
      <trkpt lat="44.51966" lon="6.72327">
        <ele>1830.4000244141</ele>
        <time>2022-03-10T08:52:29.000Z</time>
      </trkpt>
      <trkpt lat="44.51963" lon="6.72327">
        <ele>1830.8000488281</ele>
        <time>2022-03-10T08:52:32.000Z</time>
      </trkpt>
      <trkpt lat="44.51956" lon="6.72329">
        <ele>1831.8000488281</ele>
        <time>2022-03-10T08:52:40.000Z</time>
      </trkpt>
      <trkpt lat="44.51956" lon="6.72331">
        <ele>1832</ele>
        <time>2022-03-10T08:52:41.000Z</time>
      </trkpt>
      <trkpt lat="44.51953" lon="6.72335">
        <ele>1832.8000488281</ele>
        <time>2022-03-10T08:52:48.000Z</time>
      </trkpt>
      <trkpt lat="44.51952" lon="6.72336">
        <ele>1833.4000244141</ele>
        <time>2022-03-10T08:52:51.000Z</time>
      </trkpt>
      <trkpt lat="44.51952" lon="6.72338">
        <ele>1834</ele>
        <time>2022-03-10T08:52:55.000Z</time>
      </trkpt>
      <trkpt lat="44.51951" lon="6.72339">
        <ele>1834.4000244141</ele>
        <time>2022-03-10T08:52:57.000Z</time>
      </trkpt>
      <trkpt lat="44.5195" lon="6.72344">
        <ele>1835.1999511719</ele>
        <time>2022-03-10T08:53:04.000Z</time>
      </trkpt>
      <trkpt lat="44.5195" lon="6.72344">
        <ele>1835.5999755859</ele>
        <time>2022-03-10T08:53:05.000Z</time>
      </trkpt>
      <trkpt lat="44.51947" lon="6.72348">
        <ele>1836.1999511719</ele>
        <time>2022-03-10T08:53:12.000Z</time>
      </trkpt>
      <trkpt lat="44.51947" lon="6.72348">
        <ele>1836.4000244141</ele>
        <time>2022-03-10T08:53:13.000Z</time>
      </trkpt>
      <trkpt lat="44.51946" lon="6.72352">
        <ele>1837.4000244141</ele>
        <time>2022-03-10T08:53:18.000Z</time>
      </trkpt>
      <trkpt lat="44.51944" lon="6.72354">
        <ele>1838.1999511719</ele>
        <time>2022-03-10T08:53:23.000Z</time>
      </trkpt>
      <trkpt lat="44.51943" lon="6.72355">
        <ele>1838.1999511719</ele>
        <time>2022-03-10T08:53:24.000Z</time>
      </trkpt>
      <trkpt lat="44.51943" lon="6.72356">
        <ele>1838.5999755859</ele>
        <time>2022-03-10T08:53:26.000Z</time>
      </trkpt>
      <trkpt lat="44.51944" lon="6.7236">
        <ele>1839.4000244141</ele>
        <time>2022-03-10T08:53:32.000Z</time>
      </trkpt>
      <trkpt lat="44.51944" lon="6.72361">
        <ele>1839.5999755859</ele>
        <time>2022-03-10T08:53:34.000Z</time>
      </trkpt>
      <trkpt lat="44.51945" lon="6.72365">
        <ele>1839.8000488281</ele>
        <time>2022-03-10T08:53:39.000Z</time>
      </trkpt>
      <trkpt lat="44.51946" lon="6.7237">
        <ele>1840</ele>
        <time>2022-03-10T08:53:46.000Z</time>
      </trkpt>
      <trkpt lat="44.51946" lon="6.72379">
        <ele>1840.8000488281</ele>
        <time>2022-03-10T08:53:53.000Z</time>
      </trkpt>
      <trkpt lat="44.51947" lon="6.72382">
        <ele>1841.1999511719</ele>
        <time>2022-03-10T08:53:56.000Z</time>
      </trkpt>
      <trkpt lat="44.51945" lon="6.72387">
        <ele>1841.8000488281</ele>
        <time>2022-03-10T08:54:00.000Z</time>
      </trkpt>
      <trkpt lat="44.51943" lon="6.7239">
        <ele>1842</ele>
        <time>2022-03-10T08:54:03.000Z</time>
      </trkpt>
      <trkpt lat="44.51942" lon="6.72398">
        <ele>1842.5999755859</ele>
        <time>2022-03-10T08:54:11.000Z</time>
      </trkpt>
      <trkpt lat="44.51941" lon="6.72401">
        <ele>1842.8000488281</ele>
        <time>2022-03-10T08:54:14.000Z</time>
      </trkpt>
      <trkpt lat="44.51939" lon="6.72406">
        <ele>1843</ele>
        <time>2022-03-10T08:54:19.000Z</time>
      </trkpt>
      <trkpt lat="44.51938" lon="6.72413">
        <ele>1843.8000488281</ele>
        <time>2022-03-10T08:54:26.000Z</time>
      </trkpt>
      <trkpt lat="44.51939" lon="6.72414">
        <ele>1844</ele>
        <time>2022-03-10T08:54:27.000Z</time>
      </trkpt>
      <trkpt lat="44.51941" lon="6.72425">
        <ele>1844.1999511719</ele>
        <time>2022-03-10T08:54:36.000Z</time>
      </trkpt>
      <trkpt lat="44.5194" lon="6.72431">
        <ele>1844.5999755859</ele>
        <time>2022-03-10T08:54:41.000Z</time>
      </trkpt>
      <trkpt lat="44.51939" lon="6.72438">
        <ele>1845</ele>
        <time>2022-03-10T08:54:47.000Z</time>
      </trkpt>
      <trkpt lat="44.51939" lon="6.72442">
        <ele>1845.1999511719</ele>
        <time>2022-03-10T08:54:50.000Z</time>
      </trkpt>
      <trkpt lat="44.51938" lon="6.72448">
        <ele>1846</ele>
        <time>2022-03-10T08:54:57.000Z</time>
      </trkpt>
      <trkpt lat="44.51939" lon="6.72449">
        <ele>1846</ele>
        <time>2022-03-10T08:54:58.000Z</time>
      </trkpt>
      <trkpt lat="44.5194" lon="6.72455">
        <ele>1846.8000488281</ele>
        <time>2022-03-10T08:55:04.000Z</time>
      </trkpt>
      <trkpt lat="44.51938" lon="6.72459">
        <ele>1847</ele>
        <time>2022-03-10T08:55:08.000Z</time>
      </trkpt>
      <trkpt lat="44.51938" lon="6.72461">
        <ele>1847.4000244141</ele>
        <time>2022-03-10T08:55:10.000Z</time>
      </trkpt>
      <trkpt lat="44.51935" lon="6.72467">
        <ele>1848.1999511719</ele>
        <time>2022-03-10T08:55:15.000Z</time>
      </trkpt>
      <trkpt lat="44.51934" lon="6.7247">
        <ele>1848.4000244141</ele>
        <time>2022-03-10T08:55:18.000Z</time>
      </trkpt>
      <trkpt lat="44.51928" lon="6.72483">
        <ele>1849</ele>
        <time>2022-03-10T08:55:27.000Z</time>
      </trkpt>
      <trkpt lat="44.51927" lon="6.72487">
        <ele>1849.1999511719</ele>
        <time>2022-03-10T08:55:30.000Z</time>
      </trkpt>
      <trkpt lat="44.51927" lon="6.72491">
        <ele>1849.5999755859</ele>
        <time>2022-03-10T08:55:34.000Z</time>
      </trkpt>
      <trkpt lat="44.51924" lon="6.72498">
        <ele>1850.1999511719</ele>
        <time>2022-03-10T08:55:41.000Z</time>
      </trkpt>
      <trkpt lat="44.51924" lon="6.72499">
        <ele>1850.1999511719</ele>
        <time>2022-03-10T08:55:42.000Z</time>
      </trkpt>
      <trkpt lat="44.51922" lon="6.72504">
        <ele>1850.5999755859</ele>
        <time>2022-03-10T08:55:47.000Z</time>
      </trkpt>
      <trkpt lat="44.51912" lon="6.72513">
        <ele>1851.4000244141</ele>
        <time>2022-03-10T08:55:55.000Z</time>
      </trkpt>
      <trkpt lat="44.51911" lon="6.72514">
        <ele>1851.5999755859</ele>
        <time>2022-03-10T08:55:57.000Z</time>
      </trkpt>
      <trkpt lat="44.51908" lon="6.72522">
        <ele>1852.4000244141</ele>
        <time>2022-03-10T08:56:06.000Z</time>
      </trkpt>
      <trkpt lat="44.51902" lon="6.72529">
        <ele>1853</ele>
        <time>2022-03-10T08:56:13.000Z</time>
      </trkpt>
      <trkpt lat="44.51898" lon="6.72538">
        <ele>1853.5999755859</ele>
        <time>2022-03-10T08:56:20.000Z</time>
      </trkpt>
      <trkpt lat="44.51897" lon="6.72539">
        <ele>1853.5999755859</ele>
        <time>2022-03-10T08:56:21.000Z</time>
      </trkpt>
      <trkpt lat="44.51893" lon="6.72545">
        <ele>1854.1999511719</ele>
        <time>2022-03-10T08:56:29.000Z</time>
      </trkpt>
      <trkpt lat="44.5189" lon="6.72547">
        <ele>1854.5999755859</ele>
        <time>2022-03-10T08:56:33.000Z</time>
      </trkpt>
      <trkpt lat="44.51889" lon="6.7255">
        <ele>1855</ele>
        <time>2022-03-10T08:56:36.000Z</time>
      </trkpt>
      <trkpt lat="44.51889" lon="6.72556">
        <ele>1855.8000488281</ele>
        <time>2022-03-10T08:56:43.000Z</time>
      </trkpt>
      <trkpt lat="44.51886" lon="6.72562">
        <ele>1856.4000244141</ele>
        <time>2022-03-10T08:56:50.000Z</time>
      </trkpt>
      <trkpt lat="44.51885" lon="6.72563">
        <ele>1857</ele>
        <time>2022-03-10T08:56:52.000Z</time>
      </trkpt>
      <trkpt lat="44.5188" lon="6.72569">
        <ele>1857.8000488281</ele>
        <time>2022-03-10T08:56:59.000Z</time>
      </trkpt>
      <trkpt lat="44.51878" lon="6.72572">
        <ele>1858</ele>
        <time>2022-03-10T08:57:02.000Z</time>
      </trkpt>
      <trkpt lat="44.51871" lon="6.72576">
        <ele>1858.8000488281</ele>
        <time>2022-03-10T08:57:09.000Z</time>
      </trkpt>
      <trkpt lat="44.5187" lon="6.72577">
        <ele>1859</ele>
        <time>2022-03-10T08:57:11.000Z</time>
      </trkpt>
      <trkpt lat="44.51868" lon="6.7258">
        <ele>1859.5999755859</ele>
        <time>2022-03-10T08:57:15.000Z</time>
      </trkpt>
      <trkpt lat="44.51866" lon="6.72582">
        <ele>1860.1999511719</ele>
        <time>2022-03-10T08:57:19.000Z</time>
      </trkpt>
      <trkpt lat="44.51862" lon="6.72585">
        <ele>1860.5999755859</ele>
        <time>2022-03-10T08:57:24.000Z</time>
      </trkpt>
      <trkpt lat="44.51858" lon="6.72588">
        <ele>1861.1999511719</ele>
        <time>2022-03-10T08:57:30.000Z</time>
      </trkpt>
      <trkpt lat="44.51856" lon="6.72588">
        <ele>1861.1999511719</ele>
        <time>2022-03-10T08:57:31.000Z</time>
      </trkpt>
      <trkpt lat="44.51853" lon="6.72593">
        <ele>1862.1999511719</ele>
        <time>2022-03-10T08:57:39.000Z</time>
      </trkpt>
      <trkpt lat="44.51852" lon="6.72594">
        <ele>1862.1999511719</ele>
        <time>2022-03-10T08:57:40.000Z</time>
      </trkpt>
      <trkpt lat="44.51848" lon="6.72598">
        <ele>1863.1999511719</ele>
        <time>2022-03-10T08:57:47.000Z</time>
      </trkpt>
      <trkpt lat="44.51848" lon="6.72599">
        <ele>1863.4000244141</ele>
        <time>2022-03-10T08:57:48.000Z</time>
      </trkpt>
      <trkpt lat="44.51845" lon="6.72605">
        <ele>1864.1999511719</ele>
        <time>2022-03-10T08:57:55.000Z</time>
      </trkpt>
      <trkpt lat="44.51845" lon="6.72607">
        <ele>1864.4000244141</ele>
        <time>2022-03-10T08:57:57.000Z</time>
      </trkpt>
      <trkpt lat="44.51842" lon="6.72612">
        <ele>1865</ele>
        <time>2022-03-10T08:58:02.000Z</time>
      </trkpt>
      <trkpt lat="44.51842" lon="6.72614">
        <ele>1865.4000244141</ele>
        <time>2022-03-10T08:58:05.000Z</time>
      </trkpt>
      <trkpt lat="44.51839" lon="6.72621">
        <ele>1866.1999511719</ele>
        <time>2022-03-10T08:58:11.000Z</time>
      </trkpt>
      <trkpt lat="44.51838" lon="6.72623">
        <ele>1866.5999755859</ele>
        <time>2022-03-10T08:58:13.000Z</time>
      </trkpt>
      <trkpt lat="44.51833" lon="6.72627">
        <ele>1867.5999755859</ele>
        <time>2022-03-10T08:58:21.000Z</time>
      </trkpt>
      <trkpt lat="44.51831" lon="6.72631">
        <ele>1868.8000488281</ele>
        <time>2022-03-10T08:58:29.000Z</time>
      </trkpt>
      <trkpt lat="44.51829" lon="6.72634">
        <ele>1869.8000488281</ele>
        <time>2022-03-10T08:58:36.000Z</time>
      </trkpt>
      <trkpt lat="44.51829" lon="6.72634">
        <ele>1869.8000488281</ele>
        <time>2022-03-10T08:58:37.000Z</time>
      </trkpt>
      <trkpt lat="44.51832" lon="6.72637">
        <ele>1870.1999511719</ele>
        <time>2022-03-10T08:58:41.000Z</time>
      </trkpt>
      <trkpt lat="44.5183" lon="6.7264">
        <ele>1870.5999755859</ele>
        <time>2022-03-10T08:58:43.000Z</time>
      </trkpt>
      <trkpt lat="44.51829" lon="6.7264">
        <ele>1870.8000488281</ele>
        <time>2022-03-10T08:58:46.000Z</time>
      </trkpt>
      <trkpt lat="44.51827" lon="6.72642">
        <ele>1871.4000244141</ele>
        <time>2022-03-10T08:58:49.000Z</time>
      </trkpt>
      <trkpt lat="44.51825" lon="6.72645">
        <ele>1871.8000488281</ele>
        <time>2022-03-10T08:58:54.000Z</time>
      </trkpt>
      <trkpt lat="44.51823" lon="6.72646">
        <ele>1872.1999511719</ele>
        <time>2022-03-10T08:58:56.000Z</time>
      </trkpt>
      <trkpt lat="44.51821" lon="6.72648">
        <ele>1873</ele>
        <time>2022-03-10T08:59:01.000Z</time>
      </trkpt>
      <trkpt lat="44.5182" lon="6.72649">
        <ele>1873.1999511719</ele>
        <time>2022-03-10T08:59:02.000Z</time>
      </trkpt>
      <trkpt lat="44.51816" lon="6.72652">
        <ele>1874.1999511719</ele>
        <time>2022-03-10T08:59:07.000Z</time>
      </trkpt>
      <trkpt lat="44.51814" lon="6.72654">
        <ele>1874.1999511719</ele>
        <time>2022-03-10T08:59:09.000Z</time>
      </trkpt>
      <trkpt lat="44.5181" lon="6.72658">
        <ele>1875</ele>
        <time>2022-03-10T08:59:15.000Z</time>
      </trkpt>
      <trkpt lat="44.51809" lon="6.72659">
        <ele>1875.1999511719</ele>
        <time>2022-03-10T08:59:16.000Z</time>
      </trkpt>
      <trkpt lat="44.51807" lon="6.72661">
        <ele>1876</ele>
        <time>2022-03-10T08:59:22.000Z</time>
      </trkpt>
      <trkpt lat="44.51807" lon="6.72662">
        <ele>1876.1999511719</ele>
        <time>2022-03-10T08:59:24.000Z</time>
      </trkpt>
      <trkpt lat="44.51806" lon="6.72666">
        <ele>1876.8000488281</ele>
        <time>2022-03-10T08:59:28.000Z</time>
      </trkpt>
      <trkpt lat="44.51803" lon="6.72669">
        <ele>1877.1999511719</ele>
        <time>2022-03-10T08:59:31.000Z</time>
      </trkpt>
      <trkpt lat="44.51802" lon="6.7267">
        <ele>1877.8000488281</ele>
        <time>2022-03-10T08:59:35.000Z</time>
      </trkpt>
      <trkpt lat="44.51798" lon="6.72671">
        <ele>1878.1999511719</ele>
        <time>2022-03-10T08:59:42.000Z</time>
      </trkpt>
      <trkpt lat="44.51797" lon="6.7267">
        <ele>1878.4000244141</ele>
        <time>2022-03-10T08:59:45.000Z</time>
      </trkpt>
      <trkpt lat="44.51796" lon="6.72668">
        <ele>1878.1999511719</ele>
        <time>2022-03-10T08:59:53.000Z</time>
      </trkpt>
      <trkpt lat="44.51795" lon="6.72674">
        <ele>1878.8000488281</ele>
        <time>2022-03-10T09:00:00.000Z</time>
      </trkpt>
      <trkpt lat="44.51793" lon="6.7268">
        <ele>1879.4000244141</ele>
        <time>2022-03-10T09:00:07.000Z</time>
      </trkpt>
      <trkpt lat="44.51792" lon="6.72682">
        <ele>1879.5999755859</ele>
        <time>2022-03-10T09:00:09.000Z</time>
      </trkpt>
      <trkpt lat="44.51791" lon="6.72686">
        <ele>1880.4000244141</ele>
        <time>2022-03-10T09:00:15.000Z</time>
      </trkpt>
      <trkpt lat="44.51792" lon="6.72687">
        <ele>1880.8000488281</ele>
        <time>2022-03-10T09:00:17.000Z</time>
      </trkpt>
      <trkpt lat="44.51791" lon="6.72693">
        <ele>1881.4000244141</ele>
        <time>2022-03-10T09:00:23.000Z</time>
      </trkpt>
      <trkpt lat="44.51791" lon="6.72697">
        <ele>1881.8000488281</ele>
        <time>2022-03-10T09:00:27.000Z</time>
      </trkpt>
      <trkpt lat="44.5179" lon="6.72699">
        <ele>1882.1999511719</ele>
        <time>2022-03-10T09:00:30.000Z</time>
      </trkpt>
      <trkpt lat="44.51788" lon="6.72702">
        <ele>1882.8000488281</ele>
        <time>2022-03-10T09:00:35.000Z</time>
      </trkpt>
      <trkpt lat="44.51787" lon="6.72703">
        <ele>1882.8000488281</ele>
        <time>2022-03-10T09:00:36.000Z</time>
      </trkpt>
      <trkpt lat="44.51782" lon="6.72709">
        <ele>1883.5999755859</ele>
        <time>2022-03-10T09:00:43.000Z</time>
      </trkpt>
      <trkpt lat="44.5178" lon="6.72713">
        <ele>1884</ele>
        <time>2022-03-10T09:00:48.000Z</time>
      </trkpt>
      <trkpt lat="44.51779" lon="6.72714">
        <ele>1884.1999511719</ele>
        <time>2022-03-10T09:00:50.000Z</time>
      </trkpt>
      <trkpt lat="44.51773" lon="6.7272">
        <ele>1885</ele>
        <time>2022-03-10T09:00:56.000Z</time>
      </trkpt>
      <trkpt lat="44.51772" lon="6.7272">
        <ele>1885.1999511719</ele>
        <time>2022-03-10T09:00:57.000Z</time>
      </trkpt>
      <trkpt lat="44.51767" lon="6.72725">
        <ele>1886.1999511719</ele>
        <time>2022-03-10T09:01:03.000Z</time>
      </trkpt>
      <trkpt lat="44.51764" lon="6.72726">
        <ele>1886.4000244141</ele>
        <time>2022-03-10T09:01:06.000Z</time>
      </trkpt>
      <trkpt lat="44.51756" lon="6.72731">
        <ele>1887.1999511719</ele>
        <time>2022-03-10T09:01:13.000Z</time>
      </trkpt>
      <trkpt lat="44.51751" lon="6.72734">
        <ele>1888.1999511719</ele>
        <time>2022-03-10T09:01:20.000Z</time>
      </trkpt>
      <trkpt lat="44.5175" lon="6.72735">
        <ele>1888.4000244141</ele>
        <time>2022-03-10T09:01:22.000Z</time>
      </trkpt>
      <trkpt lat="44.51747" lon="6.72739">
        <ele>1889.4000244141</ele>
        <time>2022-03-10T09:01:28.000Z</time>
      </trkpt>
      <trkpt lat="44.51746" lon="6.72739">
        <ele>1889.5999755859</ele>
        <time>2022-03-10T09:01:30.000Z</time>
      </trkpt>
      <trkpt lat="44.51742" lon="6.72742">
        <ele>1890.5999755859</ele>
        <time>2022-03-10T09:01:37.000Z</time>
      </trkpt>
      <trkpt lat="44.51738" lon="6.72742">
        <ele>1890.8000488281</ele>
        <time>2022-03-10T09:01:43.000Z</time>
      </trkpt>
      <trkpt lat="44.51731" lon="6.72745">
        <ele>1891.1999511719</ele>
        <time>2022-03-10T09:01:50.000Z</time>
      </trkpt>
      <trkpt lat="44.51727" lon="6.72746">
        <ele>1891.5999755859</ele>
        <time>2022-03-10T09:01:53.000Z</time>
      </trkpt>
      <trkpt lat="44.51723" lon="6.72747">
        <ele>1892</ele>
        <time>2022-03-10T09:01:58.000Z</time>
      </trkpt>
      <trkpt lat="44.51719" lon="6.72749">
        <ele>1892.5999755859</ele>
        <time>2022-03-10T09:02:03.000Z</time>
      </trkpt>
      <trkpt lat="44.51717" lon="6.72752">
        <ele>1893</ele>
        <time>2022-03-10T09:02:05.000Z</time>
      </trkpt>
      <trkpt lat="44.51714" lon="6.72752">
        <ele>1893.8000488281</ele>
        <time>2022-03-10T09:02:11.000Z</time>
      </trkpt>
      <trkpt lat="44.51711" lon="6.72746">
        <ele>1894</ele>
        <time>2022-03-10T09:02:22.000Z</time>
      </trkpt>
      <trkpt lat="44.51712" lon="6.72744">
        <ele>1894</ele>
        <time>2022-03-10T09:02:30.000Z</time>
      </trkpt>
      <trkpt lat="44.51709" lon="6.7274">
        <ele>1894.8000488281</ele>
        <time>2022-03-10T09:03:28.000Z</time>
      </trkpt>
      <trkpt lat="44.51707" lon="6.72734">
        <ele>1895.4000244141</ele>
        <time>2022-03-10T09:03:32.000Z</time>
      </trkpt>
      <trkpt lat="44.51706" lon="6.72731">
        <ele>1895.8000488281</ele>
        <time>2022-03-10T09:03:35.000Z</time>
      </trkpt>
      <trkpt lat="44.51705" lon="6.72728">
        <ele>1896.1999511719</ele>
        <time>2022-03-10T09:03:39.000Z</time>
      </trkpt>
      <trkpt lat="44.51705" lon="6.72726">
        <ele>1897</ele>
        <time>2022-03-10T09:03:42.000Z</time>
      </trkpt>
      <trkpt lat="44.51705" lon="6.72722">
        <ele>1897.8000488281</ele>
        <time>2022-03-10T09:03:48.000Z</time>
      </trkpt>
      <trkpt lat="44.51704" lon="6.72722">
        <ele>1898</ele>
        <time>2022-03-10T09:03:49.000Z</time>
      </trkpt>
      <trkpt lat="44.51703" lon="6.7272">
        <ele>1899.1999511719</ele>
        <time>2022-03-10T09:03:55.000Z</time>
      </trkpt>
      <trkpt lat="44.51703" lon="6.7272">
        <ele>1899.4000244141</ele>
        <time>2022-03-10T09:03:57.000Z</time>
      </trkpt>
      <trkpt lat="44.51706" lon="6.72719">
        <ele>1900.1999511719</ele>
        <time>2022-03-10T09:06:52.000Z</time>
      </trkpt>
      <trkpt lat="44.51702" lon="6.72714">
        <ele>1901</ele>
        <time>2022-03-10T09:06:55.000Z</time>
      </trkpt>
      <trkpt lat="44.517" lon="6.72712">
        <ele>1901.4000244141</ele>
        <time>2022-03-10T09:06:57.000Z</time>
      </trkpt>
      <trkpt lat="44.51695" lon="6.72707">
        <ele>1902</ele>
        <time>2022-03-10T09:07:04.000Z</time>
      </trkpt>
      <trkpt lat="44.51694" lon="6.72707">
        <ele>1902.1999511719</ele>
        <time>2022-03-10T09:07:06.000Z</time>
      </trkpt>
      <trkpt lat="44.51693" lon="6.72707">
        <ele>1902.4000244141</ele>
        <time>2022-03-10T09:07:07.000Z</time>
      </trkpt>
      <trkpt lat="44.51691" lon="6.72706">
        <ele>1903.4000244141</ele>
        <time>2022-03-10T09:07:16.000Z</time>
      </trkpt>
      <trkpt lat="44.51692" lon="6.72705">
        <ele>1903.4000244141</ele>
        <time>2022-03-10T09:07:20.000Z</time>
      </trkpt>
      <trkpt lat="44.51691" lon="6.72706">
        <ele>1903.4000244141</ele>
        <time>2022-03-10T09:07:23.000Z</time>
      </trkpt>
      <trkpt lat="44.51691" lon="6.7271">
        <ele>1904</ele>
        <time>2022-03-10T09:07:31.000Z</time>
      </trkpt>
      <trkpt lat="44.51687" lon="6.72712">
        <ele>1904.5999755859</ele>
        <time>2022-03-10T09:07:36.000Z</time>
      </trkpt>
      <trkpt lat="44.51685" lon="6.72709">
        <ele>1904.8000488281</ele>
        <time>2022-03-10T09:07:38.000Z</time>
      </trkpt>
      <trkpt lat="44.51679" lon="6.72697">
        <ele>1905.5999755859</ele>
        <time>2022-03-10T09:07:49.000Z</time>
      </trkpt>
      <trkpt lat="44.51678" lon="6.72692">
        <ele>1906.4000244141</ele>
        <time>2022-03-10T09:07:55.000Z</time>
      </trkpt>
      <trkpt lat="44.51678" lon="6.72691">
        <ele>1906.5999755859</ele>
        <time>2022-03-10T09:07:56.000Z</time>
      </trkpt>
      <trkpt lat="44.51678" lon="6.72691">
        <ele>1906.8000488281</ele>
        <time>2022-03-10T09:07:57.000Z</time>
      </trkpt>
      <trkpt lat="44.51676" lon="6.72687">
        <ele>1907.8000488281</ele>
        <time>2022-03-10T09:08:03.000Z</time>
      </trkpt>
      <trkpt lat="44.51676" lon="6.72686">
        <ele>1908.1999511719</ele>
        <time>2022-03-10T09:08:05.000Z</time>
      </trkpt>
      <trkpt lat="44.51675" lon="6.72682">
        <ele>1908.8000488281</ele>
        <time>2022-03-10T09:08:09.000Z</time>
      </trkpt>
      <trkpt lat="44.51674" lon="6.72679">
        <ele>1909.5999755859</ele>
        <time>2022-03-10T09:08:15.000Z</time>
      </trkpt>
      <trkpt lat="44.51673" lon="6.72675">
        <ele>1910</ele>
        <time>2022-03-10T09:08:22.000Z</time>
      </trkpt>
      <trkpt lat="44.51673" lon="6.72674">
        <ele>1910</ele>
        <time>2022-03-10T09:08:23.000Z</time>
      </trkpt>
      <trkpt lat="44.51672" lon="6.72669">
        <ele>1910.8000488281</ele>
        <time>2022-03-10T09:08:30.000Z</time>
      </trkpt>
      <trkpt lat="44.51672" lon="6.72669">
        <ele>1911</ele>
        <time>2022-03-10T09:08:31.000Z</time>
      </trkpt>
      <trkpt lat="44.51671" lon="6.72672">
        <ele>1911.5999755859</ele>
        <time>2022-03-10T09:08:37.000Z</time>
      </trkpt>
      <trkpt lat="44.5167" lon="6.72673">
        <ele>1912</ele>
        <time>2022-03-10T09:08:40.000Z</time>
      </trkpt>
      <trkpt lat="44.51669" lon="6.72678">
        <ele>1913.1999511719</ele>
        <time>2022-03-10T09:08:47.000Z</time>
      </trkpt>
      <trkpt lat="44.51666" lon="6.72683">
        <ele>1914</ele>
        <time>2022-03-10T09:08:54.000Z</time>
      </trkpt>
      <trkpt lat="44.51667" lon="6.72684">
        <ele>1914</ele>
        <time>2022-03-10T09:08:55.000Z</time>
      </trkpt>
      <trkpt lat="44.51667" lon="6.7269">
        <ele>1914</ele>
        <time>2022-03-10T09:09:01.000Z</time>
      </trkpt>
      <trkpt lat="44.51667" lon="6.72692">
        <ele>1914.1999511719</ele>
        <time>2022-03-10T09:09:04.000Z</time>
      </trkpt>
      <trkpt lat="44.51665" lon="6.72694">
        <ele>1914.5999755859</ele>
        <time>2022-03-10T09:09:07.000Z</time>
      </trkpt>
      <trkpt lat="44.51663" lon="6.72697">
        <ele>1915.1999511719</ele>
        <time>2022-03-10T09:09:12.000Z</time>
      </trkpt>
      <trkpt lat="44.51662" lon="6.727">
        <ele>1915.8000488281</ele>
        <time>2022-03-10T09:09:16.000Z</time>
      </trkpt>
      <trkpt lat="44.5166" lon="6.72702">
        <ele>1916.1999511719</ele>
        <time>2022-03-10T09:09:19.000Z</time>
      </trkpt>
      <trkpt lat="44.5166" lon="6.72702">
        <ele>1916.4000244141</ele>
        <time>2022-03-10T09:09:20.000Z</time>
      </trkpt>
      <trkpt lat="44.51659" lon="6.72704">
        <ele>1916.8000488281</ele>
        <time>2022-03-10T09:09:23.000Z</time>
      </trkpt>
      <trkpt lat="44.51657" lon="6.72707">
        <ele>1917.1999511719</ele>
        <time>2022-03-10T09:09:30.000Z</time>
      </trkpt>
      <trkpt lat="44.51656" lon="6.72708">
        <ele>1917.4000244141</ele>
        <time>2022-03-10T09:09:32.000Z</time>
      </trkpt>
      <trkpt lat="44.51654" lon="6.72711">
        <ele>1918.1999511719</ele>
        <time>2022-03-10T09:09:37.000Z</time>
      </trkpt>
      <trkpt lat="44.51653" lon="6.72713">
        <ele>1918.4000244141</ele>
        <time>2022-03-10T09:09:39.000Z</time>
      </trkpt>
      <trkpt lat="44.51652" lon="6.72715">
        <ele>1919.4000244141</ele>
        <time>2022-03-10T09:09:45.000Z</time>
      </trkpt>
      <trkpt lat="44.51648" lon="6.72716">
        <ele>1920.5999755859</ele>
        <time>2022-03-10T09:09:52.000Z</time>
      </trkpt>
      <trkpt lat="44.51643" lon="6.72716">
        <ele>1921.8000488281</ele>
        <time>2022-03-10T09:10:00.000Z</time>
      </trkpt>
      <trkpt lat="44.51643" lon="6.72716">
        <ele>1922</ele>
        <time>2022-03-10T09:10:01.000Z</time>
      </trkpt>
      <trkpt lat="44.5164" lon="6.72714">
        <ele>1922.8000488281</ele>
        <time>2022-03-10T09:10:06.000Z</time>
      </trkpt>
      <trkpt lat="44.51639" lon="6.72713">
        <ele>1923.4000244141</ele>
        <time>2022-03-10T09:10:09.000Z</time>
      </trkpt>
      <trkpt lat="44.51639" lon="6.72713">
        <ele>1923.8000488281</ele>
        <time>2022-03-10T09:10:13.000Z</time>
      </trkpt>
      <trkpt lat="44.5164" lon="6.72713">
        <ele>1924</ele>
        <time>2022-03-10T09:10:15.000Z</time>
      </trkpt>
      <trkpt lat="44.51637" lon="6.72712">
        <ele>1924.8000488281</ele>
        <time>2022-03-10T09:10:20.000Z</time>
      </trkpt>
      <trkpt lat="44.51636" lon="6.72713">
        <ele>1924.8000488281</ele>
        <time>2022-03-10T09:10:22.000Z</time>
      </trkpt>
      <trkpt lat="44.51636" lon="6.72714">
        <ele>1924.8000488281</ele>
        <time>2022-03-10T09:10:29.000Z</time>
      </trkpt>
      <trkpt lat="44.51635" lon="6.72713">
        <ele>1926</ele>
        <time>2022-03-10T09:10:47.000Z</time>
      </trkpt>
      <trkpt lat="44.51634" lon="6.72713">
        <ele>1927</ele>
        <time>2022-03-10T09:10:51.000Z</time>
      </trkpt>
      <trkpt lat="44.5163" lon="6.72713">
        <ele>1928.1999511719</ele>
        <time>2022-03-10T09:11:01.000Z</time>
      </trkpt>
      <trkpt lat="44.51628" lon="6.72715">
        <ele>1929.1999511719</ele>
        <time>2022-03-10T09:11:09.000Z</time>
      </trkpt>
      <trkpt lat="44.51624" lon="6.72715">
        <ele>1930.4000244141</ele>
        <time>2022-03-10T09:11:16.000Z</time>
      </trkpt>
      <trkpt lat="44.51623" lon="6.72715">
        <ele>1930.4000244141</ele>
        <time>2022-03-10T09:11:17.000Z</time>
      </trkpt>
      <trkpt lat="44.51617" lon="6.72715">
        <ele>1931.4000244141</ele>
        <time>2022-03-10T09:11:21.000Z</time>
      </trkpt>
      <trkpt lat="44.51615" lon="6.72714">
        <ele>1931.5999755859</ele>
        <time>2022-03-10T09:11:23.000Z</time>
      </trkpt>
      <trkpt lat="44.51611" lon="6.72714">
        <ele>1932.4000244141</ele>
        <time>2022-03-10T09:11:28.000Z</time>
      </trkpt>
      <trkpt lat="44.51609" lon="6.72711">
        <ele>1933.1999511719</ele>
        <time>2022-03-10T09:11:33.000Z</time>
      </trkpt>
      <trkpt lat="44.51609" lon="6.7271">
        <ele>1933.4000244141</ele>
        <time>2022-03-10T09:11:34.000Z</time>
      </trkpt>
      <trkpt lat="44.51607" lon="6.72705">
        <ele>1934.5999755859</ele>
        <time>2022-03-10T09:11:40.000Z</time>
      </trkpt>
      <trkpt lat="44.51607" lon="6.72698">
        <ele>1935.5999755859</ele>
        <time>2022-03-10T09:11:47.000Z</time>
      </trkpt>
      <trkpt lat="44.51607" lon="6.72695">
        <ele>1936.1999511719</ele>
        <time>2022-03-10T09:11:50.000Z</time>
      </trkpt>
      <trkpt lat="44.51607" lon="6.72692">
        <ele>1936.8000488281</ele>
        <time>2022-03-10T09:11:54.000Z</time>
      </trkpt>
      <trkpt lat="44.51608" lon="6.72687">
        <ele>1938</ele>
        <time>2022-03-10T09:12:01.000Z</time>
      </trkpt>
      <trkpt lat="44.51608" lon="6.72686">
        <ele>1938</ele>
        <time>2022-03-10T09:12:02.000Z</time>
      </trkpt>
      <trkpt lat="44.51607" lon="6.72681">
        <ele>1939</ele>
        <time>2022-03-10T09:12:09.000Z</time>
      </trkpt>
      <trkpt lat="44.51606" lon="6.72679">
        <ele>1939.5999755859</ele>
        <time>2022-03-10T09:12:13.000Z</time>
      </trkpt>
      <trkpt lat="44.51606" lon="6.72676">
        <ele>1940.1999511719</ele>
        <time>2022-03-10T09:12:16.000Z</time>
      </trkpt>
      <trkpt lat="44.51606" lon="6.72672">
        <ele>1941.1999511719</ele>
        <time>2022-03-10T09:12:22.000Z</time>
      </trkpt>
      <trkpt lat="44.51606" lon="6.72671">
        <ele>1941.5999755859</ele>
        <time>2022-03-10T09:12:23.000Z</time>
      </trkpt>
      <trkpt lat="44.51605" lon="6.72665">
        <ele>1942.4000244141</ele>
        <time>2022-03-10T09:12:30.000Z</time>
      </trkpt>
      <trkpt lat="44.51604" lon="6.72661">
        <ele>1943.4000244141</ele>
        <time>2022-03-10T09:12:37.000Z</time>
      </trkpt>
      <trkpt lat="44.51603" lon="6.7266">
        <ele>1944.1999511719</ele>
        <time>2022-03-10T09:12:40.000Z</time>
      </trkpt>
      <trkpt lat="44.51602" lon="6.72661">
        <ele>1944.5999755859</ele>
        <time>2022-03-10T09:12:43.000Z</time>
      </trkpt>
      <trkpt lat="44.516" lon="6.72661">
        <ele>1945.4000244141</ele>
        <time>2022-03-10T09:12:47.000Z</time>
      </trkpt>
      <trkpt lat="44.516" lon="6.72659">
        <ele>1945.5999755859</ele>
        <time>2022-03-10T09:12:49.000Z</time>
      </trkpt>
      <trkpt lat="44.51599" lon="6.72653">
        <ele>1946.1999511719</ele>
        <time>2022-03-10T09:12:54.000Z</time>
      </trkpt>
      <trkpt lat="44.51599" lon="6.72652">
        <ele>1946.8000488281</ele>
        <time>2022-03-10T09:12:57.000Z</time>
      </trkpt>
      <trkpt lat="44.51597" lon="6.72651">
        <ele>1947.5999755859</ele>
        <time>2022-03-10T09:13:03.000Z</time>
      </trkpt>
      <trkpt lat="44.51596" lon="6.72651">
        <ele>1947.8000488281</ele>
        <time>2022-03-10T09:13:04.000Z</time>
      </trkpt>
      <trkpt lat="44.51594" lon="6.7265">
        <ele>1948.8000488281</ele>
        <time>2022-03-10T09:13:09.000Z</time>
      </trkpt>
      <trkpt lat="44.51594" lon="6.72649">
        <ele>1949.1999511719</ele>
        <time>2022-03-10T09:13:11.000Z</time>
      </trkpt>
      <trkpt lat="44.51594" lon="6.72646">
        <ele>1949.8000488281</ele>
        <time>2022-03-10T09:13:15.000Z</time>
      </trkpt>
      <trkpt lat="44.51594" lon="6.72642">
        <ele>1950.4000244141</ele>
        <time>2022-03-10T09:13:20.000Z</time>
      </trkpt>
      <trkpt lat="44.51594" lon="6.72641">
        <ele>1950.8000488281</ele>
        <time>2022-03-10T09:13:22.000Z</time>
      </trkpt>
      <trkpt lat="44.51593" lon="6.7264">
        <ele>1951.5999755859</ele>
        <time>2022-03-10T09:13:26.000Z</time>
      </trkpt>
      <trkpt lat="44.51593" lon="6.7264">
        <ele>1951.8000488281</ele>
        <time>2022-03-10T09:13:27.000Z</time>
      </trkpt>
      <trkpt lat="44.51592" lon="6.7264">
        <ele>1951.8000488281</ele>
        <time>2022-03-10T09:13:28.000Z</time>
      </trkpt>
      <trkpt lat="44.51591" lon="6.72641">
        <ele>1952.4000244141</ele>
        <time>2022-03-10T09:13:32.000Z</time>
      </trkpt>
      <trkpt lat="44.51588" lon="6.72639">
        <ele>1952.8000488281</ele>
        <time>2022-03-10T09:13:38.000Z</time>
      </trkpt>
      <trkpt lat="44.51588" lon="6.72637">
        <ele>1953.4000244141</ele>
        <time>2022-03-10T09:13:41.000Z</time>
      </trkpt>
      <trkpt lat="44.51588" lon="6.72634">
        <ele>1954</ele>
        <time>2022-03-10T09:13:45.000Z</time>
      </trkpt>
      <trkpt lat="44.51587" lon="6.72633">
        <ele>1954.8000488281</ele>
        <time>2022-03-10T09:13:50.000Z</time>
      </trkpt>
      <trkpt lat="44.51586" lon="6.72633">
        <ele>1955</ele>
        <time>2022-03-10T09:13:51.000Z</time>
      </trkpt>
      <trkpt lat="44.51584" lon="6.72633">
        <ele>1956</ele>
        <time>2022-03-10T09:13:57.000Z</time>
      </trkpt>
      <trkpt lat="44.51583" lon="6.72633">
        <ele>1956.1999511719</ele>
        <time>2022-03-10T09:13:58.000Z</time>
      </trkpt>
      <trkpt lat="44.51583" lon="6.72633">
        <ele>1956.4000244141</ele>
        <time>2022-03-10T09:13:59.000Z</time>
      </trkpt>
      <trkpt lat="44.51581" lon="6.72634">
        <ele>1957</ele>
        <time>2022-03-10T09:14:05.000Z</time>
      </trkpt>
      <trkpt lat="44.51581" lon="6.72634">
        <ele>1957.1999511719</ele>
        <time>2022-03-10T09:14:06.000Z</time>
      </trkpt>
      <trkpt lat="44.51578" lon="6.72635">
        <ele>1958</ele>
        <time>2022-03-10T09:14:12.000Z</time>
      </trkpt>
      <trkpt lat="44.51578" lon="6.72635">
        <ele>1958.1999511719</ele>
        <time>2022-03-10T09:14:13.000Z</time>
      </trkpt>
      <trkpt lat="44.51575" lon="6.72635">
        <ele>1959</ele>
        <time>2022-03-10T09:14:19.000Z</time>
      </trkpt>
      <trkpt lat="44.51573" lon="6.72634">
        <ele>1959.1999511719</ele>
        <time>2022-03-10T09:14:23.000Z</time>
      </trkpt>
      <trkpt lat="44.51572" lon="6.72634">
        <ele>1959.5999755859</ele>
        <time>2022-03-10T09:14:25.000Z</time>
      </trkpt>
      <trkpt lat="44.5157" lon="6.72633">
        <ele>1959.8000488281</ele>
        <time>2022-03-10T09:14:35.000Z</time>
      </trkpt>
      <trkpt lat="44.51566" lon="6.72632">
        <ele>1959.5999755859</ele>
        <time>2022-03-10T09:14:40.000Z</time>
      </trkpt>
      <trkpt lat="44.51566" lon="6.72631">
        <ele>1959.5999755859</ele>
        <time>2022-03-10T09:14:41.000Z</time>
      </trkpt>
      <trkpt lat="44.51559" lon="6.72626">
        <ele>1960.4000244141</ele>
        <time>2022-03-10T09:14:50.000Z</time>
      </trkpt>
      <trkpt lat="44.51557" lon="6.72624">
        <ele>1961</ele>
        <time>2022-03-10T09:14:53.000Z</time>
      </trkpt>
      <trkpt lat="44.51553" lon="6.7262">
        <ele>1961.4000244141</ele>
        <time>2022-03-10T09:14:59.000Z</time>
      </trkpt>
      <trkpt lat="44.51552" lon="6.72614">
        <ele>1962.1999511719</ele>
        <time>2022-03-10T09:15:04.000Z</time>
      </trkpt>
      <trkpt lat="44.51549" lon="6.72612">
        <ele>1962.4000244141</ele>
        <time>2022-03-10T09:15:09.000Z</time>
      </trkpt>
      <trkpt lat="44.51549" lon="6.72611">
        <ele>1962.8000488281</ele>
        <time>2022-03-10T09:15:11.000Z</time>
      </trkpt>
      <trkpt lat="44.51548" lon="6.7261">
        <ele>1963</ele>
        <time>2022-03-10T09:15:13.000Z</time>
      </trkpt>
      <trkpt lat="44.51546" lon="6.72606">
        <ele>1963.5999755859</ele>
        <time>2022-03-10T09:15:19.000Z</time>
      </trkpt>
      <trkpt lat="44.51544" lon="6.72601">
        <ele>1964.8000488281</ele>
        <time>2022-03-10T09:15:27.000Z</time>
      </trkpt>
      <trkpt lat="44.51543" lon="6.726">
        <ele>1964.8000488281</ele>
        <time>2022-03-10T09:15:28.000Z</time>
      </trkpt>
      <trkpt lat="44.5154" lon="6.72596">
        <ele>1966</ele>
        <time>2022-03-10T09:15:37.000Z</time>
      </trkpt>
      <trkpt lat="44.51539" lon="6.72595">
        <ele>1966.1999511719</ele>
        <time>2022-03-10T09:15:38.000Z</time>
      </trkpt>
      <trkpt lat="44.51537" lon="6.7259">
        <ele>1967.1999511719</ele>
        <time>2022-03-10T09:15:45.000Z</time>
      </trkpt>
      <trkpt lat="44.51536" lon="6.72589">
        <ele>1967.1999511719</ele>
        <time>2022-03-10T09:15:46.000Z</time>
      </trkpt>
      <trkpt lat="44.51534" lon="6.72585">
        <ele>1967.8000488281</ele>
        <time>2022-03-10T09:15:53.000Z</time>
      </trkpt>
      <trkpt lat="44.51533" lon="6.72584">
        <ele>1968</ele>
        <time>2022-03-10T09:15:54.000Z</time>
      </trkpt>
      <trkpt lat="44.51533" lon="6.72584">
        <ele>1968.1999511719</ele>
        <time>2022-03-10T09:15:55.000Z</time>
      </trkpt>
      <trkpt lat="44.5153" lon="6.7258">
        <ele>1968.5999755859</ele>
        <time>2022-03-10T09:16:01.000Z</time>
      </trkpt>
      <trkpt lat="44.51529" lon="6.72578">
        <ele>1969.1999511719</ele>
        <time>2022-03-10T09:16:03.000Z</time>
      </trkpt>
      <trkpt lat="44.51525" lon="6.72576">
        <ele>1969.8000488281</ele>
        <time>2022-03-10T09:16:09.000Z</time>
      </trkpt>
      <trkpt lat="44.51524" lon="6.7257">
        <ele>1970.1999511719</ele>
        <time>2022-03-10T09:16:14.000Z</time>
      </trkpt>
      <trkpt lat="44.5152" lon="6.72566">
        <ele>1971.4000244141</ele>
        <time>2022-03-10T09:16:21.000Z</time>
      </trkpt>
      <trkpt lat="44.5152" lon="6.72566">
        <ele>1971.5999755859</ele>
        <time>2022-03-10T09:16:22.000Z</time>
      </trkpt>
      <trkpt lat="44.51519" lon="6.72563">
        <ele>1972.1999511719</ele>
        <time>2022-03-10T09:16:29.000Z</time>
      </trkpt>
      <trkpt lat="44.51518" lon="6.72563">
        <ele>1972.4000244141</ele>
        <time>2022-03-10T09:16:30.000Z</time>
      </trkpt>
      <trkpt lat="44.51516" lon="6.72561">
        <ele>1973.1999511719</ele>
        <time>2022-03-10T09:16:35.000Z</time>
      </trkpt>
      <trkpt lat="44.51515" lon="6.72561">
        <ele>1973.5999755859</ele>
        <time>2022-03-10T09:16:37.000Z</time>
      </trkpt>
      <trkpt lat="44.51512" lon="6.72559">
        <ele>1974.4000244141</ele>
        <time>2022-03-10T09:16:42.000Z</time>
      </trkpt>
      <trkpt lat="44.51511" lon="6.72555">
        <ele>1974.5999755859</ele>
        <time>2022-03-10T09:16:45.000Z</time>
      </trkpt>
      <trkpt lat="44.5151" lon="6.7255">
        <ele>1975.5999755859</ele>
        <time>2022-03-10T09:16:51.000Z</time>
      </trkpt>
      <trkpt lat="44.51507" lon="6.72543">
        <ele>1976.8000488281</ele>
        <time>2022-03-10T09:16:59.000Z</time>
      </trkpt>
      <trkpt lat="44.51507" lon="6.72542">
        <ele>1977</ele>
        <time>2022-03-10T09:17:00.000Z</time>
      </trkpt>
      <trkpt lat="44.51503" lon="6.72537">
        <ele>1978</ele>
        <time>2022-03-10T09:17:07.000Z</time>
      </trkpt>
      <trkpt lat="44.51502" lon="6.72534">
        <ele>1978.1999511719</ele>
        <time>2022-03-10T09:17:10.000Z</time>
      </trkpt>
      <trkpt lat="44.51499" lon="6.72528">
        <ele>1979</ele>
        <time>2022-03-10T09:17:18.000Z</time>
      </trkpt>
      <trkpt lat="44.51498" lon="6.72528">
        <ele>1979.1999511719</ele>
        <time>2022-03-10T09:17:19.000Z</time>
      </trkpt>
      <trkpt lat="44.51496" lon="6.72522">
        <ele>1980.1999511719</ele>
        <time>2022-03-10T09:17:25.000Z</time>
      </trkpt>
      <trkpt lat="44.51493" lon="6.72518">
        <ele>1980.4000244141</ele>
        <time>2022-03-10T09:17:31.000Z</time>
      </trkpt>
      <trkpt lat="44.51492" lon="6.72517">
        <ele>1980.8000488281</ele>
        <time>2022-03-10T09:17:33.000Z</time>
      </trkpt>
      <trkpt lat="44.51488" lon="6.72514">
        <ele>1981.4000244141</ele>
        <time>2022-03-10T09:17:39.000Z</time>
      </trkpt>
      <trkpt lat="44.51488" lon="6.72512">
        <ele>1982</ele>
        <time>2022-03-10T09:17:42.000Z</time>
      </trkpt>
      <trkpt lat="44.51485" lon="6.72509">
        <ele>1982.4000244141</ele>
        <time>2022-03-10T09:17:47.000Z</time>
      </trkpt>
      <trkpt lat="44.51482" lon="6.72508">
        <ele>1983.5999755859</ele>
        <time>2022-03-10T09:17:54.000Z</time>
      </trkpt>
      <trkpt lat="44.51482" lon="6.72507">
        <ele>1983.5999755859</ele>
        <time>2022-03-10T09:17:55.000Z</time>
      </trkpt>
      <trkpt lat="44.51478" lon="6.72504">
        <ele>1984.5999755859</ele>
        <time>2022-03-10T09:18:02.000Z</time>
      </trkpt>
      <trkpt lat="44.51477" lon="6.72503">
        <ele>1984.8000488281</ele>
        <time>2022-03-10T09:18:04.000Z</time>
      </trkpt>
      <trkpt lat="44.51476" lon="6.72496">
        <ele>1985.8000488281</ele>
        <time>2022-03-10T09:18:10.000Z</time>
      </trkpt>
      <trkpt lat="44.51476" lon="6.72495">
        <ele>1986</ele>
        <time>2022-03-10T09:18:11.000Z</time>
      </trkpt>
      <trkpt lat="44.51478" lon="6.72487">
        <ele>1987</ele>
        <time>2022-03-10T09:18:18.000Z</time>
      </trkpt>
      <trkpt lat="44.51477" lon="6.72485">
        <ele>1987.1999511719</ele>
        <time>2022-03-10T09:18:20.000Z</time>
      </trkpt>
      <trkpt lat="44.51477" lon="6.72482">
        <ele>1988</ele>
        <time>2022-03-10T09:18:25.000Z</time>
      </trkpt>
      <trkpt lat="44.51476" lon="6.72477">
        <ele>1988.5999755859</ele>
        <time>2022-03-10T09:18:29.000Z</time>
      </trkpt>
      <trkpt lat="44.51475" lon="6.72475">
        <ele>1989.1999511719</ele>
        <time>2022-03-10T09:18:32.000Z</time>
      </trkpt>
      <trkpt lat="44.51474" lon="6.72472">
        <ele>1990.1999511719</ele>
        <time>2022-03-10T09:18:38.000Z</time>
      </trkpt>
      <trkpt lat="44.51474" lon="6.72471">
        <ele>1990.1999511719</ele>
        <time>2022-03-10T09:18:39.000Z</time>
      </trkpt>
      <trkpt lat="44.51471" lon="6.72467">
        <ele>1991.4000244141</ele>
        <time>2022-03-10T09:18:46.000Z</time>
      </trkpt>
      <trkpt lat="44.51468" lon="6.72463">
        <ele>1992.4000244141</ele>
        <time>2022-03-10T09:18:53.000Z</time>
      </trkpt>
      <trkpt lat="44.51465" lon="6.72461">
        <ele>1993.1999511719</ele>
        <time>2022-03-10T09:18:58.000Z</time>
      </trkpt>
      <trkpt lat="44.51464" lon="6.72462">
        <ele>1993.4000244141</ele>
        <time>2022-03-10T09:19:00.000Z</time>
      </trkpt>
      <trkpt lat="44.51464" lon="6.7246">
        <ele>1993.8000488281</ele>
        <time>2022-03-10T09:19:06.000Z</time>
      </trkpt>
      <trkpt lat="44.51464" lon="6.72458">
        <ele>1994</ele>
        <time>2022-03-10T09:19:19.000Z</time>
      </trkpt>
      <trkpt lat="44.51467" lon="6.72461">
        <ele>1994.4000244141</ele>
        <time>2022-03-10T09:20:01.000Z</time>
      </trkpt>
      <trkpt lat="44.51459" lon="6.72459">
        <ele>1995.4000244141</ele>
        <time>2022-03-10T09:20:17.000Z</time>
      </trkpt>
      <trkpt lat="44.51455" lon="6.72455">
        <ele>1996.5999755859</ele>
        <time>2022-03-10T09:20:24.000Z</time>
      </trkpt>
      <trkpt lat="44.51449" lon="6.72452">
        <ele>1997.5999755859</ele>
        <time>2022-03-10T09:20:32.000Z</time>
      </trkpt>
      <trkpt lat="44.51445" lon="6.72449">
        <ele>1998.8000488281</ele>
        <time>2022-03-10T09:20:42.000Z</time>
      </trkpt>
      <trkpt lat="44.51442" lon="6.72447">
        <ele>1999.8000488281</ele>
        <time>2022-03-10T09:20:48.000Z</time>
      </trkpt>
      <trkpt lat="44.51441" lon="6.72446">
        <ele>2000.1999511719</ele>
        <time>2022-03-10T09:20:50.000Z</time>
      </trkpt>
      <trkpt lat="44.5144" lon="6.72441">
        <ele>2000.8000488281</ele>
        <time>2022-03-10T09:20:55.000Z</time>
      </trkpt>
      <trkpt lat="44.5144" lon="6.72433">
        <ele>2001.8000488281</ele>
        <time>2022-03-10T09:21:02.000Z</time>
      </trkpt>
      <trkpt lat="44.5144" lon="6.72432">
        <ele>2002</ele>
        <time>2022-03-10T09:21:03.000Z</time>
      </trkpt>
      <trkpt lat="44.5144" lon="6.72429">
        <ele>2003.1999511719</ele>
        <time>2022-03-10T09:21:08.000Z</time>
      </trkpt>
      <trkpt lat="44.51441" lon="6.72424">
        <ele>2004.4000244141</ele>
        <time>2022-03-10T09:21:14.000Z</time>
      </trkpt>
      <trkpt lat="44.51441" lon="6.72423">
        <ele>2004.5999755859</ele>
        <time>2022-03-10T09:21:15.000Z</time>
      </trkpt>
      <trkpt lat="44.51441" lon="6.72417">
        <ele>2005.4000244141</ele>
        <time>2022-03-10T09:21:23.000Z</time>
      </trkpt>
      <trkpt lat="44.5144" lon="6.72413">
        <ele>2006.4000244141</ele>
        <time>2022-03-10T09:21:29.000Z</time>
      </trkpt>
      <trkpt lat="44.51437" lon="6.72407">
        <ele>2007.4000244141</ele>
        <time>2022-03-10T09:21:35.000Z</time>
      </trkpt>
      <trkpt lat="44.51436" lon="6.72403">
        <ele>2007.5999755859</ele>
        <time>2022-03-10T09:21:37.000Z</time>
      </trkpt>
      <trkpt lat="44.51435" lon="6.72399">
        <ele>2007.8000488281</ele>
        <time>2022-03-10T09:21:39.000Z</time>
      </trkpt>
      <trkpt lat="44.51431" lon="6.72392">
        <ele>2008.8000488281</ele>
        <time>2022-03-10T09:21:44.000Z</time>
      </trkpt>
      <trkpt lat="44.5143" lon="6.7239">
        <ele>2009.8000488281</ele>
        <time>2022-03-10T09:21:50.000Z</time>
      </trkpt>
      <trkpt lat="44.51428" lon="6.72389">
        <ele>2010</ele>
        <time>2022-03-10T09:21:54.000Z</time>
      </trkpt>
      <trkpt lat="44.51427" lon="6.72387">
        <ele>2011</ele>
        <time>2022-03-10T09:22:00.000Z</time>
      </trkpt>
      <trkpt lat="44.51426" lon="6.72385">
        <ele>2011.5999755859</ele>
        <time>2022-03-10T09:22:03.000Z</time>
      </trkpt>
      <trkpt lat="44.51425" lon="6.72381">
        <ele>2012.1999511719</ele>
        <time>2022-03-10T09:22:06.000Z</time>
      </trkpt>
      <trkpt lat="44.51424" lon="6.72377">
        <ele>2012.8000488281</ele>
        <time>2022-03-10T09:22:11.000Z</time>
      </trkpt>
      <trkpt lat="44.51424" lon="6.72373">
        <ele>2013.1999511719</ele>
        <time>2022-03-10T09:22:14.000Z</time>
      </trkpt>
      <trkpt lat="44.51423" lon="6.72368">
        <ele>2013.8000488281</ele>
        <time>2022-03-10T09:22:19.000Z</time>
      </trkpt>
      <trkpt lat="44.51423" lon="6.72365">
        <ele>2014.4000244141</ele>
        <time>2022-03-10T09:22:22.000Z</time>
      </trkpt>
      <trkpt lat="44.51423" lon="6.72361">
        <ele>2015.4000244141</ele>
        <time>2022-03-10T09:22:28.000Z</time>
      </trkpt>
      <trkpt lat="44.51423" lon="6.7236">
        <ele>2015.4000244141</ele>
        <time>2022-03-10T09:22:29.000Z</time>
      </trkpt>
      <trkpt lat="44.51423" lon="6.72355">
        <ele>2016</ele>
        <time>2022-03-10T09:22:35.000Z</time>
      </trkpt>
      <trkpt lat="44.51423" lon="6.72353">
        <ele>2016.5999755859</ele>
        <time>2022-03-10T09:22:38.000Z</time>
      </trkpt>
      <trkpt lat="44.51422" lon="6.72346">
        <ele>2017.5999755859</ele>
        <time>2022-03-10T09:22:45.000Z</time>
      </trkpt>
      <trkpt lat="44.51421" lon="6.72343">
        <ele>2018.8000488281</ele>
        <time>2022-03-10T09:22:51.000Z</time>
      </trkpt>
      <trkpt lat="44.51419" lon="6.72338">
        <ele>2019.5999755859</ele>
        <time>2022-03-10T09:22:57.000Z</time>
      </trkpt>
      <trkpt lat="44.51419" lon="6.72337">
        <ele>2019.8000488281</ele>
        <time>2022-03-10T09:22:59.000Z</time>
      </trkpt>
      <trkpt lat="44.51418" lon="6.72333">
        <ele>2021</ele>
        <time>2022-03-10T09:23:05.000Z</time>
      </trkpt>
      <trkpt lat="44.51417" lon="6.72329">
        <ele>2021.1999511719</ele>
        <time>2022-03-10T09:23:09.000Z</time>
      </trkpt>
      <trkpt lat="44.51416" lon="6.72325">
        <ele>2022</ele>
        <time>2022-03-10T09:23:13.000Z</time>
      </trkpt>
      <trkpt lat="44.51416" lon="6.72323">
        <ele>2022.4000244141</ele>
        <time>2022-03-10T09:23:16.000Z</time>
      </trkpt>
      <trkpt lat="44.51416" lon="6.7232">
        <ele>2023.1999511719</ele>
        <time>2022-03-10T09:23:20.000Z</time>
      </trkpt>
      <trkpt lat="44.51414" lon="6.72316">
        <ele>2024.4000244141</ele>
        <time>2022-03-10T09:23:26.000Z</time>
      </trkpt>
      <trkpt lat="44.51414" lon="6.72316">
        <ele>2024.5999755859</ele>
        <time>2022-03-10T09:23:27.000Z</time>
      </trkpt>
      <trkpt lat="44.51412" lon="6.72314">
        <ele>2025.1999511719</ele>
        <time>2022-03-10T09:23:33.000Z</time>
      </trkpt>
      <trkpt lat="44.51412" lon="6.72314">
        <ele>2025.4000244141</ele>
        <time>2022-03-10T09:23:34.000Z</time>
      </trkpt>
      <trkpt lat="44.51409" lon="6.72309">
        <ele>2026.4000244141</ele>
        <time>2022-03-10T09:23:41.000Z</time>
      </trkpt>
      <trkpt lat="44.51409" lon="6.72309">
        <ele>2026.5999755859</ele>
        <time>2022-03-10T09:23:42.000Z</time>
      </trkpt>
      <trkpt lat="44.51406" lon="6.72304">
        <ele>2027.4000244141</ele>
        <time>2022-03-10T09:23:49.000Z</time>
      </trkpt>
      <trkpt lat="44.51406" lon="6.72303">
        <ele>2027.5999755859</ele>
        <time>2022-03-10T09:23:50.000Z</time>
      </trkpt>
      <trkpt lat="44.51403" lon="6.72294">
        <ele>2028.4000244141</ele>
        <time>2022-03-10T09:24:00.000Z</time>
      </trkpt>
      <trkpt lat="44.51403" lon="6.72293">
        <ele>2028.5999755859</ele>
        <time>2022-03-10T09:24:01.000Z</time>
      </trkpt>
      <trkpt lat="44.51402" lon="6.72291">
        <ele>2029.5999755859</ele>
        <time>2022-03-10T09:24:04.000Z</time>
      </trkpt>
      <trkpt lat="44.514" lon="6.72288">
        <ele>2030.1999511719</ele>
        <time>2022-03-10T09:24:09.000Z</time>
      </trkpt>
      <trkpt lat="44.51399" lon="6.72286">
        <ele>2030.5999755859</ele>
        <time>2022-03-10T09:24:11.000Z</time>
      </trkpt>
      <trkpt lat="44.51395" lon="6.72282">
        <ele>2031</ele>
        <time>2022-03-10T09:24:18.000Z</time>
      </trkpt>
      <trkpt lat="44.51393" lon="6.72279">
        <ele>2031.5999755859</ele>
        <time>2022-03-10T09:24:22.000Z</time>
      </trkpt>
      <trkpt lat="44.51391" lon="6.72276">
        <ele>2032.5999755859</ele>
        <time>2022-03-10T09:24:28.000Z</time>
      </trkpt>
      <trkpt lat="44.51387" lon="6.72273">
        <ele>2033.4000244141</ele>
        <time>2022-03-10T09:24:35.000Z</time>
      </trkpt>
      <trkpt lat="44.51386" lon="6.72273">
        <ele>2033.8000488281</ele>
        <time>2022-03-10T09:24:37.000Z</time>
      </trkpt>
      <trkpt lat="44.51384" lon="6.7227">
        <ele>2034.8000488281</ele>
        <time>2022-03-10T09:24:42.000Z</time>
      </trkpt>
      <trkpt lat="44.51383" lon="6.72267">
        <ele>2035.1999511719</ele>
        <time>2022-03-10T09:24:45.000Z</time>
      </trkpt>
      <trkpt lat="44.51382" lon="6.72265">
        <ele>2036</ele>
        <time>2022-03-10T09:24:49.000Z</time>
      </trkpt>
      <trkpt lat="44.51379" lon="6.7226">
        <ele>2037</ele>
        <time>2022-03-10T09:24:56.000Z</time>
      </trkpt>
      <trkpt lat="44.51379" lon="6.72255">
        <ele>2038</ele>
        <time>2022-03-10T09:25:01.000Z</time>
      </trkpt>
      <trkpt lat="44.51379" lon="6.72254">
        <ele>2038</ele>
        <time>2022-03-10T09:25:02.000Z</time>
      </trkpt>
      <trkpt lat="44.51378" lon="6.72254">
        <ele>2038.4000244141</ele>
        <time>2022-03-10T09:25:05.000Z</time>
      </trkpt>
      <trkpt lat="44.51379" lon="6.72252">
        <ele>2039.1999511719</ele>
        <time>2022-03-10T09:25:09.000Z</time>
      </trkpt>
      <trkpt lat="44.51378" lon="6.72251">
        <ele>2039.4000244141</ele>
        <time>2022-03-10T09:25:17.000Z</time>
      </trkpt>
      <trkpt lat="44.51378" lon="6.72251">
        <ele>2040.1999511719</ele>
        <time>2022-03-10T09:25:27.000Z</time>
      </trkpt>
      <trkpt lat="44.51378" lon="6.72251">
        <ele>2041.4000244141</ele>
        <time>2022-03-10T09:25:34.000Z</time>
      </trkpt>
      <trkpt lat="44.51375" lon="6.72251">
        <ele>2042.4000244141</ele>
        <time>2022-03-10T09:25:40.000Z</time>
      </trkpt>
      <trkpt lat="44.51373" lon="6.72249">
        <ele>2043.5999755859</ele>
        <time>2022-03-10T09:25:45.000Z</time>
      </trkpt>
      <trkpt lat="44.51372" lon="6.72246">
        <ele>2044.5999755859</ele>
        <time>2022-03-10T09:25:50.000Z</time>
      </trkpt>
      <trkpt lat="44.51371" lon="6.72241">
        <ele>2046</ele>
        <time>2022-03-10T09:25:56.000Z</time>
      </trkpt>
      <trkpt lat="44.51371" lon="6.72236">
        <ele>2047</ele>
        <time>2022-03-10T09:26:02.000Z</time>
      </trkpt>
      <trkpt lat="44.5137" lon="6.72232">
        <ele>2048</ele>
        <time>2022-03-10T09:26:09.000Z</time>
      </trkpt>
      <trkpt lat="44.51369" lon="6.7223">
        <ele>2049.1999511719</ele>
        <time>2022-03-10T09:26:14.000Z</time>
      </trkpt>
      <trkpt lat="44.51366" lon="6.72227">
        <ele>2050.3999023438</ele>
        <time>2022-03-10T09:26:21.000Z</time>
      </trkpt>
      <trkpt lat="44.51364" lon="6.72223">
        <ele>2051.3999023438</ele>
        <time>2022-03-10T09:26:28.000Z</time>
      </trkpt>
      <trkpt lat="44.51362" lon="6.72221">
        <ele>2052</ele>
        <time>2022-03-10T09:26:33.000Z</time>
      </trkpt>
      <trkpt lat="44.5136" lon="6.72221">
        <ele>2052.6000976562</ele>
        <time>2022-03-10T09:26:36.000Z</time>
      </trkpt>
      <trkpt lat="44.51355" lon="6.72214">
        <ele>2053.8000488281</ele>
        <time>2022-03-10T09:26:51.000Z</time>
      </trkpt>
      <trkpt lat="44.51355" lon="6.72212">
        <ele>2054.8000488281</ele>
        <time>2022-03-10T09:26:56.000Z</time>
      </trkpt>
      <trkpt lat="44.51354" lon="6.72209">
        <ele>2055.8000488281</ele>
        <time>2022-03-10T09:27:03.000Z</time>
      </trkpt>
      <trkpt lat="44.5135" lon="6.72207">
        <ele>2056.8000488281</ele>
        <time>2022-03-10T09:27:09.000Z</time>
      </trkpt>
      <trkpt lat="44.51348" lon="6.72206">
        <ele>2058</ele>
        <time>2022-03-10T09:27:15.000Z</time>
      </trkpt>
      <trkpt lat="44.51335" lon="6.72197">
        <ele>2058.8000488281</ele>
        <time>2022-03-10T09:27:25.000Z</time>
      </trkpt>
      <trkpt lat="44.51334" lon="6.72196">
        <ele>2059</ele>
        <time>2022-03-10T09:27:26.000Z</time>
      </trkpt>
      <trkpt lat="44.5133" lon="6.7219">
        <ele>2060.1999511719</ele>
        <time>2022-03-10T09:27:33.000Z</time>
      </trkpt>
      <trkpt lat="44.5133" lon="6.72185">
        <ele>2061.1999511719</ele>
        <time>2022-03-10T09:27:39.000Z</time>
      </trkpt>
      <trkpt lat="44.5133" lon="6.72185">
        <ele>2061.3999023438</ele>
        <time>2022-03-10T09:27:40.000Z</time>
      </trkpt>
      <trkpt lat="44.51329" lon="6.72181">
        <ele>2062.1999511719</ele>
        <time>2022-03-10T09:27:45.000Z</time>
      </trkpt>
      <trkpt lat="44.51329" lon="6.7218">
        <ele>2063.6000976562</ele>
        <time>2022-03-10T09:27:48.000Z</time>
      </trkpt>
      <trkpt lat="44.51327" lon="6.72178">
        <ele>2064.8000488281</ele>
        <time>2022-03-10T09:27:52.000Z</time>
      </trkpt>
      <trkpt lat="44.51326" lon="6.72177">
        <ele>2065.1999511719</ele>
        <time>2022-03-10T09:27:55.000Z</time>
      </trkpt>
      <trkpt lat="44.51324" lon="6.72175">
        <ele>2065.8000488281</ele>
        <time>2022-03-10T09:27:59.000Z</time>
      </trkpt>
      <trkpt lat="44.51322" lon="6.72173">
        <ele>2066.3999023438</ele>
        <time>2022-03-10T09:28:05.000Z</time>
      </trkpt>
      <trkpt lat="44.51319" lon="6.72171">
        <ele>2067</ele>
        <time>2022-03-10T09:28:09.000Z</time>
      </trkpt>
      <trkpt lat="44.51317" lon="6.72169">
        <ele>2067.3999023438</ele>
        <time>2022-03-10T09:28:14.000Z</time>
      </trkpt>
      <trkpt lat="44.51315" lon="6.72168">
        <ele>2068.1999511719</ele>
        <time>2022-03-10T09:28:17.000Z</time>
      </trkpt>
      <trkpt lat="44.5131" lon="6.72167">
        <ele>2069.1999511719</ele>
        <time>2022-03-10T09:28:25.000Z</time>
      </trkpt>
      <trkpt lat="44.51308" lon="6.72167">
        <ele>2070</ele>
        <time>2022-03-10T09:28:30.000Z</time>
      </trkpt>
      <trkpt lat="44.51307" lon="6.72167">
        <ele>2070.1999511719</ele>
        <time>2022-03-10T09:28:31.000Z</time>
      </trkpt>
      <trkpt lat="44.51305" lon="6.72167">
        <ele>2071</ele>
        <time>2022-03-10T09:28:36.000Z</time>
      </trkpt>
      <trkpt lat="44.51304" lon="6.72167">
        <ele>2071.1999511719</ele>
        <time>2022-03-10T09:28:37.000Z</time>
      </trkpt>
      <trkpt lat="44.513" lon="6.72166">
        <ele>2072.3999023438</ele>
        <time>2022-03-10T09:28:45.000Z</time>
      </trkpt>
      <trkpt lat="44.51295" lon="6.72163">
        <ele>2073.3999023438</ele>
        <time>2022-03-10T09:28:52.000Z</time>
      </trkpt>
      <trkpt lat="44.51294" lon="6.72163">
        <ele>2073.6000976562</ele>
        <time>2022-03-10T09:28:53.000Z</time>
      </trkpt>
      <trkpt lat="44.51292" lon="6.72162">
        <ele>2074.3999023438</ele>
        <time>2022-03-10T09:28:57.000Z</time>
      </trkpt>
      <trkpt lat="44.51292" lon="6.72161">
        <ele>2074.6000976562</ele>
        <time>2022-03-10T09:28:58.000Z</time>
      </trkpt>
      <trkpt lat="44.5129" lon="6.7216">
        <ele>2075.3999023438</ele>
        <time>2022-03-10T09:29:03.000Z</time>
      </trkpt>
      <trkpt lat="44.5129" lon="6.7216">
        <ele>2075.6000976562</ele>
        <time>2022-03-10T09:29:04.000Z</time>
      </trkpt>
      <trkpt lat="44.51287" lon="6.72157">
        <ele>2076.3999023438</ele>
        <time>2022-03-10T09:29:10.000Z</time>
      </trkpt>
      <trkpt lat="44.51287" lon="6.72157">
        <ele>2076.6000976562</ele>
        <time>2022-03-10T09:29:13.000Z</time>
      </trkpt>
      <trkpt lat="44.51285" lon="6.72155">
        <ele>2077.8000488281</ele>
        <time>2022-03-10T09:29:18.000Z</time>
      </trkpt>
      <trkpt lat="44.51284" lon="6.72154">
        <ele>2078</ele>
        <time>2022-03-10T09:29:21.000Z</time>
      </trkpt>
      <trkpt lat="44.5128" lon="6.72152">
        <ele>2078.8000488281</ele>
        <time>2022-03-10T09:29:27.000Z</time>
      </trkpt>
      <trkpt lat="44.51278" lon="6.72149">
        <ele>2079.3999023438</ele>
        <time>2022-03-10T09:29:31.000Z</time>
      </trkpt>
      <trkpt lat="44.51277" lon="6.72148">
        <ele>2079.8000488281</ele>
        <time>2022-03-10T09:29:33.000Z</time>
      </trkpt>
      <trkpt lat="44.51276" lon="6.72145">
        <ele>2080.3999023438</ele>
        <time>2022-03-10T09:29:37.000Z</time>
      </trkpt>
      <trkpt lat="44.51276" lon="6.72141">
        <ele>2080.8000488281</ele>
        <time>2022-03-10T09:29:42.000Z</time>
      </trkpt>
      <trkpt lat="44.51274" lon="6.72139">
        <ele>2081.8000488281</ele>
        <time>2022-03-10T09:29:46.000Z</time>
      </trkpt>
      <trkpt lat="44.51273" lon="6.72133">
        <ele>2083</ele>
        <time>2022-03-10T09:29:52.000Z</time>
      </trkpt>
      <trkpt lat="44.51271" lon="6.72133">
        <ele>2083.3999023438</ele>
        <time>2022-03-10T09:29:54.000Z</time>
      </trkpt>
      <trkpt lat="44.5127" lon="6.72132">
        <ele>2083.6000976562</ele>
        <time>2022-03-10T09:29:55.000Z</time>
      </trkpt>
      <trkpt lat="44.5127" lon="6.72132">
        <ele>2084</ele>
        <time>2022-03-10T09:29:56.000Z</time>
      </trkpt>
      <trkpt lat="44.51269" lon="6.72128">
        <ele>2085.1999511719</ele>
        <time>2022-03-10T09:30:02.000Z</time>
      </trkpt>
      <trkpt lat="44.51266" lon="6.72127">
        <ele>2086.1999511719</ele>
        <time>2022-03-10T09:30:07.000Z</time>
      </trkpt>
      <trkpt lat="44.51265" lon="6.72124">
        <ele>2086.3999023438</ele>
        <time>2022-03-10T09:30:11.000Z</time>
      </trkpt>
      <trkpt lat="44.51264" lon="6.72122">
        <ele>2087.1999511719</ele>
        <time>2022-03-10T09:30:15.000Z</time>
      </trkpt>
      <trkpt lat="44.51264" lon="6.7212">
        <ele>2088</ele>
        <time>2022-03-10T09:30:18.000Z</time>
      </trkpt>
      <trkpt lat="44.51264" lon="6.72117">
        <ele>2088.1999511719</ele>
        <time>2022-03-10T09:30:21.000Z</time>
      </trkpt>
      <trkpt lat="44.51264" lon="6.72112">
        <ele>2089.3999023438</ele>
        <time>2022-03-10T09:30:27.000Z</time>
      </trkpt>
      <trkpt lat="44.51263" lon="6.72109">
        <ele>2090.3999023438</ele>
        <time>2022-03-10T09:30:33.000Z</time>
      </trkpt>
      <trkpt lat="44.51263" lon="6.72108">
        <ele>2090.8000488281</ele>
        <time>2022-03-10T09:30:34.000Z</time>
      </trkpt>
      <trkpt lat="44.51262" lon="6.72106">
        <ele>2091.3999023438</ele>
        <time>2022-03-10T09:30:38.000Z</time>
      </trkpt>
      <trkpt lat="44.51261" lon="6.72104">
        <ele>2092.1999511719</ele>
        <time>2022-03-10T09:30:42.000Z</time>
      </trkpt>
      <trkpt lat="44.51261" lon="6.72103">
        <ele>2092.3999023438</ele>
        <time>2022-03-10T09:30:43.000Z</time>
      </trkpt>
      <trkpt lat="44.5126" lon="6.72101">
        <ele>2093.1999511719</ele>
        <time>2022-03-10T09:30:47.000Z</time>
      </trkpt>
      <trkpt lat="44.5126" lon="6.72098">
        <ele>2093.6000976562</ele>
        <time>2022-03-10T09:30:50.000Z</time>
      </trkpt>
      <trkpt lat="44.5126" lon="6.72097">
        <ele>2093.8000488281</ele>
        <time>2022-03-10T09:30:51.000Z</time>
      </trkpt>
      <trkpt lat="44.51259" lon="6.72095">
        <ele>2094.6000976562</ele>
        <time>2022-03-10T09:30:56.000Z</time>
      </trkpt>
      <trkpt lat="44.51259" lon="6.72094">
        <ele>2094.8000488281</ele>
        <time>2022-03-10T09:30:57.000Z</time>
      </trkpt>
      <trkpt lat="44.51258" lon="6.72089">
        <ele>2096</ele>
        <time>2022-03-10T09:31:04.000Z</time>
      </trkpt>
      <trkpt lat="44.51258" lon="6.72088">
        <ele>2096.1999511719</ele>
        <time>2022-03-10T09:31:06.000Z</time>
      </trkpt>
      <trkpt lat="44.51258" lon="6.72084">
        <ele>2097.1999511719</ele>
        <time>2022-03-10T09:31:11.000Z</time>
      </trkpt>
      <trkpt lat="44.5126" lon="6.72081">
        <ele>2097.8000488281</ele>
        <time>2022-03-10T09:31:16.000Z</time>
      </trkpt>
      <trkpt lat="44.51261" lon="6.72079">
        <ele>2098.1999511719</ele>
        <time>2022-03-10T09:31:19.000Z</time>
      </trkpt>
      <trkpt lat="44.51261" lon="6.72078">
        <ele>2098.8000488281</ele>
        <time>2022-03-10T09:31:23.000Z</time>
      </trkpt>
      <trkpt lat="44.51261" lon="6.72078">
        <ele>2099.1999511719</ele>
        <time>2022-03-10T09:31:25.000Z</time>
      </trkpt>
      <trkpt lat="44.51261" lon="6.72077">
        <ele>2100</ele>
        <time>2022-03-10T09:31:30.000Z</time>
      </trkpt>
      <trkpt lat="44.5126" lon="6.72077">
        <ele>2100.3999023438</ele>
        <time>2022-03-10T09:31:32.000Z</time>
      </trkpt>
      <trkpt lat="44.5126" lon="6.72075">
        <ele>2101.1999511719</ele>
        <time>2022-03-10T09:31:37.000Z</time>
      </trkpt>
      <trkpt lat="44.5126" lon="6.72074">
        <ele>2101.3999023438</ele>
        <time>2022-03-10T09:31:38.000Z</time>
      </trkpt>
      <trkpt lat="44.51256" lon="6.72072">
        <ele>2102.1999511719</ele>
        <time>2022-03-10T09:31:45.000Z</time>
      </trkpt>
      <trkpt lat="44.51255" lon="6.72073">
        <ele>2102.6000976562</ele>
        <time>2022-03-10T09:31:46.000Z</time>
      </trkpt>
      <trkpt lat="44.51254" lon="6.72072">
        <ele>2103.6000976562</ele>
        <time>2022-03-10T09:31:50.000Z</time>
      </trkpt>
      <trkpt lat="44.51252" lon="6.72071">
        <ele>2104</ele>
        <time>2022-03-10T09:31:53.000Z</time>
      </trkpt>
      <trkpt lat="44.51249" lon="6.72071">
        <ele>2104.3999023438</ele>
        <time>2022-03-10T09:31:58.000Z</time>
      </trkpt>
      <trkpt lat="44.51247" lon="6.7207">
        <ele>2104.6000976562</ele>
        <time>2022-03-10T09:32:01.000Z</time>
      </trkpt>
      <trkpt lat="44.51246" lon="6.72069">
        <ele>2105.3999023438</ele>
        <time>2022-03-10T09:32:06.000Z</time>
      </trkpt>
      <trkpt lat="44.51244" lon="6.72068">
        <ele>2105.8000488281</ele>
        <time>2022-03-10T09:32:09.000Z</time>
      </trkpt>
      <trkpt lat="44.51242" lon="6.72066">
        <ele>2106.6000976562</ele>
        <time>2022-03-10T09:32:14.000Z</time>
      </trkpt>
      <trkpt lat="44.51241" lon="6.72063">
        <ele>2107</ele>
        <time>2022-03-10T09:32:19.000Z</time>
      </trkpt>
      <trkpt lat="44.51241" lon="6.72059">
        <ele>2107.1999511719</ele>
        <time>2022-03-10T09:32:22.000Z</time>
      </trkpt>
      <trkpt lat="44.51242" lon="6.72056">
        <ele>2108</ele>
        <time>2022-03-10T09:32:25.000Z</time>
      </trkpt>
      <trkpt lat="44.51243" lon="6.72052">
        <ele>2109</ele>
        <time>2022-03-10T09:32:31.000Z</time>
      </trkpt>
      <trkpt lat="44.51244" lon="6.7205">
        <ele>2109.8000488281</ele>
        <time>2022-03-10T09:32:35.000Z</time>
      </trkpt>
      <trkpt lat="44.51244" lon="6.72048">
        <ele>2110</ele>
        <time>2022-03-10T09:32:37.000Z</time>
      </trkpt>
      <trkpt lat="44.51242" lon="6.72048">
        <ele>2111.3999023438</ele>
        <time>2022-03-10T09:32:43.000Z</time>
      </trkpt>
      <trkpt lat="44.51241" lon="6.72048">
        <ele>2112</ele>
        <time>2022-03-10T09:32:46.000Z</time>
      </trkpt>
      <trkpt lat="44.51239" lon="6.72047">
        <ele>2112.6000976562</ele>
        <time>2022-03-10T09:32:49.000Z</time>
      </trkpt>
      <trkpt lat="44.51238" lon="6.72047">
        <ele>2112.8000488281</ele>
        <time>2022-03-10T09:32:51.000Z</time>
      </trkpt>
      <trkpt lat="44.51236" lon="6.72047">
        <ele>2113.6000976562</ele>
        <time>2022-03-10T09:32:55.000Z</time>
      </trkpt>
      <trkpt lat="44.51233" lon="6.72047">
        <ele>2113.8000488281</ele>
        <time>2022-03-10T09:33:01.000Z</time>
      </trkpt>
      <trkpt lat="44.51229" lon="6.72049">
        <ele>2114.6000976562</ele>
        <time>2022-03-10T09:33:10.000Z</time>
      </trkpt>
      <trkpt lat="44.51226" lon="6.7205">
        <ele>2115.8000488281</ele>
        <time>2022-03-10T09:33:16.000Z</time>
      </trkpt>
      <trkpt lat="44.51225" lon="6.7205">
        <ele>2115.8000488281</ele>
        <time>2022-03-10T09:33:17.000Z</time>
      </trkpt>
      <trkpt lat="44.51225" lon="6.72049">
        <ele>2116</ele>
        <time>2022-03-10T09:33:18.000Z</time>
      </trkpt>
      <trkpt lat="44.51224" lon="6.72046">
        <ele>2116.1999511719</ele>
        <time>2022-03-10T09:33:22.000Z</time>
      </trkpt>
      <trkpt lat="44.51224" lon="6.72041">
        <ele>2116.8000488281</ele>
        <time>2022-03-10T09:33:26.000Z</time>
      </trkpt>
      <trkpt lat="44.51224" lon="6.72038">
        <ele>2117.3999023438</ele>
        <time>2022-03-10T09:33:31.000Z</time>
      </trkpt>
      <trkpt lat="44.51225" lon="6.72034">
        <ele>2117.8000488281</ele>
        <time>2022-03-10T09:33:36.000Z</time>
      </trkpt>
      <trkpt lat="44.51224" lon="6.72032">
        <ele>2118.6000976562</ele>
        <time>2022-03-10T09:33:41.000Z</time>
      </trkpt>
      <trkpt lat="44.51224" lon="6.72032">
        <ele>2119</ele>
        <time>2022-03-10T09:33:42.000Z</time>
      </trkpt>
      <trkpt lat="44.51222" lon="6.72032">
        <ele>2120</ele>
        <time>2022-03-10T09:33:47.000Z</time>
      </trkpt>
      <trkpt lat="44.51218" lon="6.72033">
        <ele>2120.6000976562</ele>
        <time>2022-03-10T09:33:53.000Z</time>
      </trkpt>
      <trkpt lat="44.51216" lon="6.72032">
        <ele>2121.1999511719</ele>
        <time>2022-03-10T09:33:56.000Z</time>
      </trkpt>
      <trkpt lat="44.51215" lon="6.72032">
        <ele>2121.6000976562</ele>
        <time>2022-03-10T09:34:00.000Z</time>
      </trkpt>
      <trkpt lat="44.51212" lon="6.72031">
        <ele>2122.1999511719</ele>
        <time>2022-03-10T09:34:07.000Z</time>
      </trkpt>
      <trkpt lat="44.51211" lon="6.72023">
        <ele>2123.1999511719</ele>
        <time>2022-03-10T09:34:16.000Z</time>
      </trkpt>
      <trkpt lat="44.51212" lon="6.72021">
        <ele>2123.8000488281</ele>
        <time>2022-03-10T09:34:21.000Z</time>
      </trkpt>
      <trkpt lat="44.51213" lon="6.72019">
        <ele>2124.3999023438</ele>
        <time>2022-03-10T09:34:24.000Z</time>
      </trkpt>
      <trkpt lat="44.51214" lon="6.72019">
        <ele>2124.3999023438</ele>
        <time>2022-03-10T09:34:27.000Z</time>
      </trkpt>
      <trkpt lat="44.51214" lon="6.72017">
        <ele>2125.3999023438</ele>
        <time>2022-03-10T09:34:30.000Z</time>
      </trkpt>
      <trkpt lat="44.51213" lon="6.72016">
        <ele>2126</ele>
        <time>2022-03-10T09:34:34.000Z</time>
      </trkpt>
      <trkpt lat="44.51211" lon="6.72015">
        <ele>2126.3999023438</ele>
        <time>2022-03-10T09:34:37.000Z</time>
      </trkpt>
      <trkpt lat="44.51209" lon="6.72015">
        <ele>2127.3999023438</ele>
        <time>2022-03-10T09:34:42.000Z</time>
      </trkpt>
      <trkpt lat="44.51209" lon="6.72015">
        <ele>2127.6000976562</ele>
        <time>2022-03-10T09:34:43.000Z</time>
      </trkpt>
      <trkpt lat="44.51206" lon="6.72014">
        <ele>2128.3999023438</ele>
        <time>2022-03-10T09:34:49.000Z</time>
      </trkpt>
      <trkpt lat="44.51204" lon="6.72013">
        <ele>2128.8000488281</ele>
        <time>2022-03-10T09:34:52.000Z</time>
      </trkpt>
      <trkpt lat="44.51202" lon="6.72013">
        <ele>2129.6000976562</ele>
        <time>2022-03-10T09:34:57.000Z</time>
      </trkpt>
      <trkpt lat="44.51201" lon="6.72014">
        <ele>2130.1999511719</ele>
        <time>2022-03-10T09:35:01.000Z</time>
      </trkpt>
      <trkpt lat="44.512" lon="6.72014">
        <ele>2130.3999023438</ele>
        <time>2022-03-10T09:35:02.000Z</time>
      </trkpt>
      <trkpt lat="44.51199" lon="6.72013">
        <ele>2130.6000976562</ele>
        <time>2022-03-10T09:35:04.000Z</time>
      </trkpt>
      <trkpt lat="44.51199" lon="6.72012">
        <ele>2130.8000488281</ele>
        <time>2022-03-10T09:35:06.000Z</time>
      </trkpt>
      <trkpt lat="44.51197" lon="6.72005">
        <ele>2131.6000976562</ele>
        <time>2022-03-10T09:35:13.000Z</time>
      </trkpt>
      <trkpt lat="44.51196" lon="6.71999">
        <ele>2132.6000976562</ele>
        <time>2022-03-10T09:35:19.000Z</time>
      </trkpt>
      <trkpt lat="44.51196" lon="6.71997">
        <ele>2133</ele>
        <time>2022-03-10T09:35:22.000Z</time>
      </trkpt>
      <trkpt lat="44.51195" lon="6.71996">
        <ele>2133.8000488281</ele>
        <time>2022-03-10T09:35:27.000Z</time>
      </trkpt>
      <trkpt lat="44.51197" lon="6.71995">
        <ele>2134.6000976562</ele>
        <time>2022-03-10T09:35:31.000Z</time>
      </trkpt>
      <trkpt lat="44.51197" lon="6.71994">
        <ele>2135</ele>
        <time>2022-03-10T09:35:33.000Z</time>
      </trkpt>
      <trkpt lat="44.51198" lon="6.71991">
        <ele>2136.1999511719</ele>
        <time>2022-03-10T09:35:41.000Z</time>
      </trkpt>
      <trkpt lat="44.51202" lon="6.71985">
        <ele>2137.1999511719</ele>
        <time>2022-03-10T09:35:48.000Z</time>
      </trkpt>
      <trkpt lat="44.51205" lon="6.71981">
        <ele>2138</ele>
        <time>2022-03-10T09:35:53.000Z</time>
      </trkpt>
      <trkpt lat="44.51205" lon="6.71979">
        <ele>2138.6000976562</ele>
        <time>2022-03-10T09:35:56.000Z</time>
      </trkpt>
      <trkpt lat="44.51205" lon="6.71978">
        <ele>2139</ele>
        <time>2022-03-10T09:35:58.000Z</time>
      </trkpt>
      <trkpt lat="44.51205" lon="6.71978">
        <ele>2139.8000488281</ele>
        <time>2022-03-10T09:36:00.000Z</time>
      </trkpt>
      <trkpt lat="44.51203" lon="6.71978">
        <ele>2140.6000976562</ele>
        <time>2022-03-10T09:36:04.000Z</time>
      </trkpt>
      <trkpt lat="44.51202" lon="6.71977">
        <ele>2140.8000488281</ele>
        <time>2022-03-10T09:36:06.000Z</time>
      </trkpt>
      <trkpt lat="44.51197" lon="6.71975">
        <ele>2142</ele>
        <time>2022-03-10T09:36:15.000Z</time>
      </trkpt>
      <trkpt lat="44.51192" lon="6.71973">
        <ele>2143</ele>
        <time>2022-03-10T09:36:24.000Z</time>
      </trkpt>
      <trkpt lat="44.51189" lon="6.71972">
        <ele>2143.8000488281</ele>
        <time>2022-03-10T09:36:32.000Z</time>
      </trkpt>
      <trkpt lat="44.51188" lon="6.71973">
        <ele>2144.1999511719</ele>
        <time>2022-03-10T09:36:33.000Z</time>
      </trkpt>
      <trkpt lat="44.51187" lon="6.71973">
        <ele>2145</ele>
        <time>2022-03-10T09:36:38.000Z</time>
      </trkpt>
      <trkpt lat="44.51186" lon="6.71972">
        <ele>2145.1999511719</ele>
        <time>2022-03-10T09:36:41.000Z</time>
      </trkpt>
      <trkpt lat="44.51184" lon="6.71972">
        <ele>2145.1999511719</ele>
        <time>2022-03-10T09:36:43.000Z</time>
      </trkpt>
      <trkpt lat="44.51182" lon="6.71971">
        <ele>2146.1999511719</ele>
        <time>2022-03-10T09:36:48.000Z</time>
      </trkpt>
      <trkpt lat="44.51181" lon="6.7197">
        <ele>2146.1999511719</ele>
        <time>2022-03-10T09:36:49.000Z</time>
      </trkpt>
      <trkpt lat="44.51179" lon="6.71968">
        <ele>2146.6000976562</ele>
        <time>2022-03-10T09:36:53.000Z</time>
      </trkpt>
      <trkpt lat="44.51177" lon="6.71967">
        <ele>2147.3999023438</ele>
        <time>2022-03-10T09:36:57.000Z</time>
      </trkpt>
      <trkpt lat="44.51176" lon="6.71966">
        <ele>2147.6000976562</ele>
        <time>2022-03-10T09:37:00.000Z</time>
      </trkpt>
      <trkpt lat="44.51176" lon="6.7196">
        <ele>2148.3999023438</ele>
        <time>2022-03-10T09:37:04.000Z</time>
      </trkpt>
      <trkpt lat="44.51174" lon="6.71956">
        <ele>2149</ele>
        <time>2022-03-10T09:37:08.000Z</time>
      </trkpt>
      <trkpt lat="44.51175" lon="6.71953">
        <ele>2149.3999023438</ele>
        <time>2022-03-10T09:37:10.000Z</time>
      </trkpt>
      <trkpt lat="44.51175" lon="6.71953">
        <ele>2149.6000976562</ele>
        <time>2022-03-10T09:37:11.000Z</time>
      </trkpt>
      <trkpt lat="44.51174" lon="6.71949">
        <ele>2150.3999023438</ele>
        <time>2022-03-10T09:37:19.000Z</time>
      </trkpt>
      <trkpt lat="44.51174" lon="6.71949">
        <ele>2150.6000976562</ele>
        <time>2022-03-10T09:37:20.000Z</time>
      </trkpt>
      <trkpt lat="44.51173" lon="6.71946">
        <ele>2151.6000976562</ele>
        <time>2022-03-10T09:37:25.000Z</time>
      </trkpt>
      <trkpt lat="44.51173" lon="6.71947">
        <ele>2151.8000488281</ele>
        <time>2022-03-10T09:37:27.000Z</time>
      </trkpt>
      <trkpt lat="44.51174" lon="6.71942">
        <ele>2152.8000488281</ele>
        <time>2022-03-10T09:37:32.000Z</time>
      </trkpt>
      <trkpt lat="44.51176" lon="6.71937">
        <ele>2153.6000976562</ele>
        <time>2022-03-10T09:37:37.000Z</time>
      </trkpt>
      <trkpt lat="44.51177" lon="6.71936">
        <ele>2154</ele>
        <time>2022-03-10T09:37:39.000Z</time>
      </trkpt>
      <trkpt lat="44.51179" lon="6.71931">
        <ele>2155.1999511719</ele>
        <time>2022-03-10T09:37:45.000Z</time>
      </trkpt>
      <trkpt lat="44.51179" lon="6.7193">
        <ele>2155.3999023438</ele>
        <time>2022-03-10T09:37:46.000Z</time>
      </trkpt>
      <trkpt lat="44.5118" lon="6.71931">
        <ele>2156.1999511719</ele>
        <time>2022-03-10T09:37:51.000Z</time>
      </trkpt>
      <trkpt lat="44.5118" lon="6.71931">
        <ele>2156.3999023438</ele>
        <time>2022-03-10T09:37:52.000Z</time>
      </trkpt>
      <trkpt lat="44.51181" lon="6.71928">
        <ele>2157</ele>
        <time>2022-03-10T09:37:57.000Z</time>
      </trkpt>
      <trkpt lat="44.51181" lon="6.71927">
        <ele>2157.3999023438</ele>
        <time>2022-03-10T09:37:59.000Z</time>
      </trkpt>
      <trkpt lat="44.51182" lon="6.71926">
        <ele>2157.8000488281</ele>
        <time>2022-03-10T09:38:01.000Z</time>
      </trkpt>
      <trkpt lat="44.51183" lon="6.71925">
        <ele>2157.8000488281</ele>
        <time>2022-03-10T09:38:02.000Z</time>
      </trkpt>
      <trkpt lat="44.51184" lon="6.71924">
        <ele>2158.6000976562</ele>
        <time>2022-03-10T09:38:06.000Z</time>
      </trkpt>
      <trkpt lat="44.51185" lon="6.71924">
        <ele>2159.1999511719</ele>
        <time>2022-03-10T09:38:09.000Z</time>
      </trkpt>
      <trkpt lat="44.51186" lon="6.71923">
        <ele>2159.8000488281</ele>
        <time>2022-03-10T09:38:12.000Z</time>
      </trkpt>
      <trkpt lat="44.51184" lon="6.7192">
        <ele>2160.1999511719</ele>
        <time>2022-03-10T09:38:17.000Z</time>
      </trkpt>
      <trkpt lat="44.51184" lon="6.71919">
        <ele>2160.6000976562</ele>
        <time>2022-03-10T09:38:19.000Z</time>
      </trkpt>
      <trkpt lat="44.51183" lon="6.71919">
        <ele>2160.8000488281</ele>
        <time>2022-03-10T09:38:20.000Z</time>
      </trkpt>
      <trkpt lat="44.51183" lon="6.71918">
        <ele>2162</ele>
        <time>2022-03-10T09:38:24.000Z</time>
      </trkpt>
      <trkpt lat="44.51183" lon="6.71917">
        <ele>2162.1999511719</ele>
        <time>2022-03-10T09:38:25.000Z</time>
      </trkpt>
      <trkpt lat="44.51183" lon="6.71915">
        <ele>2162.8000488281</ele>
        <time>2022-03-10T09:38:31.000Z</time>
      </trkpt>
      <trkpt lat="44.51181" lon="6.71915">
        <ele>2163</ele>
        <time>2022-03-10T09:38:33.000Z</time>
      </trkpt>
      <trkpt lat="44.5118" lon="6.71911">
        <ele>2163.1999511719</ele>
        <time>2022-03-10T09:38:38.000Z</time>
      </trkpt>
      <trkpt lat="44.51181" lon="6.71905">
        <ele>2164</ele>
        <time>2022-03-10T09:38:45.000Z</time>
      </trkpt>
      <trkpt lat="44.51183" lon="6.71903">
        <ele>2164.3999023438</ele>
        <time>2022-03-10T09:38:47.000Z</time>
      </trkpt>
      <trkpt lat="44.51182" lon="6.71901">
        <ele>2165.1999511719</ele>
        <time>2022-03-10T09:38:51.000Z</time>
      </trkpt>
      <trkpt lat="44.51182" lon="6.719">
        <ele>2166.1999511719</ele>
        <time>2022-03-10T09:38:57.000Z</time>
      </trkpt>
      <trkpt lat="44.51183" lon="6.71899">
        <ele>2167.1999511719</ele>
        <time>2022-03-10T09:39:02.000Z</time>
      </trkpt>
      <trkpt lat="44.51183" lon="6.719">
        <ele>2167.3999023438</ele>
        <time>2022-03-10T09:39:03.000Z</time>
      </trkpt>
      <trkpt lat="44.51182" lon="6.71899">
        <ele>2168.3999023438</ele>
        <time>2022-03-10T09:39:08.000Z</time>
      </trkpt>
      <trkpt lat="44.5118" lon="6.71899">
        <ele>2169</ele>
        <time>2022-03-10T09:39:10.000Z</time>
      </trkpt>
      <trkpt lat="44.5118" lon="6.71898">
        <ele>2169.1999511719</ele>
        <time>2022-03-10T09:39:11.000Z</time>
      </trkpt>
      <trkpt lat="44.51179" lon="6.71898">
        <ele>2169.6000976562</ele>
        <time>2022-03-10T09:39:14.000Z</time>
      </trkpt>
      <trkpt lat="44.51178" lon="6.71897">
        <ele>2169.8000488281</ele>
        <time>2022-03-10T09:39:16.000Z</time>
      </trkpt>
      <trkpt lat="44.51176" lon="6.71894">
        <ele>2170.6000976562</ele>
        <time>2022-03-10T09:39:23.000Z</time>
      </trkpt>
      <trkpt lat="44.51176" lon="6.71893">
        <ele>2171</ele>
        <time>2022-03-10T09:39:25.000Z</time>
      </trkpt>
      <trkpt lat="44.51176" lon="6.71888">
        <ele>2171.6000976562</ele>
        <time>2022-03-10T09:39:31.000Z</time>
      </trkpt>
      <trkpt lat="44.51174" lon="6.71888">
        <ele>2171.8000488281</ele>
        <time>2022-03-10T09:39:33.000Z</time>
      </trkpt>
      <trkpt lat="44.51176" lon="6.71886">
        <ele>2172.8000488281</ele>
        <time>2022-03-10T09:39:39.000Z</time>
      </trkpt>
      <trkpt lat="44.51176" lon="6.71885">
        <ele>2173</ele>
        <time>2022-03-10T09:39:40.000Z</time>
      </trkpt>
      <trkpt lat="44.51176" lon="6.71882">
        <ele>2173.8000488281</ele>
        <time>2022-03-10T09:39:45.000Z</time>
      </trkpt>
      <trkpt lat="44.51175" lon="6.71878">
        <ele>2174.6000976562</ele>
        <time>2022-03-10T09:39:51.000Z</time>
      </trkpt>
      <trkpt lat="44.51175" lon="6.71877">
        <ele>2174.8000488281</ele>
        <time>2022-03-10T09:39:52.000Z</time>
      </trkpt>
      <trkpt lat="44.51174" lon="6.71874">
        <ele>2175.3999023438</ele>
        <time>2022-03-10T09:39:58.000Z</time>
      </trkpt>
      <trkpt lat="44.51174" lon="6.71874">
        <ele>2175.6000976562</ele>
        <time>2022-03-10T09:39:59.000Z</time>
      </trkpt>
      <trkpt lat="44.51173" lon="6.71874">
        <ele>2176</ele>
        <time>2022-03-10T09:40:01.000Z</time>
      </trkpt>
      <trkpt lat="44.51173" lon="6.71872">
        <ele>2176.3999023438</ele>
        <time>2022-03-10T09:40:05.000Z</time>
      </trkpt>
      <trkpt lat="44.51173" lon="6.71869">
        <ele>2177</ele>
        <time>2022-03-10T09:40:10.000Z</time>
      </trkpt>
      <trkpt lat="44.51173" lon="6.71867">
        <ele>2177.1999511719</ele>
        <time>2022-03-10T09:40:12.000Z</time>
      </trkpt>
      <trkpt lat="44.51169" lon="6.71866">
        <ele>2178.1999511719</ele>
        <time>2022-03-10T09:40:19.000Z</time>
      </trkpt>
      <trkpt lat="44.51169" lon="6.71865">
        <ele>2178.1999511719</ele>
        <time>2022-03-10T09:40:21.000Z</time>
      </trkpt>
      <trkpt lat="44.51166" lon="6.71863">
        <ele>2179.1999511719</ele>
        <time>2022-03-10T09:40:26.000Z</time>
      </trkpt>
      <trkpt lat="44.51164" lon="6.71862">
        <ele>2179.8000488281</ele>
        <time>2022-03-10T09:40:29.000Z</time>
      </trkpt>
      <trkpt lat="44.51163" lon="6.71861">
        <ele>2180.1999511719</ele>
        <time>2022-03-10T09:40:33.000Z</time>
      </trkpt>
      <trkpt lat="44.51162" lon="6.7186">
        <ele>2180.3999023438</ele>
        <time>2022-03-10T09:40:34.000Z</time>
      </trkpt>
      <trkpt lat="44.5116" lon="6.71857">
        <ele>2181.1999511719</ele>
        <time>2022-03-10T09:40:39.000Z</time>
      </trkpt>
      <trkpt lat="44.51156" lon="6.71856">
        <ele>2182.3999023438</ele>
        <time>2022-03-10T09:40:46.000Z</time>
      </trkpt>
      <trkpt lat="44.51155" lon="6.71854">
        <ele>2182.8000488281</ele>
        <time>2022-03-10T09:40:48.000Z</time>
      </trkpt>
      <trkpt lat="44.51154" lon="6.71853">
        <ele>2183.3999023438</ele>
        <time>2022-03-10T09:40:51.000Z</time>
      </trkpt>
      <trkpt lat="44.51153" lon="6.71848">
        <ele>2184.1999511719</ele>
        <time>2022-03-10T09:40:57.000Z</time>
      </trkpt>
      <trkpt lat="44.51154" lon="6.71845">
        <ele>2184.6000976562</ele>
        <time>2022-03-10T09:41:01.000Z</time>
      </trkpt>
      <trkpt lat="44.51154" lon="6.71842">
        <ele>2185.3999023438</ele>
        <time>2022-03-10T09:41:05.000Z</time>
      </trkpt>
      <trkpt lat="44.51155" lon="6.71839">
        <ele>2185.8000488281</ele>
        <time>2022-03-10T09:41:08.000Z</time>
      </trkpt>
      <trkpt lat="44.51156" lon="6.71838">
        <ele>2186.1999511719</ele>
        <time>2022-03-10T09:41:09.000Z</time>
      </trkpt>
      <trkpt lat="44.51157" lon="6.71835">
        <ele>2187</ele>
        <time>2022-03-10T09:41:13.000Z</time>
      </trkpt>
      <trkpt lat="44.51157" lon="6.71834">
        <ele>2187.1999511719</ele>
        <time>2022-03-10T09:41:15.000Z</time>
      </trkpt>
      <trkpt lat="44.51158" lon="6.71832">
        <ele>2187.8000488281</ele>
        <time>2022-03-10T09:41:19.000Z</time>
      </trkpt>
      <trkpt lat="44.51158" lon="6.71831">
        <ele>2188</ele>
        <time>2022-03-10T09:41:21.000Z</time>
      </trkpt>
      <trkpt lat="44.51159" lon="6.71826">
        <ele>2189.1999511719</ele>
        <time>2022-03-10T09:41:27.000Z</time>
      </trkpt>
      <trkpt lat="44.5116" lon="6.71825">
        <ele>2189.6000976562</ele>
        <time>2022-03-10T09:41:28.000Z</time>
      </trkpt>
      <trkpt lat="44.5116" lon="6.71823">
        <ele>2189.6000976562</ele>
        <time>2022-03-10T09:41:29.000Z</time>
      </trkpt>
      <trkpt lat="44.51161" lon="6.71818">
        <ele>2190.3999023438</ele>
        <time>2022-03-10T09:41:34.000Z</time>
      </trkpt>
      <trkpt lat="44.51161" lon="6.71816">
        <ele>2191</ele>
        <time>2022-03-10T09:41:37.000Z</time>
      </trkpt>
      <trkpt lat="44.51161" lon="6.71817">
        <ele>2191.6000976562</ele>
        <time>2022-03-10T09:41:40.000Z</time>
      </trkpt>
      <trkpt lat="44.51162" lon="6.71818">
        <ele>2191.8000488281</ele>
        <time>2022-03-10T09:41:41.000Z</time>
      </trkpt>
      <trkpt lat="44.51162" lon="6.71817">
        <ele>2192.8000488281</ele>
        <time>2022-03-10T09:41:44.000Z</time>
      </trkpt>
      <trkpt lat="44.51162" lon="6.71816">
        <ele>2193.8000488281</ele>
        <time>2022-03-10T09:41:47.000Z</time>
      </trkpt>
      <trkpt lat="44.51162" lon="6.71815">
        <ele>2194.3999023438</ele>
        <time>2022-03-10T09:41:50.000Z</time>
      </trkpt>
      <trkpt lat="44.5116" lon="6.71816">
        <ele>2194.8000488281</ele>
        <time>2022-03-10T09:41:53.000Z</time>
      </trkpt>
      <trkpt lat="44.51159" lon="6.71816">
        <ele>2195.6000976562</ele>
        <time>2022-03-10T09:41:56.000Z</time>
      </trkpt>
      <trkpt lat="44.51158" lon="6.71816">
        <ele>2196</ele>
        <time>2022-03-10T09:41:59.000Z</time>
      </trkpt>
      <trkpt lat="44.51156" lon="6.71814">
        <ele>2196.1999511719</ele>
        <time>2022-03-10T09:42:03.000Z</time>
      </trkpt>
      <trkpt lat="44.51154" lon="6.71814">
        <ele>2197</ele>
        <time>2022-03-10T09:42:09.000Z</time>
      </trkpt>
      <trkpt lat="44.51153" lon="6.71814">
        <ele>2197.6000976562</ele>
        <time>2022-03-10T09:42:12.000Z</time>
      </trkpt>
      <trkpt lat="44.51151" lon="6.71811">
        <ele>2198</ele>
        <time>2022-03-10T09:42:18.000Z</time>
      </trkpt>
      <trkpt lat="44.5115" lon="6.71811">
        <ele>2198</ele>
        <time>2022-03-10T09:42:19.000Z</time>
      </trkpt>
      <trkpt lat="44.51148" lon="6.71808">
        <ele>2199</ele>
        <time>2022-03-10T09:42:25.000Z</time>
      </trkpt>
      <trkpt lat="44.51148" lon="6.71808">
        <ele>2199.1999511719</ele>
        <time>2022-03-10T09:42:26.000Z</time>
      </trkpt>
      <trkpt lat="44.51146" lon="6.71807">
        <ele>2200.1999511719</ele>
        <time>2022-03-10T09:42:32.000Z</time>
      </trkpt>
      <trkpt lat="44.51143" lon="6.71803">
        <ele>2200.6000976562</ele>
        <time>2022-03-10T09:42:40.000Z</time>
      </trkpt>
      <trkpt lat="44.51143" lon="6.71801">
        <ele>2201.1999511719</ele>
        <time>2022-03-10T09:42:43.000Z</time>
      </trkpt>
      <trkpt lat="44.51141" lon="6.71798">
        <ele>2202</ele>
        <time>2022-03-10T09:42:49.000Z</time>
      </trkpt>
      <trkpt lat="44.5114" lon="6.71793">
        <ele>2202.1999511719</ele>
        <time>2022-03-10T09:42:57.000Z</time>
      </trkpt>
      <trkpt lat="44.51138" lon="6.71792">
        <ele>2202.3999023438</ele>
        <time>2022-03-10T09:43:01.000Z</time>
      </trkpt>
      <trkpt lat="44.51138" lon="6.71792">
        <ele>2202.3999023438</ele>
        <time>2022-03-10T09:43:03.000Z</time>
      </trkpt>
      <trkpt lat="44.51138" lon="6.71791">
        <ele>2202.3999023438</ele>
        <time>2022-03-10T09:43:04.000Z</time>
      </trkpt>
      <trkpt lat="44.51136" lon="6.71789">
        <ele>2202.6000976562</ele>
        <time>2022-03-10T09:43:10.000Z</time>
      </trkpt>
      <trkpt lat="44.51134" lon="6.71786">
        <ele>2203.6000976562</ele>
        <time>2022-03-10T09:43:15.000Z</time>
      </trkpt>
      <trkpt lat="44.51133" lon="6.71786">
        <ele>2204</ele>
        <time>2022-03-10T09:43:19.000Z</time>
      </trkpt>
      <trkpt lat="44.51129" lon="6.71783">
        <ele>2204.6000976562</ele>
        <time>2022-03-10T09:43:25.000Z</time>
      </trkpt>
      <trkpt lat="44.51128" lon="6.71783">
        <ele>2204.8000488281</ele>
        <time>2022-03-10T09:43:26.000Z</time>
      </trkpt>
      <trkpt lat="44.51126" lon="6.71781">
        <ele>2205.8000488281</ele>
        <time>2022-03-10T09:43:31.000Z</time>
      </trkpt>
      <trkpt lat="44.51126" lon="6.71781">
        <ele>2206</ele>
        <time>2022-03-10T09:43:32.000Z</time>
      </trkpt>
      <trkpt lat="44.51125" lon="6.71781">
        <ele>2206</ele>
        <time>2022-03-10T09:43:33.000Z</time>
      </trkpt>
      <trkpt lat="44.51124" lon="6.71778">
        <ele>2206.6000976562</ele>
        <time>2022-03-10T09:43:38.000Z</time>
      </trkpt>
      <trkpt lat="44.51123" lon="6.71777">
        <ele>2206.8000488281</ele>
        <time>2022-03-10T09:43:40.000Z</time>
      </trkpt>
      <trkpt lat="44.5112" lon="6.71772">
        <ele>2207.6000976562</ele>
        <time>2022-03-10T09:43:47.000Z</time>
      </trkpt>
      <trkpt lat="44.51119" lon="6.71772">
        <ele>2208</ele>
        <time>2022-03-10T09:43:48.000Z</time>
      </trkpt>
      <trkpt lat="44.51116" lon="6.71769">
        <ele>2209</ele>
        <time>2022-03-10T09:43:54.000Z</time>
      </trkpt>
      <trkpt lat="44.51111" lon="6.71767">
        <ele>2210.1999511719</ele>
        <time>2022-03-10T09:44:01.000Z</time>
      </trkpt>
      <trkpt lat="44.51109" lon="6.71766">
        <ele>2210.3999023438</ele>
        <time>2022-03-10T09:44:04.000Z</time>
      </trkpt>
      <trkpt lat="44.51106" lon="6.71764">
        <ele>2211.1999511719</ele>
        <time>2022-03-10T09:44:09.000Z</time>
      </trkpt>
      <trkpt lat="44.51104" lon="6.71764">
        <ele>2211.3999023438</ele>
        <time>2022-03-10T09:44:11.000Z</time>
      </trkpt>
      <trkpt lat="44.51099" lon="6.7176">
        <ele>2212.3999023438</ele>
        <time>2022-03-10T09:44:19.000Z</time>
      </trkpt>
      <trkpt lat="44.51097" lon="6.71757">
        <ele>2213.3999023438</ele>
        <time>2022-03-10T09:44:24.000Z</time>
      </trkpt>
      <trkpt lat="44.51093" lon="6.71755">
        <ele>2213.8000488281</ele>
        <time>2022-03-10T09:44:30.000Z</time>
      </trkpt>
      <trkpt lat="44.51089" lon="6.71753">
        <ele>2214.3999023438</ele>
        <time>2022-03-10T09:44:36.000Z</time>
      </trkpt>
      <trkpt lat="44.51086" lon="6.71751">
        <ele>2215.1999511719</ele>
        <time>2022-03-10T09:44:41.000Z</time>
      </trkpt>
      <trkpt lat="44.51084" lon="6.7175">
        <ele>2215.8000488281</ele>
        <time>2022-03-10T09:44:43.000Z</time>
      </trkpt>
      <trkpt lat="44.51082" lon="6.71747">
        <ele>2216.8000488281</ele>
        <time>2022-03-10T09:44:48.000Z</time>
      </trkpt>
      <trkpt lat="44.51081" lon="6.71747">
        <ele>2216.8000488281</ele>
        <time>2022-03-10T09:44:49.000Z</time>
      </trkpt>
      <trkpt lat="44.5108" lon="6.71746">
        <ele>2217.8000488281</ele>
        <time>2022-03-10T09:44:53.000Z</time>
      </trkpt>
      <trkpt lat="44.51076" lon="6.71744">
        <ele>2218.3999023438</ele>
        <time>2022-03-10T09:44:59.000Z</time>
      </trkpt>
      <trkpt lat="44.51075" lon="6.71741">
        <ele>2219</ele>
        <time>2022-03-10T09:45:04.000Z</time>
      </trkpt>
      <trkpt lat="44.51075" lon="6.71739">
        <ele>2219.3999023438</ele>
        <time>2022-03-10T09:45:06.000Z</time>
      </trkpt>
      <trkpt lat="44.51071" lon="6.71737">
        <ele>2220.1999511719</ele>
        <time>2022-03-10T09:45:12.000Z</time>
      </trkpt>
      <trkpt lat="44.5107" lon="6.71737">
        <ele>2220.1999511719</ele>
        <time>2022-03-10T09:45:13.000Z</time>
      </trkpt>
      <trkpt lat="44.5107" lon="6.71733">
        <ele>2220.3999023438</ele>
        <time>2022-03-10T09:45:15.000Z</time>
      </trkpt>
      <trkpt lat="44.5107" lon="6.7173">
        <ele>2220.8000488281</ele>
        <time>2022-03-10T09:45:25.000Z</time>
      </trkpt>
      <trkpt lat="44.51069" lon="6.71731">
        <ele>2221</ele>
        <time>2022-03-10T09:45:29.000Z</time>
      </trkpt>
      <trkpt lat="44.51069" lon="6.71731">
        <ele>2220.8000488281</ele>
        <time>2022-03-10T09:45:33.000Z</time>
      </trkpt>
      <trkpt lat="44.51068" lon="6.71732">
        <ele>2220.6000976562</ele>
        <time>2022-03-10T09:45:52.000Z</time>
      </trkpt>
      <trkpt lat="44.51068" lon="6.71732">
        <ele>2220.8000488281</ele>
        <time>2022-03-10T09:45:54.000Z</time>
      </trkpt>
      <trkpt lat="44.51068" lon="6.71732">
        <ele>2221.1999511719</ele>
        <time>2022-03-10T09:46:20.000Z</time>
      </trkpt>
      <trkpt lat="44.5107" lon="6.71732">
        <ele>2221.8000488281</ele>
        <time>2022-03-10T09:47:43.000Z</time>
      </trkpt>
      <trkpt lat="44.5107" lon="6.71732">
        <ele>2222.1999511719</ele>
        <time>2022-03-10T09:47:55.000Z</time>
      </trkpt>
      <trkpt lat="44.51069" lon="6.71731">
        <ele>2222.3999023438</ele>
        <time>2022-03-10T09:48:46.000Z</time>
      </trkpt>
      <trkpt lat="44.51069" lon="6.71731">
        <ele>2222.3999023438</ele>
        <time>2022-03-10T09:49:08.000Z</time>
      </trkpt>
      <trkpt lat="44.51069" lon="6.71731">
        <ele>2221.6000976562</ele>
        <time>2022-03-10T09:49:47.000Z</time>
      </trkpt>
      <trkpt lat="44.51069" lon="6.7173">
        <ele>2222.6000976562</ele>
        <time>2022-03-10T09:51:15.000Z</time>
      </trkpt>
      <trkpt lat="44.51069" lon="6.7173">
        <ele>2223.1999511719</ele>
        <time>2022-03-10T09:51:37.000Z</time>
      </trkpt>
      <trkpt lat="44.51069" lon="6.7173">
        <ele>2222.8000488281</ele>
        <time>2022-03-10T09:52:23.000Z</time>
      </trkpt>
      <trkpt lat="44.51069" lon="6.7173">
        <ele>2222.3999023438</ele>
        <time>2022-03-10T09:52:40.000Z</time>
      </trkpt>
      <trkpt lat="44.51069" lon="6.7173">
        <ele>2222.1999511719</ele>
        <time>2022-03-10T09:52:57.000Z</time>
      </trkpt>
      <trkpt lat="44.51069" lon="6.7173">
        <ele>2222.3999023438</ele>
        <time>2022-03-10T09:53:11.000Z</time>
      </trkpt>
      <trkpt lat="44.51069" lon="6.7173">
        <ele>2222.8000488281</ele>
        <time>2022-03-10T09:53:58.000Z</time>
      </trkpt>
      <trkpt lat="44.51068" lon="6.7173">
        <ele>2222.6000976562</ele>
        <time>2022-03-10T09:54:56.000Z</time>
      </trkpt>
      <trkpt lat="44.51068" lon="6.7173">
        <ele>2222.6000976562</ele>
        <time>2022-03-10T09:55:15.000Z</time>
      </trkpt>
      <trkpt lat="44.51068" lon="6.7173">
        <ele>2223.3999023438</ele>
        <time>2022-03-10T09:55:30.000Z</time>
      </trkpt>
      <trkpt lat="44.51062" lon="6.71725">
        <ele>2223.6000976562</ele>
        <time>2022-03-10T09:55:36.000Z</time>
      </trkpt>
      <trkpt lat="44.51055" lon="6.71721">
        <ele>2224.1999511719</ele>
        <time>2022-03-10T09:55:45.000Z</time>
      </trkpt>
      <trkpt lat="44.51049" lon="6.71719">
        <ele>2224.3999023438</ele>
        <time>2022-03-10T09:55:54.000Z</time>
      </trkpt>
      <trkpt lat="44.51041" lon="6.71715">
        <ele>2225.1999511719</ele>
        <time>2022-03-10T09:56:04.000Z</time>
      </trkpt>
      <trkpt lat="44.51033" lon="6.71708">
        <ele>2225.3999023438</ele>
        <time>2022-03-10T09:56:14.000Z</time>
      </trkpt>
      <trkpt lat="44.51031" lon="6.71707">
        <ele>2225.3999023438</ele>
        <time>2022-03-10T09:56:17.000Z</time>
      </trkpt>
      <trkpt lat="44.51026" lon="6.71703">
        <ele>2225.3999023438</ele>
        <time>2022-03-10T09:56:24.000Z</time>
      </trkpt>
      <trkpt lat="44.51022" lon="6.71701">
        <ele>2225.6000976562</ele>
        <time>2022-03-10T09:56:29.000Z</time>
      </trkpt>
      <trkpt lat="44.51018" lon="6.71695">
        <ele>2225.8000488281</ele>
        <time>2022-03-10T09:56:36.000Z</time>
      </trkpt>
      <trkpt lat="44.51011" lon="6.7169">
        <ele>2226.1999511719</ele>
        <time>2022-03-10T09:56:46.000Z</time>
      </trkpt>
      <trkpt lat="44.51007" lon="6.71685">
        <ele>2226.3999023438</ele>
        <time>2022-03-10T09:56:53.000Z</time>
      </trkpt>
      <trkpt lat="44.51" lon="6.71681">
        <ele>2227.1999511719</ele>
        <time>2022-03-10T09:57:03.000Z</time>
      </trkpt>
      <trkpt lat="44.51" lon="6.7168">
        <ele>2227.1999511719</ele>
        <time>2022-03-10T09:57:04.000Z</time>
      </trkpt>
      <trkpt lat="44.50998" lon="6.7168">
        <ele>2227.6000976562</ele>
        <time>2022-03-10T09:57:08.000Z</time>
      </trkpt>
      <trkpt lat="44.50995" lon="6.7168">
        <ele>2227.8000488281</ele>
        <time>2022-03-10T09:57:11.000Z</time>
      </trkpt>
      <trkpt lat="44.5099" lon="6.7168">
        <ele>2228.3999023438</ele>
        <time>2022-03-10T09:57:20.000Z</time>
      </trkpt>
      <trkpt lat="44.5099" lon="6.71679">
        <ele>2228.6000976562</ele>
        <time>2022-03-10T09:57:21.000Z</time>
      </trkpt>
      <trkpt lat="44.50984" lon="6.71678">
        <ele>2229.3999023438</ele>
        <time>2022-03-10T09:57:29.000Z</time>
      </trkpt>
      <trkpt lat="44.5098" lon="6.71678">
        <ele>2229.6000976562</ele>
        <time>2022-03-10T09:57:35.000Z</time>
      </trkpt>
      <trkpt lat="44.50978" lon="6.71678">
        <ele>2230</ele>
        <time>2022-03-10T09:57:38.000Z</time>
      </trkpt>
      <trkpt lat="44.50976" lon="6.7168">
        <ele>2230.1999511719</ele>
        <time>2022-03-10T09:57:41.000Z</time>
      </trkpt>
      <trkpt lat="44.50971" lon="6.71678">
        <ele>2230.8000488281</ele>
        <time>2022-03-10T09:57:48.000Z</time>
      </trkpt>
      <trkpt lat="44.50965" lon="6.71676">
        <ele>2231.8000488281</ele>
        <time>2022-03-10T09:57:58.000Z</time>
      </trkpt>
      <trkpt lat="44.50964" lon="6.71675">
        <ele>2232</ele>
        <time>2022-03-10T09:57:59.000Z</time>
      </trkpt>
      <trkpt lat="44.50959" lon="6.71673">
        <ele>2233</ele>
        <time>2022-03-10T09:58:06.000Z</time>
      </trkpt>
      <trkpt lat="44.50958" lon="6.71673">
        <ele>2233.1999511719</ele>
        <time>2022-03-10T09:58:08.000Z</time>
      </trkpt>
      <trkpt lat="44.50954" lon="6.71669">
        <ele>2234</ele>
        <time>2022-03-10T09:58:15.000Z</time>
      </trkpt>
      <trkpt lat="44.50952" lon="6.71669">
        <ele>2234.1999511719</ele>
        <time>2022-03-10T09:58:17.000Z</time>
      </trkpt>
      <trkpt lat="44.50947" lon="6.71664">
        <ele>2235</ele>
        <time>2022-03-10T09:58:25.000Z</time>
      </trkpt>
      <trkpt lat="44.50946" lon="6.71663">
        <ele>2235.1999511719</ele>
        <time>2022-03-10T09:58:26.000Z</time>
      </trkpt>
      <trkpt lat="44.50944" lon="6.71658">
        <ele>2236.1999511719</ele>
        <time>2022-03-10T09:58:31.000Z</time>
      </trkpt>
      <trkpt lat="44.50942" lon="6.71653">
        <ele>2237</ele>
        <time>2022-03-10T09:58:37.000Z</time>
      </trkpt>
      <trkpt lat="44.50941" lon="6.71653">
        <ele>2237.1999511719</ele>
        <time>2022-03-10T09:58:39.000Z</time>
      </trkpt>
      <trkpt lat="44.50938" lon="6.71646">
        <ele>2238.1999511719</ele>
        <time>2022-03-10T09:58:48.000Z</time>
      </trkpt>
      <trkpt lat="44.50938" lon="6.71645">
        <ele>2238.3999023438</ele>
        <time>2022-03-10T09:58:49.000Z</time>
      </trkpt>
      <trkpt lat="44.50937" lon="6.71635">
        <ele>2239.3999023438</ele>
        <time>2022-03-10T09:58:57.000Z</time>
      </trkpt>
      <trkpt lat="44.50935" lon="6.71633">
        <ele>2239.8000488281</ele>
        <time>2022-03-10T09:59:01.000Z</time>
      </trkpt>
      <trkpt lat="44.50934" lon="6.71631">
        <ele>2240.6000976562</ele>
        <time>2022-03-10T09:59:05.000Z</time>
      </trkpt>
      <trkpt lat="44.50932" lon="6.71626">
        <ele>2241.1999511719</ele>
        <time>2022-03-10T09:59:12.000Z</time>
      </trkpt>
      <trkpt lat="44.50931" lon="6.71624">
        <ele>2241.6000976562</ele>
        <time>2022-03-10T09:59:14.000Z</time>
      </trkpt>
      <trkpt lat="44.50926" lon="6.71618">
        <ele>2242.6000976562</ele>
        <time>2022-03-10T09:59:24.000Z</time>
      </trkpt>
      <trkpt lat="44.50926" lon="6.71617">
        <ele>2242.8000488281</ele>
        <time>2022-03-10T09:59:25.000Z</time>
      </trkpt>
      <trkpt lat="44.50924" lon="6.7161">
        <ele>2243.3999023438</ele>
        <time>2022-03-10T09:59:31.000Z</time>
      </trkpt>
      <trkpt lat="44.50923" lon="6.71608">
        <ele>2243.8000488281</ele>
        <time>2022-03-10T09:59:34.000Z</time>
      </trkpt>
      <trkpt lat="44.5092" lon="6.71602">
        <ele>2244.1999511719</ele>
        <time>2022-03-10T09:59:41.000Z</time>
      </trkpt>
      <trkpt lat="44.50919" lon="6.71597">
        <ele>2244.8000488281</ele>
        <time>2022-03-10T09:59:47.000Z</time>
      </trkpt>
      <trkpt lat="44.50919" lon="6.71591">
        <ele>2245.6000976562</ele>
        <time>2022-03-10T09:59:52.000Z</time>
      </trkpt>
      <trkpt lat="44.50918" lon="6.71589">
        <ele>2245.8000488281</ele>
        <time>2022-03-10T09:59:54.000Z</time>
      </trkpt>
      <trkpt lat="44.50915" lon="6.71585">
        <ele>2246.8000488281</ele>
        <time>2022-03-10T10:00:01.000Z</time>
      </trkpt>
      <trkpt lat="44.50915" lon="6.71584">
        <ele>2247</ele>
        <time>2022-03-10T10:00:03.000Z</time>
      </trkpt>
      <trkpt lat="44.50914" lon="6.7158">
        <ele>2248</ele>
        <time>2022-03-10T10:00:09.000Z</time>
      </trkpt>
      <trkpt lat="44.50914" lon="6.71579">
        <ele>2248</ele>
        <time>2022-03-10T10:00:10.000Z</time>
      </trkpt>
      <trkpt lat="44.50913" lon="6.71575">
        <ele>2248.8000488281</ele>
        <time>2022-03-10T10:00:16.000Z</time>
      </trkpt>
      <trkpt lat="44.50913" lon="6.71573">
        <ele>2249</ele>
        <time>2022-03-10T10:00:18.000Z</time>
      </trkpt>
      <trkpt lat="44.50911" lon="6.71569">
        <ele>2249.8000488281</ele>
        <time>2022-03-10T10:00:24.000Z</time>
      </trkpt>
      <trkpt lat="44.50911" lon="6.71567">
        <ele>2250.1999511719</ele>
        <time>2022-03-10T10:00:26.000Z</time>
      </trkpt>
      <trkpt lat="44.50909" lon="6.71563">
        <ele>2251</ele>
        <time>2022-03-10T10:00:32.000Z</time>
      </trkpt>
      <trkpt lat="44.50909" lon="6.7156">
        <ele>2251.3999023438</ele>
        <time>2022-03-10T10:00:34.000Z</time>
      </trkpt>
      <trkpt lat="44.50909" lon="6.71553">
        <ele>2252</ele>
        <time>2022-03-10T10:00:40.000Z</time>
      </trkpt>
      <trkpt lat="44.50908" lon="6.71551">
        <ele>2252.3999023438</ele>
        <time>2022-03-10T10:00:43.000Z</time>
      </trkpt>
      <trkpt lat="44.50907" lon="6.71547">
        <ele>2253.3999023438</ele>
        <time>2022-03-10T10:00:48.000Z</time>
      </trkpt>
      <trkpt lat="44.50906" lon="6.71545">
        <ele>2253.3999023438</ele>
        <time>2022-03-10T10:00:50.000Z</time>
      </trkpt>
      <trkpt lat="44.50905" lon="6.71539">
        <ele>2254.1999511719</ele>
        <time>2022-03-10T10:00:56.000Z</time>
      </trkpt>
      <trkpt lat="44.50903" lon="6.71537">
        <ele>2254.6000976562</ele>
        <time>2022-03-10T10:01:00.000Z</time>
      </trkpt>
      <trkpt lat="44.50903" lon="6.71536">
        <ele>2255</ele>
        <time>2022-03-10T10:01:03.000Z</time>
      </trkpt>
      <trkpt lat="44.50902" lon="6.71531">
        <ele>2255.6000976562</ele>
        <time>2022-03-10T10:01:07.000Z</time>
      </trkpt>
      <trkpt lat="44.509" lon="6.71526">
        <ele>2256.6000976562</ele>
        <time>2022-03-10T10:01:14.000Z</time>
      </trkpt>
      <trkpt lat="44.509" lon="6.71524">
        <ele>2256.8000488281</ele>
        <time>2022-03-10T10:01:16.000Z</time>
      </trkpt>
      <trkpt lat="44.50898" lon="6.71519">
        <ele>2257.6000976562</ele>
        <time>2022-03-10T10:01:22.000Z</time>
      </trkpt>
      <trkpt lat="44.50897" lon="6.71518">
        <ele>2257.8000488281</ele>
        <time>2022-03-10T10:01:23.000Z</time>
      </trkpt>
      <trkpt lat="44.50897" lon="6.71512">
        <ele>2258</ele>
        <time>2022-03-10T10:01:27.000Z</time>
      </trkpt>
      <trkpt lat="44.50896" lon="6.71507">
        <ele>2258.6000976562</ele>
        <time>2022-03-10T10:01:32.000Z</time>
      </trkpt>
      <trkpt lat="44.50896" lon="6.71506">
        <ele>2258.8000488281</ele>
        <time>2022-03-10T10:01:33.000Z</time>
      </trkpt>
      <trkpt lat="44.50893" lon="6.71501">
        <ele>2260</ele>
        <time>2022-03-10T10:01:40.000Z</time>
      </trkpt>
      <trkpt lat="44.50891" lon="6.71496">
        <ele>2261</ele>
        <time>2022-03-10T10:01:48.000Z</time>
      </trkpt>
      <trkpt lat="44.5089" lon="6.71492">
        <ele>2261.3999023438</ele>
        <time>2022-03-10T10:01:52.000Z</time>
      </trkpt>
      <trkpt lat="44.50888" lon="6.71489">
        <ele>2262</ele>
        <time>2022-03-10T10:01:57.000Z</time>
      </trkpt>
      <trkpt lat="44.50887" lon="6.71487">
        <ele>2262.3999023438</ele>
        <time>2022-03-10T10:02:01.000Z</time>
      </trkpt>
      <trkpt lat="44.50886" lon="6.71486">
        <ele>2262.3999023438</ele>
        <time>2022-03-10T10:02:02.000Z</time>
      </trkpt>
      <trkpt lat="44.50884" lon="6.71484">
        <ele>2263</ele>
        <time>2022-03-10T10:02:06.000Z</time>
      </trkpt>
      <trkpt lat="44.50882" lon="6.71481">
        <ele>2264</ele>
        <time>2022-03-10T10:02:12.000Z</time>
      </trkpt>
      <trkpt lat="44.50878" lon="6.71478">
        <ele>2264.8000488281</ele>
        <time>2022-03-10T10:02:19.000Z</time>
      </trkpt>
      <trkpt lat="44.50877" lon="6.71475">
        <ele>2265.1999511719</ele>
        <time>2022-03-10T10:02:22.000Z</time>
      </trkpt>
      <trkpt lat="44.50875" lon="6.71472">
        <ele>2266</ele>
        <time>2022-03-10T10:02:28.000Z</time>
      </trkpt>
      <trkpt lat="44.50875" lon="6.7147">
        <ele>2266.1999511719</ele>
        <time>2022-03-10T10:02:30.000Z</time>
      </trkpt>
      <trkpt lat="44.50872" lon="6.71467">
        <ele>2267.3999023438</ele>
        <time>2022-03-10T10:02:37.000Z</time>
      </trkpt>
      <trkpt lat="44.50871" lon="6.71465">
        <ele>2267.6000976562</ele>
        <time>2022-03-10T10:02:41.000Z</time>
      </trkpt>
      <trkpt lat="44.50871" lon="6.71458">
        <ele>2268.3999023438</ele>
        <time>2022-03-10T10:02:47.000Z</time>
      </trkpt>
      <trkpt lat="44.5087" lon="6.71457">
        <ele>2269</ele>
        <time>2022-03-10T10:02:49.000Z</time>
      </trkpt>
      <trkpt lat="44.50871" lon="6.71454">
        <ele>2269.6000976562</ele>
        <time>2022-03-10T10:02:54.000Z</time>
      </trkpt>
      <trkpt lat="44.50869" lon="6.7145">
        <ele>2270.8000488281</ele>
        <time>2022-03-10T10:03:01.000Z</time>
      </trkpt>
      <trkpt lat="44.50869" lon="6.71448">
        <ele>2271</ele>
        <time>2022-03-10T10:03:03.000Z</time>
      </trkpt>
      <trkpt lat="44.50868" lon="6.71442">
        <ele>2271.8000488281</ele>
        <time>2022-03-10T10:03:09.000Z</time>
      </trkpt>
      <trkpt lat="44.50868" lon="6.7144">
        <ele>2272</ele>
        <time>2022-03-10T10:03:11.000Z</time>
      </trkpt>
      <trkpt lat="44.50867" lon="6.71435">
        <ele>2273.1999511719</ele>
        <time>2022-03-10T10:03:18.000Z</time>
      </trkpt>
      <trkpt lat="44.50865" lon="6.71431">
        <ele>2274.3999023438</ele>
        <time>2022-03-10T10:03:27.000Z</time>
      </trkpt>
      <trkpt lat="44.50865" lon="6.7143">
        <ele>2274.6000976562</ele>
        <time>2022-03-10T10:03:28.000Z</time>
      </trkpt>
      <trkpt lat="44.50864" lon="6.71429">
        <ele>2275</ele>
        <time>2022-03-10T10:03:30.000Z</time>
      </trkpt>
      <trkpt lat="44.50863" lon="6.71427">
        <ele>2275.6000976562</ele>
        <time>2022-03-10T10:03:34.000Z</time>
      </trkpt>
      <trkpt lat="44.50863" lon="6.71419">
        <ele>2276.8000488281</ele>
        <time>2022-03-10T10:03:42.000Z</time>
      </trkpt>
      <trkpt lat="44.50863" lon="6.71417">
        <ele>2277</ele>
        <time>2022-03-10T10:03:44.000Z</time>
      </trkpt>
      <trkpt lat="44.50863" lon="6.71413">
        <ele>2277.8000488281</ele>
        <time>2022-03-10T10:03:48.000Z</time>
      </trkpt>
      <trkpt lat="44.50864" lon="6.71407">
        <ele>2278.6000976562</ele>
        <time>2022-03-10T10:03:55.000Z</time>
      </trkpt>
      <trkpt lat="44.50865" lon="6.71404">
        <ele>2278.8000488281</ele>
        <time>2022-03-10T10:03:58.000Z</time>
      </trkpt>
      <trkpt lat="44.50866" lon="6.71401">
        <ele>2279.6000976562</ele>
        <time>2022-03-10T10:04:03.000Z</time>
      </trkpt>
      <trkpt lat="44.50867" lon="6.71396">
        <ele>2280.1999511719</ele>
        <time>2022-03-10T10:04:08.000Z</time>
      </trkpt>
      <trkpt lat="44.50867" lon="6.71392">
        <ele>2280.6000976562</ele>
        <time>2022-03-10T10:04:13.000Z</time>
      </trkpt>
      <trkpt lat="44.50868" lon="6.71388">
        <ele>2281.3999023438</ele>
        <time>2022-03-10T10:04:18.000Z</time>
      </trkpt>
      <trkpt lat="44.50867" lon="6.71386">
        <ele>2282.1999511719</ele>
        <time>2022-03-10T10:04:21.000Z</time>
      </trkpt>
      <trkpt lat="44.50867" lon="6.71385">
        <ele>2282.3999023438</ele>
        <time>2022-03-10T10:04:23.000Z</time>
      </trkpt>
      <trkpt lat="44.50865" lon="6.71381">
        <ele>2283.3999023438</ele>
        <time>2022-03-10T10:04:30.000Z</time>
      </trkpt>
      <trkpt lat="44.50864" lon="6.7138">
        <ele>2283.6000976562</ele>
        <time>2022-03-10T10:04:32.000Z</time>
      </trkpt>
      <trkpt lat="44.50863" lon="6.71375">
        <ele>2284.3999023438</ele>
        <time>2022-03-10T10:04:38.000Z</time>
      </trkpt>
      <trkpt lat="44.50863" lon="6.71373">
        <ele>2284.6000976562</ele>
        <time>2022-03-10T10:04:40.000Z</time>
      </trkpt>
      <trkpt lat="44.50863" lon="6.71373">
        <ele>2284.8000488281</ele>
        <time>2022-03-10T10:04:42.000Z</time>
      </trkpt>
      <trkpt lat="44.50863" lon="6.71368">
        <ele>2285</ele>
        <time>2022-03-10T10:04:47.000Z</time>
      </trkpt>
      <trkpt lat="44.50865" lon="6.71363">
        <ele>2285.8000488281</ele>
        <time>2022-03-10T10:04:54.000Z</time>
      </trkpt>
      <trkpt lat="44.50865" lon="6.71362">
        <ele>2286</ele>
        <time>2022-03-10T10:04:55.000Z</time>
      </trkpt>
      <trkpt lat="44.50867" lon="6.71356">
        <ele>2287</ele>
        <time>2022-03-10T10:05:03.000Z</time>
      </trkpt>
      <trkpt lat="44.50867" lon="6.71355">
        <ele>2287.1999511719</ele>
        <time>2022-03-10T10:05:04.000Z</time>
      </trkpt>
      <trkpt lat="44.50868" lon="6.71351">
        <ele>2288</ele>
        <time>2022-03-10T10:05:09.000Z</time>
      </trkpt>
      <trkpt lat="44.50868" lon="6.71351">
        <ele>2288.1999511719</ele>
        <time>2022-03-10T10:05:10.000Z</time>
      </trkpt>
      <trkpt lat="44.50867" lon="6.71347">
        <ele>2289.3999023438</ele>
        <time>2022-03-10T10:05:16.000Z</time>
      </trkpt>
      <trkpt lat="44.50867" lon="6.71345">
        <ele>2289.6000976562</ele>
        <time>2022-03-10T10:05:18.000Z</time>
      </trkpt>
      <trkpt lat="44.50866" lon="6.71341">
        <ele>2290.3999023438</ele>
        <time>2022-03-10T10:05:23.000Z</time>
      </trkpt>
      <trkpt lat="44.50866" lon="6.71341">
        <ele>2290.6000976562</ele>
        <time>2022-03-10T10:05:25.000Z</time>
      </trkpt>
      <trkpt lat="44.50865" lon="6.71335">
        <ele>2291.6000976562</ele>
        <time>2022-03-10T10:05:34.000Z</time>
      </trkpt>
      <trkpt lat="44.50865" lon="6.71334">
        <ele>2291.8000488281</ele>
        <time>2022-03-10T10:05:35.000Z</time>
      </trkpt>
      <trkpt lat="44.50863" lon="6.71332">
        <ele>2292.6000976562</ele>
        <time>2022-03-10T10:05:43.000Z</time>
      </trkpt>
      <trkpt lat="44.50863" lon="6.71329">
        <ele>2293</ele>
        <time>2022-03-10T10:05:46.000Z</time>
      </trkpt>
      <trkpt lat="44.50863" lon="6.71327">
        <ele>2293.1999511719</ele>
        <time>2022-03-10T10:05:47.000Z</time>
      </trkpt>
      <trkpt lat="44.50863" lon="6.71322">
        <ele>2293.8000488281</ele>
        <time>2022-03-10T10:05:53.000Z</time>
      </trkpt>
      <trkpt lat="44.50863" lon="6.7132">
        <ele>2294</ele>
        <time>2022-03-10T10:05:54.000Z</time>
      </trkpt>
      <trkpt lat="44.50863" lon="6.71315">
        <ele>2294.8000488281</ele>
        <time>2022-03-10T10:06:00.000Z</time>
      </trkpt>
      <trkpt lat="44.50865" lon="6.71312">
        <ele>2295.6000976562</ele>
        <time>2022-03-10T10:06:04.000Z</time>
      </trkpt>
      <trkpt lat="44.50866" lon="6.7131">
        <ele>2296</ele>
        <time>2022-03-10T10:06:08.000Z</time>
      </trkpt>
      <trkpt lat="44.50867" lon="6.71308">
        <ele>2296.6000976562</ele>
        <time>2022-03-10T10:06:12.000Z</time>
      </trkpt>
      <trkpt lat="44.50867" lon="6.71308">
        <ele>2297</ele>
        <time>2022-03-10T10:06:14.000Z</time>
      </trkpt>
      <trkpt lat="44.50865" lon="6.71302">
        <ele>2298</ele>
        <time>2022-03-10T10:06:21.000Z</time>
      </trkpt>
      <trkpt lat="44.50864" lon="6.713">
        <ele>2298.1999511719</ele>
        <time>2022-03-10T10:06:24.000Z</time>
      </trkpt>
      <trkpt lat="44.50864" lon="6.71298">
        <ele>2298.6000976562</ele>
        <time>2022-03-10T10:06:28.000Z</time>
      </trkpt>
      <trkpt lat="44.50864" lon="6.71295">
        <ele>2299</ele>
        <time>2022-03-10T10:06:32.000Z</time>
      </trkpt>
      <trkpt lat="44.50864" lon="6.71294">
        <ele>2299.1999511719</ele>
        <time>2022-03-10T10:06:33.000Z</time>
      </trkpt>
      <trkpt lat="44.50864" lon="6.71293">
        <ele>2299.6000976562</ele>
        <time>2022-03-10T10:06:35.000Z</time>
      </trkpt>
      <trkpt lat="44.50865" lon="6.71293">
        <ele>2300.3999023438</ele>
        <time>2022-03-10T10:06:38.000Z</time>
      </trkpt>
      <trkpt lat="44.50865" lon="6.71293">
        <ele>2300.3999023438</ele>
        <time>2022-03-10T10:06:39.000Z</time>
      </trkpt>
      <trkpt lat="44.50867" lon="6.71292">
        <ele>2300.8000488281</ele>
        <time>2022-03-10T10:06:42.000Z</time>
      </trkpt>
      <trkpt lat="44.5087" lon="6.7129">
        <ele>2301.6000976562</ele>
        <time>2022-03-10T10:06:49.000Z</time>
      </trkpt>
      <trkpt lat="44.5087" lon="6.71289">
        <ele>2301.8000488281</ele>
        <time>2022-03-10T10:06:51.000Z</time>
      </trkpt>
      <trkpt lat="44.50869" lon="6.71283">
        <ele>2302.6000976562</ele>
        <time>2022-03-10T10:06:58.000Z</time>
      </trkpt>
      <trkpt lat="44.50869" lon="6.71283">
        <ele>2303.1999511719</ele>
        <time>2022-03-10T10:07:01.000Z</time>
      </trkpt>
      <trkpt lat="44.50869" lon="6.7128">
        <ele>2303.8000488281</ele>
        <time>2022-03-10T10:07:05.000Z</time>
      </trkpt>
      <trkpt lat="44.5087" lon="6.71276">
        <ele>2304.6000976562</ele>
        <time>2022-03-10T10:07:11.000Z</time>
      </trkpt>
      <trkpt lat="44.50871" lon="6.71276">
        <ele>2304.8000488281</ele>
        <time>2022-03-10T10:07:13.000Z</time>
      </trkpt>
      <trkpt lat="44.50873" lon="6.71273">
        <ele>2305.6000976562</ele>
        <time>2022-03-10T10:07:20.000Z</time>
      </trkpt>
      <trkpt lat="44.50874" lon="6.71272">
        <ele>2306</ele>
        <time>2022-03-10T10:07:22.000Z</time>
      </trkpt>
      <trkpt lat="44.50878" lon="6.7127">
        <ele>2307.1999511719</ele>
        <time>2022-03-10T10:07:29.000Z</time>
      </trkpt>
      <trkpt lat="44.50878" lon="6.7127">
        <ele>2307.1999511719</ele>
        <time>2022-03-10T10:07:30.000Z</time>
      </trkpt>
      <trkpt lat="44.50881" lon="6.71269">
        <ele>2308.1999511719</ele>
        <time>2022-03-10T10:07:37.000Z</time>
      </trkpt>
      <trkpt lat="44.50883" lon="6.71269">
        <ele>2308.6000976562</ele>
        <time>2022-03-10T10:07:40.000Z</time>
      </trkpt>
      <trkpt lat="44.50886" lon="6.71269">
        <ele>2309.1999511719</ele>
        <time>2022-03-10T10:07:46.000Z</time>
      </trkpt>
      <trkpt lat="44.50888" lon="6.71267">
        <ele>2309.8000488281</ele>
        <time>2022-03-10T10:07:50.000Z</time>
      </trkpt>
      <trkpt lat="44.50889" lon="6.71267">
        <ele>2310</ele>
        <time>2022-03-10T10:07:51.000Z</time>
      </trkpt>
      <trkpt lat="44.50889" lon="6.71267">
        <ele>2310.1999511719</ele>
        <time>2022-03-10T10:07:52.000Z</time>
      </trkpt>
      <trkpt lat="44.50889" lon="6.71264">
        <ele>2311.1999511719</ele>
        <time>2022-03-10T10:07:58.000Z</time>
      </trkpt>
      <trkpt lat="44.50889" lon="6.71263">
        <ele>2311.3999023438</ele>
        <time>2022-03-10T10:07:59.000Z</time>
      </trkpt>
      <trkpt lat="44.50886" lon="6.71261">
        <ele>2312.1999511719</ele>
        <time>2022-03-10T10:08:04.000Z</time>
      </trkpt>
      <trkpt lat="44.50885" lon="6.7126">
        <ele>2312.3999023438</ele>
        <time>2022-03-10T10:08:06.000Z</time>
      </trkpt>
      <trkpt lat="44.50884" lon="6.71256">
        <ele>2313.1999511719</ele>
        <time>2022-03-10T10:08:13.000Z</time>
      </trkpt>
      <trkpt lat="44.50884" lon="6.71252">
        <ele>2313.3999023438</ele>
        <time>2022-03-10T10:08:17.000Z</time>
      </trkpt>
      <trkpt lat="44.50882" lon="6.71249">
        <ele>2314</ele>
        <time>2022-03-10T10:08:22.000Z</time>
      </trkpt>
      <trkpt lat="44.50881" lon="6.71247">
        <ele>2314.6000976562</ele>
        <time>2022-03-10T10:08:26.000Z</time>
      </trkpt>
      <trkpt lat="44.5088" lon="6.71246">
        <ele>2314.8000488281</ele>
        <time>2022-03-10T10:08:28.000Z</time>
      </trkpt>
      <trkpt lat="44.5088" lon="6.71246">
        <ele>2315</ele>
        <time>2022-03-10T10:08:29.000Z</time>
      </trkpt>
      <trkpt lat="44.50879" lon="6.71244">
        <ele>2315.6000976562</ele>
        <time>2022-03-10T10:08:33.000Z</time>
      </trkpt>
      <trkpt lat="44.50878" lon="6.71242">
        <ele>2316</ele>
        <time>2022-03-10T10:08:35.000Z</time>
      </trkpt>
      <trkpt lat="44.50877" lon="6.71239">
        <ele>2316.8000488281</ele>
        <time>2022-03-10T10:08:39.000Z</time>
      </trkpt>
      <trkpt lat="44.50874" lon="6.71237">
        <ele>2317.1999511719</ele>
        <time>2022-03-10T10:08:45.000Z</time>
      </trkpt>
      <trkpt lat="44.50874" lon="6.71236">
        <ele>2317.1999511719</ele>
        <time>2022-03-10T10:08:47.000Z</time>
      </trkpt>
      <trkpt lat="44.50871" lon="6.71236">
        <ele>2317.8000488281</ele>
        <time>2022-03-10T10:08:51.000Z</time>
      </trkpt>
      <trkpt lat="44.50871" lon="6.71236">
        <ele>2318</ele>
        <time>2022-03-10T10:08:52.000Z</time>
      </trkpt>
      <trkpt lat="44.50868" lon="6.71233">
        <ele>2318.8000488281</ele>
        <time>2022-03-10T10:08:58.000Z</time>
      </trkpt>
      <trkpt lat="44.50868" lon="6.71231">
        <ele>2319.3999023438</ele>
        <time>2022-03-10T10:09:00.000Z</time>
      </trkpt>
      <trkpt lat="44.50866" lon="6.7123">
        <ele>2319.8000488281</ele>
        <time>2022-03-10T10:09:05.000Z</time>
      </trkpt>
      <trkpt lat="44.50866" lon="6.71229">
        <ele>2320</ele>
        <time>2022-03-10T10:09:06.000Z</time>
      </trkpt>
      <trkpt lat="44.50862" lon="6.71226">
        <ele>2321</ele>
        <time>2022-03-10T10:09:14.000Z</time>
      </trkpt>
      <trkpt lat="44.50859" lon="6.71221">
        <ele>2322</ele>
        <time>2022-03-10T10:09:21.000Z</time>
      </trkpt>
      <trkpt lat="44.50856" lon="6.71222">
        <ele>2322.8000488281</ele>
        <time>2022-03-10T10:09:27.000Z</time>
      </trkpt>
      <trkpt lat="44.50855" lon="6.71219">
        <ele>2323</ele>
        <time>2022-03-10T10:09:30.000Z</time>
      </trkpt>
      <trkpt lat="44.50854" lon="6.71216">
        <ele>2324.1999511719</ele>
        <time>2022-03-10T10:09:35.000Z</time>
      </trkpt>
      <trkpt lat="44.50852" lon="6.71213">
        <ele>2324.8000488281</ele>
        <time>2022-03-10T10:09:40.000Z</time>
      </trkpt>
      <trkpt lat="44.5085" lon="6.71211">
        <ele>2325.3999023438</ele>
        <time>2022-03-10T10:09:43.000Z</time>
      </trkpt>
      <trkpt lat="44.50848" lon="6.71211">
        <ele>2325.6000976562</ele>
        <time>2022-03-10T10:09:46.000Z</time>
      </trkpt>
      <trkpt lat="44.50846" lon="6.71208">
        <ele>2326.3999023438</ele>
        <time>2022-03-10T10:09:52.000Z</time>
      </trkpt>
      <trkpt lat="44.50847" lon="6.71205">
        <ele>2327</ele>
        <time>2022-03-10T10:09:57.000Z</time>
      </trkpt>
      <trkpt lat="44.50847" lon="6.71201">
        <ele>2327.6000976562</ele>
        <time>2022-03-10T10:10:02.000Z</time>
      </trkpt>
      <trkpt lat="44.50848" lon="6.71198">
        <ele>2328.6000976562</ele>
        <time>2022-03-10T10:10:09.000Z</time>
      </trkpt>
      <trkpt lat="44.50848" lon="6.71197">
        <ele>2328.8000488281</ele>
        <time>2022-03-10T10:10:10.000Z</time>
      </trkpt>
      <trkpt lat="44.5085" lon="6.71192">
        <ele>2329.8000488281</ele>
        <time>2022-03-10T10:10:17.000Z</time>
      </trkpt>
      <trkpt lat="44.50851" lon="6.7119">
        <ele>2330.3999023438</ele>
        <time>2022-03-10T10:10:21.000Z</time>
      </trkpt>
      <trkpt lat="44.50852" lon="6.71188">
        <ele>2330.8000488281</ele>
        <time>2022-03-10T10:10:24.000Z</time>
      </trkpt>
      <trkpt lat="44.50853" lon="6.71185">
        <ele>2331.8000488281</ele>
        <time>2022-03-10T10:10:30.000Z</time>
      </trkpt>
      <trkpt lat="44.50853" lon="6.71184">
        <ele>2332</ele>
        <time>2022-03-10T10:10:31.000Z</time>
      </trkpt>
      <trkpt lat="44.50854" lon="6.71181">
        <ele>2333</ele>
        <time>2022-03-10T10:10:36.000Z</time>
      </trkpt>
      <trkpt lat="44.50854" lon="6.7118">
        <ele>2333.6000976562</ele>
        <time>2022-03-10T10:10:39.000Z</time>
      </trkpt>
      <trkpt lat="44.50854" lon="6.71179">
        <ele>2333.8000488281</ele>
        <time>2022-03-10T10:10:40.000Z</time>
      </trkpt>
      <trkpt lat="44.50854" lon="6.71179">
        <ele>2334</ele>
        <time>2022-03-10T10:10:41.000Z</time>
      </trkpt>
      <trkpt lat="44.50853" lon="6.71176">
        <ele>2335.1999511719</ele>
        <time>2022-03-10T10:10:46.000Z</time>
      </trkpt>
      <trkpt lat="44.50852" lon="6.71175">
        <ele>2335.1999511719</ele>
        <time>2022-03-10T10:10:47.000Z</time>
      </trkpt>
      <trkpt lat="44.50849" lon="6.7117">
        <ele>2336.3999023438</ele>
        <time>2022-03-10T10:10:56.000Z</time>
      </trkpt>
      <trkpt lat="44.50848" lon="6.71168">
        <ele>2336.6000976562</ele>
        <time>2022-03-10T10:10:58.000Z</time>
      </trkpt>
      <trkpt lat="44.50847" lon="6.71165">
        <ele>2337.3999023438</ele>
        <time>2022-03-10T10:11:03.000Z</time>
      </trkpt>
      <trkpt lat="44.50846" lon="6.71161">
        <ele>2338.1999511719</ele>
        <time>2022-03-10T10:11:08.000Z</time>
      </trkpt>
      <trkpt lat="44.50846" lon="6.7116">
        <ele>2338.3999023438</ele>
        <time>2022-03-10T10:11:09.000Z</time>
      </trkpt>
      <trkpt lat="44.50846" lon="6.71152">
        <ele>2339.6000976562</ele>
        <time>2022-03-10T10:11:17.000Z</time>
      </trkpt>
      <trkpt lat="44.50846" lon="6.71151">
        <ele>2339.6000976562</ele>
        <time>2022-03-10T10:11:19.000Z</time>
      </trkpt>
      <trkpt lat="44.50845" lon="6.71145">
        <ele>2340.6000976562</ele>
        <time>2022-03-10T10:11:27.000Z</time>
      </trkpt>
      <trkpt lat="44.50844" lon="6.71142">
        <ele>2341.3999023438</ele>
        <time>2022-03-10T10:11:31.000Z</time>
      </trkpt>
      <trkpt lat="44.50844" lon="6.71141">
        <ele>2341.6000976562</ele>
        <time>2022-03-10T10:11:33.000Z</time>
      </trkpt>
      <trkpt lat="44.50843" lon="6.71139">
        <ele>2342</ele>
        <time>2022-03-10T10:11:36.000Z</time>
      </trkpt>
      <trkpt lat="44.50841" lon="6.71137">
        <ele>2342.8000488281</ele>
        <time>2022-03-10T10:11:42.000Z</time>
      </trkpt>
      <trkpt lat="44.50839" lon="6.71127">
        <ele>2343.6000976562</ele>
        <time>2022-03-10T10:11:54.000Z</time>
      </trkpt>
      <trkpt lat="44.50839" lon="6.71125">
        <ele>2343.8000488281</ele>
        <time>2022-03-10T10:11:56.000Z</time>
      </trkpt>
      <trkpt lat="44.50839" lon="6.7112">
        <ele>2344.1999511719</ele>
        <time>2022-03-10T10:12:01.000Z</time>
      </trkpt>
      <trkpt lat="44.50839" lon="6.71114">
        <ele>2345</ele>
        <time>2022-03-10T10:12:06.000Z</time>
      </trkpt>
      <trkpt lat="44.50838" lon="6.71111">
        <ele>2345.3999023438</ele>
        <time>2022-03-10T10:12:09.000Z</time>
      </trkpt>
      <trkpt lat="44.50838" lon="6.71108">
        <ele>2346</ele>
        <time>2022-03-10T10:12:13.000Z</time>
      </trkpt>
      <trkpt lat="44.50838" lon="6.71102">
        <ele>2347.1999511719</ele>
        <time>2022-03-10T10:12:18.000Z</time>
      </trkpt>
      <trkpt lat="44.50838" lon="6.711">
        <ele>2347.6000976562</ele>
        <time>2022-03-10T10:12:21.000Z</time>
      </trkpt>
      <trkpt lat="44.50837" lon="6.71096">
        <ele>2348.1999511719</ele>
        <time>2022-03-10T10:12:25.000Z</time>
      </trkpt>
      <trkpt lat="44.50837" lon="6.71091">
        <ele>2348.8000488281</ele>
        <time>2022-03-10T10:12:31.000Z</time>
      </trkpt>
      <trkpt lat="44.50836" lon="6.7109">
        <ele>2349.6000976562</ele>
        <time>2022-03-10T10:12:34.000Z</time>
      </trkpt>
      <trkpt lat="44.50835" lon="6.71086">
        <ele>2350.3999023438</ele>
        <time>2022-03-10T10:12:41.000Z</time>
      </trkpt>
      <trkpt lat="44.50835" lon="6.71083">
        <ele>2350.6000976562</ele>
        <time>2022-03-10T10:12:44.000Z</time>
      </trkpt>
      <trkpt lat="44.50833" lon="6.71082">
        <ele>2351.1999511719</ele>
        <time>2022-03-10T10:12:48.000Z</time>
      </trkpt>
      <trkpt lat="44.50833" lon="6.71081">
        <ele>2351.8000488281</ele>
        <time>2022-03-10T10:12:51.000Z</time>
      </trkpt>
      <trkpt lat="44.50832" lon="6.71075">
        <ele>2352.6000976562</ele>
        <time>2022-03-10T10:12:57.000Z</time>
      </trkpt>
      <trkpt lat="44.50832" lon="6.71072">
        <ele>2352.8000488281</ele>
        <time>2022-03-10T10:13:00.000Z</time>
      </trkpt>
      <trkpt lat="44.5083" lon="6.71067">
        <ele>2354</ele>
        <time>2022-03-10T10:13:08.000Z</time>
      </trkpt>
      <trkpt lat="44.50829" lon="6.71066">
        <ele>2354</ele>
        <time>2022-03-10T10:13:09.000Z</time>
      </trkpt>
      <trkpt lat="44.50828" lon="6.71062">
        <ele>2355</ele>
        <time>2022-03-10T10:13:15.000Z</time>
      </trkpt>
      <trkpt lat="44.50828" lon="6.71062">
        <ele>2355</ele>
        <time>2022-03-10T10:13:16.000Z</time>
      </trkpt>
      <trkpt lat="44.50827" lon="6.71058">
        <ele>2356</ele>
        <time>2022-03-10T10:13:22.000Z</time>
      </trkpt>
      <trkpt lat="44.50827" lon="6.71056">
        <ele>2356.6000976562</ele>
        <time>2022-03-10T10:13:25.000Z</time>
      </trkpt>
      <trkpt lat="44.50827" lon="6.71055">
        <ele>2356.6000976562</ele>
        <time>2022-03-10T10:13:26.000Z</time>
      </trkpt>
      <trkpt lat="44.50828" lon="6.71051">
        <ele>2357</ele>
        <time>2022-03-10T10:13:32.000Z</time>
      </trkpt>
      <trkpt lat="44.50829" lon="6.7105">
        <ele>2357.8000488281</ele>
        <time>2022-03-10T10:13:36.000Z</time>
      </trkpt>
      <trkpt lat="44.50829" lon="6.71048">
        <ele>2358.1999511719</ele>
        <time>2022-03-10T10:13:39.000Z</time>
      </trkpt>
      <trkpt lat="44.50828" lon="6.71046">
        <ele>2359.1999511719</ele>
        <time>2022-03-10T10:13:44.000Z</time>
      </trkpt>
      <trkpt lat="44.50827" lon="6.71045">
        <ele>2359.3999023438</ele>
        <time>2022-03-10T10:13:45.000Z</time>
      </trkpt>
      <trkpt lat="44.50823" lon="6.71041">
        <ele>2360.3999023438</ele>
        <time>2022-03-10T10:13:54.000Z</time>
      </trkpt>
      <trkpt lat="44.50822" lon="6.7104">
        <ele>2361</ele>
        <time>2022-03-10T10:13:58.000Z</time>
      </trkpt>
      <trkpt lat="44.50822" lon="6.71038">
        <ele>2361.6000976562</ele>
        <time>2022-03-10T10:14:01.000Z</time>
      </trkpt>
      <trkpt lat="44.50823" lon="6.71035">
        <ele>2362</ele>
        <time>2022-03-10T10:14:05.000Z</time>
      </trkpt>
      <trkpt lat="44.50826" lon="6.71032">
        <ele>2362.6000976562</ele>
        <time>2022-03-10T10:14:12.000Z</time>
      </trkpt>
      <trkpt lat="44.50827" lon="6.71031">
        <ele>2362.8000488281</ele>
        <time>2022-03-10T10:14:14.000Z</time>
      </trkpt>
      <trkpt lat="44.50828" lon="6.71029">
        <ele>2363.6000976562</ele>
        <time>2022-03-10T10:14:19.000Z</time>
      </trkpt>
      <trkpt lat="44.50828" lon="6.71028">
        <ele>2364.8000488281</ele>
        <time>2022-03-10T10:14:24.000Z</time>
      </trkpt>
      <trkpt lat="44.50827" lon="6.71027">
        <ele>2365.1999511719</ele>
        <time>2022-03-10T10:14:26.000Z</time>
      </trkpt>
      <trkpt lat="44.50826" lon="6.71024">
        <ele>2365.8000488281</ele>
        <time>2022-03-10T10:14:29.000Z</time>
      </trkpt>
      <trkpt lat="44.50826" lon="6.71022">
        <ele>2366</ele>
        <time>2022-03-10T10:14:31.000Z</time>
      </trkpt>
      <trkpt lat="44.50824" lon="6.71018">
        <ele>2366.8000488281</ele>
        <time>2022-03-10T10:14:38.000Z</time>
      </trkpt>
      <trkpt lat="44.50823" lon="6.71018">
        <ele>2367</ele>
        <time>2022-03-10T10:14:39.000Z</time>
      </trkpt>
      <trkpt lat="44.50821" lon="6.71018">
        <ele>2367.8000488281</ele>
        <time>2022-03-10T10:14:44.000Z</time>
      </trkpt>
      <trkpt lat="44.50821" lon="6.71017">
        <ele>2368.1999511719</ele>
        <time>2022-03-10T10:14:45.000Z</time>
      </trkpt>
      <trkpt lat="44.5082" lon="6.71012">
        <ele>2369</ele>
        <time>2022-03-10T10:14:51.000Z</time>
      </trkpt>
      <trkpt lat="44.5082" lon="6.71012">
        <ele>2369.1999511719</ele>
        <time>2022-03-10T10:14:52.000Z</time>
      </trkpt>
      <trkpt lat="44.50818" lon="6.71008">
        <ele>2370</ele>
        <time>2022-03-10T10:14:58.000Z</time>
      </trkpt>
      <trkpt lat="44.50818" lon="6.71008">
        <ele>2370.3999023438</ele>
        <time>2022-03-10T10:14:59.000Z</time>
      </trkpt>
      <trkpt lat="44.50817" lon="6.71004">
        <ele>2371.3999023438</ele>
        <time>2022-03-10T10:15:05.000Z</time>
      </trkpt>
      <trkpt lat="44.50817" lon="6.71003">
        <ele>2371.6000976562</ele>
        <time>2022-03-10T10:15:06.000Z</time>
      </trkpt>
      <trkpt lat="44.50814" lon="6.70999">
        <ele>2372.3999023438</ele>
        <time>2022-03-10T10:15:14.000Z</time>
      </trkpt>
      <trkpt lat="44.50812" lon="6.70999">
        <ele>2372.6000976562</ele>
        <time>2022-03-10T10:15:16.000Z</time>
      </trkpt>
      <trkpt lat="44.5081" lon="6.70995">
        <ele>2373.6000976562</ele>
        <time>2022-03-10T10:15:22.000Z</time>
      </trkpt>
      <trkpt lat="44.50808" lon="6.70996">
        <ele>2373.8000488281</ele>
        <time>2022-03-10T10:15:24.000Z</time>
      </trkpt>
      <trkpt lat="44.50807" lon="6.70993">
        <ele>2374.6000976562</ele>
        <time>2022-03-10T10:15:30.000Z</time>
      </trkpt>
      <trkpt lat="44.50805" lon="6.7099">
        <ele>2375.1999511719</ele>
        <time>2022-03-10T10:15:37.000Z</time>
      </trkpt>
      <trkpt lat="44.50804" lon="6.70988">
        <ele>2375.6000976562</ele>
        <time>2022-03-10T10:15:40.000Z</time>
      </trkpt>
      <trkpt lat="44.50804" lon="6.70988">
        <ele>2375.6000976562</ele>
        <time>2022-03-10T10:15:41.000Z</time>
      </trkpt>
      <trkpt lat="44.50802" lon="6.70985">
        <ele>2376.6000976562</ele>
        <time>2022-03-10T10:15:46.000Z</time>
      </trkpt>
      <trkpt lat="44.508" lon="6.70983">
        <ele>2377.3999023438</ele>
        <time>2022-03-10T10:15:50.000Z</time>
      </trkpt>
      <trkpt lat="44.50797" lon="6.70982">
        <ele>2377.8000488281</ele>
        <time>2022-03-10T10:15:55.000Z</time>
      </trkpt>
      <trkpt lat="44.50797" lon="6.70979">
        <ele>2378.3999023438</ele>
        <time>2022-03-10T10:16:00.000Z</time>
      </trkpt>
      <trkpt lat="44.50796" lon="6.70978">
        <ele>2378.8000488281</ele>
        <time>2022-03-10T10:16:02.000Z</time>
      </trkpt>
      <trkpt lat="44.50794" lon="6.70976">
        <ele>2379.8000488281</ele>
        <time>2022-03-10T10:16:08.000Z</time>
      </trkpt>
      <trkpt lat="44.50793" lon="6.70976">
        <ele>2380</ele>
        <time>2022-03-10T10:16:09.000Z</time>
      </trkpt>
      <trkpt lat="44.50791" lon="6.70976">
        <ele>2381</ele>
        <time>2022-03-10T10:16:15.000Z</time>
      </trkpt>
      <trkpt lat="44.50789" lon="6.70975">
        <ele>2381.6000976562</ele>
        <time>2022-03-10T10:16:20.000Z</time>
      </trkpt>
      <trkpt lat="44.50787" lon="6.70976">
        <ele>2382</ele>
        <time>2022-03-10T10:16:22.000Z</time>
      </trkpt>
      <trkpt lat="44.50786" lon="6.70973">
        <ele>2382.3999023438</ele>
        <time>2022-03-10T10:16:26.000Z</time>
      </trkpt>
      <trkpt lat="44.50785" lon="6.70972">
        <ele>2383.1999511719</ele>
        <time>2022-03-10T10:16:30.000Z</time>
      </trkpt>
      <trkpt lat="44.50783" lon="6.70971">
        <ele>2383.8000488281</ele>
        <time>2022-03-10T10:16:33.000Z</time>
      </trkpt>
      <trkpt lat="44.50782" lon="6.70971">
        <ele>2384.1999511719</ele>
        <time>2022-03-10T10:16:36.000Z</time>
      </trkpt>
      <trkpt lat="44.5078" lon="6.70967">
        <ele>2385</ele>
        <time>2022-03-10T10:16:42.000Z</time>
      </trkpt>
      <trkpt lat="44.50781" lon="6.70962">
        <ele>2385.3999023438</ele>
        <time>2022-03-10T10:16:50.000Z</time>
      </trkpt>
      <trkpt lat="44.50781" lon="6.70961">
        <ele>2385.8000488281</ele>
        <time>2022-03-10T10:16:52.000Z</time>
      </trkpt>
      <trkpt lat="44.50781" lon="6.70956">
        <ele>2386.3999023438</ele>
        <time>2022-03-10T10:16:58.000Z</time>
      </trkpt>
      <trkpt lat="44.50782" lon="6.70952">
        <ele>2387.6000976562</ele>
        <time>2022-03-10T10:17:04.000Z</time>
      </trkpt>
      <trkpt lat="44.50782" lon="6.7095">
        <ele>2387.8000488281</ele>
        <time>2022-03-10T10:17:07.000Z</time>
      </trkpt>
      <trkpt lat="44.50783" lon="6.70946">
        <ele>2388.1999511719</ele>
        <time>2022-03-10T10:17:12.000Z</time>
      </trkpt>
      <trkpt lat="44.50783" lon="6.70945">
        <ele>2388.6000976562</ele>
        <time>2022-03-10T10:17:15.000Z</time>
      </trkpt>
      <trkpt lat="44.50782" lon="6.70945">
        <ele>2389</ele>
        <time>2022-03-10T10:17:19.000Z</time>
      </trkpt>
      <trkpt lat="44.50782" lon="6.70944">
        <ele>2389.1999511719</ele>
        <time>2022-03-10T10:17:23.000Z</time>
      </trkpt>
      <trkpt lat="44.50782" lon="6.70944">
        <ele>2389.3999023438</ele>
        <time>2022-03-10T10:17:26.000Z</time>
      </trkpt>
      <trkpt lat="44.50782" lon="6.70945">
        <ele>2389</ele>
        <time>2022-03-10T10:18:13.000Z</time>
      </trkpt>
      <trkpt lat="44.50781" lon="6.70946">
        <ele>2388.8000488281</ele>
        <time>2022-03-10T10:19:59.000Z</time>
      </trkpt>
      <trkpt lat="44.50783" lon="6.70944">
        <ele>2388.8000488281</ele>
        <time>2022-03-10T10:20:39.000Z</time>
      </trkpt>
      <trkpt lat="44.50782" lon="6.70944">
        <ele>2388.3999023438</ele>
        <time>2022-03-10T10:21:37.000Z</time>
      </trkpt>
      <trkpt lat="44.50782" lon="6.70944">
        <ele>2389.1999511719</ele>
        <time>2022-03-10T10:23:21.000Z</time>
      </trkpt>
      <trkpt lat="44.50779" lon="6.70946">
        <ele>2389</ele>
        <time>2022-03-10T10:24:13.000Z</time>
      </trkpt>
      <trkpt lat="44.50784" lon="6.70943">
        <ele>2389.6000976562</ele>
        <time>2022-03-10T10:24:56.000Z</time>
      </trkpt>
      <trkpt lat="44.50784" lon="6.70942">
        <ele>2389.6000976562</ele>
        <time>2022-03-10T10:25:04.000Z</time>
      </trkpt>
      <trkpt lat="44.50785" lon="6.7094">
        <ele>2389.3999023438</ele>
        <time>2022-03-10T10:25:13.000Z</time>
      </trkpt>
      <trkpt lat="44.50786" lon="6.7094">
        <ele>2389.6000976562</ele>
        <time>2022-03-10T10:25:17.000Z</time>
      </trkpt>
      <trkpt lat="44.50785" lon="6.7094">
        <ele>2389.8000488281</ele>
        <time>2022-03-10T10:25:32.000Z</time>
      </trkpt>
      <trkpt lat="44.50783" lon="6.7094">
        <ele>2389.6000976562</ele>
        <time>2022-03-10T10:25:43.000Z</time>
      </trkpt>
      <trkpt lat="44.50782" lon="6.70941">
        <ele>2389.8000488281</ele>
        <time>2022-03-10T10:25:49.000Z</time>
      </trkpt>
      <trkpt lat="44.50781" lon="6.70939">
        <ele>2389.8000488281</ele>
        <time>2022-03-10T10:25:54.000Z</time>
      </trkpt>
      <trkpt lat="44.50777" lon="6.70933">
        <ele>2390.1999511719</ele>
        <time>2022-03-10T10:26:01.000Z</time>
      </trkpt>
      <trkpt lat="44.50776" lon="6.70931">
        <ele>2390.8000488281</ele>
        <time>2022-03-10T10:26:04.000Z</time>
      </trkpt>
      <trkpt lat="44.50777" lon="6.70926">
        <ele>2391.1999511719</ele>
        <time>2022-03-10T10:26:09.000Z</time>
      </trkpt>
      <trkpt lat="44.50776" lon="6.70925">
        <ele>2391.3999023438</ele>
        <time>2022-03-10T10:26:10.000Z</time>
      </trkpt>
      <trkpt lat="44.50775" lon="6.70922">
        <ele>2391.8000488281</ele>
        <time>2022-03-10T10:26:12.000Z</time>
      </trkpt>
      <trkpt lat="44.50772" lon="6.70918">
        <ele>2392.6000976562</ele>
        <time>2022-03-10T10:26:15.000Z</time>
      </trkpt>
      <trkpt lat="44.50771" lon="6.70917">
        <ele>2392.8000488281</ele>
        <time>2022-03-10T10:26:16.000Z</time>
      </trkpt>
      <trkpt lat="44.50769" lon="6.70914">
        <ele>2393.8000488281</ele>
        <time>2022-03-10T10:26:19.000Z</time>
      </trkpt>
      <trkpt lat="44.50765" lon="6.70916">
        <ele>2394.6000976562</ele>
        <time>2022-03-10T10:26:21.000Z</time>
      </trkpt>
      <trkpt lat="44.50764" lon="6.70914">
        <ele>2395</ele>
        <time>2022-03-10T10:26:23.000Z</time>
      </trkpt>
      <trkpt lat="44.50763" lon="6.70913">
        <ele>2395.1999511719</ele>
        <time>2022-03-10T10:26:24.000Z</time>
      </trkpt>
      <trkpt lat="44.50763" lon="6.70907">
        <ele>2395.6000976562</ele>
        <time>2022-03-10T10:26:28.000Z</time>
      </trkpt>
      <trkpt lat="44.50762" lon="6.70906">
        <ele>2396</ele>
        <time>2022-03-10T10:26:31.000Z</time>
      </trkpt>
      <trkpt lat="44.5076" lon="6.70906">
        <ele>2396.6000976562</ele>
        <time>2022-03-10T10:26:36.000Z</time>
      </trkpt>
      <trkpt lat="44.50759" lon="6.70906">
        <ele>2396.6000976562</ele>
        <time>2022-03-10T10:26:38.000Z</time>
      </trkpt>
      <trkpt lat="44.50758" lon="6.70905">
        <ele>2397</ele>
        <time>2022-03-10T10:26:41.000Z</time>
      </trkpt>
      <trkpt lat="44.50757" lon="6.70905">
        <ele>2397.3999023438</ele>
        <time>2022-03-10T10:26:44.000Z</time>
      </trkpt>
      <trkpt lat="44.50758" lon="6.709">
        <ele>2397.8000488281</ele>
        <time>2022-03-10T10:26:50.000Z</time>
      </trkpt>
      <trkpt lat="44.5076" lon="6.70898">
        <ele>2398.1999511719</ele>
        <time>2022-03-10T10:26:54.000Z</time>
      </trkpt>
      <trkpt lat="44.50761" lon="6.70897">
        <ele>2399.1999511719</ele>
        <time>2022-03-10T10:27:00.000Z</time>
      </trkpt>
      <trkpt lat="44.50761" lon="6.70896">
        <ele>2399.1999511719</ele>
        <time>2022-03-10T10:27:01.000Z</time>
      </trkpt>
      <trkpt lat="44.50764" lon="6.70893">
        <ele>2400.1999511719</ele>
        <time>2022-03-10T10:27:06.000Z</time>
      </trkpt>
      <trkpt lat="44.50764" lon="6.70892">
        <ele>2400.3999023438</ele>
        <time>2022-03-10T10:27:08.000Z</time>
      </trkpt>
      <trkpt lat="44.50763" lon="6.70889">
        <ele>2401.1999511719</ele>
        <time>2022-03-10T10:27:13.000Z</time>
      </trkpt>
      <trkpt lat="44.50764" lon="6.70888">
        <ele>2401.6000976562</ele>
        <time>2022-03-10T10:27:15.000Z</time>
      </trkpt>
      <trkpt lat="44.50768" lon="6.70884">
        <ele>2402.6000976562</ele>
        <time>2022-03-10T10:27:22.000Z</time>
      </trkpt>
      <trkpt lat="44.5077" lon="6.70882">
        <ele>2403.6000976562</ele>
        <time>2022-03-10T10:27:28.000Z</time>
      </trkpt>
      <trkpt lat="44.5077" lon="6.70882">
        <ele>2403.8000488281</ele>
        <time>2022-03-10T10:27:29.000Z</time>
      </trkpt>
      <trkpt lat="44.5077" lon="6.7088">
        <ele>2404</ele>
        <time>2022-03-10T10:27:32.000Z</time>
      </trkpt>
      <trkpt lat="44.5077" lon="6.70879">
        <ele>2404.1999511719</ele>
        <time>2022-03-10T10:27:34.000Z</time>
      </trkpt>
      <trkpt lat="44.5077" lon="6.70877">
        <ele>2404.8000488281</ele>
        <time>2022-03-10T10:27:38.000Z</time>
      </trkpt>
      <trkpt lat="44.50767" lon="6.70877">
        <ele>2405</ele>
        <time>2022-03-10T10:27:41.000Z</time>
      </trkpt>
      <trkpt lat="44.50766" lon="6.70875">
        <ele>2405.8000488281</ele>
        <time>2022-03-10T10:27:45.000Z</time>
      </trkpt>
      <trkpt lat="44.50766" lon="6.70874">
        <ele>2406.3999023438</ele>
        <time>2022-03-10T10:27:49.000Z</time>
      </trkpt>
      <trkpt lat="44.50764" lon="6.70873">
        <ele>2407</ele>
        <time>2022-03-10T10:27:53.000Z</time>
      </trkpt>
      <trkpt lat="44.50763" lon="6.70872">
        <ele>2407.6000976562</ele>
        <time>2022-03-10T10:27:57.000Z</time>
      </trkpt>
      <trkpt lat="44.50762" lon="6.70871">
        <ele>2408</ele>
        <time>2022-03-10T10:28:00.000Z</time>
      </trkpt>
      <trkpt lat="44.50761" lon="6.70868">
        <ele>2408.3999023438</ele>
        <time>2022-03-10T10:28:04.000Z</time>
      </trkpt>
      <trkpt lat="44.50761" lon="6.70867">
        <ele>2408.3999023438</ele>
        <time>2022-03-10T10:28:05.000Z</time>
      </trkpt>
      <trkpt lat="44.50755" lon="6.70866">
        <ele>2409.1999511719</ele>
        <time>2022-03-10T10:28:10.000Z</time>
      </trkpt>
      <trkpt lat="44.50755" lon="6.70866">
        <ele>2409.3999023438</ele>
        <time>2022-03-10T10:28:11.000Z</time>
      </trkpt>
      <trkpt lat="44.50753" lon="6.70862">
        <ele>2410.1999511719</ele>
        <time>2022-03-10T10:28:18.000Z</time>
      </trkpt>
      <trkpt lat="44.50753" lon="6.70861">
        <ele>2410.6000976562</ele>
        <time>2022-03-10T10:28:19.000Z</time>
      </trkpt>
      <trkpt lat="44.50752" lon="6.70858">
        <ele>2411</ele>
        <time>2022-03-10T10:28:25.000Z</time>
      </trkpt>
      <trkpt lat="44.50751" lon="6.70857">
        <ele>2411.3999023438</ele>
        <time>2022-03-10T10:28:28.000Z</time>
      </trkpt>
      <trkpt lat="44.50754" lon="6.70852">
        <ele>2412.3999023438</ele>
        <time>2022-03-10T10:28:35.000Z</time>
      </trkpt>
      <trkpt lat="44.50754" lon="6.70851">
        <ele>2412.3999023438</ele>
        <time>2022-03-10T10:28:36.000Z</time>
      </trkpt>
      <trkpt lat="44.50757" lon="6.70848">
        <ele>2413.1999511719</ele>
        <time>2022-03-10T10:28:43.000Z</time>
      </trkpt>
      <trkpt lat="44.50759" lon="6.70847">
        <ele>2413.6000976562</ele>
        <time>2022-03-10T10:28:44.000Z</time>
      </trkpt>
      <trkpt lat="44.5076" lon="6.70845">
        <ele>2414.1999511719</ele>
        <time>2022-03-10T10:28:48.000Z</time>
      </trkpt>
      <trkpt lat="44.5076" lon="6.70844">
        <ele>2414.6000976562</ele>
        <time>2022-03-10T10:28:51.000Z</time>
      </trkpt>
      <trkpt lat="44.5076" lon="6.70844">
        <ele>2414.8000488281</ele>
        <time>2022-03-10T10:28:52.000Z</time>
      </trkpt>
      <trkpt lat="44.50766" lon="6.70839">
        <ele>2416</ele>
        <time>2022-03-10T10:28:59.000Z</time>
      </trkpt>
      <trkpt lat="44.50767" lon="6.70838">
        <ele>2416.8000488281</ele>
        <time>2022-03-10T10:29:03.000Z</time>
      </trkpt>
      <trkpt lat="44.50767" lon="6.70839">
        <ele>2417</ele>
        <time>2022-03-10T10:29:05.000Z</time>
      </trkpt>
      <trkpt lat="44.50769" lon="6.70839">
        <ele>2417.3999023438</ele>
        <time>2022-03-10T10:29:08.000Z</time>
      </trkpt>
      <trkpt lat="44.50769" lon="6.70839">
        <ele>2417.6000976562</ele>
        <time>2022-03-10T10:29:10.000Z</time>
      </trkpt>
      <trkpt lat="44.50769" lon="6.70839">
        <ele>2418.1999511719</ele>
        <time>2022-03-10T10:29:13.000Z</time>
      </trkpt>
      <trkpt lat="44.50769" lon="6.7084">
        <ele>2418.3999023438</ele>
        <time>2022-03-10T10:29:14.000Z</time>
      </trkpt>
      <trkpt lat="44.50768" lon="6.70837">
        <ele>2419</ele>
        <time>2022-03-10T10:29:18.000Z</time>
      </trkpt>
      <trkpt lat="44.50767" lon="6.70836">
        <ele>2419.1999511719</ele>
        <time>2022-03-10T10:29:20.000Z</time>
      </trkpt>
      <trkpt lat="44.50767" lon="6.70836">
        <ele>2419.1999511719</ele>
        <time>2022-03-10T10:29:21.000Z</time>
      </trkpt>
      <trkpt lat="44.50765" lon="6.70837">
        <ele>2420.3999023438</ele>
        <time>2022-03-10T10:29:27.000Z</time>
      </trkpt>
      <trkpt lat="44.50762" lon="6.70832">
        <ele>2421</ele>
        <time>2022-03-10T10:29:34.000Z</time>
      </trkpt>
      <trkpt lat="44.5076" lon="6.7083">
        <ele>2421.6000976562</ele>
        <time>2022-03-10T10:29:37.000Z</time>
      </trkpt>
      <trkpt lat="44.50759" lon="6.70827">
        <ele>2422.3999023438</ele>
        <time>2022-03-10T10:29:41.000Z</time>
      </trkpt>
      <trkpt lat="44.50758" lon="6.70827">
        <ele>2422.6000976562</ele>
        <time>2022-03-10T10:29:44.000Z</time>
      </trkpt>
      <trkpt lat="44.50757" lon="6.70825">
        <ele>2423</ele>
        <time>2022-03-10T10:29:47.000Z</time>
      </trkpt>
      <trkpt lat="44.50754" lon="6.70823">
        <ele>2423.6000976562</ele>
        <time>2022-03-10T10:29:53.000Z</time>
      </trkpt>
      <trkpt lat="44.50754" lon="6.70823">
        <ele>2423.8000488281</ele>
        <time>2022-03-10T10:29:54.000Z</time>
      </trkpt>
      <trkpt lat="44.5075" lon="6.70824">
        <ele>2424.1999511719</ele>
        <time>2022-03-10T10:29:59.000Z</time>
      </trkpt>
      <trkpt lat="44.50749" lon="6.70822">
        <ele>2424.8000488281</ele>
        <time>2022-03-10T10:30:03.000Z</time>
      </trkpt>
      <trkpt lat="44.50746" lon="6.70817">
        <ele>2425.8000488281</ele>
        <time>2022-03-10T10:30:11.000Z</time>
      </trkpt>
      <trkpt lat="44.50745" lon="6.70817">
        <ele>2426</ele>
        <time>2022-03-10T10:30:12.000Z</time>
      </trkpt>
      <trkpt lat="44.50748" lon="6.70815">
        <ele>2426.1999511719</ele>
        <time>2022-03-10T10:30:15.000Z</time>
      </trkpt>
      <trkpt lat="44.50755" lon="6.7081">
        <ele>2427</ele>
        <time>2022-03-10T10:30:22.000Z</time>
      </trkpt>
      <trkpt lat="44.50758" lon="6.70808">
        <ele>2428</ele>
        <time>2022-03-10T10:30:28.000Z</time>
      </trkpt>
      <trkpt lat="44.50759" lon="6.70808">
        <ele>2428.1999511719</ele>
        <time>2022-03-10T10:30:29.000Z</time>
      </trkpt>
      <trkpt lat="44.50765" lon="6.70807">
        <ele>2428.8000488281</ele>
        <time>2022-03-10T10:30:35.000Z</time>
      </trkpt>
      <trkpt lat="44.50767" lon="6.70806">
        <ele>2429.1999511719</ele>
        <time>2022-03-10T10:30:37.000Z</time>
      </trkpt>
      <trkpt lat="44.50771" lon="6.70802">
        <ele>2429.6000976562</ele>
        <time>2022-03-10T10:30:41.000Z</time>
      </trkpt>
      <trkpt lat="44.50775" lon="6.70801">
        <ele>2430.1999511719</ele>
        <time>2022-03-10T10:30:45.000Z</time>
      </trkpt>
      <trkpt lat="44.50776" lon="6.708">
        <ele>2430.8000488281</ele>
        <time>2022-03-10T10:30:48.000Z</time>
      </trkpt>
      <trkpt lat="44.50778" lon="6.70801">
        <ele>2431.1999511719</ele>
        <time>2022-03-10T10:30:52.000Z</time>
      </trkpt>
      <trkpt lat="44.50779" lon="6.708">
        <ele>2431.1999511719</ele>
        <time>2022-03-10T10:30:53.000Z</time>
      </trkpt>
      <trkpt lat="44.50782" lon="6.70799">
        <ele>2432</ele>
        <time>2022-03-10T10:30:58.000Z</time>
      </trkpt>
      <trkpt lat="44.50783" lon="6.70799">
        <ele>2432.3999023438</ele>
        <time>2022-03-10T10:31:00.000Z</time>
      </trkpt>
      <trkpt lat="44.50782" lon="6.708">
        <ele>2432.6000976562</ele>
        <time>2022-03-10T10:31:03.000Z</time>
      </trkpt>
      <trkpt lat="44.5078" lon="6.70803">
        <ele>2433.3999023438</ele>
        <time>2022-03-10T10:31:09.000Z</time>
      </trkpt>
      <trkpt lat="44.50779" lon="6.70803">
        <ele>2433.3999023438</ele>
        <time>2022-03-10T10:31:10.000Z</time>
      </trkpt>
      <trkpt lat="44.50773" lon="6.70803">
        <ele>2434</ele>
        <time>2022-03-10T10:31:16.000Z</time>
      </trkpt>
      <trkpt lat="44.50774" lon="6.70801">
        <ele>2434.1999511719</ele>
        <time>2022-03-10T10:31:18.000Z</time>
      </trkpt>
      <trkpt lat="44.50772" lon="6.70801">
        <ele>2434.3999023438</ele>
        <time>2022-03-10T10:31:20.000Z</time>
      </trkpt>
      <trkpt lat="44.50771" lon="6.70801">
        <ele>2434.6000976562</ele>
        <time>2022-03-10T10:31:21.000Z</time>
      </trkpt>
      <trkpt lat="44.50768" lon="6.70797">
        <ele>2435.1999511719</ele>
        <time>2022-03-10T10:31:28.000Z</time>
      </trkpt>
      <trkpt lat="44.50764" lon="6.70799">
        <ele>2435.3999023438</ele>
        <time>2022-03-10T10:31:30.000Z</time>
      </trkpt>
      <trkpt lat="44.50763" lon="6.70797">
        <ele>2435.8000488281</ele>
        <time>2022-03-10T10:31:34.000Z</time>
      </trkpt>
      <trkpt lat="44.5076" lon="6.70793">
        <ele>2436.3999023438</ele>
        <time>2022-03-10T10:31:41.000Z</time>
      </trkpt>
      <trkpt lat="44.5076" lon="6.70793">
        <ele>2436.6000976562</ele>
        <time>2022-03-10T10:31:43.000Z</time>
      </trkpt>
      <trkpt lat="44.50759" lon="6.70793">
        <ele>2436.8000488281</ele>
        <time>2022-03-10T10:31:45.000Z</time>
      </trkpt>
      <trkpt lat="44.50757" lon="6.70792">
        <ele>2437</ele>
        <time>2022-03-10T10:31:48.000Z</time>
      </trkpt>
      <trkpt lat="44.50755" lon="6.70787">
        <ele>2437.1999511719</ele>
        <time>2022-03-10T10:31:53.000Z</time>
      </trkpt>
      <trkpt lat="44.50753" lon="6.70785">
        <ele>2437.3999023438</ele>
        <time>2022-03-10T10:31:56.000Z</time>
      </trkpt>
      <trkpt lat="44.50753" lon="6.70784">
        <ele>2437.8000488281</ele>
        <time>2022-03-10T10:31:58.000Z</time>
      </trkpt>
      <trkpt lat="44.50752" lon="6.70782">
        <ele>2438.3999023438</ele>
        <time>2022-03-10T10:32:01.000Z</time>
      </trkpt>
      <trkpt lat="44.5075" lon="6.70782">
        <ele>2438.8000488281</ele>
        <time>2022-03-10T10:32:06.000Z</time>
      </trkpt>
      <trkpt lat="44.50748" lon="6.70781">
        <ele>2439.1999511719</ele>
        <time>2022-03-10T10:32:08.000Z</time>
      </trkpt>
      <trkpt lat="44.50748" lon="6.70779">
        <ele>2439.3999023438</ele>
        <time>2022-03-10T10:32:11.000Z</time>
      </trkpt>
      <trkpt lat="44.50748" lon="6.70779">
        <ele>2440</ele>
        <time>2022-03-10T10:32:13.000Z</time>
      </trkpt>
      <trkpt lat="44.50746" lon="6.70778">
        <ele>2440.1999511719</ele>
        <time>2022-03-10T10:32:16.000Z</time>
      </trkpt>
      <trkpt lat="44.50744" lon="6.70775">
        <ele>2441</ele>
        <time>2022-03-10T10:32:21.000Z</time>
      </trkpt>
      <trkpt lat="44.50742" lon="6.70776">
        <ele>2441</ele>
        <time>2022-03-10T10:32:22.000Z</time>
      </trkpt>
      <trkpt lat="44.50744" lon="6.70775">
        <ele>2441.3999023438</ele>
        <time>2022-03-10T10:32:28.000Z</time>
      </trkpt>
      <trkpt lat="44.50747" lon="6.70774">
        <ele>2442</ele>
        <time>2022-03-10T10:32:32.000Z</time>
      </trkpt>
      <trkpt lat="44.50748" lon="6.70772">
        <ele>2442.3999023438</ele>
        <time>2022-03-10T10:32:34.000Z</time>
      </trkpt>
      <trkpt lat="44.50751" lon="6.70772">
        <ele>2443</ele>
        <time>2022-03-10T10:32:40.000Z</time>
      </trkpt>
      <trkpt lat="44.5075" lon="6.70773">
        <ele>2443.1999511719</ele>
        <time>2022-03-10T10:32:41.000Z</time>
      </trkpt>
      <trkpt lat="44.50749" lon="6.70774">
        <ele>2443</ele>
        <time>2022-03-10T10:32:47.000Z</time>
      </trkpt>
      <trkpt lat="44.5075" lon="6.70774">
        <ele>2443</ele>
        <time>2022-03-10T10:32:54.000Z</time>
      </trkpt>
      <trkpt lat="44.50751" lon="6.70774">
        <ele>2443.3999023438</ele>
        <time>2022-03-10T10:33:00.000Z</time>
      </trkpt>
      <trkpt lat="44.50756" lon="6.70771">
        <ele>2444</ele>
        <time>2022-03-10T10:33:06.000Z</time>
      </trkpt>
      <trkpt lat="44.50757" lon="6.70771">
        <ele>2444.1999511719</ele>
        <time>2022-03-10T10:33:07.000Z</time>
      </trkpt>
      <trkpt lat="44.50757" lon="6.70768">
        <ele>2444.6000976562</ele>
        <time>2022-03-10T10:33:11.000Z</time>
      </trkpt>
      <trkpt lat="44.50753" lon="6.70764">
        <ele>2445.3999023438</ele>
        <time>2022-03-10T10:33:17.000Z</time>
      </trkpt>
      <trkpt lat="44.50753" lon="6.70762">
        <ele>2446.3999023438</ele>
        <time>2022-03-10T10:33:22.000Z</time>
      </trkpt>
      <trkpt lat="44.50753" lon="6.70761">
        <ele>2446.8000488281</ele>
        <time>2022-03-10T10:33:25.000Z</time>
      </trkpt>
      <trkpt lat="44.50751" lon="6.70759">
        <ele>2447.3999023438</ele>
        <time>2022-03-10T10:33:28.000Z</time>
      </trkpt>
      <trkpt lat="44.5075" lon="6.70759">
        <ele>2447.6000976562</ele>
        <time>2022-03-10T10:33:29.000Z</time>
      </trkpt>
      <trkpt lat="44.50748" lon="6.70758">
        <ele>2448.1999511719</ele>
        <time>2022-03-10T10:33:32.000Z</time>
      </trkpt>
      <trkpt lat="44.50748" lon="6.70756">
        <ele>2448.3999023438</ele>
        <time>2022-03-10T10:33:34.000Z</time>
      </trkpt>
      <trkpt lat="44.50746" lon="6.70753">
        <ele>2449.3999023438</ele>
        <time>2022-03-10T10:33:40.000Z</time>
      </trkpt>
      <trkpt lat="44.50747" lon="6.70753">
        <ele>2449.6000976562</ele>
        <time>2022-03-10T10:33:41.000Z</time>
      </trkpt>
      <trkpt lat="44.50746" lon="6.70752">
        <ele>2449.6000976562</ele>
        <time>2022-03-10T10:33:42.000Z</time>
      </trkpt>
      <trkpt lat="44.50742" lon="6.70748">
        <ele>2450.6000976562</ele>
        <time>2022-03-10T10:33:50.000Z</time>
      </trkpt>
      <trkpt lat="44.50741" lon="6.70746">
        <ele>2451.1999511719</ele>
        <time>2022-03-10T10:33:57.000Z</time>
      </trkpt>
      <trkpt lat="44.50745" lon="6.70743">
        <ele>2451.6000976562</ele>
        <time>2022-03-10T10:34:01.000Z</time>
      </trkpt>
      <trkpt lat="44.5075" lon="6.70739">
        <ele>2452.1999511719</ele>
        <time>2022-03-10T10:34:06.000Z</time>
      </trkpt>
      <trkpt lat="44.50751" lon="6.70738">
        <ele>2452.8000488281</ele>
        <time>2022-03-10T10:34:10.000Z</time>
      </trkpt>
      <trkpt lat="44.50751" lon="6.70738">
        <ele>2453.3999023438</ele>
        <time>2022-03-10T10:34:14.000Z</time>
      </trkpt>
      <trkpt lat="44.50754" lon="6.70736">
        <ele>2453.8000488281</ele>
        <time>2022-03-10T10:34:16.000Z</time>
      </trkpt>
      <trkpt lat="44.50757" lon="6.70736">
        <ele>2454.6000976562</ele>
        <time>2022-03-10T10:34:21.000Z</time>
      </trkpt>
      <trkpt lat="44.50759" lon="6.70734">
        <ele>2454.8000488281</ele>
        <time>2022-03-10T10:34:24.000Z</time>
      </trkpt>
      <trkpt lat="44.50764" lon="6.70731">
        <ele>2455.6000976562</ele>
        <time>2022-03-10T10:34:29.000Z</time>
      </trkpt>
      <trkpt lat="44.50763" lon="6.70731">
        <ele>2455.8000488281</ele>
        <time>2022-03-10T10:34:30.000Z</time>
      </trkpt>
      <trkpt lat="44.50764" lon="6.70731">
        <ele>2456</ele>
        <time>2022-03-10T10:34:31.000Z</time>
      </trkpt>
      <trkpt lat="44.50767" lon="6.7073">
        <ele>2456.8000488281</ele>
        <time>2022-03-10T10:34:38.000Z</time>
      </trkpt>
      <trkpt lat="44.50769" lon="6.70729">
        <ele>2457.1999511719</ele>
        <time>2022-03-10T10:34:42.000Z</time>
      </trkpt>
      <trkpt lat="44.5077" lon="6.70729">
        <ele>2458.1999511719</ele>
        <time>2022-03-10T10:34:48.000Z</time>
      </trkpt>
      <trkpt lat="44.5077" lon="6.7073">
        <ele>2458.3999023438</ele>
        <time>2022-03-10T10:34:49.000Z</time>
      </trkpt>
      <trkpt lat="44.5077" lon="6.7073">
        <ele>2459</ele>
        <time>2022-03-10T10:34:56.000Z</time>
      </trkpt>
      <trkpt lat="44.50768" lon="6.70732">
        <ele>2459.3999023438</ele>
        <time>2022-03-10T10:34:58.000Z</time>
      </trkpt>
      <trkpt lat="44.50767" lon="6.70733">
        <ele>2460</ele>
        <time>2022-03-10T10:35:01.000Z</time>
      </trkpt>
      <trkpt lat="44.50766" lon="6.70731">
        <ele>2460.1999511719</ele>
        <time>2022-03-10T10:35:05.000Z</time>
      </trkpt>
      <trkpt lat="44.50766" lon="6.7073">
        <ele>2460.3999023438</ele>
        <time>2022-03-10T10:35:07.000Z</time>
      </trkpt>
      <trkpt lat="44.50764" lon="6.70729">
        <ele>2461.1999511719</ele>
        <time>2022-03-10T10:35:14.000Z</time>
      </trkpt>
      <trkpt lat="44.50761" lon="6.70728">
        <ele>2461.6000976562</ele>
        <time>2022-03-10T10:35:16.000Z</time>
      </trkpt>
      <trkpt lat="44.5076" lon="6.70724">
        <ele>2462.6000976562</ele>
        <time>2022-03-10T10:35:21.000Z</time>
      </trkpt>
      <trkpt lat="44.50759" lon="6.70724">
        <ele>2463</ele>
        <time>2022-03-10T10:35:24.000Z</time>
      </trkpt>
      <trkpt lat="44.50755" lon="6.70721">
        <ele>2463.6000976562</ele>
        <time>2022-03-10T10:35:32.000Z</time>
      </trkpt>
      <trkpt lat="44.50754" lon="6.70721">
        <ele>2463.8000488281</ele>
        <time>2022-03-10T10:35:33.000Z</time>
      </trkpt>
      <trkpt lat="44.50754" lon="6.7072">
        <ele>2464</ele>
        <time>2022-03-10T10:35:34.000Z</time>
      </trkpt>
      <trkpt lat="44.50751" lon="6.70716">
        <ele>2464.8000488281</ele>
        <time>2022-03-10T10:35:41.000Z</time>
      </trkpt>
      <trkpt lat="44.5075" lon="6.70716">
        <ele>2464.8000488281</ele>
        <time>2022-03-10T10:35:42.000Z</time>
      </trkpt>
      <trkpt lat="44.50747" lon="6.70716">
        <ele>2465.3999023438</ele>
        <time>2022-03-10T10:35:46.000Z</time>
      </trkpt>
      <trkpt lat="44.50746" lon="6.70715">
        <ele>2466</ele>
        <time>2022-03-10T10:35:49.000Z</time>
      </trkpt>
      <trkpt lat="44.50744" lon="6.70714">
        <ele>2466.3999023438</ele>
        <time>2022-03-10T10:35:54.000Z</time>
      </trkpt>
      <trkpt lat="44.50741" lon="6.70712">
        <ele>2467</ele>
        <time>2022-03-10T10:36:01.000Z</time>
      </trkpt>
      <trkpt lat="44.50741" lon="6.70712">
        <ele>2467.1999511719</ele>
        <time>2022-03-10T10:36:03.000Z</time>
      </trkpt>
      <trkpt lat="44.50741" lon="6.70711">
        <ele>2467.6000976562</ele>
        <time>2022-03-10T10:36:08.000Z</time>
      </trkpt>
      <trkpt lat="44.50743" lon="6.7071">
        <ele>2467.6000976562</ele>
        <time>2022-03-10T10:36:09.000Z</time>
      </trkpt>
      <trkpt lat="44.50745" lon="6.70709">
        <ele>2468</ele>
        <time>2022-03-10T10:36:12.000Z</time>
      </trkpt>
      <trkpt lat="44.50751" lon="6.70705">
        <ele>2469</ele>
        <time>2022-03-10T10:36:20.000Z</time>
      </trkpt>
      <trkpt lat="44.50751" lon="6.70705">
        <ele>2469</ele>
        <time>2022-03-10T10:36:21.000Z</time>
      </trkpt>
      <trkpt lat="44.50755" lon="6.70704">
        <ele>2470</ele>
        <time>2022-03-10T10:36:27.000Z</time>
      </trkpt>
      <trkpt lat="44.50755" lon="6.70704">
        <ele>2470.1999511719</ele>
        <time>2022-03-10T10:36:28.000Z</time>
      </trkpt>
      <trkpt lat="44.50752" lon="6.70705">
        <ele>2470.6000976562</ele>
        <time>2022-03-10T10:36:33.000Z</time>
      </trkpt>
      <trkpt lat="44.5075" lon="6.70703">
        <ele>2471.1999511719</ele>
        <time>2022-03-10T10:36:38.000Z</time>
      </trkpt>
      <trkpt lat="44.50749" lon="6.70703">
        <ele>2471.3999023438</ele>
        <time>2022-03-10T10:36:39.000Z</time>
      </trkpt>
      <trkpt lat="44.50747" lon="6.70699">
        <ele>2472.1999511719</ele>
        <time>2022-03-10T10:36:44.000Z</time>
      </trkpt>
      <trkpt lat="44.50745" lon="6.70697">
        <ele>2473</ele>
        <time>2022-03-10T10:36:47.000Z</time>
      </trkpt>
      <trkpt lat="44.50745" lon="6.70695">
        <ele>2473.3999023438</ele>
        <time>2022-03-10T10:36:50.000Z</time>
      </trkpt>
      <trkpt lat="44.50744" lon="6.70693">
        <ele>2474.1999511719</ele>
        <time>2022-03-10T10:36:56.000Z</time>
      </trkpt>
      <trkpt lat="44.50744" lon="6.70693">
        <ele>2474.3999023438</ele>
        <time>2022-03-10T10:36:57.000Z</time>
      </trkpt>
      <trkpt lat="44.5074" lon="6.70691">
        <ele>2475.3999023438</ele>
        <time>2022-03-10T10:37:04.000Z</time>
      </trkpt>
      <trkpt lat="44.50743" lon="6.70688">
        <ele>2476.1999511719</ele>
        <time>2022-03-10T10:37:12.000Z</time>
      </trkpt>
      <trkpt lat="44.50747" lon="6.70685">
        <ele>2476.3999023438</ele>
        <time>2022-03-10T10:37:16.000Z</time>
      </trkpt>
      <trkpt lat="44.5075" lon="6.70684">
        <ele>2477</ele>
        <time>2022-03-10T10:37:19.000Z</time>
      </trkpt>
      <trkpt lat="44.50751" lon="6.70683">
        <ele>2477.6000976562</ele>
        <time>2022-03-10T10:37:22.000Z</time>
      </trkpt>
      <trkpt lat="44.50755" lon="6.70682">
        <ele>2478.6000976562</ele>
        <time>2022-03-10T10:37:29.000Z</time>
      </trkpt>
      <trkpt lat="44.50756" lon="6.70682">
        <ele>2478.6000976562</ele>
        <time>2022-03-10T10:37:30.000Z</time>
      </trkpt>
      <trkpt lat="44.50756" lon="6.70681">
        <ele>2479</ele>
        <time>2022-03-10T10:37:34.000Z</time>
      </trkpt>
      <trkpt lat="44.50754" lon="6.70679">
        <ele>2479.8000488281</ele>
        <time>2022-03-10T10:37:41.000Z</time>
      </trkpt>
      <trkpt lat="44.50753" lon="6.70678">
        <ele>2480.3999023438</ele>
        <time>2022-03-10T10:37:43.000Z</time>
      </trkpt>
      <trkpt lat="44.50754" lon="6.70676">
        <ele>2480.8000488281</ele>
        <time>2022-03-10T10:37:46.000Z</time>
      </trkpt>
      <trkpt lat="44.50753" lon="6.70674">
        <ele>2481.1999511719</ele>
        <time>2022-03-10T10:37:51.000Z</time>
      </trkpt>
      <trkpt lat="44.50751" lon="6.70673">
        <ele>2481.6000976562</ele>
        <time>2022-03-10T10:37:56.000Z</time>
      </trkpt>
      <trkpt lat="44.50751" lon="6.70673">
        <ele>2481.8000488281</ele>
        <time>2022-03-10T10:37:59.000Z</time>
      </trkpt>
      <trkpt lat="44.50755" lon="6.70671">
        <ele>2482.6000976562</ele>
        <time>2022-03-10T10:38:04.000Z</time>
      </trkpt>
      <trkpt lat="44.50756" lon="6.70671">
        <ele>2482.8000488281</ele>
        <time>2022-03-10T10:38:08.000Z</time>
      </trkpt>
      <trkpt lat="44.50756" lon="6.70671">
        <ele>2483</ele>
        <time>2022-03-10T10:38:10.000Z</time>
      </trkpt>
      <trkpt lat="44.50756" lon="6.7067">
        <ele>2484</ele>
        <time>2022-03-10T10:38:16.000Z</time>
      </trkpt>
      <trkpt lat="44.50756" lon="6.7067">
        <ele>2484.8000488281</ele>
        <time>2022-03-10T10:38:21.000Z</time>
      </trkpt>
      <trkpt lat="44.50756" lon="6.7067">
        <ele>2485.1999511719</ele>
        <time>2022-03-10T10:38:23.000Z</time>
      </trkpt>
      <trkpt lat="44.50753" lon="6.70669">
        <ele>2486.1999511719</ele>
        <time>2022-03-10T10:38:32.000Z</time>
      </trkpt>
      <trkpt lat="44.50749" lon="6.70667">
        <ele>2487.1999511719</ele>
        <time>2022-03-10T10:38:40.000Z</time>
      </trkpt>
      <trkpt lat="44.50747" lon="6.70663">
        <ele>2488.6000976562</ele>
        <time>2022-03-10T10:38:47.000Z</time>
      </trkpt>
      <trkpt lat="44.50743" lon="6.70658">
        <ele>2489.6000976562</ele>
        <time>2022-03-10T10:38:56.000Z</time>
      </trkpt>
      <trkpt lat="44.50738" lon="6.70653">
        <ele>2490.1999511719</ele>
        <time>2022-03-10T10:39:05.000Z</time>
      </trkpt>
      <trkpt lat="44.50737" lon="6.70651">
        <ele>2490.6000976562</ele>
        <time>2022-03-10T10:39:12.000Z</time>
      </trkpt>
      <trkpt lat="44.50741" lon="6.70646">
        <ele>2491.6000976562</ele>
        <time>2022-03-10T10:39:20.000Z</time>
      </trkpt>
      <trkpt lat="44.50742" lon="6.70645">
        <ele>2491.8000488281</ele>
        <time>2022-03-10T10:39:21.000Z</time>
      </trkpt>
      <trkpt lat="44.50745" lon="6.70642">
        <ele>2492.8000488281</ele>
        <time>2022-03-10T10:39:27.000Z</time>
      </trkpt>
      <trkpt lat="44.50746" lon="6.70641">
        <ele>2493.3999023438</ele>
        <time>2022-03-10T10:39:31.000Z</time>
      </trkpt>
      <trkpt lat="44.50748" lon="6.70641">
        <ele>2493.8000488281</ele>
        <time>2022-03-10T10:39:46.000Z</time>
      </trkpt>
      <trkpt lat="44.50752" lon="6.70641">
        <ele>2494.1999511719</ele>
        <time>2022-03-10T10:39:53.000Z</time>
      </trkpt>
      <trkpt lat="44.50755" lon="6.70639">
        <ele>2494.8000488281</ele>
        <time>2022-03-10T10:39:57.000Z</time>
      </trkpt>
      <trkpt lat="44.5076" lon="6.70637">
        <ele>2495.8000488281</ele>
        <time>2022-03-10T10:40:05.000Z</time>
      </trkpt>
      <trkpt lat="44.50762" lon="6.70637">
        <ele>2497</ele>
        <time>2022-03-10T10:40:12.000Z</time>
      </trkpt>
      <trkpt lat="44.50762" lon="6.70637">
        <ele>2497</ele>
        <time>2022-03-10T10:40:13.000Z</time>
      </trkpt>
      <trkpt lat="44.50765" lon="6.70635">
        <ele>2498</ele>
        <time>2022-03-10T10:40:19.000Z</time>
      </trkpt>
      <trkpt lat="44.50768" lon="6.70634">
        <ele>2499</ele>
        <time>2022-03-10T10:40:27.000Z</time>
      </trkpt>
      <trkpt lat="44.50769" lon="6.70634">
        <ele>2499.6000976562</ele>
        <time>2022-03-10T10:40:36.000Z</time>
      </trkpt>
      <trkpt lat="44.50769" lon="6.70634">
        <ele>2500.1999511719</ele>
        <time>2022-03-10T10:40:47.000Z</time>
      </trkpt>
      <trkpt lat="44.50775" lon="6.70632">
        <ele>2501.1999511719</ele>
        <time>2022-03-10T10:40:54.000Z</time>
      </trkpt>
      <trkpt lat="44.50775" lon="6.70632">
        <ele>2502</ele>
        <time>2022-03-10T10:40:59.000Z</time>
      </trkpt>
      <trkpt lat="44.50775" lon="6.70631">
        <ele>2502.3999023438</ele>
        <time>2022-03-10T10:41:01.000Z</time>
      </trkpt>
      <trkpt lat="44.50772" lon="6.70628">
        <ele>2502.8000488281</ele>
        <time>2022-03-10T10:41:05.000Z</time>
      </trkpt>
      <trkpt lat="44.50769" lon="6.70627">
        <ele>2503.6000976562</ele>
        <time>2022-03-10T10:41:09.000Z</time>
      </trkpt>
      <trkpt lat="44.50767" lon="6.70627">
        <ele>2503.8000488281</ele>
        <time>2022-03-10T10:41:11.000Z</time>
      </trkpt>
      <trkpt lat="44.50773" lon="6.70621">
        <ele>2504.6000976562</ele>
        <time>2022-03-10T10:41:17.000Z</time>
      </trkpt>
      <trkpt lat="44.50772" lon="6.70621">
        <ele>2505</ele>
        <time>2022-03-10T10:41:20.000Z</time>
      </trkpt>
      <trkpt lat="44.5077" lon="6.70619">
        <ele>2505.1999511719</ele>
        <time>2022-03-10T10:41:29.000Z</time>
      </trkpt>
      <trkpt lat="44.50768" lon="6.70617">
        <ele>2505.6000976562</ele>
        <time>2022-03-10T10:41:34.000Z</time>
      </trkpt>
      <trkpt lat="44.50768" lon="6.70617">
        <ele>2505.8000488281</ele>
        <time>2022-03-10T10:41:37.000Z</time>
      </trkpt>
      <trkpt lat="44.5077" lon="6.70616">
        <ele>2506.6000976562</ele>
        <time>2022-03-10T10:41:44.000Z</time>
      </trkpt>
      <trkpt lat="44.50771" lon="6.70615">
        <ele>2507</ele>
        <time>2022-03-10T10:41:47.000Z</time>
      </trkpt>
      <trkpt lat="44.50773" lon="6.70615">
        <ele>2507.8000488281</ele>
        <time>2022-03-10T10:41:53.000Z</time>
      </trkpt>
      <trkpt lat="44.50772" lon="6.70615">
        <ele>2508.1999511719</ele>
        <time>2022-03-10T10:41:55.000Z</time>
      </trkpt>
      <trkpt lat="44.50772" lon="6.70615">
        <ele>2508.8000488281</ele>
        <time>2022-03-10T10:42:03.000Z</time>
      </trkpt>
      <trkpt lat="44.5077" lon="6.70615">
        <ele>2510</ele>
        <time>2022-03-10T10:42:10.000Z</time>
      </trkpt>
      <trkpt lat="44.50766" lon="6.70613">
        <ele>2511</ele>
        <time>2022-03-10T10:42:19.000Z</time>
      </trkpt>
      <trkpt lat="44.5076" lon="6.70606">
        <ele>2512.1999511719</ele>
        <time>2022-03-10T10:42:35.000Z</time>
      </trkpt>
      <trkpt lat="44.50756" lon="6.70603">
        <ele>2513</ele>
        <time>2022-03-10T10:42:44.000Z</time>
      </trkpt>
      <trkpt lat="44.50756" lon="6.70602">
        <ele>2513.1999511719</ele>
        <time>2022-03-10T10:42:46.000Z</time>
      </trkpt>
      <trkpt lat="44.50752" lon="6.706">
        <ele>2514.1999511719</ele>
        <time>2022-03-10T10:42:52.000Z</time>
      </trkpt>
      <trkpt lat="44.50749" lon="6.70595">
        <ele>2515.1999511719</ele>
        <time>2022-03-10T10:43:02.000Z</time>
      </trkpt>
      <trkpt lat="44.50743" lon="6.70589">
        <ele>2516.3999023438</ele>
        <time>2022-03-10T10:43:15.000Z</time>
      </trkpt>
      <trkpt lat="44.50739" lon="6.70587">
        <ele>2517.3999023438</ele>
        <time>2022-03-10T10:43:26.000Z</time>
      </trkpt>
      <trkpt lat="44.50738" lon="6.70586">
        <ele>2518</ele>
        <time>2022-03-10T10:43:30.000Z</time>
      </trkpt>
      <trkpt lat="44.50738" lon="6.70585">
        <ele>2518.6000976562</ele>
        <time>2022-03-10T10:43:35.000Z</time>
      </trkpt>
      <trkpt lat="44.50738" lon="6.70582">
        <ele>2519.6000976562</ele>
        <time>2022-03-10T10:43:43.000Z</time>
      </trkpt>
      <trkpt lat="44.5074" lon="6.7058">
        <ele>2520.8000488281</ele>
        <time>2022-03-10T10:43:51.000Z</time>
      </trkpt>
      <trkpt lat="44.5074" lon="6.70579">
        <ele>2521.8000488281</ele>
        <time>2022-03-10T10:44:00.000Z</time>
      </trkpt>
      <trkpt lat="44.50738" lon="6.70577">
        <ele>2523</ele>
        <time>2022-03-10T10:44:08.000Z</time>
      </trkpt>
      <trkpt lat="44.50731" lon="6.70572">
        <ele>2524</ele>
        <time>2022-03-10T10:44:25.000Z</time>
      </trkpt>
      <trkpt lat="44.50729" lon="6.70571">
        <ele>2525</ele>
        <time>2022-03-10T10:44:33.000Z</time>
      </trkpt>
      <trkpt lat="44.50726" lon="6.7057">
        <ele>2526.1999511719</ele>
        <time>2022-03-10T10:44:39.000Z</time>
      </trkpt>
      <trkpt lat="44.50724" lon="6.70567">
        <ele>2527.3999023438</ele>
        <time>2022-03-10T10:44:48.000Z</time>
      </trkpt>
      <trkpt lat="44.50723" lon="6.70566">
        <ele>2527.8000488281</ele>
        <time>2022-03-10T10:44:52.000Z</time>
      </trkpt>
      <trkpt lat="44.50719" lon="6.70563">
        <ele>2528.3999023438</ele>
        <time>2022-03-10T10:45:10.000Z</time>
      </trkpt>
      <trkpt lat="44.50718" lon="6.70563">
        <ele>2529</ele>
        <time>2022-03-10T10:45:24.000Z</time>
      </trkpt>
      <trkpt lat="44.50718" lon="6.70563">
        <ele>2529.3999023438</ele>
        <time>2022-03-10T10:45:31.000Z</time>
      </trkpt>
      <trkpt lat="44.50716" lon="6.7056">
        <ele>2530.3999023438</ele>
        <time>2022-03-10T10:45:45.000Z</time>
      </trkpt>
      <trkpt lat="44.50716" lon="6.70559">
        <ele>2530.3999023438</ele>
        <time>2022-03-10T10:45:46.000Z</time>
      </trkpt>
      <trkpt lat="44.50715" lon="6.70556">
        <ele>2531.6000976562</ele>
        <time>2022-03-10T10:45:51.000Z</time>
      </trkpt>
      <trkpt lat="44.50717" lon="6.70554">
        <ele>2532.6000976562</ele>
        <time>2022-03-10T10:45:57.000Z</time>
      </trkpt>
      <trkpt lat="44.5072" lon="6.7055">
        <ele>2533.6000976562</ele>
        <time>2022-03-10T10:46:03.000Z</time>
      </trkpt>
      <trkpt lat="44.50721" lon="6.7055">
        <ele>2533.8000488281</ele>
        <time>2022-03-10T10:46:04.000Z</time>
      </trkpt>
      <trkpt lat="44.50725" lon="6.70548">
        <ele>2534.8000488281</ele>
        <time>2022-03-10T10:46:11.000Z</time>
      </trkpt>
      <trkpt lat="44.50727" lon="6.70547">
        <ele>2535.1999511719</ele>
        <time>2022-03-10T10:46:13.000Z</time>
      </trkpt>
      <trkpt lat="44.5073" lon="6.70546">
        <ele>2536</ele>
        <time>2022-03-10T10:46:17.000Z</time>
      </trkpt>
      <trkpt lat="44.50732" lon="6.70545">
        <ele>2536.6000976562</ele>
        <time>2022-03-10T10:46:21.000Z</time>
      </trkpt>
      <trkpt lat="44.50731" lon="6.70544">
        <ele>2537</ele>
        <time>2022-03-10T10:46:25.000Z</time>
      </trkpt>
      <trkpt lat="44.50731" lon="6.70544">
        <ele>2537.1999511719</ele>
        <time>2022-03-10T10:46:26.000Z</time>
      </trkpt>
      <trkpt lat="44.50733" lon="6.70543">
        <ele>2537.3999023438</ele>
        <time>2022-03-10T10:46:28.000Z</time>
      </trkpt>
      <trkpt lat="44.50735" lon="6.70542">
        <ele>2538</ele>
        <time>2022-03-10T10:46:31.000Z</time>
      </trkpt>
      <trkpt lat="44.50736" lon="6.70542">
        <ele>2538.8000488281</ele>
        <time>2022-03-10T10:46:39.000Z</time>
      </trkpt>
      <trkpt lat="44.50737" lon="6.70542">
        <ele>2539</ele>
        <time>2022-03-10T10:46:41.000Z</time>
      </trkpt>
      <trkpt lat="44.50736" lon="6.70545">
        <ele>2539</ele>
        <time>2022-03-10T10:46:49.000Z</time>
      </trkpt>
      <trkpt lat="44.50742" lon="6.70545">
        <ele>2540</ele>
        <time>2022-03-10T10:47:39.000Z</time>
      </trkpt>
      <trkpt lat="44.50748" lon="6.70541">
        <ele>2540.3999023438</ele>
        <time>2022-03-10T10:47:43.000Z</time>
      </trkpt>
      <trkpt lat="44.50755" lon="6.70538">
        <ele>2541.1999511719</ele>
        <time>2022-03-10T10:47:48.000Z</time>
      </trkpt>
      <trkpt lat="44.50756" lon="6.70537">
        <ele>2541.8000488281</ele>
        <time>2022-03-10T10:47:50.000Z</time>
      </trkpt>
      <trkpt lat="44.50757" lon="6.70537">
        <ele>2542.1999511719</ele>
        <time>2022-03-10T10:47:57.000Z</time>
      </trkpt>
      <trkpt lat="44.50758" lon="6.70537">
        <ele>2542.3999023438</ele>
        <time>2022-03-10T10:47:58.000Z</time>
      </trkpt>
      <trkpt lat="44.50757" lon="6.70536">
        <ele>2543.1999511719</ele>
        <time>2022-03-10T10:48:05.000Z</time>
      </trkpt>
      <trkpt lat="44.50756" lon="6.70536">
        <ele>2543.1999511719</ele>
        <time>2022-03-10T10:48:06.000Z</time>
      </trkpt>
      <trkpt lat="44.50755" lon="6.70536">
        <ele>2543.6000976562</ele>
        <time>2022-03-10T10:48:09.000Z</time>
      </trkpt>
      <trkpt lat="44.50752" lon="6.70533">
        <ele>2544</ele>
        <time>2022-03-10T10:48:15.000Z</time>
      </trkpt>
      <trkpt lat="44.5075" lon="6.70533">
        <ele>2544.3999023438</ele>
        <time>2022-03-10T10:48:18.000Z</time>
      </trkpt>
      <trkpt lat="44.50744" lon="6.70532">
        <ele>2544.8000488281</ele>
        <time>2022-03-10T10:48:24.000Z</time>
      </trkpt>
      <trkpt lat="44.50743" lon="6.7053">
        <ele>2545.3999023438</ele>
        <time>2022-03-10T10:48:27.000Z</time>
      </trkpt>
      <trkpt lat="44.5074" lon="6.70528">
        <ele>2546.1999511719</ele>
        <time>2022-03-10T10:48:30.000Z</time>
      </trkpt>
      <trkpt lat="44.50737" lon="6.70526">
        <ele>2546.6000976562</ele>
        <time>2022-03-10T10:48:34.000Z</time>
      </trkpt>
      <trkpt lat="44.50737" lon="6.70526">
        <ele>2546.8000488281</ele>
        <time>2022-03-10T10:48:35.000Z</time>
      </trkpt>
      <trkpt lat="44.50734" lon="6.70525">
        <ele>2547.6000976562</ele>
        <time>2022-03-10T10:48:40.000Z</time>
      </trkpt>
      <trkpt lat="44.50733" lon="6.70525">
        <ele>2547.8000488281</ele>
        <time>2022-03-10T10:48:42.000Z</time>
      </trkpt>
      <trkpt lat="44.50731" lon="6.70521">
        <ele>2548.6000976562</ele>
        <time>2022-03-10T10:48:50.000Z</time>
      </trkpt>
      <trkpt lat="44.50729" lon="6.7052">
        <ele>2549.6000976562</ele>
        <time>2022-03-10T10:48:55.000Z</time>
      </trkpt>
      <trkpt lat="44.50728" lon="6.7052">
        <ele>2550.1999511719</ele>
        <time>2022-03-10T10:48:59.000Z</time>
      </trkpt>
      <trkpt lat="44.50725" lon="6.70518">
        <ele>2550.8000488281</ele>
        <time>2022-03-10T10:49:04.000Z</time>
      </trkpt>
      <trkpt lat="44.50725" lon="6.70518">
        <ele>2551.1999511719</ele>
        <time>2022-03-10T10:49:06.000Z</time>
      </trkpt>
      <trkpt lat="44.50722" lon="6.70517">
        <ele>2551.8000488281</ele>
        <time>2022-03-10T10:49:11.000Z</time>
      </trkpt>
      <trkpt lat="44.50719" lon="6.70515">
        <ele>2552.8000488281</ele>
        <time>2022-03-10T10:49:17.000Z</time>
      </trkpt>
      <trkpt lat="44.50719" lon="6.70514">
        <ele>2553</ele>
        <time>2022-03-10T10:49:18.000Z</time>
      </trkpt>
      <trkpt lat="44.50714" lon="6.70511">
        <ele>2554</ele>
        <time>2022-03-10T10:49:26.000Z</time>
      </trkpt>
      <trkpt lat="44.50712" lon="6.70512">
        <ele>2554.1999511719</ele>
        <time>2022-03-10T10:49:28.000Z</time>
      </trkpt>
      <trkpt lat="44.50708" lon="6.7051">
        <ele>2555.1999511719</ele>
        <time>2022-03-10T10:49:37.000Z</time>
      </trkpt>
      <trkpt lat="44.50705" lon="6.7051">
        <ele>2556.1999511719</ele>
        <time>2022-03-10T10:49:42.000Z</time>
      </trkpt>
      <trkpt lat="44.50702" lon="6.70509">
        <ele>2557</ele>
        <time>2022-03-10T10:49:48.000Z</time>
      </trkpt>
      <trkpt lat="44.50701" lon="6.70509">
        <ele>2557.3999023438</ele>
        <time>2022-03-10T10:49:52.000Z</time>
      </trkpt>
      <trkpt lat="44.507" lon="6.70509">
        <ele>2557.8000488281</ele>
        <time>2022-03-10T10:49:54.000Z</time>
      </trkpt>
      <trkpt lat="44.50697" lon="6.70509">
        <ele>2558.1999511719</ele>
        <time>2022-03-10T10:49:59.000Z</time>
      </trkpt>
      <trkpt lat="44.50696" lon="6.70509">
        <ele>2558.3999023438</ele>
        <time>2022-03-10T10:50:01.000Z</time>
      </trkpt>
      <trkpt lat="44.50696" lon="6.70509">
        <ele>2558.6000976562</ele>
        <time>2022-03-10T10:50:02.000Z</time>
      </trkpt>
      <trkpt lat="44.50691" lon="6.70509">
        <ele>2559.3999023438</ele>
        <time>2022-03-10T10:50:11.000Z</time>
      </trkpt>
      <trkpt lat="44.50691" lon="6.70509">
        <ele>2559.6000976562</ele>
        <time>2022-03-10T10:50:12.000Z</time>
      </trkpt>
      <trkpt lat="44.50688" lon="6.70509">
        <ele>2560.6000976562</ele>
        <time>2022-03-10T10:50:18.000Z</time>
      </trkpt>
      <trkpt lat="44.50686" lon="6.70509">
        <ele>2561.3999023438</ele>
        <time>2022-03-10T10:50:26.000Z</time>
      </trkpt>
      <trkpt lat="44.50686" lon="6.70508">
        <ele>2561.8000488281</ele>
        <time>2022-03-10T10:50:30.000Z</time>
      </trkpt>
      <trkpt lat="44.50686" lon="6.70508">
        <ele>2562.1999511719</ele>
        <time>2022-03-10T10:50:32.000Z</time>
      </trkpt>
      <trkpt lat="44.50686" lon="6.70508">
        <ele>2562.8000488281</ele>
        <time>2022-03-10T10:50:38.000Z</time>
      </trkpt>
      <trkpt lat="44.50691" lon="6.705">
        <ele>2564</ele>
        <time>2022-03-10T10:50:51.000Z</time>
      </trkpt>
      <trkpt lat="44.50695" lon="6.70493">
        <ele>2564.6000976562</ele>
        <time>2022-03-10T10:50:59.000Z</time>
      </trkpt>
      <trkpt lat="44.50696" lon="6.70492">
        <ele>2565</ele>
        <time>2022-03-10T10:51:01.000Z</time>
      </trkpt>
      <trkpt lat="44.50696" lon="6.7049">
        <ele>2565.6000976562</ele>
        <time>2022-03-10T10:51:07.000Z</time>
      </trkpt>
      <trkpt lat="44.50697" lon="6.7049">
        <ele>2565.8000488281</ele>
        <time>2022-03-10T10:51:13.000Z</time>
      </trkpt>
      <trkpt lat="44.50698" lon="6.70489">
        <ele>2566.1999511719</ele>
        <time>2022-03-10T10:51:17.000Z</time>
      </trkpt>
      <trkpt lat="44.50699" lon="6.70487">
        <ele>2566.3999023438</ele>
        <time>2022-03-10T10:51:20.000Z</time>
      </trkpt>
      <trkpt lat="44.507" lon="6.70485">
        <ele>2567</ele>
        <time>2022-03-10T10:51:26.000Z</time>
      </trkpt>
      <trkpt lat="44.507" lon="6.70485">
        <ele>2567.1999511719</ele>
        <time>2022-03-10T10:51:27.000Z</time>
      </trkpt>
      <trkpt lat="44.50698" lon="6.70486">
        <ele>2567.6000976562</ele>
        <time>2022-03-10T10:51:33.000Z</time>
      </trkpt>
      <trkpt lat="44.50697" lon="6.70483">
        <ele>2568.3999023438</ele>
        <time>2022-03-10T10:51:39.000Z</time>
      </trkpt>
      <trkpt lat="44.50697" lon="6.70483">
        <ele>2568.8000488281</ele>
        <time>2022-03-10T10:51:41.000Z</time>
      </trkpt>
      <trkpt lat="44.50695" lon="6.70485">
        <ele>2569.3999023438</ele>
        <time>2022-03-10T10:51:45.000Z</time>
      </trkpt>
      <trkpt lat="44.50693" lon="6.70484">
        <ele>2569.8000488281</ele>
        <time>2022-03-10T10:51:48.000Z</time>
      </trkpt>
      <trkpt lat="44.50691" lon="6.70484">
        <ele>2570.3999023438</ele>
        <time>2022-03-10T10:51:52.000Z</time>
      </trkpt>
      <trkpt lat="44.5069" lon="6.70483">
        <ele>2570.6000976562</ele>
        <time>2022-03-10T10:51:54.000Z</time>
      </trkpt>
      <trkpt lat="44.50688" lon="6.70483">
        <ele>2571.6000976562</ele>
        <time>2022-03-10T10:52:01.000Z</time>
      </trkpt>
      <trkpt lat="44.50685" lon="6.70483">
        <ele>2572.6000976562</ele>
        <time>2022-03-10T10:52:08.000Z</time>
      </trkpt>
      <trkpt lat="44.50685" lon="6.70483">
        <ele>2573</ele>
        <time>2022-03-10T10:52:11.000Z</time>
      </trkpt>
      <trkpt lat="44.50685" lon="6.70482">
        <ele>2573.1999511719</ele>
        <time>2022-03-10T10:52:22.000Z</time>
      </trkpt>
      <trkpt lat="44.50685" lon="6.70482">
        <ele>2573.8000488281</ele>
        <time>2022-03-10T10:52:26.000Z</time>
      </trkpt>
      <trkpt lat="44.50683" lon="6.70481">
        <ele>2574.8000488281</ele>
        <time>2022-03-10T10:52:38.000Z</time>
      </trkpt>
      <trkpt lat="44.5068" lon="6.70479">
        <ele>2575.8000488281</ele>
        <time>2022-03-10T10:52:52.000Z</time>
      </trkpt>
      <trkpt lat="44.5068" lon="6.70475">
        <ele>2577</ele>
        <time>2022-03-10T10:53:35.000Z</time>
      </trkpt>
      <trkpt lat="44.50684" lon="6.70473">
        <ele>2578</ele>
        <time>2022-03-10T10:53:49.000Z</time>
      </trkpt>
      <trkpt lat="44.50684" lon="6.70468">
        <ele>2579.1999511719</ele>
        <time>2022-03-10T10:54:18.000Z</time>
      </trkpt>
      <trkpt lat="44.50683" lon="6.70468">
        <ele>2580.1999511719</ele>
        <time>2022-03-10T10:54:28.000Z</time>
      </trkpt>
      <trkpt lat="44.50681" lon="6.70467">
        <ele>2581.3999023438</ele>
        <time>2022-03-10T10:54:33.000Z</time>
      </trkpt>
      <trkpt lat="44.50678" lon="6.70467">
        <ele>2582.3999023438</ele>
        <time>2022-03-10T10:54:40.000Z</time>
      </trkpt>
      <trkpt lat="44.50672" lon="6.70465">
        <ele>2583.6000976562</ele>
        <time>2022-03-10T10:54:50.000Z</time>
      </trkpt>
      <trkpt lat="44.50667" lon="6.70465">
        <ele>2584.8000488281</ele>
        <time>2022-03-10T10:54:59.000Z</time>
      </trkpt>
      <trkpt lat="44.50662" lon="6.70465">
        <ele>2585.8000488281</ele>
        <time>2022-03-10T10:55:09.000Z</time>
      </trkpt>
      <trkpt lat="44.50659" lon="6.70465">
        <ele>2586.8000488281</ele>
        <time>2022-03-10T10:55:18.000Z</time>
      </trkpt>
      <trkpt lat="44.50658" lon="6.70464">
        <ele>2588</ele>
        <time>2022-03-10T10:55:27.000Z</time>
      </trkpt>
      <trkpt lat="44.50657" lon="6.70463">
        <ele>2588.6000976562</ele>
        <time>2022-03-10T10:55:32.000Z</time>
      </trkpt>
      <trkpt lat="44.50657" lon="6.70463">
        <ele>2589</ele>
        <time>2022-03-10T10:55:34.000Z</time>
      </trkpt>
      <trkpt lat="44.50657" lon="6.70463">
        <ele>2590.1999511719</ele>
        <time>2022-03-10T10:55:41.000Z</time>
      </trkpt>
      <trkpt lat="44.50657" lon="6.70463">
        <ele>2591.3999023438</ele>
        <time>2022-03-10T10:55:50.000Z</time>
      </trkpt>
      <trkpt lat="44.50657" lon="6.70463">
        <ele>2592.6000976562</ele>
        <time>2022-03-10T10:55:57.000Z</time>
      </trkpt>
      <trkpt lat="44.50658" lon="6.70462">
        <ele>2593.8000488281</ele>
        <time>2022-03-10T10:56:04.000Z</time>
      </trkpt>
      <trkpt lat="44.50658" lon="6.70462">
        <ele>2593.8000488281</ele>
        <time>2022-03-10T10:56:05.000Z</time>
      </trkpt>
      <trkpt lat="44.50658" lon="6.70462">
        <ele>2594.8000488281</ele>
        <time>2022-03-10T10:56:12.000Z</time>
      </trkpt>
      <trkpt lat="44.50658" lon="6.70462">
        <ele>2595.8000488281</ele>
        <time>2022-03-10T10:56:18.000Z</time>
      </trkpt>
      <trkpt lat="44.50658" lon="6.70462">
        <ele>2596.8000488281</ele>
        <time>2022-03-10T10:56:24.000Z</time>
      </trkpt>
      <trkpt lat="44.50658" lon="6.70461">
        <ele>2598</ele>
        <time>2022-03-10T10:56:33.000Z</time>
      </trkpt>
      <trkpt lat="44.50658" lon="6.70461">
        <ele>2599.1999511719</ele>
        <time>2022-03-10T10:56:43.000Z</time>
      </trkpt>
      <trkpt lat="44.50658" lon="6.70461">
        <ele>2600.1999511719</ele>
        <time>2022-03-10T10:56:50.000Z</time>
      </trkpt>
      <trkpt lat="44.50657" lon="6.7046">
        <ele>2601.1999511719</ele>
        <time>2022-03-10T10:56:59.000Z</time>
      </trkpt>
      <trkpt lat="44.50657" lon="6.70459">
        <ele>2602.1999511719</ele>
        <time>2022-03-10T10:57:10.000Z</time>
      </trkpt>
      <trkpt lat="44.50657" lon="6.70459">
        <ele>2603.3999023438</ele>
        <time>2022-03-10T10:57:18.000Z</time>
      </trkpt>
      <trkpt lat="44.50656" lon="6.70458">
        <ele>2604.3999023438</ele>
        <time>2022-03-10T10:57:27.000Z</time>
      </trkpt>
      <trkpt lat="44.50656" lon="6.70458">
        <ele>2605.3999023438</ele>
        <time>2022-03-10T10:57:33.000Z</time>
      </trkpt>
      <trkpt lat="44.50656" lon="6.70457">
        <ele>2606.3999023438</ele>
        <time>2022-03-10T10:57:42.000Z</time>
      </trkpt>
      <trkpt lat="44.50655" lon="6.70457">
        <ele>2607.3999023438</ele>
        <time>2022-03-10T10:57:50.000Z</time>
      </trkpt>
      <trkpt lat="44.50643" lon="6.70428">
        <ele>2608.1999511719</ele>
        <time>2022-03-10T10:58:01.000Z</time>
      </trkpt>
      <trkpt lat="44.5064" lon="6.70423">
        <ele>2608.6000976562</ele>
        <time>2022-03-10T10:58:02.000Z</time>
      </trkpt>
      <trkpt lat="44.50631" lon="6.704">
        <ele>2609.1999511719</ele>
        <time>2022-03-10T10:58:06.000Z</time>
      </trkpt>
      <trkpt lat="44.50631" lon="6.704">
        <ele>2609.6000976562</ele>
        <time>2022-03-10T10:58:08.000Z</time>
      </trkpt>
      <trkpt lat="44.50628" lon="6.70399">
        <ele>2610.6000976562</ele>
        <time>2022-03-10T10:58:14.000Z</time>
      </trkpt>
      <trkpt lat="44.50627" lon="6.704">
        <ele>2611.6000976562</ele>
        <time>2022-03-10T10:58:23.000Z</time>
      </trkpt>
      <trkpt lat="44.50626" lon="6.70399">
        <ele>2611.8000488281</ele>
        <time>2022-03-10T10:58:25.000Z</time>
      </trkpt>
      <trkpt lat="44.50623" lon="6.704">
        <ele>2612.6000976562</ele>
        <time>2022-03-10T10:58:33.000Z</time>
      </trkpt>
      <trkpt lat="44.5062" lon="6.70399">
        <ele>2613.1999511719</ele>
        <time>2022-03-10T10:58:42.000Z</time>
      </trkpt>
      <trkpt lat="44.50621" lon="6.70396">
        <ele>2613.3999023438</ele>
        <time>2022-03-10T10:58:49.000Z</time>
      </trkpt>
      <trkpt lat="44.50622" lon="6.70395">
        <ele>2613.8000488281</ele>
        <time>2022-03-10T10:58:53.000Z</time>
      </trkpt>
      <trkpt lat="44.50624" lon="6.70393">
        <ele>2614.8000488281</ele>
        <time>2022-03-10T10:58:59.000Z</time>
      </trkpt>
      <trkpt lat="44.50624" lon="6.70393">
        <ele>2615.3999023438</ele>
        <time>2022-03-10T10:59:13.000Z</time>
      </trkpt>
      <trkpt lat="44.50629" lon="6.7039">
        <ele>2615.6000976562</ele>
        <time>2022-03-10T10:59:18.000Z</time>
      </trkpt>
      <trkpt lat="44.50634" lon="6.70385">
        <ele>2615.8000488281</ele>
        <time>2022-03-10T10:59:23.000Z</time>
      </trkpt>
      <trkpt lat="44.50634" lon="6.70385">
        <ele>2615.8000488281</ele>
        <time>2022-03-10T10:59:24.000Z</time>
      </trkpt>
      <trkpt lat="44.50647" lon="6.70381">
        <ele>2616.3999023438</ele>
        <time>2022-03-10T10:59:27.000Z</time>
      </trkpt>
      <trkpt lat="44.50643" lon="6.70382">
        <ele>2617</ele>
        <time>2022-03-10T10:59:31.000Z</time>
      </trkpt>
      <trkpt lat="44.50645" lon="6.70382">
        <ele>2617.1999511719</ele>
        <time>2022-03-10T10:59:34.000Z</time>
      </trkpt>
      <trkpt lat="44.50648" lon="6.70381">
        <ele>2618</ele>
        <time>2022-03-10T10:59:41.000Z</time>
      </trkpt>
      <trkpt lat="44.50648" lon="6.70381">
        <ele>2618</ele>
        <time>2022-03-10T10:59:44.000Z</time>
      </trkpt>
      <trkpt lat="44.50647" lon="6.70381">
        <ele>2618.3999023438</ele>
        <time>2022-03-10T10:59:53.000Z</time>
      </trkpt>
      <trkpt lat="44.50646" lon="6.70383">
        <ele>2619.1999511719</ele>
        <time>2022-03-10T11:00:09.000Z</time>
      </trkpt>
      <trkpt lat="44.50645" lon="6.70383">
        <ele>2620.3999023438</ele>
        <time>2022-03-10T11:00:15.000Z</time>
      </trkpt>
      <trkpt lat="44.50642" lon="6.70383">
        <ele>2621.3999023438</ele>
        <time>2022-03-10T11:00:22.000Z</time>
      </trkpt>
      <trkpt lat="44.50637" lon="6.70382">
        <ele>2622.3999023438</ele>
        <time>2022-03-10T11:00:30.000Z</time>
      </trkpt>
      <trkpt lat="44.50635" lon="6.70377">
        <ele>2623.6000976562</ele>
        <time>2022-03-10T11:00:36.000Z</time>
      </trkpt>
      <trkpt lat="44.50635" lon="6.70375">
        <ele>2623.8000488281</ele>
        <time>2022-03-10T11:00:37.000Z</time>
      </trkpt>
      <trkpt lat="44.50633" lon="6.70374">
        <ele>2624.8000488281</ele>
        <time>2022-03-10T11:00:46.000Z</time>
      </trkpt>
      <trkpt lat="44.5063" lon="6.70373">
        <ele>2625.8000488281</ele>
        <time>2022-03-10T11:00:54.000Z</time>
      </trkpt>
      <trkpt lat="44.50625" lon="6.70372">
        <ele>2627.3999023438</ele>
        <time>2022-03-10T11:01:04.000Z</time>
      </trkpt>
      <trkpt lat="44.50622" lon="6.70371">
        <ele>2628.6000976562</ele>
        <time>2022-03-10T11:01:11.000Z</time>
      </trkpt>
      <trkpt lat="44.50619" lon="6.7037">
        <ele>2629.6000976562</ele>
        <time>2022-03-10T11:01:21.000Z</time>
      </trkpt>
      <trkpt lat="44.50616" lon="6.70367">
        <ele>2630.6000976562</ele>
        <time>2022-03-10T11:01:30.000Z</time>
      </trkpt>
      <trkpt lat="44.50613" lon="6.70363">
        <ele>2631.8000488281</ele>
        <time>2022-03-10T11:01:43.000Z</time>
      </trkpt>
      <trkpt lat="44.50613" lon="6.70359">
        <ele>2632.8000488281</ele>
        <time>2022-03-10T11:02:00.000Z</time>
      </trkpt>
      <trkpt lat="44.50613" lon="6.70358">
        <ele>2634</ele>
        <time>2022-03-10T11:02:14.000Z</time>
      </trkpt>
      <trkpt lat="44.50611" lon="6.70358">
        <ele>2634.6000976562</ele>
        <time>2022-03-10T11:02:23.000Z</time>
      </trkpt>
      <trkpt lat="44.50611" lon="6.70358">
        <ele>2635</ele>
        <time>2022-03-10T11:02:27.000Z</time>
      </trkpt>
      <trkpt lat="44.5061" lon="6.70356">
        <ele>2636.1999511719</ele>
        <time>2022-03-10T11:02:36.000Z</time>
      </trkpt>
      <trkpt lat="44.5061" lon="6.70354">
        <ele>2637.3999023438</ele>
        <time>2022-03-10T11:02:42.000Z</time>
      </trkpt>
      <trkpt lat="44.50609" lon="6.70353">
        <ele>2638.6000976562</ele>
        <time>2022-03-10T11:02:49.000Z</time>
      </trkpt>
      <trkpt lat="44.50606" lon="6.70352">
        <ele>2639.6000976562</ele>
        <time>2022-03-10T11:02:58.000Z</time>
      </trkpt>
      <trkpt lat="44.50605" lon="6.70352">
        <ele>2640.6000976562</ele>
        <time>2022-03-10T11:03:05.000Z</time>
      </trkpt>
      <trkpt lat="44.50604" lon="6.70351">
        <ele>2641.8000488281</ele>
        <time>2022-03-10T11:03:15.000Z</time>
      </trkpt>
      <trkpt lat="44.50604" lon="6.70351">
        <ele>2642.8000488281</ele>
        <time>2022-03-10T11:03:24.000Z</time>
      </trkpt>
      <trkpt lat="44.50604" lon="6.70351">
        <ele>2644</ele>
        <time>2022-03-10T11:03:39.000Z</time>
      </trkpt>
      <trkpt lat="44.506" lon="6.70349">
        <ele>2644.1999511719</ele>
        <time>2022-03-10T11:04:07.000Z</time>
      </trkpt>
      <trkpt lat="44.50592" lon="6.70338">
        <ele>2643.3999023438</ele>
        <time>2022-03-10T11:04:10.000Z</time>
      </trkpt>
      <trkpt lat="44.50587" lon="6.70333">
        <ele>2642.6000976562</ele>
        <time>2022-03-10T11:04:12.000Z</time>
      </trkpt>
      <trkpt lat="44.50579" lon="6.70327">
        <ele>2642.1999511719</ele>
        <time>2022-03-10T11:04:15.000Z</time>
      </trkpt>
      <trkpt lat="44.5058" lon="6.70329">
        <ele>2641.8000488281</ele>
        <time>2022-03-10T11:04:30.000Z</time>
      </trkpt>
      <trkpt lat="44.5058" lon="6.70329">
        <ele>2641.6000976562</ele>
        <time>2022-03-10T11:04:32.000Z</time>
      </trkpt>
      <trkpt lat="44.50581" lon="6.70328">
        <ele>2640.6000976562</ele>
        <time>2022-03-10T11:04:50.000Z</time>
      </trkpt>
      <trkpt lat="44.50581" lon="6.70328">
        <ele>2640.6000976562</ele>
        <time>2022-03-10T11:04:51.000Z</time>
      </trkpt>
      <trkpt lat="44.50583" lon="6.70325">
        <ele>2639.3999023438</ele>
        <time>2022-03-10T11:05:00.000Z</time>
      </trkpt>
      <trkpt lat="44.50584" lon="6.70323">
        <ele>2638.3999023438</ele>
        <time>2022-03-10T11:05:09.000Z</time>
      </trkpt>
      <trkpt lat="44.50585" lon="6.7032">
        <ele>2637.1999511719</ele>
        <time>2022-03-10T11:05:16.000Z</time>
      </trkpt>
      <trkpt lat="44.50588" lon="6.70316">
        <ele>2638.3999023438</ele>
        <time>2022-03-10T11:05:41.000Z</time>
      </trkpt>
      <trkpt lat="44.50588" lon="6.70317">
        <ele>2639.6000976562</ele>
        <time>2022-03-10T11:05:45.000Z</time>
      </trkpt>
      <trkpt lat="44.50588" lon="6.70318">
        <ele>2640.6000976562</ele>
        <time>2022-03-10T11:05:51.000Z</time>
      </trkpt>
      <trkpt lat="44.50588" lon="6.70319">
        <ele>2640.8000488281</ele>
        <time>2022-03-10T11:05:52.000Z</time>
      </trkpt>
      <trkpt lat="44.50588" lon="6.70322">
        <ele>2641.8000488281</ele>
        <time>2022-03-10T11:05:57.000Z</time>
      </trkpt>
      <trkpt lat="44.50582" lon="6.70329">
        <ele>2642.8000488281</ele>
        <time>2022-03-10T11:06:28.000Z</time>
      </trkpt>
      <trkpt lat="44.50582" lon="6.7033">
        <ele>2644</ele>
        <time>2022-03-10T11:06:38.000Z</time>
      </trkpt>
      <trkpt lat="44.50576" lon="6.70343">
        <ele>2644.8000488281</ele>
        <time>2022-03-10T11:06:48.000Z</time>
      </trkpt>
      <trkpt lat="44.50573" lon="6.70352">
        <ele>2644.8000488281</ele>
        <time>2022-03-10T11:06:56.000Z</time>
      </trkpt>
      <trkpt lat="44.50573" lon="6.70353">
        <ele>2645</ele>
        <time>2022-03-10T11:06:59.000Z</time>
      </trkpt>
      <trkpt lat="44.50573" lon="6.70353">
        <ele>2645.1999511719</ele>
        <time>2022-03-10T11:07:04.000Z</time>
      </trkpt>
      <trkpt lat="44.50573" lon="6.70351">
        <ele>2645.3999023438</ele>
        <time>2022-03-10T11:07:39.000Z</time>
      </trkpt>
      <trkpt lat="44.50572" lon="6.70352">
        <ele>2645.8000488281</ele>
        <time>2022-03-10T11:08:15.000Z</time>
      </trkpt>
      <trkpt lat="44.50573" lon="6.70352">
        <ele>2646.1999511719</ele>
        <time>2022-03-10T11:08:21.000Z</time>
      </trkpt>
      <trkpt lat="44.50573" lon="6.7035">
        <ele>2646.1999511719</ele>
        <time>2022-03-10T11:08:46.000Z</time>
      </trkpt>
      <trkpt lat="44.50569" lon="6.70351">
        <ele>2646.8000488281</ele>
        <time>2022-03-10T11:09:24.000Z</time>
      </trkpt>
      <trkpt lat="44.50568" lon="6.70349">
        <ele>2646.8000488281</ele>
        <time>2022-03-10T11:09:53.000Z</time>
      </trkpt>
      <trkpt lat="44.50568" lon="6.70349">
        <ele>2647.1999511719</ele>
        <time>2022-03-10T11:10:00.000Z</time>
      </trkpt>
      <trkpt lat="44.50571" lon="6.7035">
        <ele>2647.3999023438</ele>
        <time>2022-03-10T11:10:42.000Z</time>
      </trkpt>
      <trkpt lat="44.50571" lon="6.7035">
        <ele>2647.8000488281</ele>
        <time>2022-03-10T11:11:22.000Z</time>
      </trkpt>
      <trkpt lat="44.50571" lon="6.7035">
        <ele>2648</ele>
        <time>2022-03-10T11:12:12.000Z</time>
      </trkpt>
      <trkpt lat="44.50571" lon="6.7035">
        <ele>2648.1999511719</ele>
        <time>2022-03-10T11:12:23.000Z</time>
      </trkpt>
      <trkpt lat="44.50571" lon="6.7035">
        <ele>2648</ele>
        <time>2022-03-10T11:12:41.000Z</time>
      </trkpt>
      <trkpt lat="44.50571" lon="6.7035">
        <ele>2648</ele>
        <time>2022-03-10T11:13:39.000Z</time>
      </trkpt>
      <trkpt lat="44.50572" lon="6.7035">
        <ele>2648.1999511719</ele>
        <time>2022-03-10T11:14:54.000Z</time>
      </trkpt>
      <trkpt lat="44.50572" lon="6.7035">
        <ele>2649.1999511719</ele>
        <time>2022-03-10T11:15:17.000Z</time>
      </trkpt>
      <trkpt lat="44.50571" lon="6.70351">
        <ele>2650.1999511719</ele>
        <time>2022-03-10T11:15:54.000Z</time>
      </trkpt>
      <trkpt lat="44.5057" lon="6.70354">
        <ele>2649.3999023438</ele>
        <time>2022-03-10T11:16:58.000Z</time>
      </trkpt>
      <trkpt lat="44.50569" lon="6.70354">
        <ele>2649.1999511719</ele>
        <time>2022-03-10T11:17:02.000Z</time>
      </trkpt>
      <trkpt lat="44.5057" lon="6.70351">
        <ele>2649</ele>
        <time>2022-03-10T11:17:05.000Z</time>
      </trkpt>
      <trkpt lat="44.50573" lon="6.70351">
        <ele>2648.1999511719</ele>
        <time>2022-03-10T11:17:13.000Z</time>
      </trkpt>
      <trkpt lat="44.50573" lon="6.7035">
        <ele>2648.1999511719</ele>
        <time>2022-03-10T11:17:18.000Z</time>
      </trkpt>
      <trkpt lat="44.50573" lon="6.70351">
        <ele>2648.1999511719</ele>
        <time>2022-03-10T11:17:32.000Z</time>
      </trkpt>
      <trkpt lat="44.50574" lon="6.70351">
        <ele>2647.6000976562</ele>
        <time>2022-03-10T11:18:09.000Z</time>
      </trkpt>
      <trkpt lat="44.5057" lon="6.7035">
        <ele>2647.3999023438</ele>
        <time>2022-03-10T11:19:13.000Z</time>
      </trkpt>
      <trkpt lat="44.5057" lon="6.70351">
        <ele>2647.1999511719</ele>
        <time>2022-03-10T11:19:25.000Z</time>
      </trkpt>
      <trkpt lat="44.50571" lon="6.70352">
        <ele>2647.1999511719</ele>
        <time>2022-03-10T11:19:58.000Z</time>
      </trkpt>
      <trkpt lat="44.50573" lon="6.70352">
        <ele>2646.8000488281</ele>
        <time>2022-03-10T11:20:35.000Z</time>
      </trkpt>
      <trkpt lat="44.50573" lon="6.70352">
        <ele>2646.6000976562</ele>
        <time>2022-03-10T11:21:18.000Z</time>
      </trkpt>
      <trkpt lat="44.50572" lon="6.70352">
        <ele>2646.8000488281</ele>
        <time>2022-03-10T11:22:09.000Z</time>
      </trkpt>
      <trkpt lat="44.50574" lon="6.70353">
        <ele>2646.3999023438</ele>
        <time>2022-03-10T11:23:27.000Z</time>
      </trkpt>
      <trkpt lat="44.50572" lon="6.70351">
        <ele>2646.6000976562</ele>
        <time>2022-03-10T11:23:38.000Z</time>
      </trkpt>
      <trkpt lat="44.5057" lon="6.7035">
        <ele>2646.6000976562</ele>
        <time>2022-03-10T11:25:03.000Z</time>
      </trkpt>
      <trkpt lat="44.5057" lon="6.70349">
        <ele>2646.6000976562</ele>
        <time>2022-03-10T11:25:06.000Z</time>
      </trkpt>
      <trkpt lat="44.50566" lon="6.70347">
        <ele>2646.6000976562</ele>
        <time>2022-03-10T11:25:10.000Z</time>
      </trkpt>
      <trkpt lat="44.50565" lon="6.70346">
        <ele>2646.6000976562</ele>
        <time>2022-03-10T11:25:15.000Z</time>
      </trkpt>
      <trkpt lat="44.50564" lon="6.70346">
        <ele>2646.3999023438</ele>
        <time>2022-03-10T11:25:27.000Z</time>
      </trkpt>
      <trkpt lat="44.50571" lon="6.70351">
        <ele>2646.3999023438</ele>
        <time>2022-03-10T11:27:32.000Z</time>
      </trkpt>
      <trkpt lat="44.50572" lon="6.70351">
        <ele>2646</ele>
        <time>2022-03-10T11:27:37.000Z</time>
      </trkpt>
      <trkpt lat="44.50571" lon="6.7035">
        <ele>2646.3999023438</ele>
        <time>2022-03-10T11:28:50.000Z</time>
      </trkpt>
      <trkpt lat="44.50571" lon="6.7035">
        <ele>2646.1999511719</ele>
        <time>2022-03-10T11:30:53.000Z</time>
      </trkpt>
      <trkpt lat="44.50571" lon="6.7035">
        <ele>2646.6000976562</ele>
        <time>2022-03-10T11:35:17.000Z</time>
      </trkpt>
      <trkpt lat="44.50571" lon="6.7035">
        <ele>2646.8000488281</ele>
        <time>2022-03-10T11:38:57.000Z</time>
      </trkpt>
      <trkpt lat="44.50571" lon="6.7035">
        <ele>2647.1999511719</ele>
        <time>2022-03-10T11:39:02.000Z</time>
      </trkpt>
      <trkpt lat="44.50571" lon="6.7035">
        <ele>2647.3999023438</ele>
        <time>2022-03-10T11:40:27.000Z</time>
      </trkpt>
      <trkpt lat="44.50571" lon="6.7035">
        <ele>2647.3999023438</ele>
        <time>2022-03-10T11:45:12.000Z</time>
      </trkpt>
      <trkpt lat="44.50571" lon="6.7035">
        <ele>2648.1999511719</ele>
        <time>2022-03-10T11:45:36.000Z</time>
      </trkpt>
      <trkpt lat="44.50571" lon="6.7035">
        <ele>2648</ele>
        <time>2022-03-10T11:46:19.000Z</time>
      </trkpt>
      <trkpt lat="44.50571" lon="6.7035">
        <ele>2648.1999511719</ele>
        <time>2022-03-10T11:47:46.000Z</time>
      </trkpt>
      <trkpt lat="44.50571" lon="6.7035">
        <ele>2649.1999511719</ele>
        <time>2022-03-10T11:48:43.000Z</time>
      </trkpt>
      <trkpt lat="44.5057" lon="6.7035">
        <ele>2649</ele>
        <time>2022-03-10T11:49:21.000Z</time>
      </trkpt>
      <trkpt lat="44.5057" lon="6.7035">
        <ele>2649.1999511719</ele>
        <time>2022-03-10T11:49:37.000Z</time>
      </trkpt>
      <trkpt lat="44.5057" lon="6.7035">
        <ele>2648.8000488281</ele>
        <time>2022-03-10T11:49:50.000Z</time>
      </trkpt>
      <trkpt lat="44.5057" lon="6.7035">
        <ele>2649</ele>
        <time>2022-03-10T11:51:17.000Z</time>
      </trkpt>
      <trkpt lat="44.5057" lon="6.7035">
        <ele>2649.3999023438</ele>
        <time>2022-03-10T11:52:06.000Z</time>
      </trkpt>
      <trkpt lat="44.5057" lon="6.7035">
        <ele>2649.8000488281</ele>
        <time>2022-03-10T11:52:32.000Z</time>
      </trkpt>
      <trkpt lat="44.5057" lon="6.7035">
        <ele>2649.8000488281</ele>
        <time>2022-03-10T11:53:00.000Z</time>
      </trkpt>
      <trkpt lat="44.5057" lon="6.7035">
        <ele>2650</ele>
        <time>2022-03-10T11:53:17.000Z</time>
      </trkpt>
      <trkpt lat="44.5057" lon="6.7035">
        <ele>2650</ele>
        <time>2022-03-10T11:53:36.000Z</time>
      </trkpt>
      <trkpt lat="44.5057" lon="6.7035">
        <ele>2650.1999511719</ele>
        <time>2022-03-10T11:53:46.000Z</time>
      </trkpt>
      <trkpt lat="44.5057" lon="6.7035">
        <ele>2650.3999023438</ele>
        <time>2022-03-10T11:54:15.000Z</time>
      </trkpt>
      <trkpt lat="44.5057" lon="6.7035">
        <ele>2651</ele>
        <time>2022-03-10T11:54:38.000Z</time>
      </trkpt>
      <trkpt lat="44.5057" lon="6.7035">
        <ele>2651.1999511719</ele>
        <time>2022-03-10T11:54:53.000Z</time>
      </trkpt>
      <trkpt lat="44.5057" lon="6.7035">
        <ele>2651.3999023438</ele>
        <time>2022-03-10T11:54:59.000Z</time>
      </trkpt>
      <trkpt lat="44.5057" lon="6.7035">
        <ele>2651.1999511719</ele>
        <time>2022-03-10T11:55:25.000Z</time>
      </trkpt>
      <trkpt lat="44.5057" lon="6.7035">
        <ele>2650.1999511719</ele>
        <time>2022-03-10T11:57:13.000Z</time>
      </trkpt>
      <trkpt lat="44.50571" lon="6.7035">
        <ele>2649.1999511719</ele>
        <time>2022-03-10T11:57:22.000Z</time>
      </trkpt>
      <trkpt lat="44.50571" lon="6.70349">
        <ele>2648</ele>
        <time>2022-03-10T11:57:31.000Z</time>
      </trkpt>
      <trkpt lat="44.50571" lon="6.70349">
        <ele>2647</ele>
        <time>2022-03-10T11:57:42.000Z</time>
      </trkpt>
      <trkpt lat="44.50571" lon="6.70349">
        <ele>2645.8000488281</ele>
        <time>2022-03-10T11:57:51.000Z</time>
      </trkpt>
      <trkpt lat="44.50571" lon="6.70348">
        <ele>2644.8000488281</ele>
        <time>2022-03-10T11:57:59.000Z</time>
      </trkpt>
      <trkpt lat="44.50571" lon="6.70348">
        <ele>2643.6000976562</ele>
        <time>2022-03-10T11:58:07.000Z</time>
      </trkpt>
      <trkpt lat="44.50572" lon="6.70347">
        <ele>2642.6000976562</ele>
        <time>2022-03-10T11:58:19.000Z</time>
      </trkpt>
      <trkpt lat="44.50572" lon="6.70347">
        <ele>2642.6000976562</ele>
        <time>2022-03-10T11:58:26.000Z</time>
      </trkpt>
      <trkpt lat="44.50572" lon="6.70345">
        <ele>2641.3999023438</ele>
        <time>2022-03-10T11:58:55.000Z</time>
      </trkpt>
      <trkpt lat="44.50573" lon="6.70344">
        <ele>2640.6000976562</ele>
        <time>2022-03-10T11:59:06.000Z</time>
      </trkpt>
      <trkpt lat="44.50573" lon="6.70344">
        <ele>2640.3999023438</ele>
        <time>2022-03-10T11:59:16.000Z</time>
      </trkpt>
      <trkpt lat="44.50573" lon="6.70342">
        <ele>2640.1999511719</ele>
        <time>2022-03-10T11:59:48.000Z</time>
      </trkpt>
      <trkpt lat="44.50574" lon="6.70339">
        <ele>2639.3999023438</ele>
        <time>2022-03-10T12:00:31.000Z</time>
      </trkpt>
      <trkpt lat="44.50574" lon="6.70338">
        <ele>2638.1999511719</ele>
        <time>2022-03-10T12:00:45.000Z</time>
      </trkpt>
      <trkpt lat="44.50574" lon="6.70338">
        <ele>2637.8000488281</ele>
        <time>2022-03-10T12:00:51.000Z</time>
      </trkpt>
      <trkpt lat="44.50574" lon="6.70337">
        <ele>2637.1999511719</ele>
        <time>2022-03-10T12:00:55.000Z</time>
      </trkpt>
      <trkpt lat="44.50574" lon="6.70337">
        <ele>2636</ele>
        <time>2022-03-10T12:01:00.000Z</time>
      </trkpt>
      <trkpt lat="44.50575" lon="6.70337">
        <ele>2634.8000488281</ele>
        <time>2022-03-10T12:01:05.000Z</time>
      </trkpt>
      <trkpt lat="44.50575" lon="6.70336">
        <ele>2633.6000976562</ele>
        <time>2022-03-10T12:01:09.000Z</time>
      </trkpt>
      <trkpt lat="44.50575" lon="6.70336">
        <ele>2632.3999023438</ele>
        <time>2022-03-10T12:01:13.000Z</time>
      </trkpt>
      <trkpt lat="44.50575" lon="6.70335">
        <ele>2631</ele>
        <time>2022-03-10T12:01:28.000Z</time>
      </trkpt>
      <trkpt lat="44.50577" lon="6.70332">
        <ele>2630</ele>
        <time>2022-03-10T12:01:31.000Z</time>
      </trkpt>
      <trkpt lat="44.50582" lon="6.70324">
        <ele>2629</ele>
        <time>2022-03-10T12:01:33.000Z</time>
      </trkpt>
      <trkpt lat="44.50588" lon="6.70317">
        <ele>2628</ele>
        <time>2022-03-10T12:01:35.000Z</time>
      </trkpt>
      <trkpt lat="44.5059" lon="6.70313">
        <ele>2627.1999511719</ele>
        <time>2022-03-10T12:01:36.000Z</time>
      </trkpt>
      <trkpt lat="44.50593" lon="6.70309">
        <ele>2626.3999023438</ele>
        <time>2022-03-10T12:01:37.000Z</time>
      </trkpt>
      <trkpt lat="44.50601" lon="6.70298">
        <ele>2625.1999511719</ele>
        <time>2022-03-10T12:01:40.000Z</time>
      </trkpt>
      <trkpt lat="44.50602" lon="6.70297">
        <ele>2623.6000976562</ele>
        <time>2022-03-10T12:01:42.000Z</time>
      </trkpt>
      <trkpt lat="44.50604" lon="6.70297">
        <ele>2622.6000976562</ele>
        <time>2022-03-10T12:01:45.000Z</time>
      </trkpt>
      <trkpt lat="44.50605" lon="6.70297">
        <ele>2621.8000488281</ele>
        <time>2022-03-10T12:01:47.000Z</time>
      </trkpt>
      <trkpt lat="44.50605" lon="6.70297">
        <ele>2621.3999023438</ele>
        <time>2022-03-10T12:01:48.000Z</time>
      </trkpt>
      <trkpt lat="44.50606" lon="6.70298">
        <ele>2621.1999511719</ele>
        <time>2022-03-10T12:01:49.000Z</time>
      </trkpt>
      <trkpt lat="44.50607" lon="6.70298">
        <ele>2620.3999023438</ele>
        <time>2022-03-10T12:01:51.000Z</time>
      </trkpt>
      <trkpt lat="44.50608" lon="6.70299">
        <ele>2619.1999511719</ele>
        <time>2022-03-10T12:01:54.000Z</time>
      </trkpt>
      <trkpt lat="44.5061" lon="6.70299">
        <ele>2618.1999511719</ele>
        <time>2022-03-10T12:01:57.000Z</time>
      </trkpt>
      <trkpt lat="44.50612" lon="6.703">
        <ele>2617</ele>
        <time>2022-03-10T12:02:01.000Z</time>
      </trkpt>
      <trkpt lat="44.50612" lon="6.70298">
        <ele>2616.6000976562</ele>
        <time>2022-03-10T12:02:03.000Z</time>
      </trkpt>
      <trkpt lat="44.50613" lon="6.70297">
        <ele>2616</ele>
        <time>2022-03-10T12:02:05.000Z</time>
      </trkpt>
      <trkpt lat="44.50615" lon="6.70295">
        <ele>2615.6000976562</ele>
        <time>2022-03-10T12:02:07.000Z</time>
      </trkpt>
      <trkpt lat="44.50616" lon="6.70295">
        <ele>2615.1999511719</ele>
        <time>2022-03-10T12:02:09.000Z</time>
      </trkpt>
      <trkpt lat="44.50617" lon="6.70295">
        <ele>2614.6000976562</ele>
        <time>2022-03-10T12:02:10.000Z</time>
      </trkpt>
      <trkpt lat="44.50618" lon="6.70294">
        <ele>2613</ele>
        <time>2022-03-10T12:02:12.000Z</time>
      </trkpt>
      <trkpt lat="44.50619" lon="6.70293">
        <ele>2611.8000488281</ele>
        <time>2022-03-10T12:02:14.000Z</time>
      </trkpt>
      <trkpt lat="44.50621" lon="6.70292">
        <ele>2610</ele>
        <time>2022-03-10T12:02:17.000Z</time>
      </trkpt>
      <trkpt lat="44.50623" lon="6.70294">
        <ele>2608.8000488281</ele>
        <time>2022-03-10T12:02:19.000Z</time>
      </trkpt>
      <trkpt lat="44.50623" lon="6.70294">
        <ele>2608.1999511719</ele>
        <time>2022-03-10T12:02:20.000Z</time>
      </trkpt>
      <trkpt lat="44.50624" lon="6.70295">
        <ele>2607.3999023438</ele>
        <time>2022-03-10T12:02:22.000Z</time>
      </trkpt>
      <trkpt lat="44.50626" lon="6.70292">
        <ele>2606.6000976562</ele>
        <time>2022-03-10T12:02:24.000Z</time>
      </trkpt>
      <trkpt lat="44.50626" lon="6.70291">
        <ele>2606.1999511719</ele>
        <time>2022-03-10T12:02:25.000Z</time>
      </trkpt>
      <trkpt lat="44.50628" lon="6.70282">
        <ele>2605.1999511719</ele>
        <time>2022-03-10T12:02:28.000Z</time>
      </trkpt>
      <trkpt lat="44.50629" lon="6.70277">
        <ele>2604</ele>
        <time>2022-03-10T12:02:30.000Z</time>
      </trkpt>
      <trkpt lat="44.50631" lon="6.70273">
        <ele>2603.6000976562</ele>
        <time>2022-03-10T12:02:31.000Z</time>
      </trkpt>
      <trkpt lat="44.50631" lon="6.7027">
        <ele>2603</ele>
        <time>2022-03-10T12:02:32.000Z</time>
      </trkpt>
      <trkpt lat="44.50633" lon="6.70261">
        <ele>2601.8000488281</ele>
        <time>2022-03-10T12:02:34.000Z</time>
      </trkpt>
      <trkpt lat="44.50634" lon="6.70254">
        <ele>2600</ele>
        <time>2022-03-10T12:02:36.000Z</time>
      </trkpt>
      <trkpt lat="44.50634" lon="6.70251">
        <ele>2599.1999511719</ele>
        <time>2022-03-10T12:02:37.000Z</time>
      </trkpt>
      <trkpt lat="44.50634" lon="6.70251">
        <ele>2598.6000976562</ele>
        <time>2022-03-10T12:02:38.000Z</time>
      </trkpt>
      <trkpt lat="44.50634" lon="6.7025">
        <ele>2598</ele>
        <time>2022-03-10T12:02:40.000Z</time>
      </trkpt>
      <trkpt lat="44.50635" lon="6.70252">
        <ele>2597.8000488281</ele>
        <time>2022-03-10T12:02:41.000Z</time>
      </trkpt>
      <trkpt lat="44.50636" lon="6.70253">
        <ele>2596.3999023438</ele>
        <time>2022-03-10T12:02:43.000Z</time>
      </trkpt>
      <trkpt lat="44.50638" lon="6.70253">
        <ele>2595.3999023438</ele>
        <time>2022-03-10T12:02:46.000Z</time>
      </trkpt>
      <trkpt lat="44.50638" lon="6.70255">
        <ele>2595</ele>
        <time>2022-03-10T12:02:53.000Z</time>
      </trkpt>
      <trkpt lat="44.50639" lon="6.70257">
        <ele>2594.6000976562</ele>
        <time>2022-03-10T12:03:03.000Z</time>
      </trkpt>
      <trkpt lat="44.50639" lon="6.70256">
        <ele>2595</ele>
        <time>2022-03-10T12:03:19.000Z</time>
      </trkpt>
      <trkpt lat="44.50642" lon="6.70257">
        <ele>2594.3999023438</ele>
        <time>2022-03-10T12:04:14.000Z</time>
      </trkpt>
      <trkpt lat="44.50643" lon="6.70255">
        <ele>2594</ele>
        <time>2022-03-10T12:04:15.000Z</time>
      </trkpt>
      <trkpt lat="44.50646" lon="6.70256">
        <ele>2593.1999511719</ele>
        <time>2022-03-10T12:04:16.000Z</time>
      </trkpt>
      <trkpt lat="44.50648" lon="6.70257">
        <ele>2592.3999023438</ele>
        <time>2022-03-10T12:04:17.000Z</time>
      </trkpt>
      <trkpt lat="44.50648" lon="6.70257">
        <ele>2591.6000976562</ele>
        <time>2022-03-10T12:04:18.000Z</time>
      </trkpt>
      <trkpt lat="44.50649" lon="6.70258">
        <ele>2590.1999511719</ele>
        <time>2022-03-10T12:04:19.000Z</time>
      </trkpt>
      <trkpt lat="44.50651" lon="6.70262">
        <ele>2589</ele>
        <time>2022-03-10T12:04:21.000Z</time>
      </trkpt>
      <trkpt lat="44.50652" lon="6.70264">
        <ele>2588.1999511719</ele>
        <time>2022-03-10T12:04:23.000Z</time>
      </trkpt>
      <trkpt lat="44.50653" lon="6.70264">
        <ele>2587.6000976562</ele>
        <time>2022-03-10T12:04:24.000Z</time>
      </trkpt>
      <trkpt lat="44.50653" lon="6.70263">
        <ele>2587</ele>
        <time>2022-03-10T12:04:28.000Z</time>
      </trkpt>
      <trkpt lat="44.50653" lon="6.70263">
        <ele>2587</ele>
        <time>2022-03-10T12:04:35.000Z</time>
      </trkpt>
      <trkpt lat="44.50653" lon="6.70263">
        <ele>2586.6000976562</ele>
        <time>2022-03-10T12:05:07.000Z</time>
      </trkpt>
      <trkpt lat="44.5065" lon="6.70263">
        <ele>2587.6000976562</ele>
        <time>2022-03-10T12:20:09.000Z</time>
      </trkpt>
      <trkpt lat="44.5065" lon="6.70263">
        <ele>2587.3999023438</ele>
        <time>2022-03-10T12:20:32.000Z</time>
      </trkpt>
      <trkpt lat="44.50652" lon="6.70267">
        <ele>2587</ele>
        <time>2022-03-10T12:20:40.000Z</time>
      </trkpt>
      <trkpt lat="44.50657" lon="6.70279">
        <ele>2585.6000976562</ele>
        <time>2022-03-10T12:20:42.000Z</time>
      </trkpt>
      <trkpt lat="44.50659" lon="6.70283">
        <ele>2583.8000488281</ele>
        <time>2022-03-10T12:20:43.000Z</time>
      </trkpt>
      <trkpt lat="44.50661" lon="6.70287">
        <ele>2582.6000976562</ele>
        <time>2022-03-10T12:20:44.000Z</time>
      </trkpt>
      <trkpt lat="44.50663" lon="6.70291">
        <ele>2581.6000976562</ele>
        <time>2022-03-10T12:20:45.000Z</time>
      </trkpt>
      <trkpt lat="44.50666" lon="6.70294">
        <ele>2579.8000488281</ele>
        <time>2022-03-10T12:20:47.000Z</time>
      </trkpt>
      <trkpt lat="44.50669" lon="6.70292">
        <ele>2578.6000976562</ele>
        <time>2022-03-10T12:20:48.000Z</time>
      </trkpt>
      <trkpt lat="44.50673" lon="6.70292">
        <ele>2577.3999023438</ele>
        <time>2022-03-10T12:20:49.000Z</time>
      </trkpt>
      <trkpt lat="44.50676" lon="6.70294">
        <ele>2576</ele>
        <time>2022-03-10T12:20:50.000Z</time>
      </trkpt>
      <trkpt lat="44.50679" lon="6.70296">
        <ele>2574.6000976562</ele>
        <time>2022-03-10T12:20:51.000Z</time>
      </trkpt>
      <trkpt lat="44.50681" lon="6.70296">
        <ele>2572.8000488281</ele>
        <time>2022-03-10T12:20:52.000Z</time>
      </trkpt>
      <trkpt lat="44.50682" lon="6.70294">
        <ele>2571.3999023438</ele>
        <time>2022-03-10T12:20:53.000Z</time>
      </trkpt>
      <trkpt lat="44.50684" lon="6.70292">
        <ele>2570.3999023438</ele>
        <time>2022-03-10T12:20:54.000Z</time>
      </trkpt>
      <trkpt lat="44.50688" lon="6.70292">
        <ele>2569.1999511719</ele>
        <time>2022-03-10T12:20:55.000Z</time>
      </trkpt>
      <trkpt lat="44.50692" lon="6.70294">
        <ele>2567.6000976562</ele>
        <time>2022-03-10T12:20:56.000Z</time>
      </trkpt>
      <trkpt lat="44.50695" lon="6.70294">
        <ele>2566.6000976562</ele>
        <time>2022-03-10T12:20:57.000Z</time>
      </trkpt>
      <trkpt lat="44.50698" lon="6.70293">
        <ele>2564.8000488281</ele>
        <time>2022-03-10T12:20:58.000Z</time>
      </trkpt>
      <trkpt lat="44.507" lon="6.7029">
        <ele>2563.6000976562</ele>
        <time>2022-03-10T12:20:59.000Z</time>
      </trkpt>
      <trkpt lat="44.50702" lon="6.70286">
        <ele>2562.1999511719</ele>
        <time>2022-03-10T12:21:00.000Z</time>
      </trkpt>
      <trkpt lat="44.50705" lon="6.70283">
        <ele>2561</ele>
        <time>2022-03-10T12:21:01.000Z</time>
      </trkpt>
      <trkpt lat="44.50708" lon="6.70284">
        <ele>2559.8000488281</ele>
        <time>2022-03-10T12:21:02.000Z</time>
      </trkpt>
      <trkpt lat="44.5071" lon="6.70286">
        <ele>2558.3999023438</ele>
        <time>2022-03-10T12:21:03.000Z</time>
      </trkpt>
      <trkpt lat="44.50712" lon="6.7029">
        <ele>2556.6000976562</ele>
        <time>2022-03-10T12:21:04.000Z</time>
      </trkpt>
      <trkpt lat="44.50715" lon="6.7029">
        <ele>2555.1999511719</ele>
        <time>2022-03-10T12:21:05.000Z</time>
      </trkpt>
      <trkpt lat="44.50719" lon="6.7029">
        <ele>2554</ele>
        <time>2022-03-10T12:21:06.000Z</time>
      </trkpt>
      <trkpt lat="44.50724" lon="6.70293">
        <ele>2552</ele>
        <time>2022-03-10T12:21:08.000Z</time>
      </trkpt>
      <trkpt lat="44.50725" lon="6.70293">
        <ele>2550.1999511719</ele>
        <time>2022-03-10T12:21:09.000Z</time>
      </trkpt>
      <trkpt lat="44.50725" lon="6.70293">
        <ele>2549</ele>
        <time>2022-03-10T12:21:10.000Z</time>
      </trkpt>
      <trkpt lat="44.50726" lon="6.70293">
        <ele>2547.6000976562</ele>
        <time>2022-03-10T12:21:12.000Z</time>
      </trkpt>
      <trkpt lat="44.50727" lon="6.70291">
        <ele>2547.1999511719</ele>
        <time>2022-03-10T12:21:15.000Z</time>
      </trkpt>
      <trkpt lat="44.50726" lon="6.7029">
        <ele>2547</ele>
        <time>2022-03-10T12:21:26.000Z</time>
      </trkpt>
      <trkpt lat="44.50731" lon="6.70296">
        <ele>2546.6000976562</ele>
        <time>2022-03-10T12:22:16.000Z</time>
      </trkpt>
      <trkpt lat="44.50739" lon="6.70296">
        <ele>2545.6000976562</ele>
        <time>2022-03-10T12:22:18.000Z</time>
      </trkpt>
      <trkpt lat="44.50744" lon="6.70294">
        <ele>2544.6000976562</ele>
        <time>2022-03-10T12:22:19.000Z</time>
      </trkpt>
      <trkpt lat="44.50748" lon="6.70292">
        <ele>2543.6000976562</ele>
        <time>2022-03-10T12:22:20.000Z</time>
      </trkpt>
      <trkpt lat="44.50752" lon="6.70293">
        <ele>2542.1999511719</ele>
        <time>2022-03-10T12:22:21.000Z</time>
      </trkpt>
      <trkpt lat="44.50756" lon="6.70295">
        <ele>2541.1999511719</ele>
        <time>2022-03-10T12:22:22.000Z</time>
      </trkpt>
      <trkpt lat="44.50759" lon="6.70299">
        <ele>2540.1999511719</ele>
        <time>2022-03-10T12:22:23.000Z</time>
      </trkpt>
      <trkpt lat="44.50761" lon="6.70302">
        <ele>2538.6000976562</ele>
        <time>2022-03-10T12:22:24.000Z</time>
      </trkpt>
      <trkpt lat="44.50763" lon="6.70303">
        <ele>2537.6000976562</ele>
        <time>2022-03-10T12:22:25.000Z</time>
      </trkpt>
      <trkpt lat="44.50771" lon="6.703">
        <ele>2536</ele>
        <time>2022-03-10T12:22:27.000Z</time>
      </trkpt>
      <trkpt lat="44.50775" lon="6.70303">
        <ele>2534.6000976562</ele>
        <time>2022-03-10T12:22:28.000Z</time>
      </trkpt>
      <trkpt lat="44.50777" lon="6.70307">
        <ele>2533.1999511719</ele>
        <time>2022-03-10T12:22:29.000Z</time>
      </trkpt>
      <trkpt lat="44.50777" lon="6.70312">
        <ele>2531.8000488281</ele>
        <time>2022-03-10T12:22:30.000Z</time>
      </trkpt>
      <trkpt lat="44.50779" lon="6.70316">
        <ele>2530</ele>
        <time>2022-03-10T12:22:31.000Z</time>
      </trkpt>
      <trkpt lat="44.50782" lon="6.70318">
        <ele>2528.8000488281</ele>
        <time>2022-03-10T12:22:32.000Z</time>
      </trkpt>
      <trkpt lat="44.50785" lon="6.70321">
        <ele>2528.1999511719</ele>
        <time>2022-03-10T12:22:33.000Z</time>
      </trkpt>
      <trkpt lat="44.50787" lon="6.70326">
        <ele>2526.8000488281</ele>
        <time>2022-03-10T12:22:34.000Z</time>
      </trkpt>
      <trkpt lat="44.50788" lon="6.70331">
        <ele>2525.3999023438</ele>
        <time>2022-03-10T12:22:35.000Z</time>
      </trkpt>
      <trkpt lat="44.5079" lon="6.70337">
        <ele>2524</ele>
        <time>2022-03-10T12:22:36.000Z</time>
      </trkpt>
      <trkpt lat="44.50791" lon="6.70341">
        <ele>2522.8000488281</ele>
        <time>2022-03-10T12:22:37.000Z</time>
      </trkpt>
      <trkpt lat="44.50791" lon="6.70346">
        <ele>2521.3999023438</ele>
        <time>2022-03-10T12:22:39.000Z</time>
      </trkpt>
      <trkpt lat="44.50793" lon="6.70351">
        <ele>2520.1999511719</ele>
        <time>2022-03-10T12:22:42.000Z</time>
      </trkpt>
      <trkpt lat="44.50793" lon="6.70356">
        <ele>2519.8000488281</ele>
        <time>2022-03-10T12:22:45.000Z</time>
      </trkpt>
      <trkpt lat="44.50794" lon="6.70365">
        <ele>2519</ele>
        <time>2022-03-10T12:22:48.000Z</time>
      </trkpt>
      <trkpt lat="44.50796" lon="6.70373">
        <ele>2518.3999023438</ele>
        <time>2022-03-10T12:22:51.000Z</time>
      </trkpt>
      <trkpt lat="44.50797" lon="6.70375">
        <ele>2518</ele>
        <time>2022-03-10T12:22:54.000Z</time>
      </trkpt>
      <trkpt lat="44.50799" lon="6.70377">
        <ele>2517.8000488281</ele>
        <time>2022-03-10T12:22:56.000Z</time>
      </trkpt>
      <trkpt lat="44.50801" lon="6.70381">
        <ele>2516.6000976562</ele>
        <time>2022-03-10T12:23:01.000Z</time>
      </trkpt>
      <trkpt lat="44.50801" lon="6.7038">
        <ele>2515.6000976562</ele>
        <time>2022-03-10T12:23:28.000Z</time>
      </trkpt>
      <trkpt lat="44.50801" lon="6.70381">
        <ele>2515.3999023438</ele>
        <time>2022-03-10T12:23:29.000Z</time>
      </trkpt>
      <trkpt lat="44.50807" lon="6.70385">
        <ele>2514.1999511719</ele>
        <time>2022-03-10T12:23:33.000Z</time>
      </trkpt>
      <trkpt lat="44.50808" lon="6.70385">
        <ele>2514</ele>
        <time>2022-03-10T12:23:34.000Z</time>
      </trkpt>
      <trkpt lat="44.5081" lon="6.70385">
        <ele>2513.6000976562</ele>
        <time>2022-03-10T12:23:35.000Z</time>
      </trkpt>
      <trkpt lat="44.50812" lon="6.70385">
        <ele>2513.1999511719</ele>
        <time>2022-03-10T12:23:36.000Z</time>
      </trkpt>
      <trkpt lat="44.50814" lon="6.70387">
        <ele>2512</ele>
        <time>2022-03-10T12:23:37.000Z</time>
      </trkpt>
      <trkpt lat="44.50818" lon="6.70389">
        <ele>2509.8000488281</ele>
        <time>2022-03-10T12:23:39.000Z</time>
      </trkpt>
      <trkpt lat="44.50819" lon="6.70387">
        <ele>2508.6000976562</ele>
        <time>2022-03-10T12:23:40.000Z</time>
      </trkpt>
      <trkpt lat="44.50819" lon="6.70383">
        <ele>2506.6000976562</ele>
        <time>2022-03-10T12:23:42.000Z</time>
      </trkpt>
      <trkpt lat="44.50819" lon="6.70382">
        <ele>2505.1999511719</ele>
        <time>2022-03-10T12:23:43.000Z</time>
      </trkpt>
      <trkpt lat="44.50818" lon="6.7038">
        <ele>2504</ele>
        <time>2022-03-10T12:23:45.000Z</time>
      </trkpt>
      <trkpt lat="44.50819" lon="6.70379">
        <ele>2503.6000976562</ele>
        <time>2022-03-10T12:23:46.000Z</time>
      </trkpt>
      <trkpt lat="44.50821" lon="6.70374">
        <ele>2503</ele>
        <time>2022-03-10T12:23:49.000Z</time>
      </trkpt>
      <trkpt lat="44.50823" lon="6.70372">
        <ele>2502.8000488281</ele>
        <time>2022-03-10T12:23:50.000Z</time>
      </trkpt>
      <trkpt lat="44.50824" lon="6.70371">
        <ele>2502.6000976562</ele>
        <time>2022-03-10T12:23:51.000Z</time>
      </trkpt>
      <trkpt lat="44.50827" lon="6.7037">
        <ele>2502.3999023438</ele>
        <time>2022-03-10T12:23:52.000Z</time>
      </trkpt>
      <trkpt lat="44.5083" lon="6.70366">
        <ele>2501.6000976562</ele>
        <time>2022-03-10T12:23:54.000Z</time>
      </trkpt>
      <trkpt lat="44.50833" lon="6.7036">
        <ele>2499</ele>
        <time>2022-03-10T12:23:56.000Z</time>
      </trkpt>
      <trkpt lat="44.50834" lon="6.70356">
        <ele>2498.1999511719</ele>
        <time>2022-03-10T12:23:57.000Z</time>
      </trkpt>
      <trkpt lat="44.50837" lon="6.70354">
        <ele>2497</ele>
        <time>2022-03-10T12:23:58.000Z</time>
      </trkpt>
      <trkpt lat="44.50842" lon="6.70355">
        <ele>2495.6000976562</ele>
        <time>2022-03-10T12:24:00.000Z</time>
      </trkpt>
      <trkpt lat="44.50844" lon="6.70359">
        <ele>2495</ele>
        <time>2022-03-10T12:24:01.000Z</time>
      </trkpt>
      <trkpt lat="44.50846" lon="6.70366">
        <ele>2493.6000976562</ele>
        <time>2022-03-10T12:24:02.000Z</time>
      </trkpt>
      <trkpt lat="44.50848" lon="6.70372">
        <ele>2492.1999511719</ele>
        <time>2022-03-10T12:24:03.000Z</time>
      </trkpt>
      <trkpt lat="44.50851" lon="6.70382">
        <ele>2490.6000976562</ele>
        <time>2022-03-10T12:24:05.000Z</time>
      </trkpt>
      <trkpt lat="44.50855" lon="6.70391">
        <ele>2489.1999511719</ele>
        <time>2022-03-10T12:24:07.000Z</time>
      </trkpt>
      <trkpt lat="44.50859" lon="6.70394">
        <ele>2488.1999511719</ele>
        <time>2022-03-10T12:24:08.000Z</time>
      </trkpt>
      <trkpt lat="44.50861" lon="6.70396">
        <ele>2487.6000976562</ele>
        <time>2022-03-10T12:24:09.000Z</time>
      </trkpt>
      <trkpt lat="44.50861" lon="6.70395">
        <ele>2486.8000488281</ele>
        <time>2022-03-10T12:24:13.000Z</time>
      </trkpt>
      <trkpt lat="44.50854" lon="6.70392">
        <ele>2486.6000976562</ele>
        <time>2022-03-10T12:24:24.000Z</time>
      </trkpt>
      <trkpt lat="44.50855" lon="6.70392">
        <ele>2486.8000488281</ele>
        <time>2022-03-10T12:24:44.000Z</time>
      </trkpt>
      <trkpt lat="44.5086" lon="6.704">
        <ele>2486.3999023438</ele>
        <time>2022-03-10T12:24:57.000Z</time>
      </trkpt>
      <trkpt lat="44.50865" lon="6.70409">
        <ele>2485.6000976562</ele>
        <time>2022-03-10T12:24:59.000Z</time>
      </trkpt>
      <trkpt lat="44.50871" lon="6.70419">
        <ele>2484.6000976562</ele>
        <time>2022-03-10T12:25:01.000Z</time>
      </trkpt>
      <trkpt lat="44.50875" lon="6.70425">
        <ele>2483.6000976562</ele>
        <time>2022-03-10T12:25:02.000Z</time>
      </trkpt>
      <trkpt lat="44.50877" lon="6.70429">
        <ele>2483.1999511719</ele>
        <time>2022-03-10T12:25:03.000Z</time>
      </trkpt>
      <trkpt lat="44.50884" lon="6.70438">
        <ele>2481.8000488281</ele>
        <time>2022-03-10T12:25:06.000Z</time>
      </trkpt>
      <trkpt lat="44.50886" lon="6.70439">
        <ele>2481.1999511719</ele>
        <time>2022-03-10T12:25:07.000Z</time>
      </trkpt>
      <trkpt lat="44.50888" lon="6.7044">
        <ele>2480.3999023438</ele>
        <time>2022-03-10T12:25:08.000Z</time>
      </trkpt>
      <trkpt lat="44.50892" lon="6.70441">
        <ele>2479</ele>
        <time>2022-03-10T12:25:10.000Z</time>
      </trkpt>
      <trkpt lat="44.50896" lon="6.70441">
        <ele>2478</ele>
        <time>2022-03-10T12:25:11.000Z</time>
      </trkpt>
      <trkpt lat="44.50898" lon="6.70438">
        <ele>2476</ele>
        <time>2022-03-10T12:25:12.000Z</time>
      </trkpt>
      <trkpt lat="44.50901" lon="6.70436">
        <ele>2474.6000976562</ele>
        <time>2022-03-10T12:25:13.000Z</time>
      </trkpt>
      <trkpt lat="44.50903" lon="6.70436">
        <ele>2472.8000488281</ele>
        <time>2022-03-10T12:25:14.000Z</time>
      </trkpt>
      <trkpt lat="44.50908" lon="6.70431">
        <ele>2470</ele>
        <time>2022-03-10T12:25:16.000Z</time>
      </trkpt>
      <trkpt lat="44.50912" lon="6.70428">
        <ele>2468.8000488281</ele>
        <time>2022-03-10T12:25:17.000Z</time>
      </trkpt>
      <trkpt lat="44.50913" lon="6.70427">
        <ele>2467.1999511719</ele>
        <time>2022-03-10T12:25:18.000Z</time>
      </trkpt>
      <trkpt lat="44.50916" lon="6.70425">
        <ele>2465.3999023438</ele>
        <time>2022-03-10T12:25:19.000Z</time>
      </trkpt>
      <trkpt lat="44.50919" lon="6.70424">
        <ele>2463.8000488281</ele>
        <time>2022-03-10T12:25:20.000Z</time>
      </trkpt>
      <trkpt lat="44.50921" lon="6.70426">
        <ele>2462.1999511719</ele>
        <time>2022-03-10T12:25:21.000Z</time>
      </trkpt>
      <trkpt lat="44.50922" lon="6.70427">
        <ele>2460.6000976562</ele>
        <time>2022-03-10T12:25:22.000Z</time>
      </trkpt>
      <trkpt lat="44.50922" lon="6.70428">
        <ele>2459.6000976562</ele>
        <time>2022-03-10T12:25:23.000Z</time>
      </trkpt>
      <trkpt lat="44.50923" lon="6.70434">
        <ele>2458.3999023438</ele>
        <time>2022-03-10T12:25:25.000Z</time>
      </trkpt>
      <trkpt lat="44.50926" lon="6.70444">
        <ele>2457.3999023438</ele>
        <time>2022-03-10T12:25:29.000Z</time>
      </trkpt>
      <trkpt lat="44.50929" lon="6.70456">
        <ele>2456</ele>
        <time>2022-03-10T12:25:34.000Z</time>
      </trkpt>
      <trkpt lat="44.50931" lon="6.70465">
        <ele>2455</ele>
        <time>2022-03-10T12:25:37.000Z</time>
      </trkpt>
      <trkpt lat="44.50934" lon="6.70481">
        <ele>2453.6000976562</ele>
        <time>2022-03-10T12:25:40.000Z</time>
      </trkpt>
      <trkpt lat="44.50937" lon="6.70491">
        <ele>2452.3999023438</ele>
        <time>2022-03-10T12:25:43.000Z</time>
      </trkpt>
      <trkpt lat="44.50939" lon="6.70495">
        <ele>2451.1999511719</ele>
        <time>2022-03-10T12:25:45.000Z</time>
      </trkpt>
      <trkpt lat="44.50939" lon="6.70496">
        <ele>2450.6000976562</ele>
        <time>2022-03-10T12:25:46.000Z</time>
      </trkpt>
      <trkpt lat="44.5094" lon="6.70496">
        <ele>2450</ele>
        <time>2022-03-10T12:25:47.000Z</time>
      </trkpt>
      <trkpt lat="44.50945" lon="6.70506">
        <ele>2448.8000488281</ele>
        <time>2022-03-10T12:25:52.000Z</time>
      </trkpt>
      <trkpt lat="44.50946" lon="6.70509">
        <ele>2448.3999023438</ele>
        <time>2022-03-10T12:25:53.000Z</time>
      </trkpt>
      <trkpt lat="44.5095" lon="6.70517">
        <ele>2447.6000976562</ele>
        <time>2022-03-10T12:25:55.000Z</time>
      </trkpt>
      <trkpt lat="44.50955" lon="6.70525">
        <ele>2446.1999511719</ele>
        <time>2022-03-10T12:25:57.000Z</time>
      </trkpt>
      <trkpt lat="44.50956" lon="6.70527">
        <ele>2445.6000976562</ele>
        <time>2022-03-10T12:25:58.000Z</time>
      </trkpt>
      <trkpt lat="44.50958" lon="6.7053">
        <ele>2445</ele>
        <time>2022-03-10T12:25:59.000Z</time>
      </trkpt>
      <trkpt lat="44.50959" lon="6.70533">
        <ele>2443.8000488281</ele>
        <time>2022-03-10T12:26:02.000Z</time>
      </trkpt>
      <trkpt lat="44.50965" lon="6.70531">
        <ele>2442.6000976562</ele>
        <time>2022-03-10T12:26:08.000Z</time>
      </trkpt>
      <trkpt lat="44.50968" lon="6.70531">
        <ele>2441.3999023438</ele>
        <time>2022-03-10T12:26:09.000Z</time>
      </trkpt>
      <trkpt lat="44.50971" lon="6.70528">
        <ele>2439.1999511719</ele>
        <time>2022-03-10T12:26:10.000Z</time>
      </trkpt>
      <trkpt lat="44.50974" lon="6.70527">
        <ele>2437.6000976562</ele>
        <time>2022-03-10T12:26:11.000Z</time>
      </trkpt>
      <trkpt lat="44.50976" lon="6.70526">
        <ele>2435.8000488281</ele>
        <time>2022-03-10T12:26:12.000Z</time>
      </trkpt>
      <trkpt lat="44.50978" lon="6.70524">
        <ele>2434.3999023438</ele>
        <time>2022-03-10T12:26:13.000Z</time>
      </trkpt>
      <trkpt lat="44.50981" lon="6.70521">
        <ele>2432.3999023438</ele>
        <time>2022-03-10T12:26:14.000Z</time>
      </trkpt>
      <trkpt lat="44.50984" lon="6.7052">
        <ele>2430.8000488281</ele>
        <time>2022-03-10T12:26:15.000Z</time>
      </trkpt>
      <trkpt lat="44.50986" lon="6.70517">
        <ele>2429.3999023438</ele>
        <time>2022-03-10T12:26:16.000Z</time>
      </trkpt>
      <trkpt lat="44.50989" lon="6.70515">
        <ele>2427</ele>
        <time>2022-03-10T12:26:17.000Z</time>
      </trkpt>
      <trkpt lat="44.50992" lon="6.70513">
        <ele>2425</ele>
        <time>2022-03-10T12:26:18.000Z</time>
      </trkpt>
      <trkpt lat="44.50994" lon="6.7051">
        <ele>2423.6000976562</ele>
        <time>2022-03-10T12:26:19.000Z</time>
      </trkpt>
      <trkpt lat="44.50997" lon="6.70508">
        <ele>2421.1999511719</ele>
        <time>2022-03-10T12:26:20.000Z</time>
      </trkpt>
      <trkpt lat="44.50999" lon="6.70507">
        <ele>2419.3999023438</ele>
        <time>2022-03-10T12:26:21.000Z</time>
      </trkpt>
      <trkpt lat="44.51001" lon="6.70506">
        <ele>2418.3999023438</ele>
        <time>2022-03-10T12:26:22.000Z</time>
      </trkpt>
      <trkpt lat="44.51004" lon="6.70505">
        <ele>2416.6000976562</ele>
        <time>2022-03-10T12:26:23.000Z</time>
      </trkpt>
      <trkpt lat="44.51006" lon="6.70503">
        <ele>2415.1999511719</ele>
        <time>2022-03-10T12:26:24.000Z</time>
      </trkpt>
      <trkpt lat="44.51008" lon="6.70501">
        <ele>2413.1999511719</ele>
        <time>2022-03-10T12:26:25.000Z</time>
      </trkpt>
      <trkpt lat="44.51009" lon="6.70499">
        <ele>2411.8000488281</ele>
        <time>2022-03-10T12:26:26.000Z</time>
      </trkpt>
      <trkpt lat="44.5101" lon="6.70494">
        <ele>2409.3999023438</ele>
        <time>2022-03-10T12:26:27.000Z</time>
      </trkpt>
      <trkpt lat="44.51012" lon="6.70491">
        <ele>2408.1999511719</ele>
        <time>2022-03-10T12:26:28.000Z</time>
      </trkpt>
      <trkpt lat="44.51015" lon="6.70485">
        <ele>2407.1999511719</ele>
        <time>2022-03-10T12:26:29.000Z</time>
      </trkpt>
      <trkpt lat="44.5102" lon="6.70479">
        <ele>2404.8000488281</ele>
        <time>2022-03-10T12:26:31.000Z</time>
      </trkpt>
      <trkpt lat="44.51025" lon="6.70474">
        <ele>2402.8000488281</ele>
        <time>2022-03-10T12:26:32.000Z</time>
      </trkpt>
      <trkpt lat="44.51028" lon="6.70471">
        <ele>2401.8000488281</ele>
        <time>2022-03-10T12:26:33.000Z</time>
      </trkpt>
      <trkpt lat="44.51032" lon="6.70468">
        <ele>2400</ele>
        <time>2022-03-10T12:26:34.000Z</time>
      </trkpt>
      <trkpt lat="44.51037" lon="6.70463">
        <ele>2397.8000488281</ele>
        <time>2022-03-10T12:26:35.000Z</time>
      </trkpt>
      <trkpt lat="44.5104" lon="6.70461">
        <ele>2396</ele>
        <time>2022-03-10T12:26:36.000Z</time>
      </trkpt>
      <trkpt lat="44.51043" lon="6.70462">
        <ele>2394.6000976562</ele>
        <time>2022-03-10T12:26:38.000Z</time>
      </trkpt>
      <trkpt lat="44.51042" lon="6.70466">
        <ele>2394.1999511719</ele>
        <time>2022-03-10T12:26:41.000Z</time>
      </trkpt>
      <trkpt lat="44.51035" lon="6.70474">
        <ele>2394</ele>
        <time>2022-03-10T12:26:50.000Z</time>
      </trkpt>
      <trkpt lat="44.51033" lon="6.70478">
        <ele>2393.8000488281</ele>
        <time>2022-03-10T12:27:01.000Z</time>
      </trkpt>
      <trkpt lat="44.51033" lon="6.70479">
        <ele>2393.8000488281</ele>
        <time>2022-03-10T12:27:02.000Z</time>
      </trkpt>
      <trkpt lat="44.51032" lon="6.70477">
        <ele>2393.8000488281</ele>
        <time>2022-03-10T12:28:13.000Z</time>
      </trkpt>
      <trkpt lat="44.51039" lon="6.70483">
        <ele>2393.6000976562</ele>
        <time>2022-03-10T12:28:16.000Z</time>
      </trkpt>
      <trkpt lat="44.51042" lon="6.70488">
        <ele>2393.1999511719</ele>
        <time>2022-03-10T12:28:17.000Z</time>
      </trkpt>
      <trkpt lat="44.51051" lon="6.70498">
        <ele>2392</ele>
        <time>2022-03-10T12:28:19.000Z</time>
      </trkpt>
      <trkpt lat="44.51054" lon="6.70502">
        <ele>2391.1999511719</ele>
        <time>2022-03-10T12:28:20.000Z</time>
      </trkpt>
      <trkpt lat="44.51059" lon="6.70507">
        <ele>2390.8000488281</ele>
        <time>2022-03-10T12:28:21.000Z</time>
      </trkpt>
      <trkpt lat="44.51065" lon="6.70517">
        <ele>2389.8000488281</ele>
        <time>2022-03-10T12:28:23.000Z</time>
      </trkpt>
      <trkpt lat="44.51069" lon="6.70523">
        <ele>2388.8000488281</ele>
        <time>2022-03-10T12:28:25.000Z</time>
      </trkpt>
      <trkpt lat="44.51072" lon="6.70527">
        <ele>2388.6000976562</ele>
        <time>2022-03-10T12:28:26.000Z</time>
      </trkpt>
      <trkpt lat="44.51077" lon="6.70533">
        <ele>2387.1999511719</ele>
        <time>2022-03-10T12:28:28.000Z</time>
      </trkpt>
      <trkpt lat="44.51085" lon="6.70536">
        <ele>2386.6000976562</ele>
        <time>2022-03-10T12:28:30.000Z</time>
      </trkpt>
      <trkpt lat="44.51088" lon="6.70538">
        <ele>2385.1999511719</ele>
        <time>2022-03-10T12:28:31.000Z</time>
      </trkpt>
      <trkpt lat="44.51092" lon="6.70539">
        <ele>2383.6000976562</ele>
        <time>2022-03-10T12:28:32.000Z</time>
      </trkpt>
      <trkpt lat="44.51095" lon="6.70542">
        <ele>2382.6000976562</ele>
        <time>2022-03-10T12:28:33.000Z</time>
      </trkpt>
      <trkpt lat="44.51097" lon="6.70545">
        <ele>2381.6000976562</ele>
        <time>2022-03-10T12:28:34.000Z</time>
      </trkpt>
      <trkpt lat="44.51099" lon="6.70547">
        <ele>2380.1999511719</ele>
        <time>2022-03-10T12:28:35.000Z</time>
      </trkpt>
      <trkpt lat="44.51102" lon="6.70549">
        <ele>2378.6000976562</ele>
        <time>2022-03-10T12:28:36.000Z</time>
      </trkpt>
      <trkpt lat="44.51106" lon="6.70555">
        <ele>2376.8000488281</ele>
        <time>2022-03-10T12:28:38.000Z</time>
      </trkpt>
      <trkpt lat="44.51109" lon="6.7056">
        <ele>2375.6000976562</ele>
        <time>2022-03-10T12:28:39.000Z</time>
      </trkpt>
      <trkpt lat="44.51115" lon="6.70571">
        <ele>2373.8000488281</ele>
        <time>2022-03-10T12:28:41.000Z</time>
      </trkpt>
      <trkpt lat="44.51119" lon="6.70576">
        <ele>2372.8000488281</ele>
        <time>2022-03-10T12:28:42.000Z</time>
      </trkpt>
      <trkpt lat="44.51123" lon="6.70581">
        <ele>2371.6000976562</ele>
        <time>2022-03-10T12:28:43.000Z</time>
      </trkpt>
      <trkpt lat="44.51127" lon="6.70584">
        <ele>2370.6000976562</ele>
        <time>2022-03-10T12:28:44.000Z</time>
      </trkpt>
      <trkpt lat="44.51131" lon="6.70588">
        <ele>2369.6000976562</ele>
        <time>2022-03-10T12:28:45.000Z</time>
      </trkpt>
      <trkpt lat="44.51137" lon="6.70593">
        <ele>2368</ele>
        <time>2022-03-10T12:28:47.000Z</time>
      </trkpt>
      <trkpt lat="44.5114" lon="6.70594">
        <ele>2366.3999023438</ele>
        <time>2022-03-10T12:28:49.000Z</time>
      </trkpt>
      <trkpt lat="44.5114" lon="6.70593">
        <ele>2366</ele>
        <time>2022-03-10T12:28:50.000Z</time>
      </trkpt>
      <trkpt lat="44.51141" lon="6.70593">
        <ele>2364.8000488281</ele>
        <time>2022-03-10T12:28:51.000Z</time>
      </trkpt>
      <trkpt lat="44.51145" lon="6.70591">
        <ele>2363.1999511719</ele>
        <time>2022-03-10T12:28:53.000Z</time>
      </trkpt>
      <trkpt lat="44.51148" lon="6.7059">
        <ele>2362</ele>
        <time>2022-03-10T12:28:54.000Z</time>
      </trkpt>
      <trkpt lat="44.51149" lon="6.70589">
        <ele>2361</ele>
        <time>2022-03-10T12:28:55.000Z</time>
      </trkpt>
      <trkpt lat="44.5115" lon="6.70587">
        <ele>2359.6000976562</ele>
        <time>2022-03-10T12:28:57.000Z</time>
      </trkpt>
      <trkpt lat="44.5115" lon="6.70585">
        <ele>2359</ele>
        <time>2022-03-10T12:28:58.000Z</time>
      </trkpt>
      <trkpt lat="44.51149" lon="6.70582">
        <ele>2358.3999023438</ele>
        <time>2022-03-10T12:29:00.000Z</time>
      </trkpt>
      <trkpt lat="44.51148" lon="6.70581">
        <ele>2357.8000488281</ele>
        <time>2022-03-10T12:29:01.000Z</time>
      </trkpt>
      <trkpt lat="44.51144" lon="6.70576">
        <ele>2357.1999511719</ele>
        <time>2022-03-10T12:29:03.000Z</time>
      </trkpt>
      <trkpt lat="44.51143" lon="6.70559">
        <ele>2356</ele>
        <time>2022-03-10T12:29:07.000Z</time>
      </trkpt>
      <trkpt lat="44.51145" lon="6.70558">
        <ele>2355.8000488281</ele>
        <time>2022-03-10T12:29:08.000Z</time>
      </trkpt>
      <trkpt lat="44.51149" lon="6.70557">
        <ele>2355</ele>
        <time>2022-03-10T12:29:11.000Z</time>
      </trkpt>
      <trkpt lat="44.5115" lon="6.70555">
        <ele>2354.8000488281</ele>
        <time>2022-03-10T12:29:12.000Z</time>
      </trkpt>
      <trkpt lat="44.51151" lon="6.70553">
        <ele>2354.6000976562</ele>
        <time>2022-03-10T12:29:13.000Z</time>
      </trkpt>
      <trkpt lat="44.51158" lon="6.70555">
        <ele>2353.8000488281</ele>
        <time>2022-03-10T12:29:15.000Z</time>
      </trkpt>
      <trkpt lat="44.51164" lon="6.70558">
        <ele>2353.3999023438</ele>
        <time>2022-03-10T12:29:16.000Z</time>
      </trkpt>
      <trkpt lat="44.51169" lon="6.70566">
        <ele>2352.6000976562</ele>
        <time>2022-03-10T12:29:17.000Z</time>
      </trkpt>
      <trkpt lat="44.51173" lon="6.70572">
        <ele>2351.6000976562</ele>
        <time>2022-03-10T12:29:18.000Z</time>
      </trkpt>
      <trkpt lat="44.51175" lon="6.70575">
        <ele>2350.3999023438</ele>
        <time>2022-03-10T12:29:19.000Z</time>
      </trkpt>
      <trkpt lat="44.51176" lon="6.70577">
        <ele>2349</ele>
        <time>2022-03-10T12:29:21.000Z</time>
      </trkpt>
      <trkpt lat="44.51176" lon="6.70576">
        <ele>2348</ele>
        <time>2022-03-10T12:29:23.000Z</time>
      </trkpt>
      <trkpt lat="44.51172" lon="6.70572">
        <ele>2347.6000976562</ele>
        <time>2022-03-10T12:29:42.000Z</time>
      </trkpt>
      <trkpt lat="44.51178" lon="6.70581">
        <ele>2347.1999511719</ele>
        <time>2022-03-10T12:30:06.000Z</time>
      </trkpt>
      <trkpt lat="44.5118" lon="6.70587">
        <ele>2346.8000488281</ele>
        <time>2022-03-10T12:30:08.000Z</time>
      </trkpt>
      <trkpt lat="44.51186" lon="6.70601">
        <ele>2346.1999511719</ele>
        <time>2022-03-10T12:30:12.000Z</time>
      </trkpt>
      <trkpt lat="44.51189" lon="6.70607">
        <ele>2345.8000488281</ele>
        <time>2022-03-10T12:30:14.000Z</time>
      </trkpt>
      <trkpt lat="44.51193" lon="6.70619">
        <ele>2344.8000488281</ele>
        <time>2022-03-10T12:30:18.000Z</time>
      </trkpt>
      <trkpt lat="44.51195" lon="6.70622">
        <ele>2344.1999511719</ele>
        <time>2022-03-10T12:30:20.000Z</time>
      </trkpt>
      <trkpt lat="44.51198" lon="6.70629">
        <ele>2343.6000976562</ele>
        <time>2022-03-10T12:30:24.000Z</time>
      </trkpt>
      <trkpt lat="44.51202" lon="6.70637">
        <ele>2342.6000976562</ele>
        <time>2022-03-10T12:30:28.000Z</time>
      </trkpt>
      <trkpt lat="44.51204" lon="6.70638">
        <ele>2342.1999511719</ele>
        <time>2022-03-10T12:30:29.000Z</time>
      </trkpt>
      <trkpt lat="44.51207" lon="6.7064">
        <ele>2341</ele>
        <time>2022-03-10T12:30:31.000Z</time>
      </trkpt>
      <trkpt lat="44.5121" lon="6.7064">
        <ele>2339.6000976562</ele>
        <time>2022-03-10T12:30:32.000Z</time>
      </trkpt>
      <trkpt lat="44.51216" lon="6.70642">
        <ele>2337</ele>
        <time>2022-03-10T12:30:34.000Z</time>
      </trkpt>
      <trkpt lat="44.51218" lon="6.70642">
        <ele>2335.6000976562</ele>
        <time>2022-03-10T12:30:35.000Z</time>
      </trkpt>
      <trkpt lat="44.51219" lon="6.70641">
        <ele>2333.8000488281</ele>
        <time>2022-03-10T12:30:36.000Z</time>
      </trkpt>
      <trkpt lat="44.51221" lon="6.70642">
        <ele>2332.3999023438</ele>
        <time>2022-03-10T12:30:37.000Z</time>
      </trkpt>
      <trkpt lat="44.51224" lon="6.70644">
        <ele>2331</ele>
        <time>2022-03-10T12:30:38.000Z</time>
      </trkpt>
      <trkpt lat="44.51226" lon="6.70646">
        <ele>2330</ele>
        <time>2022-03-10T12:30:39.000Z</time>
      </trkpt>
      <trkpt lat="44.51228" lon="6.70648">
        <ele>2328.1999511719</ele>
        <time>2022-03-10T12:30:40.000Z</time>
      </trkpt>
      <trkpt lat="44.51229" lon="6.70648">
        <ele>2327</ele>
        <time>2022-03-10T12:30:41.000Z</time>
      </trkpt>
      <trkpt lat="44.5123" lon="6.70647">
        <ele>2325.8000488281</ele>
        <time>2022-03-10T12:30:42.000Z</time>
      </trkpt>
      <trkpt lat="44.51231" lon="6.70644">
        <ele>2324.6000976562</ele>
        <time>2022-03-10T12:30:43.000Z</time>
      </trkpt>
      <trkpt lat="44.51233" lon="6.70644">
        <ele>2323.1999511719</ele>
        <time>2022-03-10T12:30:44.000Z</time>
      </trkpt>
      <trkpt lat="44.51235" lon="6.70644">
        <ele>2322</ele>
        <time>2022-03-10T12:30:45.000Z</time>
      </trkpt>
      <trkpt lat="44.51237" lon="6.70643">
        <ele>2320.6000976562</ele>
        <time>2022-03-10T12:30:46.000Z</time>
      </trkpt>
      <trkpt lat="44.51238" lon="6.70641">
        <ele>2319</ele>
        <time>2022-03-10T12:30:47.000Z</time>
      </trkpt>
      <trkpt lat="44.51239" lon="6.70636">
        <ele>2317.1999511719</ele>
        <time>2022-03-10T12:30:49.000Z</time>
      </trkpt>
      <trkpt lat="44.5124" lon="6.70632">
        <ele>2315.6000976562</ele>
        <time>2022-03-10T12:30:50.000Z</time>
      </trkpt>
      <trkpt lat="44.51244" lon="6.7063">
        <ele>2314.6000976562</ele>
        <time>2022-03-10T12:30:51.000Z</time>
      </trkpt>
      <trkpt lat="44.51246" lon="6.7063">
        <ele>2313.3999023438</ele>
        <time>2022-03-10T12:30:52.000Z</time>
      </trkpt>
      <trkpt lat="44.51249" lon="6.70632">
        <ele>2312.6000976562</ele>
        <time>2022-03-10T12:30:53.000Z</time>
      </trkpt>
      <trkpt lat="44.51251" lon="6.70633">
        <ele>2311.6000976562</ele>
        <time>2022-03-10T12:30:54.000Z</time>
      </trkpt>
      <trkpt lat="44.51253" lon="6.70635">
        <ele>2310</ele>
        <time>2022-03-10T12:30:55.000Z</time>
      </trkpt>
      <trkpt lat="44.51255" lon="6.70635">
        <ele>2308.3999023438</ele>
        <time>2022-03-10T12:30:56.000Z</time>
      </trkpt>
      <trkpt lat="44.51256" lon="6.70635">
        <ele>2307.1999511719</ele>
        <time>2022-03-10T12:30:57.000Z</time>
      </trkpt>
      <trkpt lat="44.51258" lon="6.70635">
        <ele>2305.8000488281</ele>
        <time>2022-03-10T12:30:58.000Z</time>
      </trkpt>
      <trkpt lat="44.51261" lon="6.70637">
        <ele>2304.1999511719</ele>
        <time>2022-03-10T12:30:59.000Z</time>
      </trkpt>
      <trkpt lat="44.51264" lon="6.70638">
        <ele>2302.3999023438</ele>
        <time>2022-03-10T12:31:00.000Z</time>
      </trkpt>
      <trkpt lat="44.51267" lon="6.70639">
        <ele>2301.1999511719</ele>
        <time>2022-03-10T12:31:01.000Z</time>
      </trkpt>
      <trkpt lat="44.5127" lon="6.70638">
        <ele>2300.3999023438</ele>
        <time>2022-03-10T12:31:02.000Z</time>
      </trkpt>
      <trkpt lat="44.51273" lon="6.70637">
        <ele>2298.3999023438</ele>
        <time>2022-03-10T12:31:03.000Z</time>
      </trkpt>
      <trkpt lat="44.51277" lon="6.70637">
        <ele>2296.8000488281</ele>
        <time>2022-03-10T12:31:04.000Z</time>
      </trkpt>
      <trkpt lat="44.5128" lon="6.70635">
        <ele>2294.8000488281</ele>
        <time>2022-03-10T12:31:05.000Z</time>
      </trkpt>
      <trkpt lat="44.51283" lon="6.70634">
        <ele>2293.6000976562</ele>
        <time>2022-03-10T12:31:06.000Z</time>
      </trkpt>
      <trkpt lat="44.51286" lon="6.70633">
        <ele>2291.8000488281</ele>
        <time>2022-03-10T12:31:07.000Z</time>
      </trkpt>
      <trkpt lat="44.5129" lon="6.70632">
        <ele>2290.1999511719</ele>
        <time>2022-03-10T12:31:08.000Z</time>
      </trkpt>
      <trkpt lat="44.51293" lon="6.70631">
        <ele>2288.8000488281</ele>
        <time>2022-03-10T12:31:09.000Z</time>
      </trkpt>
      <trkpt lat="44.51296" lon="6.70629">
        <ele>2286.8000488281</ele>
        <time>2022-03-10T12:31:10.000Z</time>
      </trkpt>
      <trkpt lat="44.51297" lon="6.70626">
        <ele>2285</ele>
        <time>2022-03-10T12:31:11.000Z</time>
      </trkpt>
      <trkpt lat="44.51298" lon="6.70624">
        <ele>2283</ele>
        <time>2022-03-10T12:31:12.000Z</time>
      </trkpt>
      <trkpt lat="44.51299" lon="6.70622">
        <ele>2281</ele>
        <time>2022-03-10T12:31:13.000Z</time>
      </trkpt>
      <trkpt lat="44.51298" lon="6.70621">
        <ele>2279.3999023438</ele>
        <time>2022-03-10T12:31:15.000Z</time>
      </trkpt>
      <trkpt lat="44.51298" lon="6.7062">
        <ele>2279</ele>
        <time>2022-03-10T12:31:16.000Z</time>
      </trkpt>
      <trkpt lat="44.51297" lon="6.70617">
        <ele>2278.6000976562</ele>
        <time>2022-03-10T12:31:27.000Z</time>
      </trkpt>
      <trkpt lat="44.51301" lon="6.70617">
        <ele>2278.8000488281</ele>
        <time>2022-03-10T12:32:01.000Z</time>
      </trkpt>
      <trkpt lat="44.51305" lon="6.70614">
        <ele>2278.1999511719</ele>
        <time>2022-03-10T12:33:08.000Z</time>
      </trkpt>
      <trkpt lat="44.51308" lon="6.70608">
        <ele>2276.1999511719</ele>
        <time>2022-03-10T12:33:10.000Z</time>
      </trkpt>
      <trkpt lat="44.51309" lon="6.70604">
        <ele>2275</ele>
        <time>2022-03-10T12:33:11.000Z</time>
      </trkpt>
      <trkpt lat="44.5131" lon="6.706">
        <ele>2273.3999023438</ele>
        <time>2022-03-10T12:33:12.000Z</time>
      </trkpt>
      <trkpt lat="44.51312" lon="6.70597">
        <ele>2271.8000488281</ele>
        <time>2022-03-10T12:33:13.000Z</time>
      </trkpt>
      <trkpt lat="44.51316" lon="6.70598">
        <ele>2270</ele>
        <time>2022-03-10T12:33:15.000Z</time>
      </trkpt>
      <trkpt lat="44.51319" lon="6.70595">
        <ele>2267.8000488281</ele>
        <time>2022-03-10T12:33:17.000Z</time>
      </trkpt>
      <trkpt lat="44.5132" lon="6.70592">
        <ele>2266.8000488281</ele>
        <time>2022-03-10T12:33:18.000Z</time>
      </trkpt>
      <trkpt lat="44.51321" lon="6.70589">
        <ele>2265.6000976562</ele>
        <time>2022-03-10T12:33:19.000Z</time>
      </trkpt>
      <trkpt lat="44.51323" lon="6.70588">
        <ele>2264.1999511719</ele>
        <time>2022-03-10T12:33:20.000Z</time>
      </trkpt>
      <trkpt lat="44.51328" lon="6.70587">
        <ele>2262.8000488281</ele>
        <time>2022-03-10T12:33:22.000Z</time>
      </trkpt>
      <trkpt lat="44.5133" lon="6.70585">
        <ele>2261.6000976562</ele>
        <time>2022-03-10T12:33:23.000Z</time>
      </trkpt>
      <trkpt lat="44.51333" lon="6.70586">
        <ele>2260.1999511719</ele>
        <time>2022-03-10T12:33:24.000Z</time>
      </trkpt>
      <trkpt lat="44.51336" lon="6.70587">
        <ele>2258.1999511719</ele>
        <time>2022-03-10T12:33:25.000Z</time>
      </trkpt>
      <trkpt lat="44.51338" lon="6.70589">
        <ele>2256.8000488281</ele>
        <time>2022-03-10T12:33:26.000Z</time>
      </trkpt>
      <trkpt lat="44.51339" lon="6.7059">
        <ele>2255.1999511719</ele>
        <time>2022-03-10T12:33:27.000Z</time>
      </trkpt>
      <trkpt lat="44.51341" lon="6.70588">
        <ele>2254.1999511719</ele>
        <time>2022-03-10T12:33:28.000Z</time>
      </trkpt>
      <trkpt lat="44.51341" lon="6.70587">
        <ele>2252.6000976562</ele>
        <time>2022-03-10T12:33:29.000Z</time>
      </trkpt>
      <trkpt lat="44.51341" lon="6.70585">
        <ele>2251.3999023438</ele>
        <time>2022-03-10T12:33:30.000Z</time>
      </trkpt>
      <trkpt lat="44.51343" lon="6.70583">
        <ele>2250.6000976562</ele>
        <time>2022-03-10T12:33:31.000Z</time>
      </trkpt>
      <trkpt lat="44.51345" lon="6.70582">
        <ele>2249.8000488281</ele>
        <time>2022-03-10T12:33:32.000Z</time>
      </trkpt>
      <trkpt lat="44.51346" lon="6.70583">
        <ele>2249.1999511719</ele>
        <time>2022-03-10T12:33:33.000Z</time>
      </trkpt>
      <trkpt lat="44.51348" lon="6.70583">
        <ele>2248.6000976562</ele>
        <time>2022-03-10T12:33:34.000Z</time>
      </trkpt>
      <trkpt lat="44.51349" lon="6.70582">
        <ele>2247.3999023438</ele>
        <time>2022-03-10T12:33:35.000Z</time>
      </trkpt>
      <trkpt lat="44.5135" lon="6.7058">
        <ele>2245.1999511719</ele>
        <time>2022-03-10T12:33:37.000Z</time>
      </trkpt>
      <trkpt lat="44.51349" lon="6.7058">
        <ele>2243.6000976562</ele>
        <time>2022-03-10T12:33:38.000Z</time>
      </trkpt>
      <trkpt lat="44.5135" lon="6.70578">
        <ele>2242.1999511719</ele>
        <time>2022-03-10T12:33:40.000Z</time>
      </trkpt>
      <trkpt lat="44.51351" lon="6.70578">
        <ele>2242</ele>
        <time>2022-03-10T12:33:41.000Z</time>
      </trkpt>
      <trkpt lat="44.51355" lon="6.70579">
        <ele>2240.6000976562</ele>
        <time>2022-03-10T12:33:44.000Z</time>
      </trkpt>
      <trkpt lat="44.51356" lon="6.70577">
        <ele>2239.6000976562</ele>
        <time>2022-03-10T12:33:46.000Z</time>
      </trkpt>
      <trkpt lat="44.51357" lon="6.70577">
        <ele>2238.3999023438</ele>
        <time>2022-03-10T12:33:47.000Z</time>
      </trkpt>
      <trkpt lat="44.51356" lon="6.70576">
        <ele>2237.3999023438</ele>
        <time>2022-03-10T12:33:48.000Z</time>
      </trkpt>
      <trkpt lat="44.51357" lon="6.70575">
        <ele>2236.3999023438</ele>
        <time>2022-03-10T12:33:50.000Z</time>
      </trkpt>
      <trkpt lat="44.51359" lon="6.70572">
        <ele>2236</ele>
        <time>2022-03-10T12:33:52.000Z</time>
      </trkpt>
      <trkpt lat="44.5136" lon="6.70568">
        <ele>2235</ele>
        <time>2022-03-10T12:33:55.000Z</time>
      </trkpt>
      <trkpt lat="44.5136" lon="6.70567">
        <ele>2233.8000488281</ele>
        <time>2022-03-10T12:33:57.000Z</time>
      </trkpt>
      <trkpt lat="44.51363" lon="6.70568">
        <ele>2233.6000976562</ele>
        <time>2022-03-10T12:33:58.000Z</time>
      </trkpt>
      <trkpt lat="44.51366" lon="6.70571">
        <ele>2232.3999023438</ele>
        <time>2022-03-10T12:34:01.000Z</time>
      </trkpt>
      <trkpt lat="44.51366" lon="6.70572">
        <ele>2231.6000976562</ele>
        <time>2022-03-10T12:34:02.000Z</time>
      </trkpt>
      <trkpt lat="44.51366" lon="6.70571">
        <ele>2231.1999511719</ele>
        <time>2022-03-10T12:34:03.000Z</time>
      </trkpt>
      <trkpt lat="44.51368" lon="6.70571">
        <ele>2230.3999023438</ele>
        <time>2022-03-10T12:34:12.000Z</time>
      </trkpt>
      <trkpt lat="44.5137" lon="6.70576">
        <ele>2230</ele>
        <time>2022-03-10T12:34:14.000Z</time>
      </trkpt>
      <trkpt lat="44.51371" lon="6.70576">
        <ele>2229.6000976562</ele>
        <time>2022-03-10T12:34:15.000Z</time>
      </trkpt>
      <trkpt lat="44.51372" lon="6.70578">
        <ele>2228.3999023438</ele>
        <time>2022-03-10T12:34:17.000Z</time>
      </trkpt>
      <trkpt lat="44.51372" lon="6.70577">
        <ele>2227.1999511719</ele>
        <time>2022-03-10T12:34:18.000Z</time>
      </trkpt>
      <trkpt lat="44.51372" lon="6.70577">
        <ele>2225.6000976562</ele>
        <time>2022-03-10T12:34:20.000Z</time>
      </trkpt>
      <trkpt lat="44.51372" lon="6.70576">
        <ele>2224.6000976562</ele>
        <time>2022-03-10T12:34:24.000Z</time>
      </trkpt>
      <trkpt lat="44.51372" lon="6.70577">
        <ele>2224.6000976562</ele>
        <time>2022-03-10T12:34:25.000Z</time>
      </trkpt>
      <trkpt lat="44.51375" lon="6.70575">
        <ele>2224.3999023438</ele>
        <time>2022-03-10T12:34:29.000Z</time>
      </trkpt>
      <trkpt lat="44.51377" lon="6.70575">
        <ele>2224.1999511719</ele>
        <time>2022-03-10T12:34:30.000Z</time>
      </trkpt>
      <trkpt lat="44.51378" lon="6.70576">
        <ele>2223.3999023438</ele>
        <time>2022-03-10T12:34:32.000Z</time>
      </trkpt>
      <trkpt lat="44.51379" lon="6.70576">
        <ele>2222</ele>
        <time>2022-03-10T12:34:34.000Z</time>
      </trkpt>
      <trkpt lat="44.51379" lon="6.70577">
        <ele>2221.6000976562</ele>
        <time>2022-03-10T12:34:35.000Z</time>
      </trkpt>
      <trkpt lat="44.5138" lon="6.70578">
        <ele>2220.8000488281</ele>
        <time>2022-03-10T12:34:38.000Z</time>
      </trkpt>
      <trkpt lat="44.51381" lon="6.70582">
        <ele>2219.3999023438</ele>
        <time>2022-03-10T12:34:44.000Z</time>
      </trkpt>
      <trkpt lat="44.51381" lon="6.70585">
        <ele>2218.6000976562</ele>
        <time>2022-03-10T12:34:51.000Z</time>
      </trkpt>
      <trkpt lat="44.51381" lon="6.70586">
        <ele>2218.3999023438</ele>
        <time>2022-03-10T12:34:52.000Z</time>
      </trkpt>
      <trkpt lat="44.5138" lon="6.70587">
        <ele>2217.3999023438</ele>
        <time>2022-03-10T12:35:01.000Z</time>
      </trkpt>
      <trkpt lat="44.5138" lon="6.70587">
        <ele>2217.1999511719</ele>
        <time>2022-03-10T12:35:02.000Z</time>
      </trkpt>
      <trkpt lat="44.51381" lon="6.70587">
        <ele>2216.3999023438</ele>
        <time>2022-03-10T12:35:07.000Z</time>
      </trkpt>
      <trkpt lat="44.51381" lon="6.70587">
        <ele>2215.1999511719</ele>
        <time>2022-03-10T12:35:10.000Z</time>
      </trkpt>
      <trkpt lat="44.51381" lon="6.70588">
        <ele>2214.1999511719</ele>
        <time>2022-03-10T12:35:15.000Z</time>
      </trkpt>
      <trkpt lat="44.51383" lon="6.70591">
        <ele>2213.1999511719</ele>
        <time>2022-03-10T12:35:23.000Z</time>
      </trkpt>
      <trkpt lat="44.51383" lon="6.70591">
        <ele>2211.8000488281</ele>
        <time>2022-03-10T12:35:27.000Z</time>
      </trkpt>
      <trkpt lat="44.51383" lon="6.70592">
        <ele>2210.8000488281</ele>
        <time>2022-03-10T12:35:31.000Z</time>
      </trkpt>
      <trkpt lat="44.51384" lon="6.70592">
        <ele>2209.3999023438</ele>
        <time>2022-03-10T12:35:34.000Z</time>
      </trkpt>
      <trkpt lat="44.51385" lon="6.70592">
        <ele>2208</ele>
        <time>2022-03-10T12:35:36.000Z</time>
      </trkpt>
      <trkpt lat="44.51386" lon="6.70592">
        <ele>2206.8000488281</ele>
        <time>2022-03-10T12:35:40.000Z</time>
      </trkpt>
      <trkpt lat="44.51389" lon="6.70592">
        <ele>2205.8000488281</ele>
        <time>2022-03-10T12:35:47.000Z</time>
      </trkpt>
      <trkpt lat="44.5139" lon="6.70592">
        <ele>2204.8000488281</ele>
        <time>2022-03-10T12:35:57.000Z</time>
      </trkpt>
      <trkpt lat="44.51392" lon="6.70592">
        <ele>2203.8000488281</ele>
        <time>2022-03-10T12:36:02.000Z</time>
      </trkpt>
      <trkpt lat="44.51392" lon="6.70592">
        <ele>2203.6000976562</ele>
        <time>2022-03-10T12:36:03.000Z</time>
      </trkpt>
      <trkpt lat="44.51392" lon="6.70592">
        <ele>2202.6000976562</ele>
        <time>2022-03-10T12:36:06.000Z</time>
      </trkpt>
      <trkpt lat="44.51394" lon="6.70592">
        <ele>2201.6000976562</ele>
        <time>2022-03-10T12:36:10.000Z</time>
      </trkpt>
      <trkpt lat="44.51394" lon="6.70592">
        <ele>2201.3999023438</ele>
        <time>2022-03-10T12:36:11.000Z</time>
      </trkpt>
      <trkpt lat="44.51395" lon="6.70592">
        <ele>2200.3999023438</ele>
        <time>2022-03-10T12:36:16.000Z</time>
      </trkpt>
      <trkpt lat="44.51397" lon="6.70591">
        <ele>2199.3999023438</ele>
        <time>2022-03-10T12:36:21.000Z</time>
      </trkpt>
      <trkpt lat="44.51398" lon="6.70591">
        <ele>2199</ele>
        <time>2022-03-10T12:36:23.000Z</time>
      </trkpt>
      <trkpt lat="44.514" lon="6.70591">
        <ele>2198.1999511719</ele>
        <time>2022-03-10T12:36:26.000Z</time>
      </trkpt>
      <trkpt lat="44.51401" lon="6.70591">
        <ele>2197.8000488281</ele>
        <time>2022-03-10T12:36:27.000Z</time>
      </trkpt>
      <trkpt lat="44.51403" lon="6.70592">
        <ele>2196.8000488281</ele>
        <time>2022-03-10T12:36:30.000Z</time>
      </trkpt>
      <trkpt lat="44.51406" lon="6.70591">
        <ele>2195.6000976562</ele>
        <time>2022-03-10T12:36:35.000Z</time>
      </trkpt>
      <trkpt lat="44.51407" lon="6.70591">
        <ele>2194.3999023438</ele>
        <time>2022-03-10T12:36:40.000Z</time>
      </trkpt>
      <trkpt lat="44.51407" lon="6.70591">
        <ele>2194.3999023438</ele>
        <time>2022-03-10T12:36:41.000Z</time>
      </trkpt>
      <trkpt lat="44.51408" lon="6.70592">
        <ele>2193.3999023438</ele>
        <time>2022-03-10T12:36:45.000Z</time>
      </trkpt>
      <trkpt lat="44.51409" lon="6.70594">
        <ele>2192.1999511719</ele>
        <time>2022-03-10T12:36:49.000Z</time>
      </trkpt>
      <trkpt lat="44.5141" lon="6.70593">
        <ele>2192</ele>
        <time>2022-03-10T12:36:50.000Z</time>
      </trkpt>
      <trkpt lat="44.5141" lon="6.70593">
        <ele>2191.3999023438</ele>
        <time>2022-03-10T12:36:52.000Z</time>
      </trkpt>
      <trkpt lat="44.5141" lon="6.70594">
        <ele>2191</ele>
        <time>2022-03-10T12:36:53.000Z</time>
      </trkpt>
      <trkpt lat="44.51413" lon="6.70595">
        <ele>2190</ele>
        <time>2022-03-10T12:36:58.000Z</time>
      </trkpt>
      <trkpt lat="44.51414" lon="6.70596">
        <ele>2188.8000488281</ele>
        <time>2022-03-10T12:37:01.000Z</time>
      </trkpt>
      <trkpt lat="44.51414" lon="6.70598">
        <ele>2188.1999511719</ele>
        <time>2022-03-10T12:37:03.000Z</time>
      </trkpt>
      <trkpt lat="44.51414" lon="6.70599">
        <ele>2187.8000488281</ele>
        <time>2022-03-10T12:37:04.000Z</time>
      </trkpt>
      <trkpt lat="44.51415" lon="6.70601">
        <ele>2186.6000976562</ele>
        <time>2022-03-10T12:37:07.000Z</time>
      </trkpt>
      <trkpt lat="44.51415" lon="6.70601">
        <ele>2186</ele>
        <time>2022-03-10T12:37:09.000Z</time>
      </trkpt>
      <trkpt lat="44.51415" lon="6.70602">
        <ele>2185.6000976562</ele>
        <time>2022-03-10T12:37:11.000Z</time>
      </trkpt>
      <trkpt lat="44.51416" lon="6.70601">
        <ele>2185.1999511719</ele>
        <time>2022-03-10T12:37:15.000Z</time>
      </trkpt>
      <trkpt lat="44.51417" lon="6.706">
        <ele>2185.1999511719</ele>
        <time>2022-03-10T12:37:16.000Z</time>
      </trkpt>
      <trkpt lat="44.51418" lon="6.70598">
        <ele>2184.1999511719</ele>
        <time>2022-03-10T12:37:18.000Z</time>
      </trkpt>
      <trkpt lat="44.51418" lon="6.70599">
        <ele>2183.3999023438</ele>
        <time>2022-03-10T12:37:19.000Z</time>
      </trkpt>
      <trkpt lat="44.51418" lon="6.70599">
        <ele>2182.8000488281</ele>
        <time>2022-03-10T12:37:20.000Z</time>
      </trkpt>
      <trkpt lat="44.51421" lon="6.70601">
        <ele>2182</ele>
        <time>2022-03-10T12:37:24.000Z</time>
      </trkpt>
      <trkpt lat="44.51422" lon="6.70603">
        <ele>2181.8000488281</ele>
        <time>2022-03-10T12:37:25.000Z</time>
      </trkpt>
      <trkpt lat="44.51423" lon="6.70605">
        <ele>2180.6000976562</ele>
        <time>2022-03-10T12:37:27.000Z</time>
      </trkpt>
      <trkpt lat="44.51424" lon="6.70606">
        <ele>2180</ele>
        <time>2022-03-10T12:37:28.000Z</time>
      </trkpt>
      <trkpt lat="44.51425" lon="6.70605">
        <ele>2179.1999511719</ele>
        <time>2022-03-10T12:37:29.000Z</time>
      </trkpt>
      <trkpt lat="44.51427" lon="6.70604">
        <ele>2178.3999023438</ele>
        <time>2022-03-10T12:37:30.000Z</time>
      </trkpt>
      <trkpt lat="44.51427" lon="6.70603">
        <ele>2177</ele>
        <time>2022-03-10T12:37:31.000Z</time>
      </trkpt>
      <trkpt lat="44.51427" lon="6.70603">
        <ele>2175.8000488281</ele>
        <time>2022-03-10T12:37:32.000Z</time>
      </trkpt>
      <trkpt lat="44.51428" lon="6.70602">
        <ele>2174.8000488281</ele>
        <time>2022-03-10T12:37:34.000Z</time>
      </trkpt>
      <trkpt lat="44.51427" lon="6.70603">
        <ele>2174.3999023438</ele>
        <time>2022-03-10T12:37:36.000Z</time>
      </trkpt>
      <trkpt lat="44.51426" lon="6.70604">
        <ele>2173.8000488281</ele>
        <time>2022-03-10T12:37:41.000Z</time>
      </trkpt>
      <trkpt lat="44.51426" lon="6.70606">
        <ele>2173.8000488281</ele>
        <time>2022-03-10T12:37:45.000Z</time>
      </trkpt>
      <trkpt lat="44.51428" lon="6.70606">
        <ele>2173</ele>
        <time>2022-03-10T12:38:05.000Z</time>
      </trkpt>
      <trkpt lat="44.51428" lon="6.70606">
        <ele>2172.8000488281</ele>
        <time>2022-03-10T12:38:08.000Z</time>
      </trkpt>
      <trkpt lat="44.51428" lon="6.70606">
        <ele>2172.3999023438</ele>
        <time>2022-03-10T12:38:11.000Z</time>
      </trkpt>
      <trkpt lat="44.51431" lon="6.70612">
        <ele>2171.1999511719</ele>
        <time>2022-03-10T12:38:14.000Z</time>
      </trkpt>
      <trkpt lat="44.51431" lon="6.70614">
        <ele>2170.1999511719</ele>
        <time>2022-03-10T12:38:16.000Z</time>
      </trkpt>
      <trkpt lat="44.51433" lon="6.70615">
        <ele>2169.3999023438</ele>
        <time>2022-03-10T12:38:19.000Z</time>
      </trkpt>
      <trkpt lat="44.51434" lon="6.70617">
        <ele>2169</ele>
        <time>2022-03-10T12:38:22.000Z</time>
      </trkpt>
      <trkpt lat="44.51436" lon="6.7062">
        <ele>2168.6000976562</ele>
        <time>2022-03-10T12:38:26.000Z</time>
      </trkpt>
      <trkpt lat="44.51439" lon="6.70623">
        <ele>2167.8000488281</ele>
        <time>2022-03-10T12:38:28.000Z</time>
      </trkpt>
      <trkpt lat="44.51443" lon="6.70627">
        <ele>2166.8000488281</ele>
        <time>2022-03-10T12:38:30.000Z</time>
      </trkpt>
      <trkpt lat="44.51444" lon="6.7063">
        <ele>2166.1999511719</ele>
        <time>2022-03-10T12:38:31.000Z</time>
      </trkpt>
      <trkpt lat="44.51445" lon="6.70631">
        <ele>2164.3999023438</ele>
        <time>2022-03-10T12:38:33.000Z</time>
      </trkpt>
      <trkpt lat="44.51445" lon="6.70631">
        <ele>2163.8000488281</ele>
        <time>2022-03-10T12:38:34.000Z</time>
      </trkpt>
      <trkpt lat="44.51445" lon="6.7063">
        <ele>2163.1999511719</ele>
        <time>2022-03-10T12:38:36.000Z</time>
      </trkpt>
      <trkpt lat="44.51448" lon="6.7063">
        <ele>2163</ele>
        <time>2022-03-10T12:38:39.000Z</time>
      </trkpt>
      <trkpt lat="44.51449" lon="6.70629">
        <ele>2162.6000976562</ele>
        <time>2022-03-10T12:38:40.000Z</time>
      </trkpt>
      <trkpt lat="44.5145" lon="6.7063">
        <ele>2161.8000488281</ele>
        <time>2022-03-10T12:38:41.000Z</time>
      </trkpt>
      <trkpt lat="44.5145" lon="6.7063">
        <ele>2160.6000976562</ele>
        <time>2022-03-10T12:38:42.000Z</time>
      </trkpt>
      <trkpt lat="44.5145" lon="6.7063">
        <ele>2159.6000976562</ele>
        <time>2022-03-10T12:38:44.000Z</time>
      </trkpt>
      <trkpt lat="44.5145" lon="6.7063">
        <ele>2159.3999023438</ele>
        <time>2022-03-10T12:38:45.000Z</time>
      </trkpt>
      <trkpt lat="44.5145" lon="6.70632">
        <ele>2159</ele>
        <time>2022-03-10T12:38:51.000Z</time>
      </trkpt>
      <trkpt lat="44.51452" lon="6.7063">
        <ele>2159</ele>
        <time>2022-03-10T12:39:00.000Z</time>
      </trkpt>
      <trkpt lat="44.51452" lon="6.7063">
        <ele>2159</ele>
        <time>2022-03-10T12:39:02.000Z</time>
      </trkpt>
      <trkpt lat="44.51451" lon="6.7063">
        <ele>2158.8000488281</ele>
        <time>2022-03-10T12:39:26.000Z</time>
      </trkpt>
      <trkpt lat="44.51451" lon="6.70629">
        <ele>2158.6000976562</ele>
        <time>2022-03-10T12:39:47.000Z</time>
      </trkpt>
      <trkpt lat="44.51452" lon="6.70629">
        <ele>2158.6000976562</ele>
        <time>2022-03-10T12:40:08.000Z</time>
      </trkpt>
      <trkpt lat="44.51458" lon="6.70635">
        <ele>2157.8000488281</ele>
        <time>2022-03-10T12:40:11.000Z</time>
      </trkpt>
      <trkpt lat="44.51463" lon="6.70637">
        <ele>2157.3999023438</ele>
        <time>2022-03-10T12:40:13.000Z</time>
      </trkpt>
      <trkpt lat="44.51467" lon="6.70638">
        <ele>2156.3999023438</ele>
        <time>2022-03-10T12:40:16.000Z</time>
      </trkpt>
      <trkpt lat="44.51467" lon="6.70635">
        <ele>2155.6000976562</ele>
        <time>2022-03-10T12:40:21.000Z</time>
      </trkpt>
      <trkpt lat="44.51469" lon="6.70632">
        <ele>2155.1999511719</ele>
        <time>2022-03-10T12:40:27.000Z</time>
      </trkpt>
      <trkpt lat="44.51469" lon="6.70633">
        <ele>2155.1999511719</ele>
        <time>2022-03-10T12:40:29.000Z</time>
      </trkpt>
      <trkpt lat="44.5147" lon="6.70637">
        <ele>2154.6000976562</ele>
        <time>2022-03-10T12:40:37.000Z</time>
      </trkpt>
      <trkpt lat="44.5147" lon="6.70636">
        <ele>2154.6000976562</ele>
        <time>2022-03-10T12:40:54.000Z</time>
      </trkpt>
      <trkpt lat="44.51469" lon="6.70645">
        <ele>2154.3999023438</ele>
        <time>2022-03-10T12:41:26.000Z</time>
      </trkpt>
      <trkpt lat="44.51469" lon="6.70645">
        <ele>2154.1999511719</ele>
        <time>2022-03-10T12:41:28.000Z</time>
      </trkpt>
      <trkpt lat="44.51473" lon="6.70649">
        <ele>2153.8000488281</ele>
        <time>2022-03-10T12:42:05.000Z</time>
      </trkpt>
      <trkpt lat="44.51471" lon="6.70647">
        <ele>2154.3999023438</ele>
        <time>2022-03-10T12:45:58.000Z</time>
      </trkpt>
      <trkpt lat="44.51471" lon="6.70648">
        <ele>2154.3999023438</ele>
        <time>2022-03-10T12:46:44.000Z</time>
      </trkpt>
      <trkpt lat="44.51472" lon="6.70655">
        <ele>2154.1999511719</ele>
        <time>2022-03-10T12:46:46.000Z</time>
      </trkpt>
      <trkpt lat="44.51477" lon="6.70666">
        <ele>2152.3999023438</ele>
        <time>2022-03-10T12:46:49.000Z</time>
      </trkpt>
      <trkpt lat="44.51479" lon="6.7067">
        <ele>2151</ele>
        <time>2022-03-10T12:46:51.000Z</time>
      </trkpt>
      <trkpt lat="44.5148" lon="6.70671">
        <ele>2149.6000976562</ele>
        <time>2022-03-10T12:46:52.000Z</time>
      </trkpt>
      <trkpt lat="44.51482" lon="6.70673">
        <ele>2147.8000488281</ele>
        <time>2022-03-10T12:46:53.000Z</time>
      </trkpt>
      <trkpt lat="44.51484" lon="6.70672">
        <ele>2146.8000488281</ele>
        <time>2022-03-10T12:46:54.000Z</time>
      </trkpt>
      <trkpt lat="44.51486" lon="6.70671">
        <ele>2145.1999511719</ele>
        <time>2022-03-10T12:46:55.000Z</time>
      </trkpt>
      <trkpt lat="44.5149" lon="6.70669">
        <ele>2143.6000976562</ele>
        <time>2022-03-10T12:46:56.000Z</time>
      </trkpt>
      <trkpt lat="44.51494" lon="6.7067">
        <ele>2141.8000488281</ele>
        <time>2022-03-10T12:46:57.000Z</time>
      </trkpt>
      <trkpt lat="44.51496" lon="6.70671">
        <ele>2140</ele>
        <time>2022-03-10T12:46:58.000Z</time>
      </trkpt>
      <trkpt lat="44.51498" lon="6.70672">
        <ele>2138.1999511719</ele>
        <time>2022-03-10T12:46:59.000Z</time>
      </trkpt>
      <trkpt lat="44.51499" lon="6.7067">
        <ele>2136.8000488281</ele>
        <time>2022-03-10T12:47:00.000Z</time>
      </trkpt>
      <trkpt lat="44.51501" lon="6.70668">
        <ele>2135.6000976562</ele>
        <time>2022-03-10T12:47:01.000Z</time>
      </trkpt>
      <trkpt lat="44.51504" lon="6.70666">
        <ele>2134.1999511719</ele>
        <time>2022-03-10T12:47:02.000Z</time>
      </trkpt>
      <trkpt lat="44.51506" lon="6.70666">
        <ele>2133.1999511719</ele>
        <time>2022-03-10T12:47:03.000Z</time>
      </trkpt>
      <trkpt lat="44.51509" lon="6.70665">
        <ele>2131.3999023438</ele>
        <time>2022-03-10T12:47:04.000Z</time>
      </trkpt>
      <trkpt lat="44.51512" lon="6.70666">
        <ele>2130.3999023438</ele>
        <time>2022-03-10T12:47:05.000Z</time>
      </trkpt>
      <trkpt lat="44.51514" lon="6.70667">
        <ele>2129</ele>
        <time>2022-03-10T12:47:06.000Z</time>
      </trkpt>
      <trkpt lat="44.51515" lon="6.70667">
        <ele>2127.6000976562</ele>
        <time>2022-03-10T12:47:07.000Z</time>
      </trkpt>
      <trkpt lat="44.51517" lon="6.70667">
        <ele>2126</ele>
        <time>2022-03-10T12:47:08.000Z</time>
      </trkpt>
      <trkpt lat="44.51518" lon="6.70668">
        <ele>2125</ele>
        <time>2022-03-10T12:47:09.000Z</time>
      </trkpt>
      <trkpt lat="44.51519" lon="6.70669">
        <ele>2123.6000976562</ele>
        <time>2022-03-10T12:47:10.000Z</time>
      </trkpt>
      <trkpt lat="44.5152" lon="6.7067">
        <ele>2122.1999511719</ele>
        <time>2022-03-10T12:47:11.000Z</time>
      </trkpt>
      <trkpt lat="44.51522" lon="6.70672">
        <ele>2121</ele>
        <time>2022-03-10T12:47:12.000Z</time>
      </trkpt>
      <trkpt lat="44.51523" lon="6.70675">
        <ele>2119.8000488281</ele>
        <time>2022-03-10T12:47:13.000Z</time>
      </trkpt>
      <trkpt lat="44.51528" lon="6.70683">
        <ele>2118.3999023438</ele>
        <time>2022-03-10T12:47:15.000Z</time>
      </trkpt>
      <trkpt lat="44.51529" lon="6.70685">
        <ele>2117.6000976562</ele>
        <time>2022-03-10T12:47:16.000Z</time>
      </trkpt>
      <trkpt lat="44.51529" lon="6.70685">
        <ele>2116.8000488281</ele>
        <time>2022-03-10T12:47:17.000Z</time>
      </trkpt>
      <trkpt lat="44.51534" lon="6.70687">
        <ele>2115.8000488281</ele>
        <time>2022-03-10T12:47:20.000Z</time>
      </trkpt>
      <trkpt lat="44.51535" lon="6.70688">
        <ele>2115.6000976562</ele>
        <time>2022-03-10T12:47:21.000Z</time>
      </trkpt>
      <trkpt lat="44.51537" lon="6.70687">
        <ele>2115.1999511719</ele>
        <time>2022-03-10T12:47:22.000Z</time>
      </trkpt>
      <trkpt lat="44.51539" lon="6.70687">
        <ele>2114.6000976562</ele>
        <time>2022-03-10T12:47:23.000Z</time>
      </trkpt>
      <trkpt lat="44.51541" lon="6.70685">
        <ele>2113</ele>
        <time>2022-03-10T12:47:24.000Z</time>
      </trkpt>
      <trkpt lat="44.51544" lon="6.70683">
        <ele>2111.3999023438</ele>
        <time>2022-03-10T12:47:25.000Z</time>
      </trkpt>
      <trkpt lat="44.51547" lon="6.70682">
        <ele>2110.1999511719</ele>
        <time>2022-03-10T12:47:26.000Z</time>
      </trkpt>
      <trkpt lat="44.5155" lon="6.70683">
        <ele>2108.3999023438</ele>
        <time>2022-03-10T12:47:27.000Z</time>
      </trkpt>
      <trkpt lat="44.51553" lon="6.70682">
        <ele>2107</ele>
        <time>2022-03-10T12:47:28.000Z</time>
      </trkpt>
      <trkpt lat="44.51557" lon="6.7068">
        <ele>2105</ele>
        <time>2022-03-10T12:47:29.000Z</time>
      </trkpt>
      <trkpt lat="44.51561" lon="6.7068">
        <ele>2103.3999023438</ele>
        <time>2022-03-10T12:47:30.000Z</time>
      </trkpt>
      <trkpt lat="44.51565" lon="6.70681">
        <ele>2101.3999023438</ele>
        <time>2022-03-10T12:47:31.000Z</time>
      </trkpt>
      <trkpt lat="44.51567" lon="6.70681">
        <ele>2099.8000488281</ele>
        <time>2022-03-10T12:47:32.000Z</time>
      </trkpt>
      <trkpt lat="44.51568" lon="6.7068">
        <ele>2098.3999023438</ele>
        <time>2022-03-10T12:47:33.000Z</time>
      </trkpt>
      <trkpt lat="44.51569" lon="6.70679">
        <ele>2096.8000488281</ele>
        <time>2022-03-10T12:47:34.000Z</time>
      </trkpt>
      <trkpt lat="44.5157" lon="6.70679">
        <ele>2095</ele>
        <time>2022-03-10T12:47:35.000Z</time>
      </trkpt>
      <trkpt lat="44.51572" lon="6.70676">
        <ele>2093.3999023438</ele>
        <time>2022-03-10T12:47:36.000Z</time>
      </trkpt>
      <trkpt lat="44.51575" lon="6.70674">
        <ele>2092.3999023438</ele>
        <time>2022-03-10T12:47:37.000Z</time>
      </trkpt>
      <trkpt lat="44.51578" lon="6.70673">
        <ele>2090.6000976562</ele>
        <time>2022-03-10T12:47:38.000Z</time>
      </trkpt>
      <trkpt lat="44.51581" lon="6.70671">
        <ele>2088.3999023438</ele>
        <time>2022-03-10T12:47:39.000Z</time>
      </trkpt>
      <trkpt lat="44.51583" lon="6.70668">
        <ele>2086.6000976562</ele>
        <time>2022-03-10T12:47:40.000Z</time>
      </trkpt>
      <trkpt lat="44.51583" lon="6.70665">
        <ele>2084.8000488281</ele>
        <time>2022-03-10T12:47:41.000Z</time>
      </trkpt>
      <trkpt lat="44.51584" lon="6.70664">
        <ele>2083.3999023438</ele>
        <time>2022-03-10T12:47:42.000Z</time>
      </trkpt>
      <trkpt lat="44.51583" lon="6.70662">
        <ele>2082</ele>
        <time>2022-03-10T12:47:44.000Z</time>
      </trkpt>
      <trkpt lat="44.51584" lon="6.70662">
        <ele>2081.6000976562</ele>
        <time>2022-03-10T12:47:45.000Z</time>
      </trkpt>
      <trkpt lat="44.51583" lon="6.7066">
        <ele>2081.1999511719</ele>
        <time>2022-03-10T12:47:51.000Z</time>
      </trkpt>
      <trkpt lat="44.51586" lon="6.70655">
        <ele>2081.1999511719</ele>
        <time>2022-03-10T12:48:00.000Z</time>
      </trkpt>
      <trkpt lat="44.51589" lon="6.70647">
        <ele>2081</ele>
        <time>2022-03-10T12:48:05.000Z</time>
      </trkpt>
      <trkpt lat="44.5159" lon="6.70644">
        <ele>2080.6000976562</ele>
        <time>2022-03-10T12:48:06.000Z</time>
      </trkpt>
      <trkpt lat="44.51594" lon="6.70637">
        <ele>2079.1999511719</ele>
        <time>2022-03-10T12:48:08.000Z</time>
      </trkpt>
      <trkpt lat="44.51598" lon="6.70637">
        <ele>2077.8000488281</ele>
        <time>2022-03-10T12:48:10.000Z</time>
      </trkpt>
      <trkpt lat="44.516" lon="6.7064">
        <ele>2076.6000976562</ele>
        <time>2022-03-10T12:48:11.000Z</time>
      </trkpt>
      <trkpt lat="44.51603" lon="6.7065">
        <ele>2075.6000976562</ele>
        <time>2022-03-10T12:48:13.000Z</time>
      </trkpt>
      <trkpt lat="44.51605" lon="6.70654">
        <ele>2074.3999023438</ele>
        <time>2022-03-10T12:48:15.000Z</time>
      </trkpt>
      <trkpt lat="44.5161" lon="6.70654">
        <ele>2072.3999023438</ele>
        <time>2022-03-10T12:48:17.000Z</time>
      </trkpt>
      <trkpt lat="44.51614" lon="6.70655">
        <ele>2071.1999511719</ele>
        <time>2022-03-10T12:48:18.000Z</time>
      </trkpt>
      <trkpt lat="44.51617" lon="6.70655">
        <ele>2070</ele>
        <time>2022-03-10T12:48:19.000Z</time>
      </trkpt>
      <trkpt lat="44.51622" lon="6.70652">
        <ele>2068.3999023438</ele>
        <time>2022-03-10T12:48:20.000Z</time>
      </trkpt>
      <trkpt lat="44.51625" lon="6.7065">
        <ele>2067.3999023438</ele>
        <time>2022-03-10T12:48:21.000Z</time>
      </trkpt>
      <trkpt lat="44.51629" lon="6.70649">
        <ele>2065.6000976562</ele>
        <time>2022-03-10T12:48:22.000Z</time>
      </trkpt>
      <trkpt lat="44.51632" lon="6.70647">
        <ele>2063.6000976562</ele>
        <time>2022-03-10T12:48:23.000Z</time>
      </trkpt>
      <trkpt lat="44.51636" lon="6.70645">
        <ele>2062</ele>
        <time>2022-03-10T12:48:24.000Z</time>
      </trkpt>
      <trkpt lat="44.51639" lon="6.70645">
        <ele>2060.1999511719</ele>
        <time>2022-03-10T12:48:25.000Z</time>
      </trkpt>
      <trkpt lat="44.51641" lon="6.70644">
        <ele>2058.1999511719</ele>
        <time>2022-03-10T12:48:26.000Z</time>
      </trkpt>
      <trkpt lat="44.51644" lon="6.70642">
        <ele>2055.8000488281</ele>
        <time>2022-03-10T12:48:27.000Z</time>
      </trkpt>
      <trkpt lat="44.51647" lon="6.70642">
        <ele>2054</ele>
        <time>2022-03-10T12:48:28.000Z</time>
      </trkpt>
      <trkpt lat="44.5165" lon="6.7064">
        <ele>2052</ele>
        <time>2022-03-10T12:48:29.000Z</time>
      </trkpt>
      <trkpt lat="44.51654" lon="6.70639">
        <ele>2050.1999511719</ele>
        <time>2022-03-10T12:48:30.000Z</time>
      </trkpt>
      <trkpt lat="44.51657" lon="6.7064">
        <ele>2049</ele>
        <time>2022-03-10T12:48:31.000Z</time>
      </trkpt>
      <trkpt lat="44.51659" lon="6.7064">
        <ele>2047.1999511719</ele>
        <time>2022-03-10T12:48:32.000Z</time>
      </trkpt>
      <trkpt lat="44.51661" lon="6.70639">
        <ele>2045.8000488281</ele>
        <time>2022-03-10T12:48:33.000Z</time>
      </trkpt>
      <trkpt lat="44.51666" lon="6.70639">
        <ele>2043.1999511719</ele>
        <time>2022-03-10T12:48:35.000Z</time>
      </trkpt>
      <trkpt lat="44.51667" lon="6.7064">
        <ele>2042</ele>
        <time>2022-03-10T12:48:36.000Z</time>
      </trkpt>
      <trkpt lat="44.51669" lon="6.70642">
        <ele>2040.4000244141</ele>
        <time>2022-03-10T12:48:37.000Z</time>
      </trkpt>
      <trkpt lat="44.51671" lon="6.70642">
        <ele>2039</ele>
        <time>2022-03-10T12:48:39.000Z</time>
      </trkpt>
      <trkpt lat="44.51671" lon="6.70641">
        <ele>2038.4000244141</ele>
        <time>2022-03-10T12:48:40.000Z</time>
      </trkpt>
      <trkpt lat="44.51672" lon="6.70639">
        <ele>2036.5999755859</ele>
        <time>2022-03-10T12:48:42.000Z</time>
      </trkpt>
      <trkpt lat="44.51673" lon="6.70638">
        <ele>2033.8000488281</ele>
        <time>2022-03-10T12:48:44.000Z</time>
      </trkpt>
      <trkpt lat="44.51674" lon="6.70638">
        <ele>2032.8000488281</ele>
        <time>2022-03-10T12:48:45.000Z</time>
      </trkpt>
      <trkpt lat="44.51675" lon="6.70634">
        <ele>2031.8000488281</ele>
        <time>2022-03-10T12:48:47.000Z</time>
      </trkpt>
      <trkpt lat="44.51674" lon="6.70632">
        <ele>2031.5999755859</ele>
        <time>2022-03-10T12:48:48.000Z</time>
      </trkpt>
      <trkpt lat="44.51673" lon="6.7063">
        <ele>2030</ele>
        <time>2022-03-10T12:48:50.000Z</time>
      </trkpt>
      <trkpt lat="44.51673" lon="6.70627">
        <ele>2029</ele>
        <time>2022-03-10T12:48:54.000Z</time>
      </trkpt>
      <trkpt lat="44.51664" lon="6.70628">
        <ele>2028.8000488281</ele>
        <time>2022-03-10T12:49:02.000Z</time>
      </trkpt>
      <trkpt lat="44.51668" lon="6.70627">
        <ele>2029</ele>
        <time>2022-03-10T12:49:15.000Z</time>
      </trkpt>
      <trkpt lat="44.5167" lon="6.70625">
        <ele>2029.4000244141</ele>
        <time>2022-03-10T12:49:44.000Z</time>
      </trkpt>
      <trkpt lat="44.51681" lon="6.70617">
        <ele>2029.4000244141</ele>
        <time>2022-03-10T12:49:51.000Z</time>
      </trkpt>
      <trkpt lat="44.51683" lon="6.70615">
        <ele>2029.5999755859</ele>
        <time>2022-03-10T12:49:59.000Z</time>
      </trkpt>
      <trkpt lat="44.5168" lon="6.70617">
        <ele>2029.5999755859</ele>
        <time>2022-03-10T12:50:11.000Z</time>
      </trkpt>
      <trkpt lat="44.51681" lon="6.7062">
        <ele>2029.4000244141</ele>
        <time>2022-03-10T12:50:32.000Z</time>
      </trkpt>
      <trkpt lat="44.51681" lon="6.70619">
        <ele>2028.8000488281</ele>
        <time>2022-03-10T12:50:35.000Z</time>
      </trkpt>
      <trkpt lat="44.51685" lon="6.70616">
        <ele>2028.5999755859</ele>
        <time>2022-03-10T12:50:37.000Z</time>
      </trkpt>
      <trkpt lat="44.51688" lon="6.70615">
        <ele>2028</ele>
        <time>2022-03-10T12:50:38.000Z</time>
      </trkpt>
      <trkpt lat="44.51691" lon="6.70613">
        <ele>2026.4000244141</ele>
        <time>2022-03-10T12:50:39.000Z</time>
      </trkpt>
      <trkpt lat="44.51693" lon="6.70611">
        <ele>2025.4000244141</ele>
        <time>2022-03-10T12:50:40.000Z</time>
      </trkpt>
      <trkpt lat="44.51697" lon="6.70609">
        <ele>2024</ele>
        <time>2022-03-10T12:50:41.000Z</time>
      </trkpt>
      <trkpt lat="44.51701" lon="6.70607">
        <ele>2022</ele>
        <time>2022-03-10T12:50:42.000Z</time>
      </trkpt>
      <trkpt lat="44.51704" lon="6.70606">
        <ele>2020</ele>
        <time>2022-03-10T12:50:43.000Z</time>
      </trkpt>
      <trkpt lat="44.51707" lon="6.70603">
        <ele>2018</ele>
        <time>2022-03-10T12:50:44.000Z</time>
      </trkpt>
      <trkpt lat="44.51711" lon="6.70602">
        <ele>2016.1999511719</ele>
        <time>2022-03-10T12:50:45.000Z</time>
      </trkpt>
      <trkpt lat="44.51714" lon="6.70602">
        <ele>2014.5999755859</ele>
        <time>2022-03-10T12:50:46.000Z</time>
      </trkpt>
      <trkpt lat="44.51717" lon="6.70602">
        <ele>2012.8000488281</ele>
        <time>2022-03-10T12:50:47.000Z</time>
      </trkpt>
      <trkpt lat="44.5172" lon="6.70601">
        <ele>2011</ele>
        <time>2022-03-10T12:50:48.000Z</time>
      </trkpt>
      <trkpt lat="44.51723" lon="6.70602">
        <ele>2009.5999755859</ele>
        <time>2022-03-10T12:50:49.000Z</time>
      </trkpt>
      <trkpt lat="44.51725" lon="6.70603">
        <ele>2008</ele>
        <time>2022-03-10T12:50:50.000Z</time>
      </trkpt>
      <trkpt lat="44.51727" lon="6.70602">
        <ele>2006.5999755859</ele>
        <time>2022-03-10T12:50:51.000Z</time>
      </trkpt>
      <trkpt lat="44.51729" lon="6.70601">
        <ele>2004.8000488281</ele>
        <time>2022-03-10T12:50:52.000Z</time>
      </trkpt>
      <trkpt lat="44.5173" lon="6.70598">
        <ele>2003.8000488281</ele>
        <time>2022-03-10T12:50:53.000Z</time>
      </trkpt>
      <trkpt lat="44.51731" lon="6.70596">
        <ele>2002.4000244141</ele>
        <time>2022-03-10T12:50:54.000Z</time>
      </trkpt>
      <trkpt lat="44.51733" lon="6.70596">
        <ele>2001.4000244141</ele>
        <time>2022-03-10T12:50:55.000Z</time>
      </trkpt>
      <trkpt lat="44.51736" lon="6.70597">
        <ele>2000.5999755859</ele>
        <time>2022-03-10T12:50:56.000Z</time>
      </trkpt>
      <trkpt lat="44.51738" lon="6.70599">
        <ele>1999.4000244141</ele>
        <time>2022-03-10T12:50:57.000Z</time>
      </trkpt>
      <trkpt lat="44.5174" lon="6.70601">
        <ele>1998.1999511719</ele>
        <time>2022-03-10T12:50:58.000Z</time>
      </trkpt>
      <trkpt lat="44.51744" lon="6.70602">
        <ele>1996.8000488281</ele>
        <time>2022-03-10T12:51:00.000Z</time>
      </trkpt>
      <trkpt lat="44.51743" lon="6.706">
        <ele>1996</ele>
        <time>2022-03-10T12:51:01.000Z</time>
      </trkpt>
      <trkpt lat="44.51742" lon="6.70597">
        <ele>1995.4000244141</ele>
        <time>2022-03-10T12:51:02.000Z</time>
      </trkpt>
      <trkpt lat="44.51741" lon="6.70593">
        <ele>1994.1999511719</ele>
        <time>2022-03-10T12:51:03.000Z</time>
      </trkpt>
      <trkpt lat="44.51741" lon="6.70589">
        <ele>1993.1999511719</ele>
        <time>2022-03-10T12:51:04.000Z</time>
      </trkpt>
      <trkpt lat="44.51743" lon="6.70587">
        <ele>1992</ele>
        <time>2022-03-10T12:51:05.000Z</time>
      </trkpt>
      <trkpt lat="44.51747" lon="6.70588">
        <ele>1990.5999755859</ele>
        <time>2022-03-10T12:51:07.000Z</time>
      </trkpt>
      <trkpt lat="44.51748" lon="6.70589">
        <ele>1989.4000244141</ele>
        <time>2022-03-10T12:51:08.000Z</time>
      </trkpt>
      <trkpt lat="44.51748" lon="6.70589">
        <ele>1987.8000488281</ele>
        <time>2022-03-10T12:51:10.000Z</time>
      </trkpt>
      <trkpt lat="44.51748" lon="6.70589">
        <ele>1987.4000244141</ele>
        <time>2022-03-10T12:51:12.000Z</time>
      </trkpt>
      <trkpt lat="44.51749" lon="6.70583">
        <ele>1987.4000244141</ele>
        <time>2022-03-10T12:51:18.000Z</time>
      </trkpt>
      <trkpt lat="44.51749" lon="6.70585">
        <ele>1987.4000244141</ele>
        <time>2022-03-10T12:51:30.000Z</time>
      </trkpt>
      <trkpt lat="44.5175" lon="6.70586">
        <ele>1987</ele>
        <time>2022-03-10T12:51:42.000Z</time>
      </trkpt>
      <trkpt lat="44.51757" lon="6.7059">
        <ele>1986.5999755859</ele>
        <time>2022-03-10T12:51:44.000Z</time>
      </trkpt>
      <trkpt lat="44.51762" lon="6.70597">
        <ele>1985.4000244141</ele>
        <time>2022-03-10T12:51:46.000Z</time>
      </trkpt>
      <trkpt lat="44.51766" lon="6.70601">
        <ele>1984.4000244141</ele>
        <time>2022-03-10T12:51:48.000Z</time>
      </trkpt>
      <trkpt lat="44.51766" lon="6.70602">
        <ele>1984</ele>
        <time>2022-03-10T12:51:49.000Z</time>
      </trkpt>
      <trkpt lat="44.51769" lon="6.70604">
        <ele>1983.1999511719</ele>
        <time>2022-03-10T12:51:52.000Z</time>
      </trkpt>
      <trkpt lat="44.51772" lon="6.70607">
        <ele>1982.5999755859</ele>
        <time>2022-03-10T12:51:56.000Z</time>
      </trkpt>
      <trkpt lat="44.51774" lon="6.70607">
        <ele>1982.5999755859</ele>
        <time>2022-03-10T12:51:57.000Z</time>
      </trkpt>
      <trkpt lat="44.5178" lon="6.70604">
        <ele>1981.8000488281</ele>
        <time>2022-03-10T12:51:59.000Z</time>
      </trkpt>
      <trkpt lat="44.51782" lon="6.70603">
        <ele>1980.1999511719</ele>
        <time>2022-03-10T12:52:00.000Z</time>
      </trkpt>
      <trkpt lat="44.51784" lon="6.70603">
        <ele>1979</ele>
        <time>2022-03-10T12:52:01.000Z</time>
      </trkpt>
      <trkpt lat="44.51786" lon="6.70604">
        <ele>1977.5999755859</ele>
        <time>2022-03-10T12:52:02.000Z</time>
      </trkpt>
      <trkpt lat="44.51789" lon="6.70603">
        <ele>1976.1999511719</ele>
        <time>2022-03-10T12:52:03.000Z</time>
      </trkpt>
      <trkpt lat="44.51791" lon="6.70603">
        <ele>1975.1999511719</ele>
        <time>2022-03-10T12:52:04.000Z</time>
      </trkpt>
      <trkpt lat="44.51795" lon="6.70601">
        <ele>1973.4000244141</ele>
        <time>2022-03-10T12:52:05.000Z</time>
      </trkpt>
      <trkpt lat="44.51799" lon="6.70601">
        <ele>1972.1999511719</ele>
        <time>2022-03-10T12:52:06.000Z</time>
      </trkpt>
      <trkpt lat="44.51802" lon="6.706">
        <ele>1970.8000488281</ele>
        <time>2022-03-10T12:52:07.000Z</time>
      </trkpt>
      <trkpt lat="44.51806" lon="6.70599">
        <ele>1969</ele>
        <time>2022-03-10T12:52:08.000Z</time>
      </trkpt>
      <trkpt lat="44.51809" lon="6.70598">
        <ele>1967.1999511719</ele>
        <time>2022-03-10T12:52:09.000Z</time>
      </trkpt>
      <trkpt lat="44.51812" lon="6.70597">
        <ele>1965.1999511719</ele>
        <time>2022-03-10T12:52:10.000Z</time>
      </trkpt>
      <trkpt lat="44.51815" lon="6.70596">
        <ele>1963.5999755859</ele>
        <time>2022-03-10T12:52:11.000Z</time>
      </trkpt>
      <trkpt lat="44.51818" lon="6.70595">
        <ele>1962</ele>
        <time>2022-03-10T12:52:12.000Z</time>
      </trkpt>
      <trkpt lat="44.51821" lon="6.70594">
        <ele>1960.4000244141</ele>
        <time>2022-03-10T12:52:13.000Z</time>
      </trkpt>
      <trkpt lat="44.51825" lon="6.70591">
        <ele>1958.5999755859</ele>
        <time>2022-03-10T12:52:14.000Z</time>
      </trkpt>
      <trkpt lat="44.51828" lon="6.70587">
        <ele>1957.1999511719</ele>
        <time>2022-03-10T12:52:15.000Z</time>
      </trkpt>
      <trkpt lat="44.51832" lon="6.70583">
        <ele>1955.4000244141</ele>
        <time>2022-03-10T12:52:16.000Z</time>
      </trkpt>
      <trkpt lat="44.51835" lon="6.70581">
        <ele>1953.4000244141</ele>
        <time>2022-03-10T12:52:17.000Z</time>
      </trkpt>
      <trkpt lat="44.51836" lon="6.70581">
        <ele>1951.8000488281</ele>
        <time>2022-03-10T12:52:18.000Z</time>
      </trkpt>
      <trkpt lat="44.51836" lon="6.70581">
        <ele>1949.8000488281</ele>
        <time>2022-03-10T12:52:19.000Z</time>
      </trkpt>
      <trkpt lat="44.51836" lon="6.7058">
        <ele>1948.8000488281</ele>
        <time>2022-03-10T12:52:20.000Z</time>
      </trkpt>
      <trkpt lat="44.51836" lon="6.7058">
        <ele>1948.1999511719</ele>
        <time>2022-03-10T12:52:21.000Z</time>
      </trkpt>
      <trkpt lat="44.51836" lon="6.70579">
        <ele>1947.8000488281</ele>
        <time>2022-03-10T12:52:23.000Z</time>
      </trkpt>
      <trkpt lat="44.51836" lon="6.70578">
        <ele>1947.5999755859</ele>
        <time>2022-03-10T12:52:28.000Z</time>
      </trkpt>
      <trkpt lat="44.51838" lon="6.70575">
        <ele>1947.1999511719</ele>
        <time>2022-03-10T12:52:32.000Z</time>
      </trkpt>
      <trkpt lat="44.51843" lon="6.70573">
        <ele>1946.1999511719</ele>
        <time>2022-03-10T12:52:34.000Z</time>
      </trkpt>
      <trkpt lat="44.51847" lon="6.70574">
        <ele>1944.4000244141</ele>
        <time>2022-03-10T12:52:36.000Z</time>
      </trkpt>
      <trkpt lat="44.51849" lon="6.70574">
        <ele>1943.4000244141</ele>
        <time>2022-03-10T12:52:37.000Z</time>
      </trkpt>
      <trkpt lat="44.51849" lon="6.70575">
        <ele>1942.8000488281</ele>
        <time>2022-03-10T12:52:38.000Z</time>
      </trkpt>
      <trkpt lat="44.51851" lon="6.70573">
        <ele>1942.1999511719</ele>
        <time>2022-03-10T12:52:39.000Z</time>
      </trkpt>
      <trkpt lat="44.51854" lon="6.70572">
        <ele>1941.8000488281</ele>
        <time>2022-03-10T12:52:40.000Z</time>
      </trkpt>
      <trkpt lat="44.51856" lon="6.70572">
        <ele>1940.8000488281</ele>
        <time>2022-03-10T12:52:41.000Z</time>
      </trkpt>
      <trkpt lat="44.51857" lon="6.70573">
        <ele>1940.1999511719</ele>
        <time>2022-03-10T12:52:42.000Z</time>
      </trkpt>
      <trkpt lat="44.51858" lon="6.70573">
        <ele>1939.1999511719</ele>
        <time>2022-03-10T12:52:43.000Z</time>
      </trkpt>
      <trkpt lat="44.51859" lon="6.70572">
        <ele>1938.1999511719</ele>
        <time>2022-03-10T12:52:45.000Z</time>
      </trkpt>
      <trkpt lat="44.51859" lon="6.70571">
        <ele>1938</ele>
        <time>2022-03-10T12:52:46.000Z</time>
      </trkpt>
      <trkpt lat="44.51859" lon="6.70571">
        <ele>1938</ele>
        <time>2022-03-10T12:52:50.000Z</time>
      </trkpt>
      <trkpt lat="44.51862" lon="6.70575">
        <ele>1937.8000488281</ele>
        <time>2022-03-10T12:52:53.000Z</time>
      </trkpt>
      <trkpt lat="44.51865" lon="6.70581">
        <ele>1937.4000244141</ele>
        <time>2022-03-10T12:52:55.000Z</time>
      </trkpt>
      <trkpt lat="44.51867" lon="6.70583">
        <ele>1937</ele>
        <time>2022-03-10T12:52:56.000Z</time>
      </trkpt>
      <trkpt lat="44.5187" lon="6.70593">
        <ele>1935.8000488281</ele>
        <time>2022-03-10T12:52:59.000Z</time>
      </trkpt>
      <trkpt lat="44.51871" lon="6.70596">
        <ele>1935.5999755859</ele>
        <time>2022-03-10T12:53:00.000Z</time>
      </trkpt>
      <trkpt lat="44.51875" lon="6.70604">
        <ele>1934.5999755859</ele>
        <time>2022-03-10T12:53:03.000Z</time>
      </trkpt>
      <trkpt lat="44.51881" lon="6.70611">
        <ele>1933.5999755859</ele>
        <time>2022-03-10T12:53:06.000Z</time>
      </trkpt>
      <trkpt lat="44.51883" lon="6.70611">
        <ele>1932.8000488281</ele>
        <time>2022-03-10T12:53:07.000Z</time>
      </trkpt>
      <trkpt lat="44.51888" lon="6.70607">
        <ele>1931.8000488281</ele>
        <time>2022-03-10T12:53:09.000Z</time>
      </trkpt>
      <trkpt lat="44.51891" lon="6.70608">
        <ele>1930.5999755859</ele>
        <time>2022-03-10T12:53:10.000Z</time>
      </trkpt>
      <trkpt lat="44.51893" lon="6.70609">
        <ele>1929.4000244141</ele>
        <time>2022-03-10T12:53:11.000Z</time>
      </trkpt>
      <trkpt lat="44.51894" lon="6.70609">
        <ele>1928</ele>
        <time>2022-03-10T12:53:12.000Z</time>
      </trkpt>
      <trkpt lat="44.51899" lon="6.70609">
        <ele>1926</ele>
        <time>2022-03-10T12:53:14.000Z</time>
      </trkpt>
      <trkpt lat="44.51901" lon="6.7061">
        <ele>1924.8000488281</ele>
        <time>2022-03-10T12:53:15.000Z</time>
      </trkpt>
      <trkpt lat="44.51903" lon="6.70612">
        <ele>1923.4000244141</ele>
        <time>2022-03-10T12:53:16.000Z</time>
      </trkpt>
      <trkpt lat="44.51906" lon="6.70614">
        <ele>1922</ele>
        <time>2022-03-10T12:53:17.000Z</time>
      </trkpt>
      <trkpt lat="44.5191" lon="6.70622">
        <ele>1920.4000244141</ele>
        <time>2022-03-10T12:53:19.000Z</time>
      </trkpt>
      <trkpt lat="44.51913" lon="6.70625">
        <ele>1919.1999511719</ele>
        <time>2022-03-10T12:53:21.000Z</time>
      </trkpt>
      <trkpt lat="44.51915" lon="6.70624">
        <ele>1919</ele>
        <time>2022-03-10T12:53:22.000Z</time>
      </trkpt>
      <trkpt lat="44.51919" lon="6.70623">
        <ele>1917</ele>
        <time>2022-03-10T12:53:24.000Z</time>
      </trkpt>
      <trkpt lat="44.51919" lon="6.70622">
        <ele>1916</ele>
        <time>2022-03-10T12:53:25.000Z</time>
      </trkpt>
      <trkpt lat="44.51921" lon="6.70618">
        <ele>1914.4000244141</ele>
        <time>2022-03-10T12:53:27.000Z</time>
      </trkpt>
      <trkpt lat="44.51922" lon="6.70616">
        <ele>1913.4000244141</ele>
        <time>2022-03-10T12:53:28.000Z</time>
      </trkpt>
      <trkpt lat="44.51925" lon="6.7061">
        <ele>1912</ele>
        <time>2022-03-10T12:53:30.000Z</time>
      </trkpt>
      <trkpt lat="44.51929" lon="6.70609">
        <ele>1911</ele>
        <time>2022-03-10T12:53:32.000Z</time>
      </trkpt>
      <trkpt lat="44.51931" lon="6.70609">
        <ele>1910.4000244141</ele>
        <time>2022-03-10T12:53:33.000Z</time>
      </trkpt>
      <trkpt lat="44.51934" lon="6.70613">
        <ele>1909.1999511719</ele>
        <time>2022-03-10T12:53:35.000Z</time>
      </trkpt>
      <trkpt lat="44.51936" lon="6.70615">
        <ele>1907.8000488281</ele>
        <time>2022-03-10T12:53:37.000Z</time>
      </trkpt>
      <trkpt lat="44.51938" lon="6.70616">
        <ele>1907.4000244141</ele>
        <time>2022-03-10T12:53:38.000Z</time>
      </trkpt>
      <trkpt lat="44.51941" lon="6.70617">
        <ele>1906.4000244141</ele>
        <time>2022-03-10T12:53:39.000Z</time>
      </trkpt>
      <trkpt lat="44.51945" lon="6.70618">
        <ele>1904.8000488281</ele>
        <time>2022-03-10T12:53:41.000Z</time>
      </trkpt>
      <trkpt lat="44.51946" lon="6.7062">
        <ele>1903.5999755859</ele>
        <time>2022-03-10T12:53:42.000Z</time>
      </trkpt>
      <trkpt lat="44.51947" lon="6.70621">
        <ele>1903</ele>
        <time>2022-03-10T12:53:43.000Z</time>
      </trkpt>
      <trkpt lat="44.5195" lon="6.70621">
        <ele>1902.1999511719</ele>
        <time>2022-03-10T12:53:44.000Z</time>
      </trkpt>
      <trkpt lat="44.51953" lon="6.70622">
        <ele>1901.8000488281</ele>
        <time>2022-03-10T12:53:45.000Z</time>
      </trkpt>
      <trkpt lat="44.51955" lon="6.70624">
        <ele>1901</ele>
        <time>2022-03-10T12:53:46.000Z</time>
      </trkpt>
      <trkpt lat="44.51957" lon="6.70625">
        <ele>1900</ele>
        <time>2022-03-10T12:53:47.000Z</time>
      </trkpt>
      <trkpt lat="44.5196" lon="6.70626">
        <ele>1899</ele>
        <time>2022-03-10T12:53:48.000Z</time>
      </trkpt>
      <trkpt lat="44.51964" lon="6.70628">
        <ele>1898.4000244141</ele>
        <time>2022-03-10T12:53:49.000Z</time>
      </trkpt>
      <trkpt lat="44.51967" lon="6.70631">
        <ele>1897.5999755859</ele>
        <time>2022-03-10T12:53:50.000Z</time>
      </trkpt>
      <trkpt lat="44.51969" lon="6.70635">
        <ele>1895.5999755859</ele>
        <time>2022-03-10T12:53:52.000Z</time>
      </trkpt>
      <trkpt lat="44.5197" lon="6.70635">
        <ele>1894.5999755859</ele>
        <time>2022-03-10T12:53:53.000Z</time>
      </trkpt>
      <trkpt lat="44.51971" lon="6.70634">
        <ele>1894.1999511719</ele>
        <time>2022-03-10T12:53:54.000Z</time>
      </trkpt>
      <trkpt lat="44.51969" lon="6.70628">
        <ele>1892.4000244141</ele>
        <time>2022-03-10T12:53:57.000Z</time>
      </trkpt>
      <trkpt lat="44.51966" lon="6.70619">
        <ele>1891</ele>
        <time>2022-03-10T12:53:59.000Z</time>
      </trkpt>
      <trkpt lat="44.51964" lon="6.70611">
        <ele>1889.8000488281</ele>
        <time>2022-03-10T12:54:01.000Z</time>
      </trkpt>
      <trkpt lat="44.51959" lon="6.70595">
        <ele>1889.4000244141</ele>
        <time>2022-03-10T12:54:07.000Z</time>
      </trkpt>
      <trkpt lat="44.51954" lon="6.7058">
        <ele>1889.4000244141</ele>
        <time>2022-03-10T12:54:14.000Z</time>
      </trkpt>
      <trkpt lat="44.51952" lon="6.70575">
        <ele>1889.8000488281</ele>
        <time>2022-03-10T12:54:19.000Z</time>
      </trkpt>
      <trkpt lat="44.51949" lon="6.70569">
        <ele>1890.1999511719</ele>
        <time>2022-03-10T12:54:26.000Z</time>
      </trkpt>
      <trkpt lat="44.51948" lon="6.70563">
        <ele>1890.1999511719</ele>
        <time>2022-03-10T12:54:32.000Z</time>
      </trkpt>
      <trkpt lat="44.5195" lon="6.70555">
        <ele>1890.8000488281</ele>
        <time>2022-03-10T12:54:39.000Z</time>
      </trkpt>
      <trkpt lat="44.51944" lon="6.70558">
        <ele>1890.5999755859</ele>
        <time>2022-03-10T12:54:46.000Z</time>
      </trkpt>
      <trkpt lat="44.51946" lon="6.70557">
        <ele>1890.5999755859</ele>
        <time>2022-03-10T12:54:52.000Z</time>
      </trkpt>
      <trkpt lat="44.51946" lon="6.70557">
        <ele>1890.5999755859</ele>
        <time>2022-03-10T12:54:54.000Z</time>
      </trkpt>
      <trkpt lat="44.5195" lon="6.70551">
        <ele>1890.1999511719</ele>
        <time>2022-03-10T12:55:06.000Z</time>
      </trkpt>
      <trkpt lat="44.51952" lon="6.70552">
        <ele>1890.4000244141</ele>
        <time>2022-03-10T12:55:12.000Z</time>
      </trkpt>
      <trkpt lat="44.51951" lon="6.70554">
        <ele>1890.5999755859</ele>
        <time>2022-03-10T12:55:19.000Z</time>
      </trkpt>
      <trkpt lat="44.51951" lon="6.70553">
        <ele>1890.5999755859</ele>
        <time>2022-03-10T12:55:24.000Z</time>
      </trkpt>
      <trkpt lat="44.51952" lon="6.70557">
        <ele>1890.5999755859</ele>
        <time>2022-03-10T12:55:30.000Z</time>
      </trkpt>
      <trkpt lat="44.51952" lon="6.70557">
        <ele>1890.8000488281</ele>
        <time>2022-03-10T12:55:40.000Z</time>
      </trkpt>
      <trkpt lat="44.51952" lon="6.70556">
        <ele>1890.8000488281</ele>
        <time>2022-03-10T12:56:08.000Z</time>
      </trkpt>
      <trkpt lat="44.51954" lon="6.70556">
        <ele>1890.1999511719</ele>
        <time>2022-03-10T12:57:15.000Z</time>
      </trkpt>
      <trkpt lat="44.51952" lon="6.70549">
        <ele>1890.5999755859</ele>
        <time>2022-03-10T12:57:56.000Z</time>
      </trkpt>
      <trkpt lat="44.51955" lon="6.70548">
        <ele>1890.4000244141</ele>
        <time>2022-03-10T12:58:50.000Z</time>
      </trkpt>
      <trkpt lat="44.51953" lon="6.70548">
        <ele>1890.5999755859</ele>
        <time>2022-03-10T12:59:27.000Z</time>
      </trkpt>
      <trkpt lat="44.51953" lon="6.70547">
        <ele>1890.4000244141</ele>
        <time>2022-03-10T12:59:29.000Z</time>
      </trkpt>
      <trkpt lat="44.51954" lon="6.70547">
        <ele>1890.1999511719</ele>
        <time>2022-03-10T12:59:33.000Z</time>
      </trkpt>
      <trkpt lat="44.51955" lon="6.70548">
        <ele>1891</ele>
        <time>2022-03-10T12:59:42.000Z</time>
      </trkpt>
      <trkpt lat="44.51955" lon="6.7055">
        <ele>1890.5999755859</ele>
        <time>2022-03-10T12:59:53.000Z</time>
      </trkpt>
      <trkpt lat="44.51955" lon="6.70551">
        <ele>1890.4000244141</ele>
        <time>2022-03-10T13:00:00.000Z</time>
      </trkpt>
      <trkpt lat="44.51952" lon="6.70545">
        <ele>1891.1999511719</ele>
        <time>2022-03-10T13:02:22.000Z</time>
      </trkpt>
      <trkpt lat="44.5195" lon="6.70538">
        <ele>1891.1999511719</ele>
        <time>2022-03-10T13:02:26.000Z</time>
      </trkpt>
      <trkpt lat="44.5195" lon="6.70535">
        <ele>1891</ele>
        <time>2022-03-10T13:02:28.000Z</time>
      </trkpt>
      <trkpt lat="44.51949" lon="6.70531">
        <ele>1891.4000244141</ele>
        <time>2022-03-10T13:02:32.000Z</time>
      </trkpt>
      <trkpt lat="44.51948" lon="6.70528">
        <ele>1891.5999755859</ele>
        <time>2022-03-10T13:02:36.000Z</time>
      </trkpt>
      <trkpt lat="44.51946" lon="6.70526">
        <ele>1891.8000488281</ele>
        <time>2022-03-10T13:02:39.000Z</time>
      </trkpt>
      <trkpt lat="44.51944" lon="6.70522">
        <ele>1892.4000244141</ele>
        <time>2022-03-10T13:02:46.000Z</time>
      </trkpt>
      <trkpt lat="44.51942" lon="6.7052">
        <ele>1892.8000488281</ele>
        <time>2022-03-10T13:02:50.000Z</time>
      </trkpt>
      <trkpt lat="44.5194" lon="6.70517">
        <ele>1893.4000244141</ele>
        <time>2022-03-10T13:02:53.000Z</time>
      </trkpt>
      <trkpt lat="44.5194" lon="6.70515">
        <ele>1893.5999755859</ele>
        <time>2022-03-10T13:02:55.000Z</time>
      </trkpt>
      <trkpt lat="44.5194" lon="6.70512">
        <ele>1893.8000488281</ele>
        <time>2022-03-10T13:02:58.000Z</time>
      </trkpt>
      <trkpt lat="44.51938" lon="6.70506">
        <ele>1894.8000488281</ele>
        <time>2022-03-10T13:03:05.000Z</time>
      </trkpt>
      <trkpt lat="44.51938" lon="6.70505">
        <ele>1895</ele>
        <time>2022-03-10T13:03:06.000Z</time>
      </trkpt>
      <trkpt lat="44.51935" lon="6.70502">
        <ele>1896</ele>
        <time>2022-03-10T13:03:13.000Z</time>
      </trkpt>
      <trkpt lat="44.51935" lon="6.70504">
        <ele>1896.1999511719</ele>
        <time>2022-03-10T13:03:15.000Z</time>
      </trkpt>
      <trkpt lat="44.51934" lon="6.70501">
        <ele>1897</ele>
        <time>2022-03-10T13:03:21.000Z</time>
      </trkpt>
      <trkpt lat="44.51933" lon="6.70501">
        <ele>1897</ele>
        <time>2022-03-10T13:03:22.000Z</time>
      </trkpt>
      <trkpt lat="44.51933" lon="6.70497">
        <ele>1898</ele>
        <time>2022-03-10T13:03:28.000Z</time>
      </trkpt>
      <trkpt lat="44.51931" lon="6.70496">
        <ele>1898.4000244141</ele>
        <time>2022-03-10T13:03:31.000Z</time>
      </trkpt>
      <trkpt lat="44.5193" lon="6.70492">
        <ele>1899</ele>
        <time>2022-03-10T13:03:36.000Z</time>
      </trkpt>
      <trkpt lat="44.5193" lon="6.70491">
        <ele>1899.1999511719</ele>
        <time>2022-03-10T13:03:37.000Z</time>
      </trkpt>
      <trkpt lat="44.51929" lon="6.70488">
        <ele>1899.5999755859</ele>
        <time>2022-03-10T13:03:43.000Z</time>
      </trkpt>
      <trkpt lat="44.51928" lon="6.70486">
        <ele>1900</ele>
        <time>2022-03-10T13:03:47.000Z</time>
      </trkpt>
      <trkpt lat="44.51927" lon="6.70485">
        <ele>1900.5999755859</ele>
        <time>2022-03-10T13:03:50.000Z</time>
      </trkpt>
      <trkpt lat="44.51924" lon="6.70483">
        <ele>1901.1999511719</ele>
        <time>2022-03-10T13:03:55.000Z</time>
      </trkpt>
      <trkpt lat="44.51923" lon="6.70482">
        <ele>1901.5999755859</ele>
        <time>2022-03-10T13:03:58.000Z</time>
      </trkpt>
      <trkpt lat="44.51922" lon="6.70479">
        <ele>1902.4000244141</ele>
        <time>2022-03-10T13:04:03.000Z</time>
      </trkpt>
      <trkpt lat="44.5192" lon="6.70476">
        <ele>1903.1999511719</ele>
        <time>2022-03-10T13:04:07.000Z</time>
      </trkpt>
      <trkpt lat="44.51919" lon="6.70476">
        <ele>1903.4000244141</ele>
        <time>2022-03-10T13:04:09.000Z</time>
      </trkpt>
      <trkpt lat="44.51917" lon="6.70473">
        <ele>1904</ele>
        <time>2022-03-10T13:04:15.000Z</time>
      </trkpt>
      <trkpt lat="44.51917" lon="6.70472">
        <ele>1904.4000244141</ele>
        <time>2022-03-10T13:04:17.000Z</time>
      </trkpt>
      <trkpt lat="44.51915" lon="6.70469">
        <ele>1905.1999511719</ele>
        <time>2022-03-10T13:04:22.000Z</time>
      </trkpt>
      <trkpt lat="44.51914" lon="6.70467">
        <ele>1905.4000244141</ele>
        <time>2022-03-10T13:04:24.000Z</time>
      </trkpt>
      <trkpt lat="44.51914" lon="6.70466">
        <ele>1905.8000488281</ele>
        <time>2022-03-10T13:04:25.000Z</time>
      </trkpt>
      <trkpt lat="44.51911" lon="6.70462">
        <ele>1906.8000488281</ele>
        <time>2022-03-10T13:04:33.000Z</time>
      </trkpt>
      <trkpt lat="44.51909" lon="6.7046">
        <ele>1907.1999511719</ele>
        <time>2022-03-10T13:04:36.000Z</time>
      </trkpt>
      <trkpt lat="44.51908" lon="6.70458">
        <ele>1907.8000488281</ele>
        <time>2022-03-10T13:04:40.000Z</time>
      </trkpt>
      <trkpt lat="44.51907" lon="6.70457">
        <ele>1908.4000244141</ele>
        <time>2022-03-10T13:04:44.000Z</time>
      </trkpt>
      <trkpt lat="44.51906" lon="6.70453">
        <ele>1909</ele>
        <time>2022-03-10T13:04:49.000Z</time>
      </trkpt>
      <trkpt lat="44.51904" lon="6.70451">
        <ele>1909.5999755859</ele>
        <time>2022-03-10T13:04:54.000Z</time>
      </trkpt>
      <trkpt lat="44.51903" lon="6.70451">
        <ele>1910</ele>
        <time>2022-03-10T13:04:55.000Z</time>
      </trkpt>
      <trkpt lat="44.519" lon="6.7045">
        <ele>1910.4000244141</ele>
        <time>2022-03-10T13:05:02.000Z</time>
      </trkpt>
      <trkpt lat="44.51902" lon="6.70447">
        <ele>1910.4000244141</ele>
        <time>2022-03-10T13:05:09.000Z</time>
      </trkpt>
      <trkpt lat="44.51902" lon="6.7045">
        <ele>1910.1999511719</ele>
        <time>2022-03-10T13:05:17.000Z</time>
      </trkpt>
      <trkpt lat="44.51897" lon="6.70449">
        <ele>1910.4000244141</ele>
        <time>2022-03-10T13:05:25.000Z</time>
      </trkpt>
      <trkpt lat="44.51896" lon="6.70448">
        <ele>1911.1999511719</ele>
        <time>2022-03-10T13:05:27.000Z</time>
      </trkpt>
      <trkpt lat="44.51891" lon="6.70446">
        <ele>1912</ele>
        <time>2022-03-10T13:05:34.000Z</time>
      </trkpt>
      <trkpt lat="44.51889" lon="6.70444">
        <ele>1912.1999511719</ele>
        <time>2022-03-10T13:05:37.000Z</time>
      </trkpt>
      <trkpt lat="44.51886" lon="6.70441">
        <ele>1912.5999755859</ele>
        <time>2022-03-10T13:05:42.000Z</time>
      </trkpt>
      <trkpt lat="44.51884" lon="6.70438">
        <ele>1913.4000244141</ele>
        <time>2022-03-10T13:05:45.000Z</time>
      </trkpt>
      <trkpt lat="44.51881" lon="6.70436">
        <ele>1914</ele>
        <time>2022-03-10T13:05:50.000Z</time>
      </trkpt>
      <trkpt lat="44.51881" lon="6.70435">
        <ele>1914.4000244141</ele>
        <time>2022-03-10T13:05:52.000Z</time>
      </trkpt>
      <trkpt lat="44.51879" lon="6.70432">
        <ele>1915.1999511719</ele>
        <time>2022-03-10T13:05:57.000Z</time>
      </trkpt>
      <trkpt lat="44.51879" lon="6.70432">
        <ele>1915.5999755859</ele>
        <time>2022-03-10T13:05:59.000Z</time>
      </trkpt>
      <trkpt lat="44.51878" lon="6.70432">
        <ele>1916</ele>
        <time>2022-03-10T13:06:02.000Z</time>
      </trkpt>
      <trkpt lat="44.51877" lon="6.70431">
        <ele>1916</ele>
        <time>2022-03-10T13:06:03.000Z</time>
      </trkpt>
      <trkpt lat="44.51872" lon="6.70426">
        <ele>1916.5999755859</ele>
        <time>2022-03-10T13:06:10.000Z</time>
      </trkpt>
      <trkpt lat="44.51867" lon="6.70421">
        <ele>1917.8000488281</ele>
        <time>2022-03-10T13:06:16.000Z</time>
      </trkpt>
      <trkpt lat="44.51867" lon="6.70419">
        <ele>1918</ele>
        <time>2022-03-10T13:06:18.000Z</time>
      </trkpt>
      <trkpt lat="44.51865" lon="6.70417">
        <ele>1918.8000488281</ele>
        <time>2022-03-10T13:06:23.000Z</time>
      </trkpt>
      <trkpt lat="44.51863" lon="6.70415">
        <ele>1919.4000244141</ele>
        <time>2022-03-10T13:06:26.000Z</time>
      </trkpt>
      <trkpt lat="44.51862" lon="6.70414">
        <ele>1919.8000488281</ele>
        <time>2022-03-10T13:06:29.000Z</time>
      </trkpt>
      <trkpt lat="44.51857" lon="6.70412">
        <ele>1920.5999755859</ele>
        <time>2022-03-10T13:06:35.000Z</time>
      </trkpt>
      <trkpt lat="44.51857" lon="6.7041">
        <ele>1920.8000488281</ele>
        <time>2022-03-10T13:06:37.000Z</time>
      </trkpt>
      <trkpt lat="44.51856" lon="6.7041">
        <ele>1921.4000244141</ele>
        <time>2022-03-10T13:06:41.000Z</time>
      </trkpt>
      <trkpt lat="44.51855" lon="6.7041">
        <ele>1922.1999511719</ele>
        <time>2022-03-10T13:06:43.000Z</time>
      </trkpt>
      <trkpt lat="44.51853" lon="6.70408">
        <ele>1923</ele>
        <time>2022-03-10T13:06:47.000Z</time>
      </trkpt>
      <trkpt lat="44.51854" lon="6.70406">
        <ele>1923.1999511719</ele>
        <time>2022-03-10T13:06:49.000Z</time>
      </trkpt>
      <trkpt lat="44.51853" lon="6.70402">
        <ele>1923.5999755859</ele>
        <time>2022-03-10T13:06:54.000Z</time>
      </trkpt>
      <trkpt lat="44.51852" lon="6.70402">
        <ele>1923.8000488281</ele>
        <time>2022-03-10T13:06:56.000Z</time>
      </trkpt>
      <trkpt lat="44.51848" lon="6.70402">
        <ele>1924.4000244141</ele>
        <time>2022-03-10T13:06:59.000Z</time>
      </trkpt>
      <trkpt lat="44.51847" lon="6.70402">
        <ele>1924.5999755859</ele>
        <time>2022-03-10T13:07:03.000Z</time>
      </trkpt>
      <trkpt lat="44.51848" lon="6.70401">
        <ele>1924.8000488281</ele>
        <time>2022-03-10T13:07:10.000Z</time>
      </trkpt>
      <trkpt lat="44.51844" lon="6.704">
        <ele>1925.5999755859</ele>
        <time>2022-03-10T13:07:17.000Z</time>
      </trkpt>
      <trkpt lat="44.51842" lon="6.70399">
        <ele>1926</ele>
        <time>2022-03-10T13:07:20.000Z</time>
      </trkpt>
      <trkpt lat="44.5184" lon="6.70396">
        <ele>1926.5999755859</ele>
        <time>2022-03-10T13:07:24.000Z</time>
      </trkpt>
      <trkpt lat="44.51838" lon="6.70394">
        <ele>1927.1999511719</ele>
        <time>2022-03-10T13:07:28.000Z</time>
      </trkpt>
      <trkpt lat="44.51835" lon="6.70393">
        <ele>1927.8000488281</ele>
        <time>2022-03-10T13:07:33.000Z</time>
      </trkpt>
      <trkpt lat="44.51832" lon="6.70389">
        <ele>1929</ele>
        <time>2022-03-10T13:07:39.000Z</time>
      </trkpt>
      <trkpt lat="44.51832" lon="6.70388">
        <ele>1929</ele>
        <time>2022-03-10T13:07:40.000Z</time>
      </trkpt>
      <trkpt lat="44.51829" lon="6.70383">
        <ele>1929.8000488281</ele>
        <time>2022-03-10T13:07:46.000Z</time>
      </trkpt>
      <trkpt lat="44.51829" lon="6.70383">
        <ele>1930</ele>
        <time>2022-03-10T13:07:47.000Z</time>
      </trkpt>
      <trkpt lat="44.51826" lon="6.7038">
        <ele>1930.5999755859</ele>
        <time>2022-03-10T13:07:51.000Z</time>
      </trkpt>
      <trkpt lat="44.51825" lon="6.70378">
        <ele>1931</ele>
        <time>2022-03-10T13:07:53.000Z</time>
      </trkpt>
      <trkpt lat="44.51822" lon="6.70372">
        <ele>1932.1999511719</ele>
        <time>2022-03-10T13:08:01.000Z</time>
      </trkpt>
      <trkpt lat="44.5182" lon="6.7037">
        <ele>1933.4000244141</ele>
        <time>2022-03-10T13:08:09.000Z</time>
      </trkpt>
      <trkpt lat="44.5182" lon="6.70369">
        <ele>1933.5999755859</ele>
        <time>2022-03-10T13:08:10.000Z</time>
      </trkpt>
      <trkpt lat="44.51817" lon="6.70366">
        <ele>1934.4000244141</ele>
        <time>2022-03-10T13:08:15.000Z</time>
      </trkpt>
      <trkpt lat="44.51816" lon="6.70365">
        <ele>1934.8000488281</ele>
        <time>2022-03-10T13:08:18.000Z</time>
      </trkpt>
      <trkpt lat="44.51814" lon="6.70364">
        <ele>1935.5999755859</ele>
        <time>2022-03-10T13:08:22.000Z</time>
      </trkpt>
      <trkpt lat="44.51812" lon="6.70363">
        <ele>1935.8000488281</ele>
        <time>2022-03-10T13:08:25.000Z</time>
      </trkpt>
      <trkpt lat="44.51809" lon="6.70362">
        <ele>1936.5999755859</ele>
        <time>2022-03-10T13:08:28.000Z</time>
      </trkpt>
      <trkpt lat="44.51807" lon="6.70362">
        <ele>1937.1999511719</ele>
        <time>2022-03-10T13:08:32.000Z</time>
      </trkpt>
      <trkpt lat="44.51806" lon="6.70362">
        <ele>1937.5999755859</ele>
        <time>2022-03-10T13:08:34.000Z</time>
      </trkpt>
      <trkpt lat="44.51802" lon="6.70361">
        <ele>1938.8000488281</ele>
        <time>2022-03-10T13:08:41.000Z</time>
      </trkpt>
      <trkpt lat="44.51802" lon="6.7036">
        <ele>1939</ele>
        <time>2022-03-10T13:08:42.000Z</time>
      </trkpt>
      <trkpt lat="44.518" lon="6.70357">
        <ele>1939.8000488281</ele>
        <time>2022-03-10T13:08:47.000Z</time>
      </trkpt>
      <trkpt lat="44.51798" lon="6.70356">
        <ele>1940.1999511719</ele>
        <time>2022-03-10T13:08:49.000Z</time>
      </trkpt>
      <trkpt lat="44.51797" lon="6.70354">
        <ele>1940.8000488281</ele>
        <time>2022-03-10T13:08:52.000Z</time>
      </trkpt>
      <trkpt lat="44.51795" lon="6.70352">
        <ele>1941.8000488281</ele>
        <time>2022-03-10T13:08:57.000Z</time>
      </trkpt>
      <trkpt lat="44.51795" lon="6.70352">
        <ele>1941.8000488281</ele>
        <time>2022-03-10T13:08:58.000Z</time>
      </trkpt>
      <trkpt lat="44.51793" lon="6.7035">
        <ele>1943</ele>
        <time>2022-03-10T13:09:05.000Z</time>
      </trkpt>
      <trkpt lat="44.51791" lon="6.70349">
        <ele>1943.5999755859</ele>
        <time>2022-03-10T13:09:07.000Z</time>
      </trkpt>
      <trkpt lat="44.5179" lon="6.70349">
        <ele>1944</ele>
        <time>2022-03-10T13:09:09.000Z</time>
      </trkpt>
      <trkpt lat="44.51787" lon="6.70345">
        <ele>1944.5999755859</ele>
        <time>2022-03-10T13:09:14.000Z</time>
      </trkpt>
      <trkpt lat="44.51786" lon="6.70345">
        <ele>1944.5999755859</ele>
        <time>2022-03-10T13:09:15.000Z</time>
      </trkpt>
      <trkpt lat="44.51782" lon="6.70342">
        <ele>1945.1999511719</ele>
        <time>2022-03-10T13:09:20.000Z</time>
      </trkpt>
      <trkpt lat="44.51779" lon="6.7034">
        <ele>1946.1999511719</ele>
        <time>2022-03-10T13:09:26.000Z</time>
      </trkpt>
      <trkpt lat="44.51778" lon="6.7034">
        <ele>1946.4000244141</ele>
        <time>2022-03-10T13:09:27.000Z</time>
      </trkpt>
      <trkpt lat="44.51773" lon="6.70338">
        <ele>1947.4000244141</ele>
        <time>2022-03-10T13:09:36.000Z</time>
      </trkpt>
      <trkpt lat="44.51767" lon="6.70336">
        <ele>1948.4000244141</ele>
        <time>2022-03-10T13:09:44.000Z</time>
      </trkpt>
      <trkpt lat="44.51765" lon="6.70336">
        <ele>1949</ele>
        <time>2022-03-10T13:09:47.000Z</time>
      </trkpt>
      <trkpt lat="44.51763" lon="6.70335">
        <ele>1949.5999755859</ele>
        <time>2022-03-10T13:09:52.000Z</time>
      </trkpt>
      <trkpt lat="44.51762" lon="6.70334">
        <ele>1949.8000488281</ele>
        <time>2022-03-10T13:09:54.000Z</time>
      </trkpt>
      <trkpt lat="44.51759" lon="6.70332">
        <ele>1950.5999755859</ele>
        <time>2022-03-10T13:09:59.000Z</time>
      </trkpt>
      <trkpt lat="44.51755" lon="6.70331">
        <ele>1951.4000244141</ele>
        <time>2022-03-10T13:10:03.000Z</time>
      </trkpt>
      <trkpt lat="44.51755" lon="6.70331">
        <ele>1951.5999755859</ele>
        <time>2022-03-10T13:10:04.000Z</time>
      </trkpt>
      <trkpt lat="44.51754" lon="6.7033">
        <ele>1951.8000488281</ele>
        <time>2022-03-10T13:10:05.000Z</time>
      </trkpt>
      <trkpt lat="44.5175" lon="6.70329">
        <ele>1952.5999755859</ele>
        <time>2022-03-10T13:10:10.000Z</time>
      </trkpt>
      <trkpt lat="44.51747" lon="6.70328">
        <ele>1953.4000244141</ele>
        <time>2022-03-10T13:10:15.000Z</time>
      </trkpt>
      <trkpt lat="44.51745" lon="6.70327">
        <ele>1953.8000488281</ele>
        <time>2022-03-10T13:10:18.000Z</time>
      </trkpt>
      <trkpt lat="44.51743" lon="6.70323">
        <ele>1954.5999755859</ele>
        <time>2022-03-10T13:10:23.000Z</time>
      </trkpt>
      <trkpt lat="44.51742" lon="6.70323">
        <ele>1954.8000488281</ele>
        <time>2022-03-10T13:10:24.000Z</time>
      </trkpt>
      <trkpt lat="44.51738" lon="6.70322">
        <ele>1955.5999755859</ele>
        <time>2022-03-10T13:10:29.000Z</time>
      </trkpt>
      <trkpt lat="44.51735" lon="6.70321">
        <ele>1955.8000488281</ele>
        <time>2022-03-10T13:10:32.000Z</time>
      </trkpt>
      <trkpt lat="44.51733" lon="6.70318">
        <ele>1956.4000244141</ele>
        <time>2022-03-10T13:10:37.000Z</time>
      </trkpt>
      <trkpt lat="44.51731" lon="6.70315">
        <ele>1956.8000488281</ele>
        <time>2022-03-10T13:10:39.000Z</time>
      </trkpt>
      <trkpt lat="44.5173" lon="6.70314">
        <ele>1957.8000488281</ele>
        <time>2022-03-10T13:10:45.000Z</time>
      </trkpt>
      <trkpt lat="44.51729" lon="6.70313">
        <ele>1957.8000488281</ele>
        <time>2022-03-10T13:10:46.000Z</time>
      </trkpt>
      <trkpt lat="44.51725" lon="6.70309">
        <ele>1959</ele>
        <time>2022-03-10T13:10:53.000Z</time>
      </trkpt>
      <trkpt lat="44.51724" lon="6.70309">
        <ele>1959.4000244141</ele>
        <time>2022-03-10T13:10:55.000Z</time>
      </trkpt>
      <trkpt lat="44.51721" lon="6.70305">
        <ele>1960</ele>
        <time>2022-03-10T13:11:00.000Z</time>
      </trkpt>
      <trkpt lat="44.51718" lon="6.70303">
        <ele>1960.8000488281</ele>
        <time>2022-03-10T13:11:05.000Z</time>
      </trkpt>
      <trkpt lat="44.51717" lon="6.70302">
        <ele>1961.1999511719</ele>
        <time>2022-03-10T13:11:06.000Z</time>
      </trkpt>
      <trkpt lat="44.51715" lon="6.70301">
        <ele>1962.1999511719</ele>
        <time>2022-03-10T13:11:10.000Z</time>
      </trkpt>
      <trkpt lat="44.51711" lon="6.70299">
        <ele>1963.1999511719</ele>
        <time>2022-03-10T13:11:16.000Z</time>
      </trkpt>
      <trkpt lat="44.51709" lon="6.70299">
        <ele>1964.4000244141</ele>
        <time>2022-03-10T13:11:22.000Z</time>
      </trkpt>
      <trkpt lat="44.51708" lon="6.70298">
        <ele>1964.5999755859</ele>
        <time>2022-03-10T13:11:24.000Z</time>
      </trkpt>
      <trkpt lat="44.51704" lon="6.70298">
        <ele>1965.1999511719</ele>
        <time>2022-03-10T13:11:31.000Z</time>
      </trkpt>
      <trkpt lat="44.51704" lon="6.70296">
        <ele>1965.4000244141</ele>
        <time>2022-03-10T13:11:34.000Z</time>
      </trkpt>
      <trkpt lat="44.51703" lon="6.70296">
        <ele>1965.4000244141</ele>
        <time>2022-03-10T13:11:40.000Z</time>
      </trkpt>
      <trkpt lat="44.51699" lon="6.70296">
        <ele>1965.1999511719</ele>
        <time>2022-03-10T13:11:59.000Z</time>
      </trkpt>
      <trkpt lat="44.51697" lon="6.70295">
        <ele>1965.1999511719</ele>
        <time>2022-03-10T13:12:04.000Z</time>
      </trkpt>
      <trkpt lat="44.51698" lon="6.70292">
        <ele>1964.8000488281</ele>
        <time>2022-03-10T13:12:25.000Z</time>
      </trkpt>
      <trkpt lat="44.51702" lon="6.70288">
        <ele>1964.4000244141</ele>
        <time>2022-03-10T13:12:52.000Z</time>
      </trkpt>
      <trkpt lat="44.51702" lon="6.70288">
        <ele>1964.4000244141</ele>
        <time>2022-03-10T13:12:54.000Z</time>
      </trkpt>
      <trkpt lat="44.51702" lon="6.70289">
        <ele>1964</ele>
        <time>2022-03-10T13:13:29.000Z</time>
      </trkpt>
      <trkpt lat="44.51701" lon="6.70288">
        <ele>1963.8000488281</ele>
        <time>2022-03-10T13:13:55.000Z</time>
      </trkpt>
      <trkpt lat="44.517" lon="6.70287">
        <ele>1964.4000244141</ele>
        <time>2022-03-10T13:14:34.000Z</time>
      </trkpt>
      <trkpt lat="44.517" lon="6.70288">
        <ele>1965</ele>
        <time>2022-03-10T13:15:37.000Z</time>
      </trkpt>
      <trkpt lat="44.51701" lon="6.70287">
        <ele>1965.4000244141</ele>
        <time>2022-03-10T13:17:13.000Z</time>
      </trkpt>
      <trkpt lat="44.51701" lon="6.70287">
        <ele>1965.4000244141</ele>
        <time>2022-03-10T13:17:42.000Z</time>
      </trkpt>
      <trkpt lat="44.51701" lon="6.70287">
        <ele>1965.8000488281</ele>
        <time>2022-03-10T13:18:41.000Z</time>
      </trkpt>
      <trkpt lat="44.51701" lon="6.70287">
        <ele>1966.1999511719</ele>
        <time>2022-03-10T13:19:44.000Z</time>
      </trkpt>
      <trkpt lat="44.51701" lon="6.70287">
        <ele>1966.4000244141</ele>
        <time>2022-03-10T13:20:04.000Z</time>
      </trkpt>
      <trkpt lat="44.51702" lon="6.70288">
        <ele>1967</ele>
        <time>2022-03-10T13:20:47.000Z</time>
      </trkpt>
      <trkpt lat="44.51702" lon="6.70288">
        <ele>1967.5999755859</ele>
        <time>2022-03-10T13:21:36.000Z</time>
      </trkpt>
      <trkpt lat="44.51702" lon="6.70288">
        <ele>1968</ele>
        <time>2022-03-10T13:22:20.000Z</time>
      </trkpt>
      <trkpt lat="44.51701" lon="6.70288">
        <ele>1967.8000488281</ele>
        <time>2022-03-10T13:22:45.000Z</time>
      </trkpt>
      <trkpt lat="44.51701" lon="6.70288">
        <ele>1967.5999755859</ele>
        <time>2022-03-10T13:23:29.000Z</time>
      </trkpt>
      <trkpt lat="44.51701" lon="6.70288">
        <ele>1967.5999755859</ele>
        <time>2022-03-10T13:23:53.000Z</time>
      </trkpt>
      <trkpt lat="44.517" lon="6.70288">
        <ele>1968.5999755859</ele>
        <time>2022-03-10T13:24:22.000Z</time>
      </trkpt>
      <trkpt lat="44.517" lon="6.70287">
        <ele>1969.5999755859</ele>
        <time>2022-03-10T13:24:29.000Z</time>
      </trkpt>
      <trkpt lat="44.517" lon="6.70287">
        <ele>1970.8000488281</ele>
        <time>2022-03-10T13:24:37.000Z</time>
      </trkpt>
      <trkpt lat="44.517" lon="6.70287">
        <ele>1971.8000488281</ele>
        <time>2022-03-10T13:24:43.000Z</time>
      </trkpt>
      <trkpt lat="44.51691" lon="6.7028">
        <ele>1972.4000244141</ele>
        <time>2022-03-10T13:24:47.000Z</time>
      </trkpt>
      <trkpt lat="44.51685" lon="6.70273">
        <ele>1972.5999755859</ele>
        <time>2022-03-10T13:24:49.000Z</time>
      </trkpt>
      <trkpt lat="44.5168" lon="6.70268">
        <ele>1973</ele>
        <time>2022-03-10T13:24:51.000Z</time>
      </trkpt>
      <trkpt lat="44.5167" lon="6.70258">
        <ele>1973.4000244141</ele>
        <time>2022-03-10T13:24:57.000Z</time>
      </trkpt>
      <trkpt lat="44.51666" lon="6.70255">
        <ele>1974</ele>
        <time>2022-03-10T13:25:03.000Z</time>
      </trkpt>
      <trkpt lat="44.51665" lon="6.70255">
        <ele>1974</ele>
        <time>2022-03-10T13:25:04.000Z</time>
      </trkpt>
      <trkpt lat="44.51662" lon="6.70249">
        <ele>1975</ele>
        <time>2022-03-10T13:25:11.000Z</time>
      </trkpt>
      <trkpt lat="44.51662" lon="6.70248">
        <ele>1975.1999511719</ele>
        <time>2022-03-10T13:25:13.000Z</time>
      </trkpt>
      <trkpt lat="44.51662" lon="6.7024">
        <ele>1975.8000488281</ele>
        <time>2022-03-10T13:25:20.000Z</time>
      </trkpt>
      <trkpt lat="44.51662" lon="6.70235">
        <ele>1976.1999511719</ele>
        <time>2022-03-10T13:25:25.000Z</time>
      </trkpt>
      <trkpt lat="44.51663" lon="6.70232">
        <ele>1976.1999511719</ele>
        <time>2022-03-10T13:25:28.000Z</time>
      </trkpt>
      <trkpt lat="44.51662" lon="6.70226">
        <ele>1976.8000488281</ele>
        <time>2022-03-10T13:25:36.000Z</time>
      </trkpt>
      <trkpt lat="44.51662" lon="6.70225">
        <ele>1977.1999511719</ele>
        <time>2022-03-10T13:25:39.000Z</time>
      </trkpt>
      <trkpt lat="44.5166" lon="6.70223">
        <ele>1977.8000488281</ele>
        <time>2022-03-10T13:25:43.000Z</time>
      </trkpt>
      <trkpt lat="44.51659" lon="6.70223">
        <ele>1978</ele>
        <time>2022-03-10T13:25:44.000Z</time>
      </trkpt>
      <trkpt lat="44.51658" lon="6.70223">
        <ele>1978.4000244141</ele>
        <time>2022-03-10T13:25:46.000Z</time>
      </trkpt>
      <trkpt lat="44.51653" lon="6.70219">
        <ele>1979.1999511719</ele>
        <time>2022-03-10T13:25:53.000Z</time>
      </trkpt>
      <trkpt lat="44.51653" lon="6.70218">
        <ele>1979.4000244141</ele>
        <time>2022-03-10T13:25:54.000Z</time>
      </trkpt>
      <trkpt lat="44.5165" lon="6.70214">
        <ele>1979.8000488281</ele>
        <time>2022-03-10T13:26:01.000Z</time>
      </trkpt>
      <trkpt lat="44.51645" lon="6.70211">
        <ele>1980.4000244141</ele>
        <time>2022-03-10T13:26:08.000Z</time>
      </trkpt>
      <trkpt lat="44.51644" lon="6.70209">
        <ele>1980.8000488281</ele>
        <time>2022-03-10T13:26:10.000Z</time>
      </trkpt>
      <trkpt lat="44.51641" lon="6.70204">
        <ele>1981.4000244141</ele>
        <time>2022-03-10T13:26:17.000Z</time>
      </trkpt>
      <trkpt lat="44.51637" lon="6.70198">
        <ele>1982.4000244141</ele>
        <time>2022-03-10T13:26:27.000Z</time>
      </trkpt>
      <trkpt lat="44.51636" lon="6.70197">
        <ele>1982.5999755859</ele>
        <time>2022-03-10T13:26:28.000Z</time>
      </trkpt>
      <trkpt lat="44.51634" lon="6.70193">
        <ele>1983.5999755859</ele>
        <time>2022-03-10T13:26:33.000Z</time>
      </trkpt>
      <trkpt lat="44.51632" lon="6.7019">
        <ele>1984.1999511719</ele>
        <time>2022-03-10T13:26:37.000Z</time>
      </trkpt>
      <trkpt lat="44.51629" lon="6.70186">
        <ele>1984.5999755859</ele>
        <time>2022-03-10T13:26:43.000Z</time>
      </trkpt>
      <trkpt lat="44.51628" lon="6.70187">
        <ele>1984.8000488281</ele>
        <time>2022-03-10T13:26:44.000Z</time>
      </trkpt>
      <trkpt lat="44.51626" lon="6.70183">
        <ele>1985.8000488281</ele>
        <time>2022-03-10T13:26:50.000Z</time>
      </trkpt>
      <trkpt lat="44.51625" lon="6.70183">
        <ele>1986</ele>
        <time>2022-03-10T13:26:51.000Z</time>
      </trkpt>
      <trkpt lat="44.51622" lon="6.7018">
        <ele>1986.5999755859</ele>
        <time>2022-03-10T13:26:57.000Z</time>
      </trkpt>
      <trkpt lat="44.51621" lon="6.7018">
        <ele>1987</ele>
        <time>2022-03-10T13:26:59.000Z</time>
      </trkpt>
      <trkpt lat="44.51618" lon="6.70179">
        <ele>1988</ele>
        <time>2022-03-10T13:27:06.000Z</time>
      </trkpt>
      <trkpt lat="44.51617" lon="6.70178">
        <ele>1988.4000244141</ele>
        <time>2022-03-10T13:27:09.000Z</time>
      </trkpt>
      <trkpt lat="44.51615" lon="6.70178">
        <ele>1989</ele>
        <time>2022-03-10T13:27:13.000Z</time>
      </trkpt>
      <trkpt lat="44.51614" lon="6.70177">
        <ele>1989.8000488281</ele>
        <time>2022-03-10T13:27:18.000Z</time>
      </trkpt>
      <trkpt lat="44.51613" lon="6.70177">
        <ele>1990.1999511719</ele>
        <time>2022-03-10T13:27:20.000Z</time>
      </trkpt>
      <trkpt lat="44.51612" lon="6.70178">
        <ele>1990.8000488281</ele>
        <time>2022-03-10T13:27:25.000Z</time>
      </trkpt>
      <trkpt lat="44.51611" lon="6.7018">
        <ele>1991.1999511719</ele>
        <time>2022-03-10T13:27:28.000Z</time>
      </trkpt>
      <trkpt lat="44.5161" lon="6.70183">
        <ele>1991.5999755859</ele>
        <time>2022-03-10T13:27:33.000Z</time>
      </trkpt>
      <trkpt lat="44.51609" lon="6.70186">
        <ele>1992.1999511719</ele>
        <time>2022-03-10T13:27:37.000Z</time>
      </trkpt>
      <trkpt lat="44.51608" lon="6.70189">
        <ele>1992.8000488281</ele>
        <time>2022-03-10T13:27:41.000Z</time>
      </trkpt>
      <trkpt lat="44.51608" lon="6.7019">
        <ele>1993.1999511719</ele>
        <time>2022-03-10T13:27:45.000Z</time>
      </trkpt>
      <trkpt lat="44.51606" lon="6.70196">
        <ele>1994</ele>
        <time>2022-03-10T13:27:50.000Z</time>
      </trkpt>
      <trkpt lat="44.51606" lon="6.70195">
        <ele>1994.1999511719</ele>
        <time>2022-03-10T13:27:53.000Z</time>
      </trkpt>
      <trkpt lat="44.51605" lon="6.702">
        <ele>1995</ele>
        <time>2022-03-10T13:27:59.000Z</time>
      </trkpt>
      <trkpt lat="44.51605" lon="6.70203">
        <ele>1995.4000244141</ele>
        <time>2022-03-10T13:28:02.000Z</time>
      </trkpt>
      <trkpt lat="44.51604" lon="6.70206">
        <ele>1995.8000488281</ele>
        <time>2022-03-10T13:28:05.000Z</time>
      </trkpt>
      <trkpt lat="44.51602" lon="6.7021">
        <ele>1996.5999755859</ele>
        <time>2022-03-10T13:28:10.000Z</time>
      </trkpt>
      <trkpt lat="44.516" lon="6.70216">
        <ele>1997.4000244141</ele>
        <time>2022-03-10T13:28:18.000Z</time>
      </trkpt>
      <trkpt lat="44.51599" lon="6.70217">
        <ele>1997.8000488281</ele>
        <time>2022-03-10T13:28:21.000Z</time>
      </trkpt>
      <trkpt lat="44.51597" lon="6.70216">
        <ele>1998.4000244141</ele>
        <time>2022-03-10T13:28:25.000Z</time>
      </trkpt>
      <trkpt lat="44.51595" lon="6.70216">
        <ele>1998.8000488281</ele>
        <time>2022-03-10T13:28:28.000Z</time>
      </trkpt>
      <trkpt lat="44.51593" lon="6.70219">
        <ele>2000</ele>
        <time>2022-03-10T13:28:35.000Z</time>
      </trkpt>
      <trkpt lat="44.5159" lon="6.70218">
        <ele>2001</ele>
        <time>2022-03-10T13:28:41.000Z</time>
      </trkpt>
      <trkpt lat="44.5159" lon="6.70216">
        <ele>2001.1999511719</ele>
        <time>2022-03-10T13:28:43.000Z</time>
      </trkpt>
      <trkpt lat="44.51588" lon="6.70216">
        <ele>2002.1999511719</ele>
        <time>2022-03-10T13:28:48.000Z</time>
      </trkpt>
      <trkpt lat="44.51587" lon="6.70217">
        <ele>2003.1999511719</ele>
        <time>2022-03-10T13:28:54.000Z</time>
      </trkpt>
      <trkpt lat="44.51585" lon="6.70219">
        <ele>2004.1999511719</ele>
        <time>2022-03-10T13:29:00.000Z</time>
      </trkpt>
      <trkpt lat="44.51585" lon="6.7022">
        <ele>2004.5999755859</ele>
        <time>2022-03-10T13:29:01.000Z</time>
      </trkpt>
      <trkpt lat="44.51584" lon="6.70225">
        <ele>2005.1999511719</ele>
        <time>2022-03-10T13:29:08.000Z</time>
      </trkpt>
      <trkpt lat="44.51583" lon="6.70226">
        <ele>2005.4000244141</ele>
        <time>2022-03-10T13:29:09.000Z</time>
      </trkpt>
      <trkpt lat="44.51582" lon="6.70229">
        <ele>2005.5999755859</ele>
        <time>2022-03-10T13:29:12.000Z</time>
      </trkpt>
      <trkpt lat="44.51581" lon="6.7023">
        <ele>2006.4000244141</ele>
        <time>2022-03-10T13:29:15.000Z</time>
      </trkpt>
      <trkpt lat="44.5158" lon="6.7023">
        <ele>2006.5999755859</ele>
        <time>2022-03-10T13:29:16.000Z</time>
      </trkpt>
      <trkpt lat="44.51578" lon="6.7023">
        <ele>2007.1999511719</ele>
        <time>2022-03-10T13:29:21.000Z</time>
      </trkpt>
      <trkpt lat="44.51576" lon="6.70231">
        <ele>2007.5999755859</ele>
        <time>2022-03-10T13:29:24.000Z</time>
      </trkpt>
      <trkpt lat="44.51573" lon="6.70231">
        <ele>2008.8000488281</ele>
        <time>2022-03-10T13:29:31.000Z</time>
      </trkpt>
      <trkpt lat="44.51571" lon="6.70233">
        <ele>2010</ele>
        <time>2022-03-10T13:29:36.000Z</time>
      </trkpt>
      <trkpt lat="44.51571" lon="6.70232">
        <ele>2010</ele>
        <time>2022-03-10T13:29:37.000Z</time>
      </trkpt>
      <trkpt lat="44.51567" lon="6.70229">
        <ele>2010.8000488281</ele>
        <time>2022-03-10T13:29:42.000Z</time>
      </trkpt>
      <trkpt lat="44.51566" lon="6.70228">
        <ele>2011.1999511719</ele>
        <time>2022-03-10T13:29:44.000Z</time>
      </trkpt>
      <trkpt lat="44.51566" lon="6.70226">
        <ele>2012.1999511719</ele>
        <time>2022-03-10T13:29:49.000Z</time>
      </trkpt>
      <trkpt lat="44.51566" lon="6.70225">
        <ele>2012.8000488281</ele>
        <time>2022-03-10T13:29:54.000Z</time>
      </trkpt>
      <trkpt lat="44.51565" lon="6.70226">
        <ele>2012.8000488281</ele>
        <time>2022-03-10T13:29:55.000Z</time>
      </trkpt>
      <trkpt lat="44.51566" lon="6.70229">
        <ele>2013.1999511719</ele>
        <time>2022-03-10T13:30:00.000Z</time>
      </trkpt>
      <trkpt lat="44.51567" lon="6.70231">
        <ele>2013.4000244141</ele>
        <time>2022-03-10T13:30:02.000Z</time>
      </trkpt>
      <trkpt lat="44.51565" lon="6.70239">
        <ele>2014.1999511719</ele>
        <time>2022-03-10T13:30:10.000Z</time>
      </trkpt>
      <trkpt lat="44.51565" lon="6.7024">
        <ele>2014.4000244141</ele>
        <time>2022-03-10T13:30:11.000Z</time>
      </trkpt>
      <trkpt lat="44.51566" lon="6.70243">
        <ele>2015.1999511719</ele>
        <time>2022-03-10T13:30:16.000Z</time>
      </trkpt>
      <trkpt lat="44.51566" lon="6.70244">
        <ele>2015.4000244141</ele>
        <time>2022-03-10T13:30:17.000Z</time>
      </trkpt>
      <trkpt lat="44.51565" lon="6.70247">
        <ele>2016</ele>
        <time>2022-03-10T13:30:22.000Z</time>
      </trkpt>
      <trkpt lat="44.51565" lon="6.70249">
        <ele>2016.4000244141</ele>
        <time>2022-03-10T13:30:25.000Z</time>
      </trkpt>
      <trkpt lat="44.51563" lon="6.7025">
        <ele>2016.5999755859</ele>
        <time>2022-03-10T13:30:27.000Z</time>
      </trkpt>
      <trkpt lat="44.5156" lon="6.70249">
        <ele>2017.1999511719</ele>
        <time>2022-03-10T13:30:34.000Z</time>
      </trkpt>
      <trkpt lat="44.51558" lon="6.70249">
        <ele>2017.5999755859</ele>
        <time>2022-03-10T13:30:36.000Z</time>
      </trkpt>
      <trkpt lat="44.51556" lon="6.7025">
        <ele>2018.5999755859</ele>
        <time>2022-03-10T13:30:42.000Z</time>
      </trkpt>
      <trkpt lat="44.51556" lon="6.70249">
        <ele>2018.5999755859</ele>
        <time>2022-03-10T13:30:43.000Z</time>
      </trkpt>
      <trkpt lat="44.51552" lon="6.70249">
        <ele>2019.8000488281</ele>
        <time>2022-03-10T13:30:49.000Z</time>
      </trkpt>
      <trkpt lat="44.51551" lon="6.70246">
        <ele>2020.4000244141</ele>
        <time>2022-03-10T13:30:54.000Z</time>
      </trkpt>
      <trkpt lat="44.51551" lon="6.70245">
        <ele>2020.8000488281</ele>
        <time>2022-03-10T13:30:57.000Z</time>
      </trkpt>
      <trkpt lat="44.51551" lon="6.70245">
        <ele>2021.4000244141</ele>
        <time>2022-03-10T13:30:59.000Z</time>
      </trkpt>
      <trkpt lat="44.5155" lon="6.70248">
        <ele>2022</ele>
        <time>2022-03-10T13:31:06.000Z</time>
      </trkpt>
      <trkpt lat="44.51551" lon="6.70248">
        <ele>2023.1999511719</ele>
        <time>2022-03-10T13:31:12.000Z</time>
      </trkpt>
      <trkpt lat="44.51552" lon="6.70247">
        <ele>2023.1999511719</ele>
        <time>2022-03-10T13:31:13.000Z</time>
      </trkpt>
      <trkpt lat="44.51554" lon="6.70247">
        <ele>2023.5999755859</ele>
        <time>2022-03-10T13:31:15.000Z</time>
      </trkpt>
      <trkpt lat="44.51553" lon="6.7025">
        <ele>2023.8000488281</ele>
        <time>2022-03-10T13:31:19.000Z</time>
      </trkpt>
      <trkpt lat="44.51553" lon="6.70252">
        <ele>2024.1999511719</ele>
        <time>2022-03-10T13:31:21.000Z</time>
      </trkpt>
      <trkpt lat="44.51554" lon="6.70256">
        <ele>2025.4000244141</ele>
        <time>2022-03-10T13:31:27.000Z</time>
      </trkpt>
      <trkpt lat="44.51554" lon="6.70258">
        <ele>2025.8000488281</ele>
        <time>2022-03-10T13:31:29.000Z</time>
      </trkpt>
      <trkpt lat="44.5156" lon="6.70256">
        <ele>2026.4000244141</ele>
        <time>2022-03-10T13:31:36.000Z</time>
      </trkpt>
      <trkpt lat="44.51559" lon="6.70256">
        <ele>2026.4000244141</ele>
        <time>2022-03-10T13:31:37.000Z</time>
      </trkpt>
      <trkpt lat="44.51557" lon="6.70257">
        <ele>2026.5999755859</ele>
        <time>2022-03-10T13:31:40.000Z</time>
      </trkpt>
      <trkpt lat="44.51553" lon="6.70259">
        <ele>2027.1999511719</ele>
        <time>2022-03-10T13:31:46.000Z</time>
      </trkpt>
      <trkpt lat="44.51552" lon="6.70259">
        <ele>2027.5999755859</ele>
        <time>2022-03-10T13:31:48.000Z</time>
      </trkpt>
      <trkpt lat="44.51549" lon="6.70258">
        <ele>2028.4000244141</ele>
        <time>2022-03-10T13:31:53.000Z</time>
      </trkpt>
      <trkpt lat="44.51548" lon="6.70258">
        <ele>2028.5999755859</ele>
        <time>2022-03-10T13:31:55.000Z</time>
      </trkpt>
      <trkpt lat="44.51545" lon="6.70261">
        <ele>2029.1999511719</ele>
        <time>2022-03-10T13:31:58.000Z</time>
      </trkpt>
      <trkpt lat="44.51542" lon="6.7026">
        <ele>2029.5999755859</ele>
        <time>2022-03-10T13:32:01.000Z</time>
      </trkpt>
      <trkpt lat="44.51537" lon="6.70259">
        <ele>2030</ele>
        <time>2022-03-10T13:32:04.000Z</time>
      </trkpt>
      <trkpt lat="44.51536" lon="6.7026">
        <ele>2030.5999755859</ele>
        <time>2022-03-10T13:32:07.000Z</time>
      </trkpt>
      <trkpt lat="44.51536" lon="6.7026">
        <ele>2031</ele>
        <time>2022-03-10T13:32:08.000Z</time>
      </trkpt>
      <trkpt lat="44.51535" lon="6.70259">
        <ele>2031.1999511719</ele>
        <time>2022-03-10T13:32:10.000Z</time>
      </trkpt>
      <trkpt lat="44.51537" lon="6.70258">
        <ele>2031.8000488281</ele>
        <time>2022-03-10T13:32:15.000Z</time>
      </trkpt>
      <trkpt lat="44.51539" lon="6.70258">
        <ele>2032</ele>
        <time>2022-03-10T13:32:18.000Z</time>
      </trkpt>
      <trkpt lat="44.51538" lon="6.7026">
        <ele>2032.4000244141</ele>
        <time>2022-03-10T13:32:21.000Z</time>
      </trkpt>
      <trkpt lat="44.51539" lon="6.70261">
        <ele>2033</ele>
        <time>2022-03-10T13:32:25.000Z</time>
      </trkpt>
      <trkpt lat="44.51538" lon="6.70263">
        <ele>2033.1999511719</ele>
        <time>2022-03-10T13:32:27.000Z</time>
      </trkpt>
      <trkpt lat="44.51538" lon="6.70266">
        <ele>2034.1999511719</ele>
        <time>2022-03-10T13:32:33.000Z</time>
      </trkpt>
      <trkpt lat="44.51539" lon="6.70268">
        <ele>2034.4000244141</ele>
        <time>2022-03-10T13:32:35.000Z</time>
      </trkpt>
      <trkpt lat="44.51539" lon="6.70273">
        <ele>2035.4000244141</ele>
        <time>2022-03-10T13:32:41.000Z</time>
      </trkpt>
      <trkpt lat="44.5154" lon="6.70274">
        <ele>2035.5999755859</ele>
        <time>2022-03-10T13:32:43.000Z</time>
      </trkpt>
      <trkpt lat="44.51536" lon="6.7028">
        <ele>2036.5999755859</ele>
        <time>2022-03-10T13:32:51.000Z</time>
      </trkpt>
      <trkpt lat="44.51536" lon="6.7028">
        <ele>2036.5999755859</ele>
        <time>2022-03-10T13:32:52.000Z</time>
      </trkpt>
      <trkpt lat="44.51533" lon="6.70278">
        <ele>2037.1999511719</ele>
        <time>2022-03-10T13:32:58.000Z</time>
      </trkpt>
      <trkpt lat="44.51531" lon="6.70278">
        <ele>2037.5999755859</ele>
        <time>2022-03-10T13:33:01.000Z</time>
      </trkpt>
      <trkpt lat="44.5153" lon="6.70277">
        <ele>2038</ele>
        <time>2022-03-10T13:33:04.000Z</time>
      </trkpt>
      <trkpt lat="44.51527" lon="6.70277">
        <ele>2038.8000488281</ele>
        <time>2022-03-10T13:33:09.000Z</time>
      </trkpt>
      <trkpt lat="44.51526" lon="6.70278">
        <ele>2039</ele>
        <time>2022-03-10T13:33:11.000Z</time>
      </trkpt>
      <trkpt lat="44.51523" lon="6.70277">
        <ele>2039.8000488281</ele>
        <time>2022-03-10T13:33:16.000Z</time>
      </trkpt>
      <trkpt lat="44.5152" lon="6.70277">
        <ele>2040.1999511719</ele>
        <time>2022-03-10T13:33:18.000Z</time>
      </trkpt>
      <trkpt lat="44.51521" lon="6.70275">
        <ele>2041</ele>
        <time>2022-03-10T13:33:22.000Z</time>
      </trkpt>
      <trkpt lat="44.51521" lon="6.70274">
        <ele>2041.1999511719</ele>
        <time>2022-03-10T13:33:23.000Z</time>
      </trkpt>
      <trkpt lat="44.51518" lon="6.70273">
        <ele>2041.4000244141</ele>
        <time>2022-03-10T13:33:26.000Z</time>
      </trkpt>
      <trkpt lat="44.51516" lon="6.70274">
        <ele>2041.8000488281</ele>
        <time>2022-03-10T13:33:31.000Z</time>
      </trkpt>
      <trkpt lat="44.51516" lon="6.70273">
        <ele>2042</ele>
        <time>2022-03-10T13:33:32.000Z</time>
      </trkpt>
      <trkpt lat="44.51517" lon="6.70272">
        <ele>2042.4000244141</ele>
        <time>2022-03-10T13:33:37.000Z</time>
      </trkpt>
      <trkpt lat="44.51517" lon="6.70274">
        <ele>2043.1999511719</ele>
        <time>2022-03-10T13:33:41.000Z</time>
      </trkpt>
      <trkpt lat="44.51519" lon="6.70276">
        <ele>2044</ele>
        <time>2022-03-10T13:33:46.000Z</time>
      </trkpt>
      <trkpt lat="44.51519" lon="6.70277">
        <ele>2044.1999511719</ele>
        <time>2022-03-10T13:33:48.000Z</time>
      </trkpt>
      <trkpt lat="44.51519" lon="6.7028">
        <ele>2045.1999511719</ele>
        <time>2022-03-10T13:33:54.000Z</time>
      </trkpt>
      <trkpt lat="44.5152" lon="6.70279">
        <ele>2045.4000244141</ele>
        <time>2022-03-10T13:33:55.000Z</time>
      </trkpt>
      <trkpt lat="44.5152" lon="6.70281">
        <ele>2046</ele>
        <time>2022-03-10T13:34:00.000Z</time>
      </trkpt>
      <trkpt lat="44.51521" lon="6.70282">
        <ele>2046.4000244141</ele>
        <time>2022-03-10T13:34:06.000Z</time>
      </trkpt>
      <trkpt lat="44.51522" lon="6.70286">
        <ele>2047</ele>
        <time>2022-03-10T13:34:10.000Z</time>
      </trkpt>
      <trkpt lat="44.51522" lon="6.70289">
        <ele>2047.4000244141</ele>
        <time>2022-03-10T13:34:13.000Z</time>
      </trkpt>
      <trkpt lat="44.51522" lon="6.70292">
        <ele>2047.8000488281</ele>
        <time>2022-03-10T13:34:16.000Z</time>
      </trkpt>
      <trkpt lat="44.51523" lon="6.70296">
        <ele>2048.6000976562</ele>
        <time>2022-03-10T13:34:20.000Z</time>
      </trkpt>
      <trkpt lat="44.51522" lon="6.70299">
        <ele>2049</ele>
        <time>2022-03-10T13:34:24.000Z</time>
      </trkpt>
      <trkpt lat="44.5152" lon="6.70299">
        <ele>2049.1999511719</ele>
        <time>2022-03-10T13:34:29.000Z</time>
      </trkpt>
      <trkpt lat="44.5152" lon="6.70299">
        <ele>2049.6000976562</ele>
        <time>2022-03-10T13:34:34.000Z</time>
      </trkpt>
      <trkpt lat="44.51519" lon="6.703">
        <ele>2049.6000976562</ele>
        <time>2022-03-10T13:34:35.000Z</time>
      </trkpt>
      <trkpt lat="44.51516" lon="6.70301">
        <ele>2050.6000976562</ele>
        <time>2022-03-10T13:34:42.000Z</time>
      </trkpt>
      <trkpt lat="44.51515" lon="6.70301">
        <ele>2050.6000976562</ele>
        <time>2022-03-10T13:34:43.000Z</time>
      </trkpt>
      <trkpt lat="44.5151" lon="6.70302">
        <ele>2051.8000488281</ele>
        <time>2022-03-10T13:34:48.000Z</time>
      </trkpt>
      <trkpt lat="44.51509" lon="6.70302">
        <ele>2051.8000488281</ele>
        <time>2022-03-10T13:34:49.000Z</time>
      </trkpt>
      <trkpt lat="44.51501" lon="6.70302">
        <ele>2052.6000976562</ele>
        <time>2022-03-10T13:34:55.000Z</time>
      </trkpt>
      <trkpt lat="44.515" lon="6.70302">
        <ele>2052.8000488281</ele>
        <time>2022-03-10T13:34:56.000Z</time>
      </trkpt>
      <trkpt lat="44.51496" lon="6.70297">
        <ele>2053.8000488281</ele>
        <time>2022-03-10T13:35:02.000Z</time>
      </trkpt>
      <trkpt lat="44.51496" lon="6.70296">
        <ele>2054.1999511719</ele>
        <time>2022-03-10T13:35:04.000Z</time>
      </trkpt>
      <trkpt lat="44.51491" lon="6.70296">
        <ele>2054.8000488281</ele>
        <time>2022-03-10T13:35:07.000Z</time>
      </trkpt>
      <trkpt lat="44.5149" lon="6.70296">
        <ele>2055</ele>
        <time>2022-03-10T13:35:08.000Z</time>
      </trkpt>
      <trkpt lat="44.5149" lon="6.70295">
        <ele>2055.1999511719</ele>
        <time>2022-03-10T13:35:10.000Z</time>
      </trkpt>
      <trkpt lat="44.51487" lon="6.70295">
        <ele>2055.8000488281</ele>
        <time>2022-03-10T13:35:12.000Z</time>
      </trkpt>
      <trkpt lat="44.51486" lon="6.70295">
        <ele>2056</ele>
        <time>2022-03-10T13:35:14.000Z</time>
      </trkpt>
      <trkpt lat="44.51485" lon="6.70295">
        <ele>2056</ele>
        <time>2022-03-10T13:35:15.000Z</time>
      </trkpt>
      <trkpt lat="44.51482" lon="6.70292">
        <ele>2056.6000976562</ele>
        <time>2022-03-10T13:35:20.000Z</time>
      </trkpt>
      <trkpt lat="44.5148" lon="6.7029">
        <ele>2057</ele>
        <time>2022-03-10T13:35:23.000Z</time>
      </trkpt>
      <trkpt lat="44.51478" lon="6.70289">
        <ele>2057.6000976562</ele>
        <time>2022-03-10T13:35:28.000Z</time>
      </trkpt>
      <trkpt lat="44.5148" lon="6.70285">
        <ele>2058</ele>
        <time>2022-03-10T13:35:32.000Z</time>
      </trkpt>
      <trkpt lat="44.51479" lon="6.70284">
        <ele>2058.1999511719</ele>
        <time>2022-03-10T13:35:34.000Z</time>
      </trkpt>
      <trkpt lat="44.51475" lon="6.70282">
        <ele>2059</ele>
        <time>2022-03-10T13:35:41.000Z</time>
      </trkpt>
      <trkpt lat="44.51474" lon="6.70282">
        <ele>2059</ele>
        <time>2022-03-10T13:35:42.000Z</time>
      </trkpt>
      <trkpt lat="44.51471" lon="6.70278">
        <ele>2059.6000976562</ele>
        <time>2022-03-10T13:35:47.000Z</time>
      </trkpt>
      <trkpt lat="44.51473" lon="6.70276">
        <ele>2060</ele>
        <time>2022-03-10T13:35:51.000Z</time>
      </trkpt>
      <trkpt lat="44.51473" lon="6.70276">
        <ele>2060</ele>
        <time>2022-03-10T13:35:53.000Z</time>
      </trkpt>
      <trkpt lat="44.51473" lon="6.70278">
        <ele>2060.3999023438</ele>
        <time>2022-03-10T13:35:55.000Z</time>
      </trkpt>
      <trkpt lat="44.51476" lon="6.70277">
        <ele>2060.6000976562</ele>
        <time>2022-03-10T13:35:57.000Z</time>
      </trkpt>
      <trkpt lat="44.51477" lon="6.7028">
        <ele>2061.1999511719</ele>
        <time>2022-03-10T13:36:02.000Z</time>
      </trkpt>
      <trkpt lat="44.51482" lon="6.70282">
        <ele>2062.1999511719</ele>
        <time>2022-03-10T13:36:09.000Z</time>
      </trkpt>
      <trkpt lat="44.51483" lon="6.70283">
        <ele>2062.3999023438</ele>
        <time>2022-03-10T13:36:10.000Z</time>
      </trkpt>
      <trkpt lat="44.51483" lon="6.70283">
        <ele>2062.6000976562</ele>
        <time>2022-03-10T13:36:11.000Z</time>
      </trkpt>
      <trkpt lat="44.51486" lon="6.70287">
        <ele>2063.3999023438</ele>
        <time>2022-03-10T13:36:19.000Z</time>
      </trkpt>
      <trkpt lat="44.51485" lon="6.70292">
        <ele>2064.3999023438</ele>
        <time>2022-03-10T13:36:25.000Z</time>
      </trkpt>
      <trkpt lat="44.51486" lon="6.70293">
        <ele>2064.6000976562</ele>
        <time>2022-03-10T13:36:28.000Z</time>
      </trkpt>
      <trkpt lat="44.51488" lon="6.70297">
        <ele>2065.3999023438</ele>
        <time>2022-03-10T13:36:33.000Z</time>
      </trkpt>
      <trkpt lat="44.51489" lon="6.70297">
        <ele>2065.6000976562</ele>
        <time>2022-03-10T13:36:34.000Z</time>
      </trkpt>
      <trkpt lat="44.51491" lon="6.70302">
        <ele>2066.6000976562</ele>
        <time>2022-03-10T13:36:40.000Z</time>
      </trkpt>
      <trkpt lat="44.51492" lon="6.70309">
        <ele>2067.6000976562</ele>
        <time>2022-03-10T13:36:49.000Z</time>
      </trkpt>
      <trkpt lat="44.51493" lon="6.70311">
        <ele>2067.8000488281</ele>
        <time>2022-03-10T13:36:51.000Z</time>
      </trkpt>
      <trkpt lat="44.51492" lon="6.70317">
        <ele>2068.8000488281</ele>
        <time>2022-03-10T13:36:59.000Z</time>
      </trkpt>
      <trkpt lat="44.51492" lon="6.70318">
        <ele>2068.8000488281</ele>
        <time>2022-03-10T13:37:00.000Z</time>
      </trkpt>
      <trkpt lat="44.51493" lon="6.70322">
        <ele>2069.6000976562</ele>
        <time>2022-03-10T13:37:04.000Z</time>
      </trkpt>
      <trkpt lat="44.51494" lon="6.70324">
        <ele>2069.8000488281</ele>
        <time>2022-03-10T13:37:06.000Z</time>
      </trkpt>
      <trkpt lat="44.51494" lon="6.70324">
        <ele>2069.8000488281</ele>
        <time>2022-03-10T13:37:07.000Z</time>
      </trkpt>
      <trkpt lat="44.51493" lon="6.70328">
        <ele>2070.8000488281</ele>
        <time>2022-03-10T13:37:15.000Z</time>
      </trkpt>
      <trkpt lat="44.51491" lon="6.70328">
        <ele>2071</ele>
        <time>2022-03-10T13:37:17.000Z</time>
      </trkpt>
      <trkpt lat="44.51488" lon="6.70328">
        <ele>2071</ele>
        <time>2022-03-10T13:37:20.000Z</time>
      </trkpt>
      <trkpt lat="44.51483" lon="6.70325">
        <ele>2071.6000976562</ele>
        <time>2022-03-10T13:37:26.000Z</time>
      </trkpt>
      <trkpt lat="44.51481" lon="6.70325">
        <ele>2071.8000488281</ele>
        <time>2022-03-10T13:37:30.000Z</time>
      </trkpt>
      <trkpt lat="44.5148" lon="6.70324">
        <ele>2072.1999511719</ele>
        <time>2022-03-10T13:37:32.000Z</time>
      </trkpt>
      <trkpt lat="44.51477" lon="6.70321">
        <ele>2072.6000976562</ele>
        <time>2022-03-10T13:37:37.000Z</time>
      </trkpt>
      <trkpt lat="44.51474" lon="6.70319">
        <ele>2073</ele>
        <time>2022-03-10T13:37:40.000Z</time>
      </trkpt>
      <trkpt lat="44.51469" lon="6.70319">
        <ele>2073.6000976562</ele>
        <time>2022-03-10T13:37:44.000Z</time>
      </trkpt>
      <trkpt lat="44.51467" lon="6.70321">
        <ele>2073.8000488281</ele>
        <time>2022-03-10T13:37:45.000Z</time>
      </trkpt>
      <trkpt lat="44.51463" lon="6.70322">
        <ele>2074</ele>
        <time>2022-03-10T13:37:47.000Z</time>
      </trkpt>
      <trkpt lat="44.51463" lon="6.70318">
        <ele>2074.6000976562</ele>
        <time>2022-03-10T13:37:51.000Z</time>
      </trkpt>
      <trkpt lat="44.51467" lon="6.70315">
        <ele>2075.1999511719</ele>
        <time>2022-03-10T13:37:57.000Z</time>
      </trkpt>
      <trkpt lat="44.51469" lon="6.70316">
        <ele>2075.8000488281</ele>
        <time>2022-03-10T13:38:03.000Z</time>
      </trkpt>
      <trkpt lat="44.51471" lon="6.70317">
        <ele>2076.3999023438</ele>
        <time>2022-03-10T13:38:05.000Z</time>
      </trkpt>
      <trkpt lat="44.51474" lon="6.70319">
        <ele>2076.8000488281</ele>
        <time>2022-03-10T13:38:10.000Z</time>
      </trkpt>
      <trkpt lat="44.51473" lon="6.70321">
        <ele>2076.8000488281</ele>
        <time>2022-03-10T13:38:11.000Z</time>
      </trkpt>
      <trkpt lat="44.51476" lon="6.70325">
        <ele>2077.3999023438</ele>
        <time>2022-03-10T13:38:16.000Z</time>
      </trkpt>
      <trkpt lat="44.5148" lon="6.70332">
        <ele>2078.6000976562</ele>
        <time>2022-03-10T13:38:25.000Z</time>
      </trkpt>
      <trkpt lat="44.51479" lon="6.70333">
        <ele>2078.6000976562</ele>
        <time>2022-03-10T13:38:26.000Z</time>
      </trkpt>
      <trkpt lat="44.5148" lon="6.70337">
        <ele>2079.1999511719</ele>
        <time>2022-03-10T13:38:32.000Z</time>
      </trkpt>
      <trkpt lat="44.51484" lon="6.70339">
        <ele>2079.6000976562</ele>
        <time>2022-03-10T13:38:36.000Z</time>
      </trkpt>
      <trkpt lat="44.51484" lon="6.7034">
        <ele>2079.6000976562</ele>
        <time>2022-03-10T13:38:37.000Z</time>
      </trkpt>
      <trkpt lat="44.51482" lon="6.70341">
        <ele>2080</ele>
        <time>2022-03-10T13:38:39.000Z</time>
      </trkpt>
      <trkpt lat="44.51478" lon="6.70343">
        <ele>2080.6000976562</ele>
        <time>2022-03-10T13:38:43.000Z</time>
      </trkpt>
      <trkpt lat="44.51476" lon="6.70342">
        <ele>2080.6000976562</ele>
        <time>2022-03-10T13:38:45.000Z</time>
      </trkpt>
      <trkpt lat="44.51475" lon="6.70342">
        <ele>2080.6000976562</ele>
        <time>2022-03-10T13:38:46.000Z</time>
      </trkpt>
      <trkpt lat="44.51474" lon="6.70342">
        <ele>2080.8000488281</ele>
        <time>2022-03-10T13:38:48.000Z</time>
      </trkpt>
      <trkpt lat="44.5147" lon="6.70339">
        <ele>2081.6000976562</ele>
        <time>2022-03-10T13:38:55.000Z</time>
      </trkpt>
      <trkpt lat="44.51469" lon="6.70338">
        <ele>2081.6000976562</ele>
        <time>2022-03-10T13:38:56.000Z</time>
      </trkpt>
      <trkpt lat="44.51466" lon="6.70338">
        <ele>2082.6000976562</ele>
        <time>2022-03-10T13:39:00.000Z</time>
      </trkpt>
      <trkpt lat="44.51465" lon="6.70336">
        <ele>2083.1999511719</ele>
        <time>2022-03-10T13:39:03.000Z</time>
      </trkpt>
      <trkpt lat="44.51463" lon="6.70336">
        <ele>2083.8000488281</ele>
        <time>2022-03-10T13:39:07.000Z</time>
      </trkpt>
      <trkpt lat="44.51462" lon="6.70335">
        <ele>2084</ele>
        <time>2022-03-10T13:39:09.000Z</time>
      </trkpt>
      <trkpt lat="44.51457" lon="6.70333">
        <ele>2084.6000976562</ele>
        <time>2022-03-10T13:39:15.000Z</time>
      </trkpt>
      <trkpt lat="44.51454" lon="6.70332">
        <ele>2084.8000488281</ele>
        <time>2022-03-10T13:39:18.000Z</time>
      </trkpt>
      <trkpt lat="44.51454" lon="6.7033">
        <ele>2085.1999511719</ele>
        <time>2022-03-10T13:39:21.000Z</time>
      </trkpt>
      <trkpt lat="44.51452" lon="6.70325">
        <ele>2085.6000976562</ele>
        <time>2022-03-10T13:39:27.000Z</time>
      </trkpt>
      <trkpt lat="44.51453" lon="6.70324">
        <ele>2085.8000488281</ele>
        <time>2022-03-10T13:39:30.000Z</time>
      </trkpt>
      <trkpt lat="44.51452" lon="6.70321">
        <ele>2086.3999023438</ele>
        <time>2022-03-10T13:39:34.000Z</time>
      </trkpt>
      <trkpt lat="44.51453" lon="6.7032">
        <ele>2087</ele>
        <time>2022-03-10T13:39:40.000Z</time>
      </trkpt>
      <trkpt lat="44.51454" lon="6.70323">
        <ele>2088</ele>
        <time>2022-03-10T13:39:47.000Z</time>
      </trkpt>
      <trkpt lat="44.51454" lon="6.70323">
        <ele>2088.1999511719</ele>
        <time>2022-03-10T13:39:48.000Z</time>
      </trkpt>
      <trkpt lat="44.51455" lon="6.70328">
        <ele>2088.6000976562</ele>
        <time>2022-03-10T13:39:54.000Z</time>
      </trkpt>
      <trkpt lat="44.51455" lon="6.70328">
        <ele>2088.8000488281</ele>
        <time>2022-03-10T13:39:55.000Z</time>
      </trkpt>
      <trkpt lat="44.51458" lon="6.70331">
        <ele>2089.1999511719</ele>
        <time>2022-03-10T13:39:59.000Z</time>
      </trkpt>
      <trkpt lat="44.51459" lon="6.70337">
        <ele>2090</ele>
        <time>2022-03-10T13:40:06.000Z</time>
      </trkpt>
      <trkpt lat="44.5146" lon="6.70339">
        <ele>2090.1999511719</ele>
        <time>2022-03-10T13:40:08.000Z</time>
      </trkpt>
      <trkpt lat="44.51461" lon="6.70341">
        <ele>2090.8000488281</ele>
        <time>2022-03-10T13:40:12.000Z</time>
      </trkpt>
      <trkpt lat="44.51461" lon="6.70346">
        <ele>2091.3999023438</ele>
        <time>2022-03-10T13:40:17.000Z</time>
      </trkpt>
      <trkpt lat="44.51463" lon="6.70353">
        <ele>2092.1999511719</ele>
        <time>2022-03-10T13:40:25.000Z</time>
      </trkpt>
      <trkpt lat="44.51463" lon="6.70355">
        <ele>2092.3999023438</ele>
        <time>2022-03-10T13:40:27.000Z</time>
      </trkpt>
      <trkpt lat="44.51464" lon="6.70358">
        <ele>2092.6000976562</ele>
        <time>2022-03-10T13:40:31.000Z</time>
      </trkpt>
      <trkpt lat="44.51468" lon="6.70364">
        <ele>2093.3999023438</ele>
        <time>2022-03-10T13:40:40.000Z</time>
      </trkpt>
      <trkpt lat="44.51471" lon="6.70366">
        <ele>2093.6000976562</ele>
        <time>2022-03-10T13:40:44.000Z</time>
      </trkpt>
      <trkpt lat="44.51472" lon="6.70367">
        <ele>2093.8000488281</ele>
        <time>2022-03-10T13:40:46.000Z</time>
      </trkpt>
      <trkpt lat="44.51476" lon="6.70374">
        <ele>2094.3999023438</ele>
        <time>2022-03-10T13:40:56.000Z</time>
      </trkpt>
      <trkpt lat="44.51474" lon="6.70385">
        <ele>2095</ele>
        <time>2022-03-10T13:41:03.000Z</time>
      </trkpt>
      <trkpt lat="44.51475" lon="6.70386">
        <ele>2095.6000976562</ele>
        <time>2022-03-10T13:41:05.000Z</time>
      </trkpt>
      <trkpt lat="44.51475" lon="6.7039">
        <ele>2095.8000488281</ele>
        <time>2022-03-10T13:41:08.000Z</time>
      </trkpt>
      <trkpt lat="44.51476" lon="6.70395">
        <ele>2096.6000976562</ele>
        <time>2022-03-10T13:41:13.000Z</time>
      </trkpt>
      <trkpt lat="44.51476" lon="6.70398">
        <ele>2097.1999511719</ele>
        <time>2022-03-10T13:41:17.000Z</time>
      </trkpt>
      <trkpt lat="44.51478" lon="6.70399">
        <ele>2097.6000976562</ele>
        <time>2022-03-10T13:41:22.000Z</time>
      </trkpt>
      <trkpt lat="44.51478" lon="6.70402">
        <ele>2098</ele>
        <time>2022-03-10T13:41:25.000Z</time>
      </trkpt>
      <trkpt lat="44.51479" lon="6.70405">
        <ele>2098.8000488281</ele>
        <time>2022-03-10T13:41:30.000Z</time>
      </trkpt>
      <trkpt lat="44.51481" lon="6.70408">
        <ele>2098.8000488281</ele>
        <time>2022-03-10T13:41:34.000Z</time>
      </trkpt>
      <trkpt lat="44.51484" lon="6.70412">
        <ele>2098.8000488281</ele>
        <time>2022-03-10T13:41:41.000Z</time>
      </trkpt>
      <trkpt lat="44.51484" lon="6.70412">
        <ele>2099</ele>
        <time>2022-03-10T13:41:49.000Z</time>
      </trkpt>
      <trkpt lat="44.51482" lon="6.70416">
        <ele>2099.3999023438</ele>
        <time>2022-03-10T13:41:56.000Z</time>
      </trkpt>
      <trkpt lat="44.51481" lon="6.70419">
        <ele>2099.8000488281</ele>
        <time>2022-03-10T13:42:02.000Z</time>
      </trkpt>
      <trkpt lat="44.51481" lon="6.70421">
        <ele>2100</ele>
        <time>2022-03-10T13:42:05.000Z</time>
      </trkpt>
      <trkpt lat="44.51481" lon="6.70423">
        <ele>2100.1999511719</ele>
        <time>2022-03-10T13:42:13.000Z</time>
      </trkpt>
      <trkpt lat="44.5148" lon="6.70426">
        <ele>2100.8000488281</ele>
        <time>2022-03-10T13:42:18.000Z</time>
      </trkpt>
      <trkpt lat="44.5148" lon="6.70426">
        <ele>2100.8000488281</ele>
        <time>2022-03-10T13:42:19.000Z</time>
      </trkpt>
      <trkpt lat="44.51481" lon="6.7043">
        <ele>2101.8000488281</ele>
        <time>2022-03-10T13:42:28.000Z</time>
      </trkpt>
      <trkpt lat="44.51482" lon="6.7043">
        <ele>2101.8000488281</ele>
        <time>2022-03-10T13:42:29.000Z</time>
      </trkpt>
      <trkpt lat="44.51482" lon="6.70433">
        <ele>2102.6000976562</ele>
        <time>2022-03-10T13:42:36.000Z</time>
      </trkpt>
      <trkpt lat="44.51482" lon="6.70433">
        <ele>2102.8000488281</ele>
        <time>2022-03-10T13:42:38.000Z</time>
      </trkpt>
      <trkpt lat="44.51483" lon="6.70438">
        <ele>2103.1999511719</ele>
        <time>2022-03-10T13:42:48.000Z</time>
      </trkpt>
      <trkpt lat="44.51482" lon="6.70441">
        <ele>2103.8000488281</ele>
        <time>2022-03-10T13:42:53.000Z</time>
      </trkpt>
      <trkpt lat="44.51482" lon="6.70443">
        <ele>2104.6000976562</ele>
        <time>2022-03-10T13:42:58.000Z</time>
      </trkpt>
      <trkpt lat="44.51482" lon="6.70445">
        <ele>2105</ele>
        <time>2022-03-10T13:43:05.000Z</time>
      </trkpt>
      <trkpt lat="44.51481" lon="6.70445">
        <ele>2105.1999511719</ele>
        <time>2022-03-10T13:43:07.000Z</time>
      </trkpt>
      <trkpt lat="44.51479" lon="6.70443">
        <ele>2106</ele>
        <time>2022-03-10T13:43:31.000Z</time>
      </trkpt>
      <trkpt lat="44.51473" lon="6.70445">
        <ele>2107</ele>
        <time>2022-03-10T13:43:53.000Z</time>
      </trkpt>
      <trkpt lat="44.51471" lon="6.70444">
        <ele>2108</ele>
        <time>2022-03-10T13:43:59.000Z</time>
      </trkpt>
      <trkpt lat="44.5147" lon="6.70445">
        <ele>2108.1999511719</ele>
        <time>2022-03-10T13:44:01.000Z</time>
      </trkpt>
      <trkpt lat="44.51469" lon="6.70445">
        <ele>2109.1999511719</ele>
        <time>2022-03-10T13:44:09.000Z</time>
      </trkpt>
      <trkpt lat="44.51471" lon="6.7044">
        <ele>2110.1999511719</ele>
        <time>2022-03-10T13:44:16.000Z</time>
      </trkpt>
      <trkpt lat="44.51472" lon="6.70441">
        <ele>2110.3999023438</ele>
        <time>2022-03-10T13:44:18.000Z</time>
      </trkpt>
      <trkpt lat="44.51472" lon="6.70441">
        <ele>2111</ele>
        <time>2022-03-10T13:44:21.000Z</time>
      </trkpt>
      <trkpt lat="44.51473" lon="6.7044">
        <ele>2111.3999023438</ele>
        <time>2022-03-10T13:44:24.000Z</time>
      </trkpt>
      <trkpt lat="44.51473" lon="6.70439">
        <ele>2111.6000976562</ele>
        <time>2022-03-10T13:44:26.000Z</time>
      </trkpt>
      <trkpt lat="44.51467" lon="6.70439">
        <ele>2112.1999511719</ele>
        <time>2022-03-10T13:44:33.000Z</time>
      </trkpt>
      <trkpt lat="44.51466" lon="6.70439">
        <ele>2112.6000976562</ele>
        <time>2022-03-10T13:44:36.000Z</time>
      </trkpt>
      <trkpt lat="44.51463" lon="6.70439">
        <ele>2113.1999511719</ele>
        <time>2022-03-10T13:44:39.000Z</time>
      </trkpt>
      <trkpt lat="44.51464" lon="6.70436">
        <ele>2113.6000976562</ele>
        <time>2022-03-10T13:44:43.000Z</time>
      </trkpt>
      <trkpt lat="44.51466" lon="6.70435">
        <ele>2114</ele>
        <time>2022-03-10T13:44:49.000Z</time>
      </trkpt>
      <trkpt lat="44.51465" lon="6.70435">
        <ele>2114.6000976562</ele>
        <time>2022-03-10T13:45:02.000Z</time>
      </trkpt>
      <trkpt lat="44.51463" lon="6.70435">
        <ele>2115.8000488281</ele>
        <time>2022-03-10T13:45:11.000Z</time>
      </trkpt>
      <trkpt lat="44.51462" lon="6.70435">
        <ele>2116.1999511719</ele>
        <time>2022-03-10T13:45:16.000Z</time>
      </trkpt>
      <trkpt lat="44.51461" lon="6.70436">
        <ele>2116.8000488281</ele>
        <time>2022-03-10T13:45:22.000Z</time>
      </trkpt>
      <trkpt lat="44.51458" lon="6.70442">
        <ele>2118</ele>
        <time>2022-03-10T13:45:37.000Z</time>
      </trkpt>
      <trkpt lat="44.51457" lon="6.70445">
        <ele>2119</ele>
        <time>2022-03-10T13:45:50.000Z</time>
      </trkpt>
      <trkpt lat="44.51454" lon="6.70452">
        <ele>2120.1999511719</ele>
        <time>2022-03-10T13:46:11.000Z</time>
      </trkpt>
      <trkpt lat="44.51452" lon="6.70451">
        <ele>2121</ele>
        <time>2022-03-10T13:46:21.000Z</time>
      </trkpt>
      <trkpt lat="44.51451" lon="6.70451">
        <ele>2121.1999511719</ele>
        <time>2022-03-10T13:46:23.000Z</time>
      </trkpt>
      <trkpt lat="44.51445" lon="6.70453">
        <ele>2122</ele>
        <time>2022-03-10T13:46:30.000Z</time>
      </trkpt>
      <trkpt lat="44.51445" lon="6.70452">
        <ele>2122.3999023438</ele>
        <time>2022-03-10T13:46:32.000Z</time>
      </trkpt>
      <trkpt lat="44.51445" lon="6.70451">
        <ele>2123</ele>
        <time>2022-03-10T13:46:35.000Z</time>
      </trkpt>
      <trkpt lat="44.51443" lon="6.70452">
        <ele>2123.3999023438</ele>
        <time>2022-03-10T13:46:39.000Z</time>
      </trkpt>
      <trkpt lat="44.51442" lon="6.70452">
        <ele>2123.6000976562</ele>
        <time>2022-03-10T13:46:42.000Z</time>
      </trkpt>
      <trkpt lat="44.51443" lon="6.70451">
        <ele>2124.1999511719</ele>
        <time>2022-03-10T13:46:49.000Z</time>
      </trkpt>
      <trkpt lat="44.51442" lon="6.7045">
        <ele>2124.3999023438</ele>
        <time>2022-03-10T13:46:54.000Z</time>
      </trkpt>
      <trkpt lat="44.51442" lon="6.7045">
        <ele>2124.3999023438</ele>
        <time>2022-03-10T13:46:55.000Z</time>
      </trkpt>
      <trkpt lat="44.51441" lon="6.70448">
        <ele>2125.6000976562</ele>
        <time>2022-03-10T13:47:03.000Z</time>
      </trkpt>
      <trkpt lat="44.51441" lon="6.70448">
        <ele>2125.8000488281</ele>
        <time>2022-03-10T13:47:04.000Z</time>
      </trkpt>
      <trkpt lat="44.51442" lon="6.70447">
        <ele>2126.3999023438</ele>
        <time>2022-03-10T13:47:09.000Z</time>
      </trkpt>
      <trkpt lat="44.51441" lon="6.70443">
        <ele>2126.6000976562</ele>
        <time>2022-03-10T13:47:12.000Z</time>
      </trkpt>
      <trkpt lat="44.51441" lon="6.70443">
        <ele>2126.8000488281</ele>
        <time>2022-03-10T13:47:14.000Z</time>
      </trkpt>
      <trkpt lat="44.51443" lon="6.70441">
        <ele>2127.1999511719</ele>
        <time>2022-03-10T13:47:20.000Z</time>
      </trkpt>
      <trkpt lat="44.51443" lon="6.7044">
        <ele>2127.1999511719</ele>
        <time>2022-03-10T13:47:26.000Z</time>
      </trkpt>
      <trkpt lat="44.51444" lon="6.7044">
        <ele>2127.6000976562</ele>
        <time>2022-03-10T13:47:32.000Z</time>
      </trkpt>
      <trkpt lat="44.51444" lon="6.7044">
        <ele>2127.6000976562</ele>
        <time>2022-03-10T13:47:35.000Z</time>
      </trkpt>
      <trkpt lat="44.51443" lon="6.7044">
        <ele>2128.6000976562</ele>
        <time>2022-03-10T13:47:48.000Z</time>
      </trkpt>
      <trkpt lat="44.51443" lon="6.70441">
        <ele>2128.8000488281</ele>
        <time>2022-03-10T13:47:51.000Z</time>
      </trkpt>
      <trkpt lat="44.51443" lon="6.70444">
        <ele>2129.1999511719</ele>
        <time>2022-03-10T13:48:03.000Z</time>
      </trkpt>
      <trkpt lat="44.51443" lon="6.70446">
        <ele>2129.8000488281</ele>
        <time>2022-03-10T13:48:12.000Z</time>
      </trkpt>
      <trkpt lat="44.51443" lon="6.70448">
        <ele>2130.8000488281</ele>
        <time>2022-03-10T13:48:22.000Z</time>
      </trkpt>
      <trkpt lat="44.51443" lon="6.70452">
        <ele>2131.8000488281</ele>
        <time>2022-03-10T13:48:32.000Z</time>
      </trkpt>
      <trkpt lat="44.51443" lon="6.70456">
        <ele>2133</ele>
        <time>2022-03-10T13:48:45.000Z</time>
      </trkpt>
      <trkpt lat="44.51442" lon="6.70459">
        <ele>2134</ele>
        <time>2022-03-10T13:48:53.000Z</time>
      </trkpt>
      <trkpt lat="44.51437" lon="6.7047">
        <ele>2135</ele>
        <time>2022-03-10T13:49:46.000Z</time>
      </trkpt>
      <trkpt lat="44.51436" lon="6.7047">
        <ele>2136</ele>
        <time>2022-03-10T13:49:56.000Z</time>
      </trkpt>
      <trkpt lat="44.51436" lon="6.70469">
        <ele>2136</ele>
        <time>2022-03-10T13:49:57.000Z</time>
      </trkpt>
      <trkpt lat="44.51435" lon="6.70468">
        <ele>2136.6000976562</ele>
        <time>2022-03-10T13:50:03.000Z</time>
      </trkpt>
      <trkpt lat="44.51435" lon="6.70468">
        <ele>2137</ele>
        <time>2022-03-10T13:50:08.000Z</time>
      </trkpt>
      <trkpt lat="44.51434" lon="6.70468">
        <ele>2137.1999511719</ele>
        <time>2022-03-10T13:50:10.000Z</time>
      </trkpt>
      <trkpt lat="44.51436" lon="6.70465">
        <ele>2138</ele>
        <time>2022-03-10T13:50:17.000Z</time>
      </trkpt>
      <trkpt lat="44.51435" lon="6.70465">
        <ele>2138.1999511719</ele>
        <time>2022-03-10T13:50:18.000Z</time>
      </trkpt>
      <trkpt lat="44.51436" lon="6.70462">
        <ele>2138.3999023438</ele>
        <time>2022-03-10T13:50:22.000Z</time>
      </trkpt>
      <trkpt lat="44.51437" lon="6.70459">
        <ele>2138.6000976562</ele>
        <time>2022-03-10T13:50:29.000Z</time>
      </trkpt>
      <trkpt lat="44.51434" lon="6.7046">
        <ele>2138.8000488281</ele>
        <time>2022-03-10T13:50:32.000Z</time>
      </trkpt>
      <trkpt lat="44.51434" lon="6.70461">
        <ele>2139</ele>
        <time>2022-03-10T13:50:35.000Z</time>
      </trkpt>
      <trkpt lat="44.51435" lon="6.70461">
        <ele>2139.1999511719</ele>
        <time>2022-03-10T13:50:38.000Z</time>
      </trkpt>
      <trkpt lat="44.51435" lon="6.70461">
        <ele>2139.6000976562</ele>
        <time>2022-03-10T13:50:46.000Z</time>
      </trkpt>
      <trkpt lat="44.51434" lon="6.70462">
        <ele>2140.1999511719</ele>
        <time>2022-03-10T13:50:59.000Z</time>
      </trkpt>
      <trkpt lat="44.51433" lon="6.70467">
        <ele>2141.1999511719</ele>
        <time>2022-03-10T13:51:17.000Z</time>
      </trkpt>
      <trkpt lat="44.51433" lon="6.7047">
        <ele>2142.1999511719</ele>
        <time>2022-03-10T13:51:32.000Z</time>
      </trkpt>
      <trkpt lat="44.51432" lon="6.70475">
        <ele>2143.3999023438</ele>
        <time>2022-03-10T13:51:48.000Z</time>
      </trkpt>
      <trkpt lat="44.51432" lon="6.70482">
        <ele>2144.3999023438</ele>
        <time>2022-03-10T13:52:08.000Z</time>
      </trkpt>
      <trkpt lat="44.51432" lon="6.70481">
        <ele>2144.8000488281</ele>
        <time>2022-03-10T13:52:35.000Z</time>
      </trkpt>
      <trkpt lat="44.51431" lon="6.70481">
        <ele>2145.1999511719</ele>
        <time>2022-03-10T13:52:38.000Z</time>
      </trkpt>
      <trkpt lat="44.51429" lon="6.70481">
        <ele>2145.6000976562</ele>
        <time>2022-03-10T13:52:40.000Z</time>
      </trkpt>
      <trkpt lat="44.51426" lon="6.7048">
        <ele>2146</ele>
        <time>2022-03-10T13:52:47.000Z</time>
      </trkpt>
      <trkpt lat="44.51425" lon="6.70481">
        <ele>2146.6000976562</ele>
        <time>2022-03-10T13:52:54.000Z</time>
      </trkpt>
      <trkpt lat="44.51424" lon="6.7048">
        <ele>2146.8000488281</ele>
        <time>2022-03-10T13:52:56.000Z</time>
      </trkpt>
      <trkpt lat="44.51423" lon="6.70479">
        <ele>2147.1999511719</ele>
        <time>2022-03-10T13:53:00.000Z</time>
      </trkpt>
      <trkpt lat="44.51423" lon="6.70479">
        <ele>2147.1999511719</ele>
        <time>2022-03-10T13:53:03.000Z</time>
      </trkpt>
      <trkpt lat="44.51423" lon="6.7048">
        <ele>2147.6000976562</ele>
        <time>2022-03-10T13:53:07.000Z</time>
      </trkpt>
      <trkpt lat="44.51422" lon="6.70481">
        <ele>2147.8000488281</ele>
        <time>2022-03-10T13:53:10.000Z</time>
      </trkpt>
      <trkpt lat="44.51426" lon="6.7048">
        <ele>2148.3999023438</ele>
        <time>2022-03-10T13:53:16.000Z</time>
      </trkpt>
      <trkpt lat="44.51425" lon="6.70479">
        <ele>2148.8000488281</ele>
        <time>2022-03-10T13:53:19.000Z</time>
      </trkpt>
      <trkpt lat="44.51425" lon="6.70479">
        <ele>2148.8000488281</ele>
        <time>2022-03-10T13:53:21.000Z</time>
      </trkpt>
      <trkpt lat="44.51426" lon="6.70479">
        <ele>2149</ele>
        <time>2022-03-10T13:53:23.000Z</time>
      </trkpt>
      <trkpt lat="44.51425" lon="6.70476">
        <ele>2149.3999023438</ele>
        <time>2022-03-10T13:53:30.000Z</time>
      </trkpt>
      <trkpt lat="44.51424" lon="6.70477">
        <ele>2149.8000488281</ele>
        <time>2022-03-10T13:53:36.000Z</time>
      </trkpt>
      <trkpt lat="44.51424" lon="6.70477">
        <ele>2150</ele>
        <time>2022-03-10T13:53:37.000Z</time>
      </trkpt>
      <trkpt lat="44.51422" lon="6.70474">
        <ele>2150.8000488281</ele>
        <time>2022-03-10T13:53:45.000Z</time>
      </trkpt>
      <trkpt lat="44.51421" lon="6.70474">
        <ele>2150.8000488281</ele>
        <time>2022-03-10T13:53:46.000Z</time>
      </trkpt>
      <trkpt lat="44.5142" lon="6.70475">
        <ele>2151.3999023438</ele>
        <time>2022-03-10T13:53:55.000Z</time>
      </trkpt>
      <trkpt lat="44.51422" lon="6.70473">
        <ele>2151.8000488281</ele>
        <time>2022-03-10T13:54:05.000Z</time>
      </trkpt>
      <trkpt lat="44.51423" lon="6.70472">
        <ele>2152.8000488281</ele>
        <time>2022-03-10T13:54:24.000Z</time>
      </trkpt>
      <trkpt lat="44.51422" lon="6.70475">
        <ele>2153.8000488281</ele>
        <time>2022-03-10T13:54:37.000Z</time>
      </trkpt>
      <trkpt lat="44.51422" lon="6.70479">
        <ele>2155</ele>
        <time>2022-03-10T13:54:54.000Z</time>
      </trkpt>
      <trkpt lat="44.51421" lon="6.70482">
        <ele>2156</ele>
        <time>2022-03-10T13:55:02.000Z</time>
      </trkpt>
      <trkpt lat="44.51421" lon="6.7049">
        <ele>2156.1999511719</ele>
        <time>2022-03-10T13:55:36.000Z</time>
      </trkpt>
      <trkpt lat="44.51421" lon="6.70494">
        <ele>2157</ele>
        <time>2022-03-10T13:56:52.000Z</time>
      </trkpt>
      <trkpt lat="44.51421" lon="6.70498">
        <ele>2157.6000976562</ele>
        <time>2022-03-10T13:57:38.000Z</time>
      </trkpt>
      <trkpt lat="44.5142" lon="6.70499">
        <ele>2157.3999023438</ele>
        <time>2022-03-10T13:57:53.000Z</time>
      </trkpt>
      <trkpt lat="44.5142" lon="6.70499">
        <ele>2157.6000976562</ele>
        <time>2022-03-10T13:57:59.000Z</time>
      </trkpt>
      <trkpt lat="44.5142" lon="6.70501">
        <ele>2157.6000976562</ele>
        <time>2022-03-10T13:58:06.000Z</time>
      </trkpt>
      <trkpt lat="44.51422" lon="6.70501">
        <ele>2157.3999023438</ele>
        <time>2022-03-10T13:58:32.000Z</time>
      </trkpt>
      <trkpt lat="44.51422" lon="6.705">
        <ele>2157.6000976562</ele>
        <time>2022-03-10T13:58:50.000Z</time>
      </trkpt>
      <trkpt lat="44.51424" lon="6.70497">
        <ele>2157.3999023438</ele>
        <time>2022-03-10T13:59:53.000Z</time>
      </trkpt>
      <trkpt lat="44.51427" lon="6.705">
        <ele>2156.3999023438</ele>
        <time>2022-03-10T14:02:13.000Z</time>
      </trkpt>
      <trkpt lat="44.51424" lon="6.70501">
        <ele>2155.6000976562</ele>
        <time>2022-03-10T14:03:01.000Z</time>
      </trkpt>
      <trkpt lat="44.51423" lon="6.70499">
        <ele>2154.8000488281</ele>
        <time>2022-03-10T14:03:03.000Z</time>
      </trkpt>
      <trkpt lat="44.51422" lon="6.70498">
        <ele>2154.3999023438</ele>
        <time>2022-03-10T14:03:04.000Z</time>
      </trkpt>
      <trkpt lat="44.5142" lon="6.70493">
        <ele>2153.3999023438</ele>
        <time>2022-03-10T14:03:10.000Z</time>
      </trkpt>
      <trkpt lat="44.51421" lon="6.7049">
        <ele>2153.1999511719</ele>
        <time>2022-03-10T14:03:12.000Z</time>
      </trkpt>
      <trkpt lat="44.51425" lon="6.70489">
        <ele>2152.6000976562</ele>
        <time>2022-03-10T14:03:14.000Z</time>
      </trkpt>
      <trkpt lat="44.51427" lon="6.70488">
        <ele>2152</ele>
        <time>2022-03-10T14:03:15.000Z</time>
      </trkpt>
      <trkpt lat="44.5143" lon="6.70486">
        <ele>2151.1999511719</ele>
        <time>2022-03-10T14:03:16.000Z</time>
      </trkpt>
      <trkpt lat="44.51434" lon="6.70484">
        <ele>2149.8000488281</ele>
        <time>2022-03-10T14:03:17.000Z</time>
      </trkpt>
      <trkpt lat="44.51437" lon="6.70484">
        <ele>2148.8000488281</ele>
        <time>2022-03-10T14:03:18.000Z</time>
      </trkpt>
      <trkpt lat="44.5144" lon="6.70482">
        <ele>2147</ele>
        <time>2022-03-10T14:03:19.000Z</time>
      </trkpt>
      <trkpt lat="44.51445" lon="6.70476">
        <ele>2144.1999511719</ele>
        <time>2022-03-10T14:03:21.000Z</time>
      </trkpt>
      <trkpt lat="44.51448" lon="6.70473">
        <ele>2142.6000976562</ele>
        <time>2022-03-10T14:03:22.000Z</time>
      </trkpt>
      <trkpt lat="44.51451" lon="6.70471">
        <ele>2141.6000976562</ele>
        <time>2022-03-10T14:03:23.000Z</time>
      </trkpt>
      <trkpt lat="44.51453" lon="6.70469">
        <ele>2140.1999511719</ele>
        <time>2022-03-10T14:03:24.000Z</time>
      </trkpt>
      <trkpt lat="44.51454" lon="6.70466">
        <ele>2138.1999511719</ele>
        <time>2022-03-10T14:03:25.000Z</time>
      </trkpt>
      <trkpt lat="44.51456" lon="6.70465">
        <ele>2136.8000488281</ele>
        <time>2022-03-10T14:03:26.000Z</time>
      </trkpt>
      <trkpt lat="44.51458" lon="6.70463">
        <ele>2135.1999511719</ele>
        <time>2022-03-10T14:03:27.000Z</time>
      </trkpt>
      <trkpt lat="44.51459" lon="6.7046">
        <ele>2133</ele>
        <time>2022-03-10T14:03:28.000Z</time>
      </trkpt>
      <trkpt lat="44.51461" lon="6.70458">
        <ele>2131.6000976562</ele>
        <time>2022-03-10T14:03:29.000Z</time>
      </trkpt>
      <trkpt lat="44.51464" lon="6.70456">
        <ele>2129.3999023438</ele>
        <time>2022-03-10T14:03:30.000Z</time>
      </trkpt>
      <trkpt lat="44.51466" lon="6.70454">
        <ele>2127.8000488281</ele>
        <time>2022-03-10T14:03:31.000Z</time>
      </trkpt>
      <trkpt lat="44.51469" lon="6.70452">
        <ele>2126.1999511719</ele>
        <time>2022-03-10T14:03:32.000Z</time>
      </trkpt>
      <trkpt lat="44.5147" lon="6.7045">
        <ele>2124.3999023438</ele>
        <time>2022-03-10T14:03:33.000Z</time>
      </trkpt>
      <trkpt lat="44.51473" lon="6.70448">
        <ele>2122.6000976562</ele>
        <time>2022-03-10T14:03:34.000Z</time>
      </trkpt>
      <trkpt lat="44.51477" lon="6.70446">
        <ele>2120.6000976562</ele>
        <time>2022-03-10T14:03:35.000Z</time>
      </trkpt>
      <trkpt lat="44.5148" lon="6.70446">
        <ele>2118.6000976562</ele>
        <time>2022-03-10T14:03:36.000Z</time>
      </trkpt>
      <trkpt lat="44.51483" lon="6.70444">
        <ele>2117.1999511719</ele>
        <time>2022-03-10T14:03:37.000Z</time>
      </trkpt>
      <trkpt lat="44.51486" lon="6.70442">
        <ele>2114.8000488281</ele>
        <time>2022-03-10T14:03:38.000Z</time>
      </trkpt>
      <trkpt lat="44.51489" lon="6.70442">
        <ele>2113.3999023438</ele>
        <time>2022-03-10T14:03:39.000Z</time>
      </trkpt>
      <trkpt lat="44.5149" lon="6.70441">
        <ele>2111.8000488281</ele>
        <time>2022-03-10T14:03:40.000Z</time>
      </trkpt>
      <trkpt lat="44.51492" lon="6.70438">
        <ele>2109.6000976562</ele>
        <time>2022-03-10T14:03:41.000Z</time>
      </trkpt>
      <trkpt lat="44.51494" lon="6.70435">
        <ele>2107.8000488281</ele>
        <time>2022-03-10T14:03:42.000Z</time>
      </trkpt>
      <trkpt lat="44.51496" lon="6.70432">
        <ele>2106</ele>
        <time>2022-03-10T14:03:43.000Z</time>
      </trkpt>
      <trkpt lat="44.51498" lon="6.70429">
        <ele>2104</ele>
        <time>2022-03-10T14:03:44.000Z</time>
      </trkpt>
      <trkpt lat="44.51499" lon="6.70428">
        <ele>2102.3999023438</ele>
        <time>2022-03-10T14:03:45.000Z</time>
      </trkpt>
      <trkpt lat="44.51501" lon="6.70428">
        <ele>2100.6000976562</ele>
        <time>2022-03-10T14:03:46.000Z</time>
      </trkpt>
      <trkpt lat="44.515" lon="6.70427">
        <ele>2098.8000488281</ele>
        <time>2022-03-10T14:03:47.000Z</time>
      </trkpt>
      <trkpt lat="44.51498" lon="6.70426">
        <ele>2097.3999023438</ele>
        <time>2022-03-10T14:03:48.000Z</time>
      </trkpt>
      <trkpt lat="44.51494" lon="6.70425">
        <ele>2096.1999511719</ele>
        <time>2022-03-10T14:03:50.000Z</time>
      </trkpt>
      <trkpt lat="44.51496" lon="6.70423">
        <ele>2094.8000488281</ele>
        <time>2022-03-10T14:04:15.000Z</time>
      </trkpt>
      <trkpt lat="44.51499" lon="6.7042">
        <ele>2092.8000488281</ele>
        <time>2022-03-10T14:04:17.000Z</time>
      </trkpt>
      <trkpt lat="44.51502" lon="6.70416">
        <ele>2091</ele>
        <time>2022-03-10T14:04:18.000Z</time>
      </trkpt>
      <trkpt lat="44.51506" lon="6.70414">
        <ele>2089.8000488281</ele>
        <time>2022-03-10T14:04:19.000Z</time>
      </trkpt>
      <trkpt lat="44.5151" lon="6.70413">
        <ele>2088.3999023438</ele>
        <time>2022-03-10T14:04:20.000Z</time>
      </trkpt>
      <trkpt lat="44.51513" lon="6.70409">
        <ele>2087</ele>
        <time>2022-03-10T14:04:21.000Z</time>
      </trkpt>
      <trkpt lat="44.51514" lon="6.70405">
        <ele>2084.8000488281</ele>
        <time>2022-03-10T14:04:22.000Z</time>
      </trkpt>
      <trkpt lat="44.51517" lon="6.70402">
        <ele>2082.8000488281</ele>
        <time>2022-03-10T14:04:23.000Z</time>
      </trkpt>
      <trkpt lat="44.51519" lon="6.70401">
        <ele>2080.3999023438</ele>
        <time>2022-03-10T14:04:24.000Z</time>
      </trkpt>
      <trkpt lat="44.51519" lon="6.704">
        <ele>2079</ele>
        <time>2022-03-10T14:04:25.000Z</time>
      </trkpt>
      <trkpt lat="44.5152" lon="6.70396">
        <ele>2077.3999023438</ele>
        <time>2022-03-10T14:04:26.000Z</time>
      </trkpt>
      <trkpt lat="44.51526" lon="6.70396">
        <ele>2074.8000488281</ele>
        <time>2022-03-10T14:04:28.000Z</time>
      </trkpt>
      <trkpt lat="44.51529" lon="6.70397">
        <ele>2073.3999023438</ele>
        <time>2022-03-10T14:04:29.000Z</time>
      </trkpt>
      <trkpt lat="44.51532" lon="6.70399">
        <ele>2071.1999511719</ele>
        <time>2022-03-10T14:04:30.000Z</time>
      </trkpt>
      <trkpt lat="44.51535" lon="6.70401">
        <ele>2070</ele>
        <time>2022-03-10T14:04:31.000Z</time>
      </trkpt>
      <trkpt lat="44.51538" lon="6.70404">
        <ele>2069</ele>
        <time>2022-03-10T14:04:32.000Z</time>
      </trkpt>
      <trkpt lat="44.51544" lon="6.70408">
        <ele>2067.3999023438</ele>
        <time>2022-03-10T14:04:34.000Z</time>
      </trkpt>
      <trkpt lat="44.51547" lon="6.7041">
        <ele>2066.3999023438</ele>
        <time>2022-03-10T14:04:35.000Z</time>
      </trkpt>
      <trkpt lat="44.51549" lon="6.70411">
        <ele>2065.8000488281</ele>
        <time>2022-03-10T14:04:36.000Z</time>
      </trkpt>
      <trkpt lat="44.51551" lon="6.70411">
        <ele>2064.6000976562</ele>
        <time>2022-03-10T14:04:38.000Z</time>
      </trkpt>
      <trkpt lat="44.51551" lon="6.70409">
        <ele>2064.1999511719</ele>
        <time>2022-03-10T14:04:39.000Z</time>
      </trkpt>
      <trkpt lat="44.5155" lon="6.70404">
        <ele>2062.6000976562</ele>
        <time>2022-03-10T14:04:41.000Z</time>
      </trkpt>
      <trkpt lat="44.51552" lon="6.70398">
        <ele>2061.1999511719</ele>
        <time>2022-03-10T14:04:43.000Z</time>
      </trkpt>
      <trkpt lat="44.51555" lon="6.70397">
        <ele>2059.3999023438</ele>
        <time>2022-03-10T14:04:44.000Z</time>
      </trkpt>
      <trkpt lat="44.51557" lon="6.70394">
        <ele>2058</ele>
        <time>2022-03-10T14:04:45.000Z</time>
      </trkpt>
      <trkpt lat="44.51558" lon="6.70392">
        <ele>2056.1999511719</ele>
        <time>2022-03-10T14:04:46.000Z</time>
      </trkpt>
      <trkpt lat="44.51561" lon="6.70389">
        <ele>2054.6000976562</ele>
        <time>2022-03-10T14:04:47.000Z</time>
      </trkpt>
      <trkpt lat="44.51563" lon="6.70387">
        <ele>2053.1999511719</ele>
        <time>2022-03-10T14:04:48.000Z</time>
      </trkpt>
      <trkpt lat="44.51566" lon="6.70385">
        <ele>2052.1999511719</ele>
        <time>2022-03-10T14:04:49.000Z</time>
      </trkpt>
      <trkpt lat="44.51567" lon="6.7038">
        <ele>2051</ele>
        <time>2022-03-10T14:04:50.000Z</time>
      </trkpt>
      <trkpt lat="44.51569" lon="6.70376">
        <ele>2049.1999511719</ele>
        <time>2022-03-10T14:04:51.000Z</time>
      </trkpt>
      <trkpt lat="44.51572" lon="6.70374">
        <ele>2047.8000488281</ele>
        <time>2022-03-10T14:04:52.000Z</time>
      </trkpt>
      <trkpt lat="44.51573" lon="6.7037">
        <ele>2046.1999511719</ele>
        <time>2022-03-10T14:04:53.000Z</time>
      </trkpt>
      <trkpt lat="44.51574" lon="6.70365">
        <ele>2044</ele>
        <time>2022-03-10T14:04:54.000Z</time>
      </trkpt>
      <trkpt lat="44.51575" lon="6.70361">
        <ele>2042.1999511719</ele>
        <time>2022-03-10T14:04:55.000Z</time>
      </trkpt>
      <trkpt lat="44.51579" lon="6.7036">
        <ele>2040.5999755859</ele>
        <time>2022-03-10T14:04:56.000Z</time>
      </trkpt>
      <trkpt lat="44.51581" lon="6.70359">
        <ele>2039.4000244141</ele>
        <time>2022-03-10T14:04:57.000Z</time>
      </trkpt>
      <trkpt lat="44.51583" lon="6.70357">
        <ele>2037.5999755859</ele>
        <time>2022-03-10T14:04:58.000Z</time>
      </trkpt>
      <trkpt lat="44.51584" lon="6.70354">
        <ele>2036.1999511719</ele>
        <time>2022-03-10T14:04:59.000Z</time>
      </trkpt>
      <trkpt lat="44.51585" lon="6.70352">
        <ele>2034.4000244141</ele>
        <time>2022-03-10T14:05:00.000Z</time>
      </trkpt>
      <trkpt lat="44.51587" lon="6.70352">
        <ele>2032.8000488281</ele>
        <time>2022-03-10T14:05:01.000Z</time>
      </trkpt>
      <trkpt lat="44.51589" lon="6.70353">
        <ele>2031.8000488281</ele>
        <time>2022-03-10T14:05:02.000Z</time>
      </trkpt>
      <trkpt lat="44.51589" lon="6.70353">
        <ele>2030.1999511719</ele>
        <time>2022-03-10T14:05:03.000Z</time>
      </trkpt>
      <trkpt lat="44.5159" lon="6.70352">
        <ele>2029.1999511719</ele>
        <time>2022-03-10T14:05:04.000Z</time>
      </trkpt>
      <trkpt lat="44.51591" lon="6.70352">
        <ele>2028.1999511719</ele>
        <time>2022-03-10T14:05:06.000Z</time>
      </trkpt>
      <trkpt lat="44.51592" lon="6.70352">
        <ele>2028</ele>
        <time>2022-03-10T14:05:07.000Z</time>
      </trkpt>
      <trkpt lat="44.51595" lon="6.70352">
        <ele>2027.4000244141</ele>
        <time>2022-03-10T14:05:20.000Z</time>
      </trkpt>
      <trkpt lat="44.51595" lon="6.70352">
        <ele>2027.4000244141</ele>
        <time>2022-03-10T14:05:32.000Z</time>
      </trkpt>
      <trkpt lat="44.51596" lon="6.70352">
        <ele>2027.1999511719</ele>
        <time>2022-03-10T14:05:35.000Z</time>
      </trkpt>
      <trkpt lat="44.51598" lon="6.7035">
        <ele>2027</ele>
        <time>2022-03-10T14:05:36.000Z</time>
      </trkpt>
      <trkpt lat="44.516" lon="6.7035">
        <ele>2026.4000244141</ele>
        <time>2022-03-10T14:05:37.000Z</time>
      </trkpt>
      <trkpt lat="44.51602" lon="6.70348">
        <ele>2025.4000244141</ele>
        <time>2022-03-10T14:05:38.000Z</time>
      </trkpt>
      <trkpt lat="44.51605" lon="6.70344">
        <ele>2023.4000244141</ele>
        <time>2022-03-10T14:05:39.000Z</time>
      </trkpt>
      <trkpt lat="44.5161" lon="6.70344">
        <ele>2022.1999511719</ele>
        <time>2022-03-10T14:05:40.000Z</time>
      </trkpt>
      <trkpt lat="44.51615" lon="6.70344">
        <ele>2020.5999755859</ele>
        <time>2022-03-10T14:05:41.000Z</time>
      </trkpt>
      <trkpt lat="44.51622" lon="6.70343">
        <ele>2018.4000244141</ele>
        <time>2022-03-10T14:05:42.000Z</time>
      </trkpt>
      <trkpt lat="44.51627" lon="6.70342">
        <ele>2016.1999511719</ele>
        <time>2022-03-10T14:05:43.000Z</time>
      </trkpt>
      <trkpt lat="44.51631" lon="6.70341">
        <ele>2014.4000244141</ele>
        <time>2022-03-10T14:05:44.000Z</time>
      </trkpt>
      <trkpt lat="44.51635" lon="6.70337">
        <ele>2012.1999511719</ele>
        <time>2022-03-10T14:05:45.000Z</time>
      </trkpt>
      <trkpt lat="44.51639" lon="6.70334">
        <ele>2010.5999755859</ele>
        <time>2022-03-10T14:05:46.000Z</time>
      </trkpt>
      <trkpt lat="44.51641" lon="6.70331">
        <ele>2008.8000488281</ele>
        <time>2022-03-10T14:05:47.000Z</time>
      </trkpt>
      <trkpt lat="44.51646" lon="6.70328">
        <ele>2007</ele>
        <time>2022-03-10T14:05:48.000Z</time>
      </trkpt>
      <trkpt lat="44.51648" lon="6.70326">
        <ele>2005.5999755859</ele>
        <time>2022-03-10T14:05:49.000Z</time>
      </trkpt>
      <trkpt lat="44.51651" lon="6.70323">
        <ele>2003.5999755859</ele>
        <time>2022-03-10T14:05:50.000Z</time>
      </trkpt>
      <trkpt lat="44.51653" lon="6.70321">
        <ele>2001.5999755859</ele>
        <time>2022-03-10T14:05:51.000Z</time>
      </trkpt>
      <trkpt lat="44.51657" lon="6.7032">
        <ele>2000.1999511719</ele>
        <time>2022-03-10T14:05:52.000Z</time>
      </trkpt>
      <trkpt lat="44.51659" lon="6.70318">
        <ele>1998.5999755859</ele>
        <time>2022-03-10T14:05:53.000Z</time>
      </trkpt>
      <trkpt lat="44.51662" lon="6.70316">
        <ele>1996.8000488281</ele>
        <time>2022-03-10T14:05:54.000Z</time>
      </trkpt>
      <trkpt lat="44.51666" lon="6.70314">
        <ele>1995.8000488281</ele>
        <time>2022-03-10T14:05:55.000Z</time>
      </trkpt>
      <trkpt lat="44.51668" lon="6.70313">
        <ele>1994</ele>
        <time>2022-03-10T14:05:56.000Z</time>
      </trkpt>
      <trkpt lat="44.51682" lon="6.70306">
        <ele>1991.5999755859</ele>
        <time>2022-03-10T14:05:57.000Z</time>
      </trkpt>
      <trkpt lat="44.51683" lon="6.70306">
        <ele>1990</ele>
        <time>2022-03-10T14:05:58.000Z</time>
      </trkpt>
      <trkpt lat="44.5169" lon="6.70306">
        <ele>1988.1999511719</ele>
        <time>2022-03-10T14:05:59.000Z</time>
      </trkpt>
      <trkpt lat="44.51693" lon="6.70303">
        <ele>1986.1999511719</ele>
        <time>2022-03-10T14:06:00.000Z</time>
      </trkpt>
      <trkpt lat="44.51695" lon="6.70301">
        <ele>1984.5999755859</ele>
        <time>2022-03-10T14:06:01.000Z</time>
      </trkpt>
      <trkpt lat="44.51697" lon="6.70302">
        <ele>1983.1999511719</ele>
        <time>2022-03-10T14:06:02.000Z</time>
      </trkpt>
      <trkpt lat="44.517" lon="6.70302">
        <ele>1981.5999755859</ele>
        <time>2022-03-10T14:06:03.000Z</time>
      </trkpt>
      <trkpt lat="44.517" lon="6.703">
        <ele>1980</ele>
        <time>2022-03-10T14:06:04.000Z</time>
      </trkpt>
      <trkpt lat="44.51704" lon="6.70297">
        <ele>1977.5999755859</ele>
        <time>2022-03-10T14:06:06.000Z</time>
      </trkpt>
      <trkpt lat="44.51706" lon="6.70293">
        <ele>1975.5999755859</ele>
        <time>2022-03-10T14:06:07.000Z</time>
      </trkpt>
      <trkpt lat="44.51707" lon="6.70289">
        <ele>1974.4000244141</ele>
        <time>2022-03-10T14:06:08.000Z</time>
      </trkpt>
      <trkpt lat="44.51707" lon="6.70286">
        <ele>1972.8000488281</ele>
        <time>2022-03-10T14:06:09.000Z</time>
      </trkpt>
      <trkpt lat="44.51708" lon="6.70284">
        <ele>1971.5999755859</ele>
        <time>2022-03-10T14:06:10.000Z</time>
      </trkpt>
      <trkpt lat="44.51709" lon="6.70282">
        <ele>1970.5999755859</ele>
        <time>2022-03-10T14:06:11.000Z</time>
      </trkpt>
      <trkpt lat="44.51709" lon="6.70282">
        <ele>1970</ele>
        <time>2022-03-10T14:06:12.000Z</time>
      </trkpt>
      <trkpt lat="44.51709" lon="6.70282">
        <ele>1969.1999511719</ele>
        <time>2022-03-10T14:06:15.000Z</time>
      </trkpt>
      <trkpt lat="44.51708" lon="6.70279">
        <ele>1969</ele>
        <time>2022-03-10T14:06:22.000Z</time>
      </trkpt>
      <trkpt lat="44.51708" lon="6.70279">
        <ele>1969</ele>
        <time>2022-03-10T14:06:24.000Z</time>
      </trkpt>
      <trkpt lat="44.51708" lon="6.70279">
        <ele>1969</ele>
        <time>2022-03-10T14:06:38.000Z</time>
      </trkpt>
      <trkpt lat="44.51705" lon="6.70279">
        <ele>1969</ele>
        <time>2022-03-10T14:06:54.000Z</time>
      </trkpt>
      <trkpt lat="44.51705" lon="6.70279">
        <ele>1969</ele>
        <time>2022-03-10T14:07:15.000Z</time>
      </trkpt>
      <trkpt lat="44.51705" lon="6.70277">
        <ele>1968.5999755859</ele>
        <time>2022-03-10T14:08:36.000Z</time>
      </trkpt>
      <trkpt lat="44.51707" lon="6.70274">
        <ele>1968.5999755859</ele>
        <time>2022-03-10T14:10:44.000Z</time>
      </trkpt>
      <trkpt lat="44.51707" lon="6.70274">
        <ele>1968.4000244141</ele>
        <time>2022-03-10T14:10:48.000Z</time>
      </trkpt>
      <trkpt lat="44.51696" lon="6.70278">
        <ele>1968.5999755859</ele>
        <time>2022-03-10T14:13:18.000Z</time>
      </trkpt>
      <trkpt lat="44.51696" lon="6.70279">
        <ele>1968.5999755859</ele>
        <time>2022-03-10T14:13:21.000Z</time>
      </trkpt>
      <trkpt lat="44.51702" lon="6.70285">
        <ele>1968</ele>
        <time>2022-03-10T14:14:53.000Z</time>
      </trkpt>
      <trkpt lat="44.51706" lon="6.70286">
        <ele>1967.8000488281</ele>
        <time>2022-03-10T14:14:54.000Z</time>
      </trkpt>
      <trkpt lat="44.51709" lon="6.70287">
        <ele>1967.5999755859</ele>
        <time>2022-03-10T14:14:55.000Z</time>
      </trkpt>
      <trkpt lat="44.51717" lon="6.70288">
        <ele>1966</ele>
        <time>2022-03-10T14:14:57.000Z</time>
      </trkpt>
      <trkpt lat="44.51724" lon="6.70289">
        <ele>1965.1999511719</ele>
        <time>2022-03-10T14:14:58.000Z</time>
      </trkpt>
      <trkpt lat="44.51728" lon="6.70292">
        <ele>1964.1999511719</ele>
        <time>2022-03-10T14:14:59.000Z</time>
      </trkpt>
      <trkpt lat="44.51733" lon="6.70295">
        <ele>1963</ele>
        <time>2022-03-10T14:15:00.000Z</time>
      </trkpt>
      <trkpt lat="44.51742" lon="6.70301">
        <ele>1961.1999511719</ele>
        <time>2022-03-10T14:15:02.000Z</time>
      </trkpt>
      <trkpt lat="44.51745" lon="6.70304">
        <ele>1960.4000244141</ele>
        <time>2022-03-10T14:15:03.000Z</time>
      </trkpt>
      <trkpt lat="44.51748" lon="6.70307">
        <ele>1959.5999755859</ele>
        <time>2022-03-10T14:15:04.000Z</time>
      </trkpt>
      <trkpt lat="44.51752" lon="6.70315">
        <ele>1957.5999755859</ele>
        <time>2022-03-10T14:15:06.000Z</time>
      </trkpt>
      <trkpt lat="44.51755" lon="6.70318">
        <ele>1957</ele>
        <time>2022-03-10T14:15:07.000Z</time>
      </trkpt>
      <trkpt lat="44.51759" lon="6.70321">
        <ele>1956.4000244141</ele>
        <time>2022-03-10T14:15:08.000Z</time>
      </trkpt>
      <trkpt lat="44.51763" lon="6.70324">
        <ele>1955.5999755859</ele>
        <time>2022-03-10T14:15:09.000Z</time>
      </trkpt>
      <trkpt lat="44.51767" lon="6.70328">
        <ele>1955</ele>
        <time>2022-03-10T14:15:10.000Z</time>
      </trkpt>
      <trkpt lat="44.51775" lon="6.70334">
        <ele>1953.8000488281</ele>
        <time>2022-03-10T14:15:12.000Z</time>
      </trkpt>
      <trkpt lat="44.51779" lon="6.70337">
        <ele>1953.1999511719</ele>
        <time>2022-03-10T14:15:13.000Z</time>
      </trkpt>
      <trkpt lat="44.51784" lon="6.7034">
        <ele>1952.5999755859</ele>
        <time>2022-03-10T14:15:14.000Z</time>
      </trkpt>
      <trkpt lat="44.51787" lon="6.70343">
        <ele>1952</ele>
        <time>2022-03-10T14:15:15.000Z</time>
      </trkpt>
      <trkpt lat="44.51791" lon="6.70345">
        <ele>1951.4000244141</ele>
        <time>2022-03-10T14:15:16.000Z</time>
      </trkpt>
      <trkpt lat="44.51793" lon="6.70347">
        <ele>1950</ele>
        <time>2022-03-10T14:15:17.000Z</time>
      </trkpt>
      <trkpt lat="44.51796" lon="6.70347">
        <ele>1949.4000244141</ele>
        <time>2022-03-10T14:15:18.000Z</time>
      </trkpt>
      <trkpt lat="44.51799" lon="6.70348">
        <ele>1948</ele>
        <time>2022-03-10T14:15:19.000Z</time>
      </trkpt>
      <trkpt lat="44.51801" lon="6.70347">
        <ele>1946.8000488281</ele>
        <time>2022-03-10T14:15:20.000Z</time>
      </trkpt>
      <trkpt lat="44.51804" lon="6.70345">
        <ele>1945.4000244141</ele>
        <time>2022-03-10T14:15:21.000Z</time>
      </trkpt>
      <trkpt lat="44.51807" lon="6.70346">
        <ele>1943.8000488281</ele>
        <time>2022-03-10T14:15:22.000Z</time>
      </trkpt>
      <trkpt lat="44.51809" lon="6.70347">
        <ele>1942.5999755859</ele>
        <time>2022-03-10T14:15:23.000Z</time>
      </trkpt>
      <trkpt lat="44.51811" lon="6.7035">
        <ele>1941.5999755859</ele>
        <time>2022-03-10T14:15:24.000Z</time>
      </trkpt>
      <trkpt lat="44.51815" lon="6.70356">
        <ele>1940.1999511719</ele>
        <time>2022-03-10T14:15:26.000Z</time>
      </trkpt>
      <trkpt lat="44.51819" lon="6.70363">
        <ele>1938.1999511719</ele>
        <time>2022-03-10T14:15:28.000Z</time>
      </trkpt>
      <trkpt lat="44.5182" lon="6.70366">
        <ele>1937</ele>
        <time>2022-03-10T14:15:29.000Z</time>
      </trkpt>
      <trkpt lat="44.51822" lon="6.70368">
        <ele>1936.1999511719</ele>
        <time>2022-03-10T14:15:30.000Z</time>
      </trkpt>
      <trkpt lat="44.51825" lon="6.7037">
        <ele>1935.5999755859</ele>
        <time>2022-03-10T14:15:31.000Z</time>
      </trkpt>
      <trkpt lat="44.51831" lon="6.70374">
        <ele>1933.8000488281</ele>
        <time>2022-03-10T14:15:33.000Z</time>
      </trkpt>
      <trkpt lat="44.51839" lon="6.70384">
        <ele>1932.5999755859</ele>
        <time>2022-03-10T14:15:35.000Z</time>
      </trkpt>
      <trkpt lat="44.51843" lon="6.70386">
        <ele>1931.5999755859</ele>
        <time>2022-03-10T14:15:36.000Z</time>
      </trkpt>
      <trkpt lat="44.51847" lon="6.70389">
        <ele>1930.8000488281</ele>
        <time>2022-03-10T14:15:37.000Z</time>
      </trkpt>
      <trkpt lat="44.51851" lon="6.7039">
        <ele>1929</ele>
        <time>2022-03-10T14:15:39.000Z</time>
      </trkpt>
      <trkpt lat="44.51858" lon="6.70397">
        <ele>1927.4000244141</ele>
        <time>2022-03-10T14:15:41.000Z</time>
      </trkpt>
      <trkpt lat="44.51867" lon="6.70403">
        <ele>1925.4000244141</ele>
        <time>2022-03-10T14:15:43.000Z</time>
      </trkpt>
      <trkpt lat="44.5187" lon="6.70407">
        <ele>1924.1999511719</ele>
        <time>2022-03-10T14:15:44.000Z</time>
      </trkpt>
      <trkpt lat="44.51876" lon="6.70414">
        <ele>1922.1999511719</ele>
        <time>2022-03-10T14:15:46.000Z</time>
      </trkpt>
      <trkpt lat="44.51878" lon="6.70418">
        <ele>1921.4000244141</ele>
        <time>2022-03-10T14:15:47.000Z</time>
      </trkpt>
      <trkpt lat="44.51878" lon="6.70417">
        <ele>1920.5999755859</ele>
        <time>2022-03-10T14:15:48.000Z</time>
      </trkpt>
      <trkpt lat="44.51882" lon="6.70419">
        <ele>1919.1999511719</ele>
        <time>2022-03-10T14:15:50.000Z</time>
      </trkpt>
      <trkpt lat="44.51886" lon="6.70423">
        <ele>1918</ele>
        <time>2022-03-10T14:15:52.000Z</time>
      </trkpt>
      <trkpt lat="44.51891" lon="6.70426">
        <ele>1916.4000244141</ele>
        <time>2022-03-10T14:15:54.000Z</time>
      </trkpt>
      <trkpt lat="44.51892" lon="6.70428">
        <ele>1915.4000244141</ele>
        <time>2022-03-10T14:15:55.000Z</time>
      </trkpt>
      <trkpt lat="44.51898" lon="6.70433">
        <ele>1914.1999511719</ele>
        <time>2022-03-10T14:15:57.000Z</time>
      </trkpt>
      <trkpt lat="44.51909" lon="6.70442">
        <ele>1913.1999511719</ele>
        <time>2022-03-10T14:16:00.000Z</time>
      </trkpt>
      <trkpt lat="44.51915" lon="6.70448">
        <ele>1912.5999755859</ele>
        <time>2022-03-10T14:16:02.000Z</time>
      </trkpt>
      <trkpt lat="44.5192" lon="6.70455">
        <ele>1911.8000488281</ele>
        <time>2022-03-10T14:16:04.000Z</time>
      </trkpt>
      <trkpt lat="44.51922" lon="6.7046">
        <ele>1910.5999755859</ele>
        <time>2022-03-10T14:16:05.000Z</time>
      </trkpt>
      <trkpt lat="44.51924" lon="6.70465">
        <ele>1909.5999755859</ele>
        <time>2022-03-10T14:16:06.000Z</time>
      </trkpt>
      <trkpt lat="44.51928" lon="6.70468">
        <ele>1908.4000244141</ele>
        <time>2022-03-10T14:16:07.000Z</time>
      </trkpt>
      <trkpt lat="44.51932" lon="6.70471">
        <ele>1907.4000244141</ele>
        <time>2022-03-10T14:16:08.000Z</time>
      </trkpt>
      <trkpt lat="44.51936" lon="6.70476">
        <ele>1906.1999511719</ele>
        <time>2022-03-10T14:16:09.000Z</time>
      </trkpt>
      <trkpt lat="44.5194" lon="6.7048">
        <ele>1905.1999511719</ele>
        <time>2022-03-10T14:16:10.000Z</time>
      </trkpt>
      <trkpt lat="44.51943" lon="6.70484">
        <ele>1903.8000488281</ele>
        <time>2022-03-10T14:16:11.000Z</time>
      </trkpt>
      <trkpt lat="44.51946" lon="6.70487">
        <ele>1902.4000244141</ele>
        <time>2022-03-10T14:16:12.000Z</time>
      </trkpt>
      <trkpt lat="44.51948" lon="6.70489">
        <ele>1901.1999511719</ele>
        <time>2022-03-10T14:16:13.000Z</time>
      </trkpt>
      <trkpt lat="44.51953" lon="6.70493">
        <ele>1900.4000244141</ele>
        <time>2022-03-10T14:16:15.000Z</time>
      </trkpt>
      <trkpt lat="44.51955" lon="6.70494">
        <ele>1899.8000488281</ele>
        <time>2022-03-10T14:16:16.000Z</time>
      </trkpt>
      <trkpt lat="44.5196" lon="6.70498">
        <ele>1898.8000488281</ele>
        <time>2022-03-10T14:16:19.000Z</time>
      </trkpt>
      <trkpt lat="44.51961" lon="6.705">
        <ele>1898.4000244141</ele>
        <time>2022-03-10T14:16:20.000Z</time>
      </trkpt>
      <trkpt lat="44.51962" lon="6.70504">
        <ele>1898</ele>
        <time>2022-03-10T14:16:21.000Z</time>
      </trkpt>
      <trkpt lat="44.51961" lon="6.70511">
        <ele>1897.1999511719</ele>
        <time>2022-03-10T14:16:23.000Z</time>
      </trkpt>
      <trkpt lat="44.5196" lon="6.70515">
        <ele>1896</ele>
        <time>2022-03-10T14:16:25.000Z</time>
      </trkpt>
      <trkpt lat="44.51959" lon="6.70516">
        <ele>1895.4000244141</ele>
        <time>2022-03-10T14:16:26.000Z</time>
      </trkpt>
      <trkpt lat="44.51957" lon="6.70516">
        <ele>1895</ele>
        <time>2022-03-10T14:16:27.000Z</time>
      </trkpt>
      <trkpt lat="44.51955" lon="6.70517">
        <ele>1894.8000488281</ele>
        <time>2022-03-10T14:16:28.000Z</time>
      </trkpt>
      <trkpt lat="44.51953" lon="6.7052">
        <ele>1894.4000244141</ele>
        <time>2022-03-10T14:16:30.000Z</time>
      </trkpt>
      <trkpt lat="44.51955" lon="6.70525">
        <ele>1894</ele>
        <time>2022-03-10T14:16:33.000Z</time>
      </trkpt>
      <trkpt lat="44.51957" lon="6.7054">
        <ele>1894</ele>
        <time>2022-03-10T14:16:40.000Z</time>
      </trkpt>
      <trkpt lat="44.51964" lon="6.7056">
        <ele>1894</ele>
        <time>2022-03-10T14:16:47.000Z</time>
      </trkpt>
      <trkpt lat="44.51968" lon="6.70566">
        <ele>1894</ele>
        <time>2022-03-10T14:16:49.000Z</time>
      </trkpt>
      <trkpt lat="44.51969" lon="6.70583">
        <ele>1892.8000488281</ele>
        <time>2022-03-10T14:16:54.000Z</time>
      </trkpt>
      <trkpt lat="44.5197" lon="6.70593">
        <ele>1892.8000488281</ele>
        <time>2022-03-10T14:16:58.000Z</time>
      </trkpt>
      <trkpt lat="44.5197" lon="6.70595">
        <ele>1892.8000488281</ele>
        <time>2022-03-10T14:16:59.000Z</time>
      </trkpt>
      <trkpt lat="44.5197" lon="6.70597">
        <ele>1892.8000488281</ele>
        <time>2022-03-10T14:17:00.000Z</time>
      </trkpt>
      <trkpt lat="44.51976" lon="6.70606">
        <ele>1892.8000488281</ele>
        <time>2022-03-10T14:17:04.000Z</time>
      </trkpt>
      <trkpt lat="44.51984" lon="6.70616">
        <ele>1891.8000488281</ele>
        <time>2022-03-10T14:17:10.000Z</time>
      </trkpt>
      <trkpt lat="44.51987" lon="6.70613">
        <ele>1890.8000488281</ele>
        <time>2022-03-10T14:17:21.000Z</time>
      </trkpt>
      <trkpt lat="44.51988" lon="6.70614">
        <ele>1890.8000488281</ele>
        <time>2022-03-10T14:17:22.000Z</time>
      </trkpt>
      <trkpt lat="44.51989" lon="6.70616">
        <ele>1890.8000488281</ele>
        <time>2022-03-10T14:17:23.000Z</time>
      </trkpt>
      <trkpt lat="44.51991" lon="6.70623">
        <ele>1890.5999755859</ele>
        <time>2022-03-10T14:17:25.000Z</time>
      </trkpt>
      <trkpt lat="44.51996" lon="6.70632">
        <ele>1890.1999511719</ele>
        <time>2022-03-10T14:17:28.000Z</time>
      </trkpt>
      <trkpt lat="44.52001" lon="6.70641">
        <ele>1889.4000244141</ele>
        <time>2022-03-10T14:17:30.000Z</time>
      </trkpt>
      <trkpt lat="44.52006" lon="6.70651">
        <ele>1888.1999511719</ele>
        <time>2022-03-10T14:17:32.000Z</time>
      </trkpt>
      <trkpt lat="44.52007" lon="6.70655">
        <ele>1887.8000488281</ele>
        <time>2022-03-10T14:17:33.000Z</time>
      </trkpt>
      <trkpt lat="44.5201" lon="6.70661">
        <ele>1887</ele>
        <time>2022-03-10T14:17:35.000Z</time>
      </trkpt>
      <trkpt lat="44.52013" lon="6.70664">
        <ele>1886.5999755859</ele>
        <time>2022-03-10T14:17:37.000Z</time>
      </trkpt>
      <trkpt lat="44.52012" lon="6.70664">
        <ele>1885.5999755859</ele>
        <time>2022-03-10T14:17:39.000Z</time>
      </trkpt>
      <trkpt lat="44.52011" lon="6.70663">
        <ele>1885.4000244141</ele>
        <time>2022-03-10T14:17:41.000Z</time>
      </trkpt>
      <trkpt lat="44.52011" lon="6.70665">
        <ele>1885.4000244141</ele>
        <time>2022-03-10T14:17:47.000Z</time>
      </trkpt>
      <trkpt lat="44.52016" lon="6.70671">
        <ele>1885.4000244141</ele>
        <time>2022-03-10T14:17:58.000Z</time>
      </trkpt>
      <trkpt lat="44.52022" lon="6.7068">
        <ele>1884.1999511719</ele>
        <time>2022-03-10T14:18:00.000Z</time>
      </trkpt>
      <trkpt lat="44.52026" lon="6.70685">
        <ele>1883.1999511719</ele>
        <time>2022-03-10T14:18:01.000Z</time>
      </trkpt>
      <trkpt lat="44.5203" lon="6.7069">
        <ele>1882</ele>
        <time>2022-03-10T14:18:02.000Z</time>
      </trkpt>
      <trkpt lat="44.52033" lon="6.70696">
        <ele>1880.8000488281</ele>
        <time>2022-03-10T14:18:03.000Z</time>
      </trkpt>
      <trkpt lat="44.5204" lon="6.70706">
        <ele>1879.1999511719</ele>
        <time>2022-03-10T14:18:05.000Z</time>
      </trkpt>
      <trkpt lat="44.52041" lon="6.70708">
        <ele>1878.1999511719</ele>
        <time>2022-03-10T14:18:06.000Z</time>
      </trkpt>
      <trkpt lat="44.52043" lon="6.7071">
        <ele>1877.1999511719</ele>
        <time>2022-03-10T14:18:07.000Z</time>
      </trkpt>
      <trkpt lat="44.52045" lon="6.70713">
        <ele>1876</ele>
        <time>2022-03-10T14:18:08.000Z</time>
      </trkpt>
      <trkpt lat="44.52049" lon="6.7072">
        <ele>1874.4000244141</ele>
        <time>2022-03-10T14:18:10.000Z</time>
      </trkpt>
      <trkpt lat="44.52053" lon="6.70727">
        <ele>1872.8000488281</ele>
        <time>2022-03-10T14:18:12.000Z</time>
      </trkpt>
      <trkpt lat="44.52059" lon="6.70737">
        <ele>1871.1999511719</ele>
        <time>2022-03-10T14:18:14.000Z</time>
      </trkpt>
      <trkpt lat="44.52061" lon="6.70742">
        <ele>1870.1999511719</ele>
        <time>2022-03-10T14:18:15.000Z</time>
      </trkpt>
      <trkpt lat="44.52063" lon="6.70747">
        <ele>1869.4000244141</ele>
        <time>2022-03-10T14:18:16.000Z</time>
      </trkpt>
      <trkpt lat="44.52065" lon="6.70752">
        <ele>1868.8000488281</ele>
        <time>2022-03-10T14:18:17.000Z</time>
      </trkpt>
      <trkpt lat="44.52071" lon="6.70762">
        <ele>1868.1999511719</ele>
        <time>2022-03-10T14:18:19.000Z</time>
      </trkpt>
      <trkpt lat="44.52074" lon="6.70766">
        <ele>1867.8000488281</ele>
        <time>2022-03-10T14:18:20.000Z</time>
      </trkpt>
      <trkpt lat="44.52077" lon="6.70769">
        <ele>1867.1999511719</ele>
        <time>2022-03-10T14:18:21.000Z</time>
      </trkpt>
      <trkpt lat="44.5208" lon="6.70773">
        <ele>1866.4000244141</ele>
        <time>2022-03-10T14:18:22.000Z</time>
      </trkpt>
      <trkpt lat="44.52084" lon="6.70777">
        <ele>1865.1999511719</ele>
        <time>2022-03-10T14:18:23.000Z</time>
      </trkpt>
      <trkpt lat="44.52087" lon="6.70781">
        <ele>1864.1999511719</ele>
        <time>2022-03-10T14:18:24.000Z</time>
      </trkpt>
      <trkpt lat="44.52094" lon="6.70791">
        <ele>1862.4000244141</ele>
        <time>2022-03-10T14:18:26.000Z</time>
      </trkpt>
      <trkpt lat="44.52097" lon="6.70796">
        <ele>1861.4000244141</ele>
        <time>2022-03-10T14:18:27.000Z</time>
      </trkpt>
      <trkpt lat="44.52099" lon="6.70801">
        <ele>1860.1999511719</ele>
        <time>2022-03-10T14:18:28.000Z</time>
      </trkpt>
      <trkpt lat="44.52104" lon="6.70808">
        <ele>1857.8000488281</ele>
        <time>2022-03-10T14:18:30.000Z</time>
      </trkpt>
      <trkpt lat="44.52107" lon="6.70813">
        <ele>1856.5999755859</ele>
        <time>2022-03-10T14:18:31.000Z</time>
      </trkpt>
      <trkpt lat="44.52111" lon="6.70818">
        <ele>1855.8000488281</ele>
        <time>2022-03-10T14:18:32.000Z</time>
      </trkpt>
      <trkpt lat="44.52114" lon="6.70824">
        <ele>1855.1999511719</ele>
        <time>2022-03-10T14:18:33.000Z</time>
      </trkpt>
      <trkpt lat="44.52118" lon="6.7083">
        <ele>1854.4000244141</ele>
        <time>2022-03-10T14:18:34.000Z</time>
      </trkpt>
      <trkpt lat="44.52122" lon="6.70836">
        <ele>1853.8000488281</ele>
        <time>2022-03-10T14:18:35.000Z</time>
      </trkpt>
      <trkpt lat="44.5213" lon="6.70852">
        <ele>1851.8000488281</ele>
        <time>2022-03-10T14:18:37.000Z</time>
      </trkpt>
      <trkpt lat="44.52135" lon="6.70859">
        <ele>1851.1999511719</ele>
        <time>2022-03-10T14:18:38.000Z</time>
      </trkpt>
      <trkpt lat="44.5214" lon="6.70866">
        <ele>1850.5999755859</ele>
        <time>2022-03-10T14:18:39.000Z</time>
      </trkpt>
      <trkpt lat="44.52145" lon="6.70873">
        <ele>1849.4000244141</ele>
        <time>2022-03-10T14:18:40.000Z</time>
      </trkpt>
      <trkpt lat="44.52149" lon="6.70879">
        <ele>1847.8000488281</ele>
        <time>2022-03-10T14:18:41.000Z</time>
      </trkpt>
      <trkpt lat="44.52152" lon="6.70886">
        <ele>1846.5999755859</ele>
        <time>2022-03-10T14:18:42.000Z</time>
      </trkpt>
      <trkpt lat="44.52156" lon="6.70892">
        <ele>1845.1999511719</ele>
        <time>2022-03-10T14:18:43.000Z</time>
      </trkpt>
      <trkpt lat="44.5216" lon="6.70898">
        <ele>1844.4000244141</ele>
        <time>2022-03-10T14:18:44.000Z</time>
      </trkpt>
      <trkpt lat="44.52163" lon="6.70902">
        <ele>1843.8000488281</ele>
        <time>2022-03-10T14:18:45.000Z</time>
      </trkpt>
      <trkpt lat="44.5217" lon="6.7091">
        <ele>1842.1999511719</ele>
        <time>2022-03-10T14:18:47.000Z</time>
      </trkpt>
      <trkpt lat="44.52173" lon="6.70913">
        <ele>1840.8000488281</ele>
        <time>2022-03-10T14:18:48.000Z</time>
      </trkpt>
      <trkpt lat="44.52177" lon="6.70916">
        <ele>1839</ele>
        <time>2022-03-10T14:18:50.000Z</time>
      </trkpt>
      <trkpt lat="44.5218" lon="6.70916">
        <ele>1838.1999511719</ele>
        <time>2022-03-10T14:18:52.000Z</time>
      </trkpt>
      <trkpt lat="44.52182" lon="6.70917">
        <ele>1838</ele>
        <time>2022-03-10T14:18:53.000Z</time>
      </trkpt>
      <trkpt lat="44.52188" lon="6.70917">
        <ele>1836.8000488281</ele>
        <time>2022-03-10T14:18:55.000Z</time>
      </trkpt>
      <trkpt lat="44.52195" lon="6.70919">
        <ele>1835.4000244141</ele>
        <time>2022-03-10T14:18:57.000Z</time>
      </trkpt>
      <trkpt lat="44.52198" lon="6.7092">
        <ele>1834.1999511719</ele>
        <time>2022-03-10T14:18:59.000Z</time>
      </trkpt>
      <trkpt lat="44.522" lon="6.70922">
        <ele>1833</ele>
        <time>2022-03-10T14:19:01.000Z</time>
      </trkpt>
      <trkpt lat="44.52202" lon="6.70924">
        <ele>1832.5999755859</ele>
        <time>2022-03-10T14:19:02.000Z</time>
      </trkpt>
      <trkpt lat="44.52208" lon="6.70933">
        <ele>1831.5999755859</ele>
        <time>2022-03-10T14:19:05.000Z</time>
      </trkpt>
      <trkpt lat="44.52209" lon="6.70934">
        <ele>1830.5999755859</ele>
        <time>2022-03-10T14:19:07.000Z</time>
      </trkpt>
      <trkpt lat="44.5221" lon="6.70937">
        <ele>1829.5999755859</ele>
        <time>2022-03-10T14:19:11.000Z</time>
      </trkpt>
      <trkpt lat="44.52212" lon="6.70938">
        <ele>1829.4000244141</ele>
        <time>2022-03-10T14:19:12.000Z</time>
      </trkpt>
      <trkpt lat="44.52213" lon="6.70938">
        <ele>1829.4000244141</ele>
        <time>2022-03-10T14:19:13.000Z</time>
      </trkpt>
      <trkpt lat="44.52218" lon="6.70939">
        <ele>1828.5999755859</ele>
        <time>2022-03-10T14:19:15.000Z</time>
      </trkpt>
      <trkpt lat="44.52223" lon="6.70941">
        <ele>1827.5999755859</ele>
        <time>2022-03-10T14:19:17.000Z</time>
      </trkpt>
      <trkpt lat="44.52225" lon="6.70942">
        <ele>1827</ele>
        <time>2022-03-10T14:19:18.000Z</time>
      </trkpt>
      <trkpt lat="44.52228" lon="6.70943">
        <ele>1826.1999511719</ele>
        <time>2022-03-10T14:19:19.000Z</time>
      </trkpt>
      <trkpt lat="44.52231" lon="6.70945">
        <ele>1825.1999511719</ele>
        <time>2022-03-10T14:19:21.000Z</time>
      </trkpt>
      <trkpt lat="44.52232" lon="6.70947">
        <ele>1824.4000244141</ele>
        <time>2022-03-10T14:19:22.000Z</time>
      </trkpt>
      <trkpt lat="44.52233" lon="6.70949">
        <ele>1823.8000488281</ele>
        <time>2022-03-10T14:19:23.000Z</time>
      </trkpt>
      <trkpt lat="44.52235" lon="6.70949">
        <ele>1823.4000244141</ele>
        <time>2022-03-10T14:19:24.000Z</time>
      </trkpt>
      <trkpt lat="44.52237" lon="6.7095">
        <ele>1822.8000488281</ele>
        <time>2022-03-10T14:19:26.000Z</time>
      </trkpt>
      <trkpt lat="44.52242" lon="6.70954">
        <ele>1822.4000244141</ele>
        <time>2022-03-10T14:19:28.000Z</time>
      </trkpt>
      <trkpt lat="44.52254" lon="6.70963">
        <ele>1822</ele>
        <time>2022-03-10T14:19:33.000Z</time>
      </trkpt>
      <trkpt lat="44.52257" lon="6.70965">
        <ele>1821.8000488281</ele>
        <time>2022-03-10T14:19:34.000Z</time>
      </trkpt>
      <trkpt lat="44.52267" lon="6.70971">
        <ele>1820.5999755859</ele>
        <time>2022-03-10T14:19:37.000Z</time>
      </trkpt>
      <trkpt lat="44.52269" lon="6.70974">
        <ele>1819.5999755859</ele>
        <time>2022-03-10T14:19:39.000Z</time>
      </trkpt>
      <trkpt lat="44.52271" lon="6.70975">
        <ele>1819</ele>
        <time>2022-03-10T14:19:40.000Z</time>
      </trkpt>
      <trkpt lat="44.5228" lon="6.70978">
        <ele>1817.5999755859</ele>
        <time>2022-03-10T14:19:43.000Z</time>
      </trkpt>
      <trkpt lat="44.52286" lon="6.70982">
        <ele>1816.4000244141</ele>
        <time>2022-03-10T14:19:45.000Z</time>
      </trkpt>
      <trkpt lat="44.52291" lon="6.70986">
        <ele>1815.8000488281</ele>
        <time>2022-03-10T14:19:48.000Z</time>
      </trkpt>
      <trkpt lat="44.52293" lon="6.70989">
        <ele>1815.4000244141</ele>
        <time>2022-03-10T14:19:49.000Z</time>
      </trkpt>
      <trkpt lat="44.5231" lon="6.71001">
        <ele>1814.4000244141</ele>
        <time>2022-03-10T14:19:55.000Z</time>
      </trkpt>
      <trkpt lat="44.52314" lon="6.71005">
        <ele>1813.4000244141</ele>
        <time>2022-03-10T14:19:57.000Z</time>
      </trkpt>
      <trkpt lat="44.52316" lon="6.71006">
        <ele>1812.8000488281</ele>
        <time>2022-03-10T14:19:58.000Z</time>
      </trkpt>
      <trkpt lat="44.52327" lon="6.71015">
        <ele>1811.5999755859</ele>
        <time>2022-03-10T14:20:02.000Z</time>
      </trkpt>
      <trkpt lat="44.5233" lon="6.7102">
        <ele>1810.1999511719</ele>
        <time>2022-03-10T14:20:04.000Z</time>
      </trkpt>
      <trkpt lat="44.52331" lon="6.71021">
        <ele>1809.8000488281</ele>
        <time>2022-03-10T14:20:05.000Z</time>
      </trkpt>
      <trkpt lat="44.52335" lon="6.71027">
        <ele>1809.5999755859</ele>
        <time>2022-03-10T14:20:09.000Z</time>
      </trkpt>
      <trkpt lat="44.52335" lon="6.71028">
        <ele>1809.4000244141</ele>
        <time>2022-03-10T14:20:10.000Z</time>
      </trkpt>
      <trkpt lat="44.5233" lon="6.7103">
        <ele>1809.4000244141</ele>
        <time>2022-03-10T14:20:13.000Z</time>
      </trkpt>
      <trkpt lat="44.5233" lon="6.71031">
        <ele>1809.1999511719</ele>
        <time>2022-03-10T14:20:14.000Z</time>
      </trkpt>
      <trkpt lat="44.52331" lon="6.71033">
        <ele>1808.5999755859</ele>
        <time>2022-03-10T14:20:20.000Z</time>
      </trkpt>
      <trkpt lat="44.52332" lon="6.71035">
        <ele>1808.1999511719</ele>
        <time>2022-03-10T14:20:21.000Z</time>
      </trkpt>
      <trkpt lat="44.52334" lon="6.71037">
        <ele>1808</ele>
        <time>2022-03-10T14:20:22.000Z</time>
      </trkpt>
      <trkpt lat="44.52339" lon="6.71042">
        <ele>1807.1999511719</ele>
        <time>2022-03-10T14:20:25.000Z</time>
      </trkpt>
      <trkpt lat="44.52342" lon="6.71042">
        <ele>1806.8000488281</ele>
        <time>2022-03-10T14:20:26.000Z</time>
      </trkpt>
      <trkpt lat="44.52347" lon="6.71046">
        <ele>1805.8000488281</ele>
        <time>2022-03-10T14:20:29.000Z</time>
      </trkpt>
      <trkpt lat="44.5235" lon="6.71053">
        <ele>1804.8000488281</ele>
        <time>2022-03-10T14:20:31.000Z</time>
      </trkpt>
      <trkpt lat="44.52352" lon="6.71056">
        <ele>1804.4000244141</ele>
        <time>2022-03-10T14:20:32.000Z</time>
      </trkpt>
      <trkpt lat="44.52358" lon="6.71063">
        <ele>1802.8000488281</ele>
        <time>2022-03-10T14:20:34.000Z</time>
      </trkpt>
      <trkpt lat="44.52364" lon="6.71075">
        <ele>1801.1999511719</ele>
        <time>2022-03-10T14:20:37.000Z</time>
      </trkpt>
      <trkpt lat="44.52371" lon="6.71088">
        <ele>1800</ele>
        <time>2022-03-10T14:20:40.000Z</time>
      </trkpt>
      <trkpt lat="44.52373" lon="6.71094">
        <ele>1799.4000244141</ele>
        <time>2022-03-10T14:20:42.000Z</time>
      </trkpt>
      <trkpt lat="44.52374" lon="6.71096">
        <ele>1799</ele>
        <time>2022-03-10T14:20:43.000Z</time>
      </trkpt>
      <trkpt lat="44.52375" lon="6.71098">
        <ele>1798.4000244141</ele>
        <time>2022-03-10T14:20:44.000Z</time>
      </trkpt>
      <trkpt lat="44.52376" lon="6.71099">
        <ele>1796.8000488281</ele>
        <time>2022-03-10T14:20:46.000Z</time>
      </trkpt>
      <trkpt lat="44.52379" lon="6.71099">
        <ele>1796.1999511719</ele>
        <time>2022-03-10T14:20:47.000Z</time>
      </trkpt>
      <trkpt lat="44.52386" lon="6.71102">
        <ele>1794.8000488281</ele>
        <time>2022-03-10T14:20:49.000Z</time>
      </trkpt>
      <trkpt lat="44.5239" lon="6.71103">
        <ele>1793.8000488281</ele>
        <time>2022-03-10T14:20:50.000Z</time>
      </trkpt>
      <trkpt lat="44.52393" lon="6.71107">
        <ele>1792.8000488281</ele>
        <time>2022-03-10T14:20:51.000Z</time>
      </trkpt>
      <trkpt lat="44.52396" lon="6.71113">
        <ele>1792.1999511719</ele>
        <time>2022-03-10T14:20:52.000Z</time>
      </trkpt>
      <trkpt lat="44.52397" lon="6.71119">
        <ele>1791.8000488281</ele>
        <time>2022-03-10T14:20:53.000Z</time>
      </trkpt>
      <trkpt lat="44.52397" lon="6.71127">
        <ele>1790</ele>
        <time>2022-03-10T14:20:54.000Z</time>
      </trkpt>
      <trkpt lat="44.52398" lon="6.71135">
        <ele>1788.5999755859</ele>
        <time>2022-03-10T14:20:55.000Z</time>
      </trkpt>
      <trkpt lat="44.52398" lon="6.71144">
        <ele>1787.8000488281</ele>
        <time>2022-03-10T14:20:56.000Z</time>
      </trkpt>
      <trkpt lat="44.52398" lon="6.71151">
        <ele>1787.1999511719</ele>
        <time>2022-03-10T14:20:57.000Z</time>
      </trkpt>
      <trkpt lat="44.52399" lon="6.71156">
        <ele>1786</ele>
        <time>2022-03-10T14:20:58.000Z</time>
      </trkpt>
      <trkpt lat="44.52402" lon="6.71161">
        <ele>1785.5999755859</ele>
        <time>2022-03-10T14:20:59.000Z</time>
      </trkpt>
      <trkpt lat="44.52403" lon="6.71166">
        <ele>1784.8000488281</ele>
        <time>2022-03-10T14:21:00.000Z</time>
      </trkpt>
      <trkpt lat="44.52408" lon="6.71175">
        <ele>1782.8000488281</ele>
        <time>2022-03-10T14:21:02.000Z</time>
      </trkpt>
      <trkpt lat="44.52412" lon="6.71186">
        <ele>1781.1999511719</ele>
        <time>2022-03-10T14:21:04.000Z</time>
      </trkpt>
      <trkpt lat="44.52413" lon="6.71192">
        <ele>1780</ele>
        <time>2022-03-10T14:21:05.000Z</time>
      </trkpt>
      <trkpt lat="44.52414" lon="6.712">
        <ele>1778</ele>
        <time>2022-03-10T14:21:06.000Z</time>
      </trkpt>
      <trkpt lat="44.52415" lon="6.71212">
        <ele>1775.4000244141</ele>
        <time>2022-03-10T14:21:08.000Z</time>
      </trkpt>
      <trkpt lat="44.52416" lon="6.71216">
        <ele>1773.5999755859</ele>
        <time>2022-03-10T14:21:09.000Z</time>
      </trkpt>
      <trkpt lat="44.52417" lon="6.71224">
        <ele>1772</ele>
        <time>2022-03-10T14:21:11.000Z</time>
      </trkpt>
      <trkpt lat="44.52417" lon="6.71229">
        <ele>1770.8000488281</ele>
        <time>2022-03-10T14:21:12.000Z</time>
      </trkpt>
      <trkpt lat="44.52418" lon="6.71233">
        <ele>1769.8000488281</ele>
        <time>2022-03-10T14:21:13.000Z</time>
      </trkpt>
      <trkpt lat="44.52423" lon="6.71241">
        <ele>1768.5999755859</ele>
        <time>2022-03-10T14:21:15.000Z</time>
      </trkpt>
      <trkpt lat="44.52426" lon="6.71245">
        <ele>1767.5999755859</ele>
        <time>2022-03-10T14:21:16.000Z</time>
      </trkpt>
      <trkpt lat="44.5243" lon="6.71247">
        <ele>1766.4000244141</ele>
        <time>2022-03-10T14:21:17.000Z</time>
      </trkpt>
      <trkpt lat="44.52432" lon="6.71251">
        <ele>1765.5999755859</ele>
        <time>2022-03-10T14:21:18.000Z</time>
      </trkpt>
      <trkpt lat="44.52434" lon="6.71256">
        <ele>1764.5999755859</ele>
        <time>2022-03-10T14:21:19.000Z</time>
      </trkpt>
      <trkpt lat="44.52437" lon="6.71261">
        <ele>1763.1999511719</ele>
        <time>2022-03-10T14:21:20.000Z</time>
      </trkpt>
      <trkpt lat="44.52441" lon="6.71263">
        <ele>1762</ele>
        <time>2022-03-10T14:21:21.000Z</time>
      </trkpt>
      <trkpt lat="44.52445" lon="6.71266">
        <ele>1761.4000244141</ele>
        <time>2022-03-10T14:21:22.000Z</time>
      </trkpt>
      <trkpt lat="44.52447" lon="6.7127">
        <ele>1760.5999755859</ele>
        <time>2022-03-10T14:21:23.000Z</time>
      </trkpt>
      <trkpt lat="44.52448" lon="6.71273">
        <ele>1759.8000488281</ele>
        <time>2022-03-10T14:21:24.000Z</time>
      </trkpt>
      <trkpt lat="44.5245" lon="6.71276">
        <ele>1758.5999755859</ele>
        <time>2022-03-10T14:21:25.000Z</time>
      </trkpt>
      <trkpt lat="44.52452" lon="6.7128">
        <ele>1757.8000488281</ele>
        <time>2022-03-10T14:21:26.000Z</time>
      </trkpt>
      <trkpt lat="44.52453" lon="6.71286">
        <ele>1757</ele>
        <time>2022-03-10T14:21:27.000Z</time>
      </trkpt>
      <trkpt lat="44.52454" lon="6.71299">
        <ele>1755.1999511719</ele>
        <time>2022-03-10T14:21:29.000Z</time>
      </trkpt>
      <trkpt lat="44.52455" lon="6.71305">
        <ele>1753.8000488281</ele>
        <time>2022-03-10T14:21:31.000Z</time>
      </trkpt>
      <trkpt lat="44.52456" lon="6.71308">
        <ele>1753.4000244141</ele>
        <time>2022-03-10T14:21:32.000Z</time>
      </trkpt>
      <trkpt lat="44.52464" lon="6.71321">
        <ele>1751.8000488281</ele>
        <time>2022-03-10T14:21:35.000Z</time>
      </trkpt>
      <trkpt lat="44.52466" lon="6.71327">
        <ele>1751</ele>
        <time>2022-03-10T14:21:36.000Z</time>
      </trkpt>
      <trkpt lat="44.52469" lon="6.71331">
        <ele>1750.4000244141</ele>
        <time>2022-03-10T14:21:37.000Z</time>
      </trkpt>
      <trkpt lat="44.52477" lon="6.71344">
        <ele>1748.4000244141</ele>
        <time>2022-03-10T14:21:40.000Z</time>
      </trkpt>
      <trkpt lat="44.52481" lon="6.71348">
        <ele>1747.4000244141</ele>
        <time>2022-03-10T14:21:41.000Z</time>
      </trkpt>
      <trkpt lat="44.52485" lon="6.71353">
        <ele>1746.5999755859</ele>
        <time>2022-03-10T14:21:42.000Z</time>
      </trkpt>
      <trkpt lat="44.52488" lon="6.71358">
        <ele>1745.4000244141</ele>
        <time>2022-03-10T14:21:43.000Z</time>
      </trkpt>
      <trkpt lat="44.52491" lon="6.71364">
        <ele>1743.8000488281</ele>
        <time>2022-03-10T14:21:44.000Z</time>
      </trkpt>
      <trkpt lat="44.52495" lon="6.7137">
        <ele>1742.8000488281</ele>
        <time>2022-03-10T14:21:45.000Z</time>
      </trkpt>
      <trkpt lat="44.52498" lon="6.71376">
        <ele>1742</ele>
        <time>2022-03-10T14:21:46.000Z</time>
      </trkpt>
      <trkpt lat="44.52501" lon="6.71382">
        <ele>1741</ele>
        <time>2022-03-10T14:21:47.000Z</time>
      </trkpt>
      <trkpt lat="44.52504" lon="6.71386">
        <ele>1740</ele>
        <time>2022-03-10T14:21:48.000Z</time>
      </trkpt>
      <trkpt lat="44.52508" lon="6.71391">
        <ele>1739.4000244141</ele>
        <time>2022-03-10T14:21:49.000Z</time>
      </trkpt>
      <trkpt lat="44.52516" lon="6.714">
        <ele>1738.5999755859</ele>
        <time>2022-03-10T14:21:51.000Z</time>
      </trkpt>
      <trkpt lat="44.52517" lon="6.71405">
        <ele>1738</ele>
        <time>2022-03-10T14:21:52.000Z</time>
      </trkpt>
      <trkpt lat="44.52519" lon="6.71409">
        <ele>1737</ele>
        <time>2022-03-10T14:21:53.000Z</time>
      </trkpt>
      <trkpt lat="44.5252" lon="6.71414">
        <ele>1736.4000244141</ele>
        <time>2022-03-10T14:21:54.000Z</time>
      </trkpt>
      <trkpt lat="44.5252" lon="6.71435">
        <ele>1735.1999511719</ele>
        <time>2022-03-10T14:21:58.000Z</time>
      </trkpt>
      <trkpt lat="44.5252" lon="6.71441">
        <ele>1734.8000488281</ele>
        <time>2022-03-10T14:21:59.000Z</time>
      </trkpt>
      <trkpt lat="44.52519" lon="6.71447">
        <ele>1734.4000244141</ele>
        <time>2022-03-10T14:22:00.000Z</time>
      </trkpt>
      <trkpt lat="44.52517" lon="6.71453">
        <ele>1733.5999755859</ele>
        <time>2022-03-10T14:22:01.000Z</time>
      </trkpt>
      <trkpt lat="44.52515" lon="6.71465">
        <ele>1732.4000244141</ele>
        <time>2022-03-10T14:22:03.000Z</time>
      </trkpt>
      <trkpt lat="44.52514" lon="6.71469">
        <ele>1732</ele>
        <time>2022-03-10T14:22:04.000Z</time>
      </trkpt>
      <trkpt lat="44.52515" lon="6.71473">
        <ele>1731.1999511719</ele>
        <time>2022-03-10T14:22:05.000Z</time>
      </trkpt>
      <trkpt lat="44.52519" lon="6.71479">
        <ele>1729.8000488281</ele>
        <time>2022-03-10T14:22:07.000Z</time>
      </trkpt>
      <trkpt lat="44.52521" lon="6.71479">
        <ele>1729.4000244141</ele>
        <time>2022-03-10T14:22:08.000Z</time>
      </trkpt>
      <trkpt lat="44.52526" lon="6.71475">
        <ele>1728.8000488281</ele>
        <time>2022-03-10T14:22:10.000Z</time>
      </trkpt>
      <trkpt lat="44.52533" lon="6.71469">
        <ele>1727.8000488281</ele>
        <time>2022-03-10T14:22:14.000Z</time>
      </trkpt>
      <trkpt lat="44.52535" lon="6.7147">
        <ele>1727.1999511719</ele>
        <time>2022-03-10T14:22:15.000Z</time>
      </trkpt>
      <trkpt lat="44.52536" lon="6.71471">
        <ele>1726.8000488281</ele>
        <time>2022-03-10T14:22:16.000Z</time>
      </trkpt>
      <trkpt lat="44.52538" lon="6.71479">
        <ele>1724.5999755859</ele>
        <time>2022-03-10T14:22:19.000Z</time>
      </trkpt>
      <trkpt lat="44.52539" lon="6.71479">
        <ele>1723.5999755859</ele>
        <time>2022-03-10T14:22:20.000Z</time>
      </trkpt>
      <trkpt lat="44.52541" lon="6.71479">
        <ele>1723</ele>
        <time>2022-03-10T14:22:21.000Z</time>
      </trkpt>
      <trkpt lat="44.52546" lon="6.71477">
        <ele>1721.5999755859</ele>
        <time>2022-03-10T14:22:23.000Z</time>
      </trkpt>
      <trkpt lat="44.52549" lon="6.71474">
        <ele>1720.5999755859</ele>
        <time>2022-03-10T14:22:24.000Z</time>
      </trkpt>
      <trkpt lat="44.52552" lon="6.71472">
        <ele>1719.5999755859</ele>
        <time>2022-03-10T14:22:25.000Z</time>
      </trkpt>
      <trkpt lat="44.52553" lon="6.71469">
        <ele>1719.1999511719</ele>
        <time>2022-03-10T14:22:26.000Z</time>
      </trkpt>
      <trkpt lat="44.52555" lon="6.71466">
        <ele>1718.4000244141</ele>
        <time>2022-03-10T14:22:29.000Z</time>
      </trkpt>
      <trkpt lat="44.52555" lon="6.71459">
        <ele>1719.4000244141</ele>
        <time>2022-03-10T14:22:38.000Z</time>
      </trkpt>
      <trkpt lat="44.52559" lon="6.71457">
        <ele>1719.8000488281</ele>
        <time>2022-03-10T14:22:44.000Z</time>
      </trkpt>
      <trkpt lat="44.52561" lon="6.71456">
        <ele>1720</ele>
        <time>2022-03-10T14:22:46.000Z</time>
      </trkpt>
      <trkpt lat="44.52562" lon="6.71455">
        <ele>1720.1999511719</ele>
        <time>2022-03-10T14:22:47.000Z</time>
      </trkpt>
      <trkpt lat="44.52562" lon="6.71452">
        <ele>1720.4000244141</ele>
        <time>2022-03-10T14:22:51.000Z</time>
      </trkpt>
      <trkpt lat="44.52563" lon="6.71447">
        <ele>1720.8000488281</ele>
        <time>2022-03-10T14:22:58.000Z</time>
      </trkpt>
      <trkpt lat="44.52563" lon="6.71451">
        <ele>1721</ele>
        <time>2022-03-10T14:23:05.000Z</time>
      </trkpt>
      <trkpt lat="44.52562" lon="6.71453">
        <ele>1721</ele>
        <time>2022-03-10T14:23:14.000Z</time>
      </trkpt>
      <trkpt lat="44.52563" lon="6.71453">
        <ele>1720.5999755859</ele>
        <time>2022-03-10T14:23:25.000Z</time>
      </trkpt>
      <trkpt lat="44.52562" lon="6.7145">
        <ele>1721.1999511719</ele>
        <time>2022-03-10T14:23:49.000Z</time>
      </trkpt>
      <trkpt lat="44.52562" lon="6.7145">
        <ele>1720.5999755859</ele>
        <time>2022-03-10T14:25:09.000Z</time>
      </trkpt>
      <trkpt lat="44.52567" lon="6.71446">
        <ele>1720.4000244141</ele>
        <time>2022-03-10T14:25:17.000Z</time>
      </trkpt>
      <trkpt lat="44.52573" lon="6.71443">
        <ele>1720.1999511719</ele>
        <time>2022-03-10T14:25:22.000Z</time>
      </trkpt>
      <trkpt lat="44.52574" lon="6.71442">
        <ele>1719.8000488281</ele>
        <time>2022-03-10T14:25:24.000Z</time>
      </trkpt>
      <trkpt lat="44.52579" lon="6.71439">
        <ele>1720.1999511719</ele>
        <time>2022-03-10T14:25:31.000Z</time>
      </trkpt>
      <trkpt lat="44.52583" lon="6.71442">
        <ele>1720.8000488281</ele>
        <time>2022-03-10T14:25:37.000Z</time>
      </trkpt>
      <trkpt lat="44.5259" lon="6.71443">
        <ele>1721.1999511719</ele>
        <time>2022-03-10T14:25:44.000Z</time>
      </trkpt>
      <trkpt lat="44.52593" lon="6.71444">
        <ele>1721.5999755859</ele>
        <time>2022-03-10T14:25:46.000Z</time>
      </trkpt>
      <trkpt lat="44.52599" lon="6.71447">
        <ele>1722.1999511719</ele>
        <time>2022-03-10T14:25:50.000Z</time>
      </trkpt>
      <trkpt lat="44.52601" lon="6.71448">
        <ele>1723</ele>
        <time>2022-03-10T14:25:55.000Z</time>
      </trkpt>
      <trkpt lat="44.52602" lon="6.71449">
        <ele>1723.1999511719</ele>
        <time>2022-03-10T14:25:58.000Z</time>
      </trkpt>
      <trkpt lat="44.526" lon="6.71448">
        <ele>1723.8000488281</ele>
        <time>2022-03-10T14:26:01.000Z</time>
      </trkpt>
      <trkpt lat="44.52601" lon="6.71449">
        <ele>1724.1999511719</ele>
        <time>2022-03-10T14:26:04.000Z</time>
      </trkpt>
      <trkpt lat="44.52603" lon="6.7145">
        <ele>1724.8000488281</ele>
        <time>2022-03-10T14:26:09.000Z</time>
      </trkpt>
      <trkpt lat="44.52605" lon="6.71451">
        <ele>1725.4000244141</ele>
        <time>2022-03-10T14:26:13.000Z</time>
      </trkpt>
      <trkpt lat="44.52607" lon="6.71453">
        <ele>1725.8000488281</ele>
        <time>2022-03-10T14:26:19.000Z</time>
      </trkpt>
      <trkpt lat="44.5261" lon="6.71456">
        <ele>1726.4000244141</ele>
        <time>2022-03-10T14:26:25.000Z</time>
      </trkpt>
      <trkpt lat="44.52611" lon="6.71455">
        <ele>1727.1999511719</ele>
        <time>2022-03-10T14:26:29.000Z</time>
      </trkpt>
      <trkpt lat="44.52613" lon="6.71457">
        <ele>1727.5999755859</ele>
        <time>2022-03-10T14:26:32.000Z</time>
      </trkpt>
      <trkpt lat="44.52616" lon="6.71458">
        <ele>1728.1999511719</ele>
        <time>2022-03-10T14:26:38.000Z</time>
      </trkpt>
      <trkpt lat="44.52618" lon="6.71459">
        <ele>1728.5999755859</ele>
        <time>2022-03-10T14:26:40.000Z</time>
      </trkpt>
      <trkpt lat="44.5262" lon="6.71459">
        <ele>1729</ele>
        <time>2022-03-10T14:26:46.000Z</time>
      </trkpt>
      <trkpt lat="44.52621" lon="6.7146">
        <ele>1729.8000488281</ele>
        <time>2022-03-10T14:26:50.000Z</time>
      </trkpt>
      <trkpt lat="44.5262" lon="6.71458">
        <ele>1730.4000244141</ele>
        <time>2022-03-10T14:26:55.000Z</time>
      </trkpt>
      <trkpt lat="44.5262" lon="6.71456">
        <ele>1731</ele>
        <time>2022-03-10T14:26:58.000Z</time>
      </trkpt>
      <trkpt lat="44.52622" lon="6.71453">
        <ele>1731.8000488281</ele>
        <time>2022-03-10T14:27:03.000Z</time>
      </trkpt>
      <trkpt lat="44.52624" lon="6.71451">
        <ele>1732</ele>
        <time>2022-03-10T14:27:06.000Z</time>
      </trkpt>
      <trkpt lat="44.52628" lon="6.7145">
        <ele>1732.4000244141</ele>
        <time>2022-03-10T14:27:10.000Z</time>
      </trkpt>
      <trkpt lat="44.5263" lon="6.71449">
        <ele>1733.1999511719</ele>
        <time>2022-03-10T14:27:16.000Z</time>
      </trkpt>
      <trkpt lat="44.52631" lon="6.7145">
        <ele>1733.4000244141</ele>
        <time>2022-03-10T14:27:18.000Z</time>
      </trkpt>
      <trkpt lat="44.52632" lon="6.71449">
        <ele>1733.5999755859</ele>
        <time>2022-03-10T14:27:20.000Z</time>
      </trkpt>
      <trkpt lat="44.52632" lon="6.71448">
        <ele>1734.1999511719</ele>
        <time>2022-03-10T14:27:24.000Z</time>
      </trkpt>
      <trkpt lat="44.52634" lon="6.71448">
        <ele>1734.5999755859</ele>
        <time>2022-03-10T14:27:27.000Z</time>
      </trkpt>
      <trkpt lat="44.52636" lon="6.71448">
        <ele>1735.1999511719</ele>
        <time>2022-03-10T14:27:32.000Z</time>
      </trkpt>
      <trkpt lat="44.52637" lon="6.71448">
        <ele>1735.5999755859</ele>
        <time>2022-03-10T14:27:35.000Z</time>
      </trkpt>
      <trkpt lat="44.52639" lon="6.71447">
        <ele>1736.4000244141</ele>
        <time>2022-03-10T14:27:41.000Z</time>
      </trkpt>
      <trkpt lat="44.52641" lon="6.71448">
        <ele>1737.1999511719</ele>
        <time>2022-03-10T14:27:45.000Z</time>
      </trkpt>
      <trkpt lat="44.52643" lon="6.71449">
        <ele>1737.5999755859</ele>
        <time>2022-03-10T14:27:48.000Z</time>
      </trkpt>
      <trkpt lat="44.52648" lon="6.71452">
        <ele>1738.5999755859</ele>
        <time>2022-03-10T14:27:55.000Z</time>
      </trkpt>
      <trkpt lat="44.52648" lon="6.71452">
        <ele>1738.5999755859</ele>
        <time>2022-03-10T14:27:56.000Z</time>
      </trkpt>
      <trkpt lat="44.5265" lon="6.7145">
        <ele>1739.5999755859</ele>
        <time>2022-03-10T14:28:02.000Z</time>
      </trkpt>
      <trkpt lat="44.52649" lon="6.7145">
        <ele>1739.5999755859</ele>
        <time>2022-03-10T14:28:03.000Z</time>
      </trkpt>
      <trkpt lat="44.52651" lon="6.7145">
        <ele>1740.1999511719</ele>
        <time>2022-03-10T14:28:07.000Z</time>
      </trkpt>
      <trkpt lat="44.52652" lon="6.7145">
        <ele>1740.1999511719</ele>
        <time>2022-03-10T14:28:08.000Z</time>
      </trkpt>
      <trkpt lat="44.52654" lon="6.7145">
        <ele>1740.5999755859</ele>
        <time>2022-03-10T14:28:10.000Z</time>
      </trkpt>
      <trkpt lat="44.52658" lon="6.7145">
        <ele>1741.5999755859</ele>
        <time>2022-03-10T14:28:17.000Z</time>
      </trkpt>
      <trkpt lat="44.52659" lon="6.71451">
        <ele>1741.8000488281</ele>
        <time>2022-03-10T14:28:18.000Z</time>
      </trkpt>
      <trkpt lat="44.52663" lon="6.71459">
        <ele>1742.4000244141</ele>
        <time>2022-03-10T14:28:24.000Z</time>
      </trkpt>
      <trkpt lat="44.52663" lon="6.71461">
        <ele>1742.4000244141</ele>
        <time>2022-03-10T14:28:25.000Z</time>
      </trkpt>
      <trkpt lat="44.52664" lon="6.71465">
        <ele>1742.8000488281</ele>
        <time>2022-03-10T14:28:28.000Z</time>
      </trkpt>
      <trkpt lat="44.52664" lon="6.71467">
        <ele>1742.8000488281</ele>
        <time>2022-03-10T14:28:29.000Z</time>
      </trkpt>
      <trkpt lat="44.52665" lon="6.7147">
        <ele>1743</ele>
        <time>2022-03-10T14:28:31.000Z</time>
      </trkpt>
      <trkpt lat="44.52664" lon="6.7147">
        <ele>1743</ele>
        <time>2022-03-10T14:28:32.000Z</time>
      </trkpt>
      <trkpt lat="44.52664" lon="6.71471">
        <ele>1743</ele>
        <time>2022-03-10T14:28:33.000Z</time>
      </trkpt>
      <trkpt lat="44.52665" lon="6.71477">
        <ele>1742.8000488281</ele>
        <time>2022-03-10T14:28:37.000Z</time>
      </trkpt>
      <trkpt lat="44.52665" lon="6.71479">
        <ele>1743</ele>
        <time>2022-03-10T14:28:39.000Z</time>
      </trkpt>
      <trkpt lat="44.52669" lon="6.71492">
        <ele>1743</ele>
        <time>2022-03-10T14:28:49.000Z</time>
      </trkpt>
      <trkpt lat="44.5267" lon="6.71504">
        <ele>1743.1999511719</ele>
        <time>2022-03-10T14:28:57.000Z</time>
      </trkpt>
      <trkpt lat="44.52671" lon="6.7151">
        <ele>1743.4000244141</ele>
        <time>2022-03-10T14:29:02.000Z</time>
      </trkpt>
      <trkpt lat="44.52672" lon="6.71518">
        <ele>1743.4000244141</ele>
        <time>2022-03-10T14:29:05.000Z</time>
      </trkpt>
      <trkpt lat="44.52672" lon="6.71519">
        <ele>1743.4000244141</ele>
        <time>2022-03-10T14:29:06.000Z</time>
      </trkpt>
      <trkpt lat="44.52674" lon="6.71533">
        <ele>1743.8000488281</ele>
        <time>2022-03-10T14:29:13.000Z</time>
      </trkpt>
      <trkpt lat="44.52673" lon="6.71544">
        <ele>1743.4000244141</ele>
        <time>2022-03-10T14:29:21.000Z</time>
      </trkpt>
      <trkpt lat="44.52674" lon="6.71558">
        <ele>1743.5999755859</ele>
        <time>2022-03-10T14:29:30.000Z</time>
      </trkpt>
      <trkpt lat="44.52679" lon="6.71574">
        <ele>1743.4000244141</ele>
        <time>2022-03-10T14:29:40.000Z</time>
      </trkpt>
      <trkpt lat="44.52678" lon="6.71577">
        <ele>1743.1999511719</ele>
        <time>2022-03-10T14:29:43.000Z</time>
      </trkpt>
      <trkpt lat="44.52678" lon="6.71581">
        <ele>1743.1999511719</ele>
        <time>2022-03-10T14:29:46.000Z</time>
      </trkpt>
      <trkpt lat="44.52678" lon="6.71592">
        <ele>1743.4000244141</ele>
        <time>2022-03-10T14:29:54.000Z</time>
      </trkpt>
      <trkpt lat="44.52681" lon="6.71607">
        <ele>1743</ele>
        <time>2022-03-10T14:30:03.000Z</time>
      </trkpt>
      <trkpt lat="44.52681" lon="6.71613">
        <ele>1743</ele>
        <time>2022-03-10T14:30:07.000Z</time>
      </trkpt>
      <trkpt lat="44.52681" lon="6.71616">
        <ele>1743</ele>
        <time>2022-03-10T14:30:09.000Z</time>
      </trkpt>
      <trkpt lat="44.52682" lon="6.71632">
        <ele>1743</ele>
        <time>2022-03-10T14:30:17.000Z</time>
      </trkpt>
      <trkpt lat="44.52682" lon="6.71634">
        <ele>1743</ele>
        <time>2022-03-10T14:30:18.000Z</time>
      </trkpt>
      <trkpt lat="44.52681" lon="6.71644">
        <ele>1743</ele>
        <time>2022-03-10T14:30:24.000Z</time>
      </trkpt>
      <trkpt lat="44.52681" lon="6.71645">
        <ele>1743</ele>
        <time>2022-03-10T14:30:25.000Z</time>
      </trkpt>
      <trkpt lat="44.52681" lon="6.71647">
        <ele>1743</ele>
        <time>2022-03-10T14:30:26.000Z</time>
      </trkpt>
      <trkpt lat="44.52683" lon="6.71655">
        <ele>1742.8000488281</ele>
        <time>2022-03-10T14:30:32.000Z</time>
      </trkpt>
      <trkpt lat="44.52684" lon="6.71659">
        <ele>1742.8000488281</ele>
        <time>2022-03-10T14:30:35.000Z</time>
      </trkpt>
      <trkpt lat="44.52685" lon="6.71665">
        <ele>1742.8000488281</ele>
        <time>2022-03-10T14:30:39.000Z</time>
      </trkpt>
      <trkpt lat="44.52685" lon="6.71668">
        <ele>1742.8000488281</ele>
        <time>2022-03-10T14:30:42.000Z</time>
      </trkpt>
      <trkpt lat="44.52685" lon="6.7168">
        <ele>1743</ele>
        <time>2022-03-10T14:30:49.000Z</time>
      </trkpt>
      <trkpt lat="44.52685" lon="6.71681">
        <ele>1743</ele>
        <time>2022-03-10T14:30:50.000Z</time>
      </trkpt>
      <trkpt lat="44.52685" lon="6.71689">
        <ele>1743</ele>
        <time>2022-03-10T14:30:54.000Z</time>
      </trkpt>
      <trkpt lat="44.52684" lon="6.71694">
        <ele>1743</ele>
        <time>2022-03-10T14:30:57.000Z</time>
      </trkpt>
      <trkpt lat="44.52684" lon="6.71696">
        <ele>1743</ele>
        <time>2022-03-10T14:30:59.000Z</time>
      </trkpt>
      <trkpt lat="44.52684" lon="6.71698">
        <ele>1743.1999511719</ele>
        <time>2022-03-10T14:31:00.000Z</time>
      </trkpt>
      <trkpt lat="44.52686" lon="6.71702">
        <ele>1743</ele>
        <time>2022-03-10T14:31:02.000Z</time>
      </trkpt>
      <trkpt lat="44.52686" lon="6.71708">
        <ele>1743.1999511719</ele>
        <time>2022-03-10T14:31:05.000Z</time>
      </trkpt>
      <trkpt lat="44.52687" lon="6.71715">
        <ele>1743.4000244141</ele>
        <time>2022-03-10T14:31:09.000Z</time>
      </trkpt>
      <trkpt lat="44.52688" lon="6.7172">
        <ele>1743.5999755859</ele>
        <time>2022-03-10T14:31:12.000Z</time>
      </trkpt>
      <trkpt lat="44.52691" lon="6.71723">
        <ele>1744</ele>
        <time>2022-03-10T14:31:17.000Z</time>
      </trkpt>
      <trkpt lat="44.52693" lon="6.71725">
        <ele>1744.4000244141</ele>
        <time>2022-03-10T14:31:21.000Z</time>
      </trkpt>
      <trkpt lat="44.52693" lon="6.71735">
        <ele>1744.8000488281</ele>
        <time>2022-03-10T14:31:28.000Z</time>
      </trkpt>
      <trkpt lat="44.52693" lon="6.71744">
        <ele>1744.1999511719</ele>
        <time>2022-03-10T14:31:33.000Z</time>
      </trkpt>
      <trkpt lat="44.52692" lon="6.71745">
        <ele>1744</ele>
        <time>2022-03-10T14:31:34.000Z</time>
      </trkpt>
      <trkpt lat="44.52692" lon="6.71746">
        <ele>1744</ele>
        <time>2022-03-10T14:31:35.000Z</time>
      </trkpt>
      <trkpt lat="44.5269" lon="6.71749">
        <ele>1743.8000488281</ele>
        <time>2022-03-10T14:31:40.000Z</time>
      </trkpt>
      <trkpt lat="44.52689" lon="6.71748">
        <ele>1743.8000488281</ele>
        <time>2022-03-10T14:31:45.000Z</time>
      </trkpt>
      <trkpt lat="44.52688" lon="6.71747">
        <ele>1743.8000488281</ele>
        <time>2022-03-10T14:31:46.000Z</time>
      </trkpt>
      <trkpt lat="44.52685" lon="6.71745">
        <ele>1743.8000488281</ele>
        <time>2022-03-10T14:31:56.000Z</time>
      </trkpt>
      <trkpt lat="44.52686" lon="6.71746">
        <ele>1743.5999755859</ele>
        <time>2022-03-10T14:32:03.000Z</time>
      </trkpt>
      <trkpt lat="44.52687" lon="6.71748">
        <ele>1743.1999511719</ele>
        <time>2022-03-10T14:32:12.000Z</time>
      </trkpt>
      <trkpt lat="44.52687" lon="6.71748">
        <ele>1743.1999511719</ele>
        <time>2022-03-10T14:32:14.000Z</time>
      </trkpt>
    </trkseg>
  </trk>
</gpx>